<?xml version="1.0" encoding="UTF-8" standalone="no" ?>
<gpx xmlns="http://www.topografix.com/GPX/1/1" xmlns:xsi="http://www.w3.org/2001/XMLSchema-instance" xsi:schemaLocation="http://www.topografix.com/GPX/1/1 http://www.topografix.com/GPX/1/1/gpx.xsd" version="1.1" creator="VisuGPX - https://www.visugpx.com">
  <metadata>
    <name>60 Kms VTT</name>
    <desc><![CDATA[parcours rando Septembre]]></desc>
  </metadata>
  <trk>
    <name><![CDATA[60 Kms VTT_1]]></name>
    <trkseg>
      <trkpt lat="47.01677" lon="-1.06681">
        <ele>107.5</ele>
        <time>2012-05-06T06:04:21Z</time>
      </trkpt>
      <trkpt lat="47.01677" lon="-1.06681">
        <ele>107.5</ele>
        <time>2012-05-06T06:04:32Z</time>
      </trkpt>
      <trkpt lat="47.01677" lon="-1.06681">
        <ele>107.5</ele>
        <time>2012-05-06T06:05:02Z</time>
      </trkpt>
      <trkpt lat="47.01677" lon="-1.06681">
        <ele>159.8</ele>
        <time>2012-05-06T06:05:06Z</time>
      </trkpt>
      <trkpt lat="47.01692" lon="-1.06684">
        <ele>160.1</ele>
        <time>2012-05-06T06:05:13Z</time>
      </trkpt>
      <trkpt lat="47.01697" lon="-1.06692">
        <ele>161.2</ele>
        <time>2012-05-06T06:05:19Z</time>
      </trkpt>
      <trkpt lat="47.01703" lon="-1.06696">
        <ele>161.3</ele>
        <time>2012-05-06T06:05:22Z</time>
      </trkpt>
      <trkpt lat="47.01709" lon="-1.06701">
        <ele>161.1</ele>
        <time>2012-05-06T06:05:26Z</time>
      </trkpt>
      <trkpt lat="47.01717" lon="-1.06705">
        <ele>161.3</ele>
        <time>2012-05-06T06:05:28Z</time>
      </trkpt>
      <trkpt lat="47.01725" lon="-1.06708">
        <ele>161.6</ele>
        <time>2012-05-06T06:05:31Z</time>
      </trkpt>
      <trkpt lat="47.01738" lon="-1.06711">
        <ele>161.4</ele>
        <time>2012-05-06T06:05:35Z</time>
      </trkpt>
      <trkpt lat="47.01761" lon="-1.06717">
        <ele>159.5</ele>
        <time>2012-05-06T06:05:41Z</time>
      </trkpt>
      <trkpt lat="47.01774" lon="-1.0672">
        <ele>159.2</ele>
        <time>2012-05-06T06:05:45Z</time>
      </trkpt>
      <trkpt lat="47.0179" lon="-1.0672">
        <ele>159</ele>
        <time>2012-05-06T06:05:50Z</time>
      </trkpt>
      <trkpt lat="47.01799" lon="-1.06718">
        <ele>159</ele>
        <time>2012-05-06T06:05:53Z</time>
      </trkpt>
      <trkpt lat="47.01807" lon="-1.06718">
        <ele>159.4</ele>
        <time>2012-05-06T06:05:57Z</time>
      </trkpt>
      <trkpt lat="47.01813" lon="-1.06722">
        <ele>159.7</ele>
        <time>2012-05-06T06:05:59Z</time>
      </trkpt>
      <trkpt lat="47.01814" lon="-1.06757">
        <ele>159.1</ele>
        <time>2012-05-06T06:06:07Z</time>
      </trkpt>
      <trkpt lat="47.01812" lon="-1.06782">
        <ele>158.6</ele>
        <time>2012-05-06T06:06:10Z</time>
      </trkpt>
      <trkpt lat="47.01812" lon="-1.06795">
        <ele>158.1</ele>
        <time>2012-05-06T06:06:12Z</time>
      </trkpt>
      <trkpt lat="47.01809" lon="-1.06836">
        <ele>157.2</ele>
        <time>2012-05-06T06:06:18Z</time>
      </trkpt>
      <trkpt lat="47.01808" lon="-1.06864">
        <ele>156.6</ele>
        <time>2012-05-06T06:06:22Z</time>
      </trkpt>
      <trkpt lat="47.01807" lon="-1.06894">
        <ele>156.2</ele>
        <time>2012-05-06T06:06:26Z</time>
      </trkpt>
      <trkpt lat="47.01806" lon="-1.06925">
        <ele>155.6</ele>
        <time>2012-05-06T06:06:30Z</time>
      </trkpt>
      <trkpt lat="47.01802" lon="-1.06987">
        <ele>154.6</ele>
        <time>2012-05-06T06:06:39Z</time>
      </trkpt>
      <trkpt lat="47.01801" lon="-1.07003">
        <ele>154.6</ele>
        <time>2012-05-06T06:06:40Z</time>
      </trkpt>
      <trkpt lat="47.018" lon="-1.07049">
        <ele>153.6</ele>
        <time>2012-05-06T06:06:46Z</time>
      </trkpt>
      <trkpt lat="47.01799" lon="-1.07081">
        <ele>153.1</ele>
        <time>2012-05-06T06:06:51Z</time>
      </trkpt>
      <trkpt lat="47.01798" lon="-1.07113">
        <ele>152.7</ele>
        <time>2012-05-06T06:06:54Z</time>
      </trkpt>
      <trkpt lat="47.01797" lon="-1.07143">
        <ele>152.3</ele>
        <time>2012-05-06T06:06:58Z</time>
      </trkpt>
      <trkpt lat="47.01796" lon="-1.07174">
        <ele>151.8</ele>
        <time>2012-05-06T06:07:03Z</time>
      </trkpt>
      <trkpt lat="47.01796" lon="-1.07202">
        <ele>151.5</ele>
        <time>2012-05-06T06:07:07Z</time>
      </trkpt>
      <trkpt lat="47.01818" lon="-1.07222">
        <ele>151.1</ele>
        <time>2012-05-06T06:07:14Z</time>
      </trkpt>
      <trkpt lat="47.01837" lon="-1.07214">
        <ele>151</ele>
        <time>2012-05-06T06:07:19Z</time>
      </trkpt>
      <trkpt lat="47.01855" lon="-1.07206">
        <ele>150.9</ele>
        <time>2012-05-06T06:07:23Z</time>
      </trkpt>
      <trkpt lat="47.01872" lon="-1.07198">
        <ele>150.8</ele>
        <time>2012-05-06T06:07:27Z</time>
      </trkpt>
      <trkpt lat="47.0189" lon="-1.07189">
        <ele>150.6</ele>
        <time>2012-05-06T06:07:31Z</time>
      </trkpt>
      <trkpt lat="47.01907" lon="-1.07179">
        <ele>150.3</ele>
        <time>2012-05-06T06:07:35Z</time>
      </trkpt>
      <trkpt lat="47.01923" lon="-1.07168">
        <ele>150</ele>
        <time>2012-05-06T06:07:39Z</time>
      </trkpt>
      <trkpt lat="47.01939" lon="-1.07156">
        <ele>150</ele>
        <time>2012-05-06T06:07:43Z</time>
      </trkpt>
      <trkpt lat="47.01956" lon="-1.07142">
        <ele>150.1</ele>
        <time>2012-05-06T06:07:47Z</time>
      </trkpt>
      <trkpt lat="47.01971" lon="-1.07127">
        <ele>150.2</ele>
        <time>2012-05-06T06:07:51Z</time>
      </trkpt>
      <trkpt lat="47.01987" lon="-1.07112">
        <ele>150.3</ele>
        <time>2012-05-06T06:07:55Z</time>
      </trkpt>
      <trkpt lat="47.02002" lon="-1.07096">
        <ele>150</ele>
        <time>2012-05-06T06:07:59Z</time>
      </trkpt>
      <trkpt lat="47.0203" lon="-1.0706">
        <ele>150</ele>
        <time>2012-05-06T06:08:07Z</time>
      </trkpt>
      <trkpt lat="47.02044" lon="-1.0704">
        <ele>150.1</ele>
        <time>2012-05-06T06:08:11Z</time>
      </trkpt>
      <trkpt lat="47.02057" lon="-1.0702">
        <ele>150.2</ele>
        <time>2012-05-06T06:08:15Z</time>
      </trkpt>
      <trkpt lat="47.02069" lon="-1.07">
        <ele>149.9</ele>
        <time>2012-05-06T06:08:19Z</time>
      </trkpt>
      <trkpt lat="47.02081" lon="-1.0698">
        <ele>149.7</ele>
        <time>2012-05-06T06:08:23Z</time>
      </trkpt>
      <trkpt lat="47.02092" lon="-1.06959">
        <ele>149.4</ele>
        <time>2012-05-06T06:08:27Z</time>
      </trkpt>
      <trkpt lat="47.02102" lon="-1.06937">
        <ele>149.3</ele>
        <time>2012-05-06T06:08:31Z</time>
      </trkpt>
      <trkpt lat="47.02111" lon="-1.06915">
        <ele>149.2</ele>
        <time>2012-05-06T06:08:35Z</time>
      </trkpt>
      <trkpt lat="47.0212" lon="-1.06892">
        <ele>149.3</ele>
        <time>2012-05-06T06:08:39Z</time>
      </trkpt>
      <trkpt lat="47.02129" lon="-1.06867">
        <ele>149.3</ele>
        <time>2012-05-06T06:08:43Z</time>
      </trkpt>
      <trkpt lat="47.02137" lon="-1.06843">
        <ele>149.3</ele>
        <time>2012-05-06T06:08:47Z</time>
      </trkpt>
      <trkpt lat="47.02144" lon="-1.06818">
        <ele>149.5</ele>
        <time>2012-05-06T06:08:51Z</time>
      </trkpt>
      <trkpt lat="47.0215" lon="-1.06792">
        <ele>149.7</ele>
        <time>2012-05-06T06:08:55Z</time>
      </trkpt>
      <trkpt lat="47.02156" lon="-1.06767">
        <ele>149.9</ele>
        <time>2012-05-06T06:08:59Z</time>
      </trkpt>
      <trkpt lat="47.02161" lon="-1.06741">
        <ele>150.1</ele>
        <time>2012-05-06T06:09:03Z</time>
      </trkpt>
      <trkpt lat="47.02165" lon="-1.06716">
        <ele>150.4</ele>
        <time>2012-05-06T06:09:07Z</time>
      </trkpt>
      <trkpt lat="47.02168" lon="-1.06691">
        <ele>150.6</ele>
        <time>2012-05-06T06:09:11Z</time>
      </trkpt>
      <trkpt lat="47.02171" lon="-1.06666">
        <ele>150.9</ele>
        <time>2012-05-06T06:09:15Z</time>
      </trkpt>
      <trkpt lat="47.02173" lon="-1.06642">
        <ele>151.2</ele>
        <time>2012-05-06T06:09:19Z</time>
      </trkpt>
      <trkpt lat="47.02174" lon="-1.06618">
        <ele>151.6</ele>
        <time>2012-05-06T06:09:23Z</time>
      </trkpt>
      <trkpt lat="47.02175" lon="-1.06606">
        <ele>151.7</ele>
        <time>2012-05-06T06:09:25Z</time>
      </trkpt>
      <trkpt lat="47.02175" lon="-1.06572">
        <ele>151.8</ele>
        <time>2012-05-06T06:09:31Z</time>
      </trkpt>
      <trkpt lat="47.02174" lon="-1.06548">
        <ele>152</ele>
        <time>2012-05-06T06:09:35Z</time>
      </trkpt>
      <trkpt lat="47.02173" lon="-1.06526">
        <ele>152.7</ele>
        <time>2012-05-06T06:09:39Z</time>
      </trkpt>
      <trkpt lat="47.0217" lon="-1.06483">
        <ele>153.9</ele>
        <time>2012-05-06T06:09:47Z</time>
      </trkpt>
      <trkpt lat="47.02168" lon="-1.06462">
        <ele>154.4</ele>
        <time>2012-05-06T06:09:51Z</time>
      </trkpt>
      <trkpt lat="47.02167" lon="-1.06442">
        <ele>154.7</ele>
        <time>2012-05-06T06:09:55Z</time>
      </trkpt>
      <trkpt lat="47.02163" lon="-1.064">
        <ele>155.6</ele>
        <time>2012-05-06T06:10:03Z</time>
      </trkpt>
      <trkpt lat="47.02162" lon="-1.06389">
        <ele>155.8</ele>
        <time>2012-05-06T06:10:05Z</time>
      </trkpt>
      <trkpt lat="47.02159" lon="-1.06357">
        <ele>156.9</ele>
        <time>2012-05-06T06:10:11Z</time>
      </trkpt>
      <trkpt lat="47.02158" lon="-1.06336">
        <ele>157.5</ele>
        <time>2012-05-06T06:10:15Z</time>
      </trkpt>
      <trkpt lat="47.02156" lon="-1.06316">
        <ele>158.1</ele>
        <time>2012-05-06T06:10:19Z</time>
      </trkpt>
      <trkpt lat="47.02154" lon="-1.06295">
        <ele>158.4</ele>
        <time>2012-05-06T06:10:23Z</time>
      </trkpt>
      <trkpt lat="47.02152" lon="-1.06275">
        <ele>158.7</ele>
        <time>2012-05-06T06:10:27Z</time>
      </trkpt>
      <trkpt lat="47.02151" lon="-1.06254">
        <ele>159.1</ele>
        <time>2012-05-06T06:10:31Z</time>
      </trkpt>
      <trkpt lat="47.02149" lon="-1.06234">
        <ele>159.6</ele>
        <time>2012-05-06T06:10:35Z</time>
      </trkpt>
      <trkpt lat="47.02148" lon="-1.06213">
        <ele>160.2</ele>
        <time>2012-05-06T06:10:39Z</time>
      </trkpt>
      <trkpt lat="47.02148" lon="-1.06192">
        <ele>160.7</ele>
        <time>2012-05-06T06:10:43Z</time>
      </trkpt>
      <trkpt lat="47.02148" lon="-1.06171">
        <ele>161.1</ele>
        <time>2012-05-06T06:10:47Z</time>
      </trkpt>
      <trkpt lat="47.02148" lon="-1.06161">
        <ele>161.4</ele>
        <time>2012-05-06T06:10:49Z</time>
      </trkpt>
      <trkpt lat="47.02149" lon="-1.0613">
        <ele>162.4</ele>
        <time>2012-05-06T06:10:55Z</time>
      </trkpt>
      <trkpt lat="47.0215" lon="-1.06109">
        <ele>162.9</ele>
        <time>2012-05-06T06:10:59Z</time>
      </trkpt>
      <trkpt lat="47.02152" lon="-1.06089">
        <ele>163.2</ele>
        <time>2012-05-06T06:11:03Z</time>
      </trkpt>
      <trkpt lat="47.02155" lon="-1.06068">
        <ele>163.6</ele>
        <time>2012-05-06T06:11:07Z</time>
      </trkpt>
      <trkpt lat="47.02157" lon="-1.06048">
        <ele>164.1</ele>
        <time>2012-05-06T06:11:11Z</time>
      </trkpt>
      <trkpt lat="47.0216" lon="-1.06028">
        <ele>164.7</ele>
        <time>2012-05-06T06:11:15Z</time>
      </trkpt>
      <trkpt lat="47.02162" lon="-1.06008">
        <ele>165.1</ele>
        <time>2012-05-06T06:11:19Z</time>
      </trkpt>
      <trkpt lat="47.02165" lon="-1.05989">
        <ele>165.8</ele>
        <time>2012-05-06T06:11:23Z</time>
      </trkpt>
      <trkpt lat="47.02167" lon="-1.05969">
        <ele>166.5</ele>
        <time>2012-05-06T06:11:27Z</time>
      </trkpt>
      <trkpt lat="47.0217" lon="-1.0595">
        <ele>167.2</ele>
        <time>2012-05-06T06:11:31Z</time>
      </trkpt>
      <trkpt lat="47.02172" lon="-1.0593">
        <ele>167.9</ele>
        <time>2012-05-06T06:11:35Z</time>
      </trkpt>
      <trkpt lat="47.02174" lon="-1.05911">
        <ele>168.5</ele>
        <time>2012-05-06T06:11:39Z</time>
      </trkpt>
      <trkpt lat="47.02177" lon="-1.05891">
        <ele>169.4</ele>
        <time>2012-05-06T06:11:43Z</time>
      </trkpt>
      <trkpt lat="47.02179" lon="-1.05872">
        <ele>170.4</ele>
        <time>2012-05-06T06:11:47Z</time>
      </trkpt>
      <trkpt lat="47.02181" lon="-1.05858">
        <ele>170.9</ele>
        <time>2012-05-06T06:11:50Z</time>
      </trkpt>
      <trkpt lat="47.02182" lon="-1.05847">
        <ele>171.6</ele>
        <time>2012-05-06T06:11:53Z</time>
      </trkpt>
      <trkpt lat="47.02182" lon="-1.05836">
        <ele>172.2</ele>
        <time>2012-05-06T06:11:57Z</time>
      </trkpt>
      <trkpt lat="47.0216" lon="-1.0583">
        <ele>174.3</ele>
        <time>2012-05-06T06:12:06Z</time>
      </trkpt>
      <trkpt lat="47.02146" lon="-1.05829">
        <ele>174.8</ele>
        <time>2012-05-06T06:12:10Z</time>
      </trkpt>
      <trkpt lat="47.0214" lon="-1.05829">
        <ele>175</ele>
        <time>2012-05-06T06:12:12Z</time>
      </trkpt>
      <trkpt lat="47.02117" lon="-1.05827">
        <ele>175.8</ele>
        <time>2012-05-06T06:12:19Z</time>
      </trkpt>
      <trkpt lat="47.02111" lon="-1.05826">
        <ele>175.7</ele>
        <time>2012-05-06T06:12:21Z</time>
      </trkpt>
      <trkpt lat="47.0209" lon="-1.05823">
        <ele>175.6</ele>
        <time>2012-05-06T06:12:27Z</time>
      </trkpt>
      <trkpt lat="47.02075" lon="-1.0582">
        <ele>176.5</ele>
        <time>2012-05-06T06:12:31Z</time>
      </trkpt>
      <trkpt lat="47.02059" lon="-1.05817">
        <ele>176.9</ele>
        <time>2012-05-06T06:12:35Z</time>
      </trkpt>
      <trkpt lat="47.02044" lon="-1.05815">
        <ele>177.4</ele>
        <time>2012-05-06T06:12:39Z</time>
      </trkpt>
      <trkpt lat="47.02029" lon="-1.05813">
        <ele>177.6</ele>
        <time>2012-05-06T06:12:43Z</time>
      </trkpt>
      <trkpt lat="47.02016" lon="-1.05811">
        <ele>177.8</ele>
        <time>2012-05-06T06:12:47Z</time>
      </trkpt>
      <trkpt lat="47.01999" lon="-1.05813">
        <ele>178.7</ele>
        <time>2012-05-06T06:12:53Z</time>
      </trkpt>
      <trkpt lat="47.01987" lon="-1.05837">
        <ele>180.2</ele>
        <time>2012-05-06T06:12:59Z</time>
      </trkpt>
      <trkpt lat="47.01978" lon="-1.05856">
        <ele>180.8</ele>
        <time>2012-05-06T06:13:03Z</time>
      </trkpt>
      <trkpt lat="47.01967" lon="-1.05871">
        <ele>180.1</ele>
        <time>2012-05-06T06:13:07Z</time>
      </trkpt>
      <trkpt lat="47.01957" lon="-1.05883">
        <ele>179.8</ele>
        <time>2012-05-06T06:13:11Z</time>
      </trkpt>
      <trkpt lat="47.01942" lon="-1.05887">
        <ele>180.7</ele>
        <time>2012-05-06T06:13:17Z</time>
      </trkpt>
      <trkpt lat="47.01921" lon="-1.05879">
        <ele>180.5</ele>
        <time>2012-05-06T06:13:26Z</time>
      </trkpt>
      <trkpt lat="47.01903" lon="-1.05886">
        <ele>180.7</ele>
        <time>2012-05-06T06:13:30Z</time>
      </trkpt>
      <trkpt lat="47.01882" lon="-1.05893">
        <ele>179.8</ele>
        <time>2012-05-06T06:13:34Z</time>
      </trkpt>
      <trkpt lat="47.01861" lon="-1.05901">
        <ele>179.1</ele>
        <time>2012-05-06T06:13:38Z</time>
      </trkpt>
      <trkpt lat="47.0184" lon="-1.05909">
        <ele>178.2</ele>
        <time>2012-05-06T06:13:42Z</time>
      </trkpt>
      <trkpt lat="47.01821" lon="-1.0592">
        <ele>176.8</ele>
        <time>2012-05-06T06:13:46Z</time>
      </trkpt>
      <trkpt lat="47.01805" lon="-1.05936">
        <ele>176.8</ele>
        <time>2012-05-06T06:13:50Z</time>
      </trkpt>
      <trkpt lat="47.01787" lon="-1.05946">
        <ele>176.6</ele>
        <time>2012-05-06T06:13:54Z</time>
      </trkpt>
      <trkpt lat="47.01769" lon="-1.05955">
        <ele>176.1</ele>
        <time>2012-05-06T06:13:58Z</time>
      </trkpt>
      <trkpt lat="47.01748" lon="-1.05939">
        <ele>177.4</ele>
        <time>2012-05-06T06:14:04Z</time>
      </trkpt>
      <trkpt lat="47.01736" lon="-1.05903">
        <ele>177.9</ele>
        <time>2012-05-06T06:14:10Z</time>
      </trkpt>
      <trkpt lat="47.01711" lon="-1.05948">
        <ele>177.3</ele>
        <time>2012-05-06T06:14:18Z</time>
      </trkpt>
      <trkpt lat="47.01693" lon="-1.05986">
        <ele>175.9</ele>
        <time>2012-05-06T06:14:23Z</time>
      </trkpt>
      <trkpt lat="47.01687" lon="-1.06002">
        <ele>175.5</ele>
        <time>2012-05-06T06:14:25Z</time>
      </trkpt>
      <trkpt lat="47.01684" lon="-1.06051">
        <ele>173.6</ele>
        <time>2012-05-06T06:14:31Z</time>
      </trkpt>
      <trkpt lat="47.01681" lon="-1.06081">
        <ele>172.7</ele>
        <time>2012-05-06T06:14:35Z</time>
      </trkpt>
      <trkpt lat="47.0167" lon="-1.06105">
        <ele>172</ele>
        <time>2012-05-06T06:14:39Z</time>
      </trkpt>
      <trkpt lat="47.01626" lon="-1.06095">
        <ele>175.3</ele>
        <time>2012-05-06T06:14:51Z</time>
      </trkpt>
      <trkpt lat="47.01617" lon="-1.06076">
        <ele>175.6</ele>
        <time>2012-05-06T06:14:55Z</time>
      </trkpt>
      <trkpt lat="47.01592" lon="-1.06083">
        <ele>174.9</ele>
        <time>2012-05-06T06:15:02Z</time>
      </trkpt>
      <trkpt lat="47.01578" lon="-1.06107">
        <ele>174.4</ele>
        <time>2012-05-06T06:15:06Z</time>
      </trkpt>
      <trkpt lat="47.01569" lon="-1.06132">
        <ele>173.8</ele>
        <time>2012-05-06T06:15:10Z</time>
      </trkpt>
      <trkpt lat="47.0156" lon="-1.06155">
        <ele>173.5</ele>
        <time>2012-05-06T06:15:14Z</time>
      </trkpt>
      <trkpt lat="47.01547" lon="-1.06167">
        <ele>173.6</ele>
        <time>2012-05-06T06:15:18Z</time>
      </trkpt>
      <trkpt lat="47.01539" lon="-1.06173">
        <ele>173.5</ele>
        <time>2012-05-06T06:15:20Z</time>
      </trkpt>
      <trkpt lat="47.01502" lon="-1.06178">
        <ele>173.8</ele>
        <time>2012-05-06T06:15:27Z</time>
      </trkpt>
      <trkpt lat="47.01479" lon="-1.06181">
        <ele>173.9</ele>
        <time>2012-05-06T06:15:31Z</time>
      </trkpt>
      <trkpt lat="47.01451" lon="-1.06188">
        <ele>173.1</ele>
        <time>2012-05-06T06:15:35Z</time>
      </trkpt>
      <trkpt lat="47.01424" lon="-1.06202">
        <ele>170.8</ele>
        <time>2012-05-06T06:15:39Z</time>
      </trkpt>
      <trkpt lat="47.01397" lon="-1.06222">
        <ele>168.4</ele>
        <time>2012-05-06T06:15:43Z</time>
      </trkpt>
      <trkpt lat="47.01372" lon="-1.06249">
        <ele>165.6</ele>
        <time>2012-05-06T06:15:47Z</time>
      </trkpt>
      <trkpt lat="47.01351" lon="-1.06279">
        <ele>162.3</ele>
        <time>2012-05-06T06:15:51Z</time>
      </trkpt>
      <trkpt lat="47.01331" lon="-1.0631">
        <ele>159.9</ele>
        <time>2012-05-06T06:15:55Z</time>
      </trkpt>
      <trkpt lat="47.01309" lon="-1.0634">
        <ele>157.5</ele>
        <time>2012-05-06T06:15:59Z</time>
      </trkpt>
      <trkpt lat="47.01287" lon="-1.06366">
        <ele>156.2</ele>
        <time>2012-05-06T06:16:03Z</time>
      </trkpt>
      <trkpt lat="47.01264" lon="-1.0638">
        <ele>154.8</ele>
        <time>2012-05-06T06:16:07Z</time>
      </trkpt>
      <trkpt lat="47.01248" lon="-1.06388">
        <ele>152.6</ele>
        <time>2012-05-06T06:16:11Z</time>
      </trkpt>
      <trkpt lat="47.01241" lon="-1.06403">
        <ele>149.1</ele>
        <time>2012-05-06T06:16:16Z</time>
      </trkpt>
      <trkpt lat="47.01253" lon="-1.06418">
        <ele>147.7</ele>
        <time>2012-05-06T06:16:22Z</time>
      </trkpt>
      <trkpt lat="47.01261" lon="-1.06427">
        <ele>146.4</ele>
        <time>2012-05-06T06:16:25Z</time>
      </trkpt>
      <trkpt lat="47.01273" lon="-1.06443">
        <ele>145</ele>
        <time>2012-05-06T06:16:29Z</time>
      </trkpt>
      <trkpt lat="47.01286" lon="-1.06458">
        <ele>144.2</ele>
        <time>2012-05-06T06:16:33Z</time>
      </trkpt>
      <trkpt lat="47.01298" lon="-1.06473">
        <ele>143.4</ele>
        <time>2012-05-06T06:16:37Z</time>
      </trkpt>
      <trkpt lat="47.01312" lon="-1.06489">
        <ele>142.1</ele>
        <time>2012-05-06T06:16:41Z</time>
      </trkpt>
      <trkpt lat="47.01327" lon="-1.06513">
        <ele>140.2</ele>
        <time>2012-05-06T06:16:45Z</time>
      </trkpt>
      <trkpt lat="47.01334" lon="-1.06528">
        <ele>139.6</ele>
        <time>2012-05-06T06:16:47Z</time>
      </trkpt>
      <trkpt lat="47.01349" lon="-1.06562">
        <ele>138.5</ele>
        <time>2012-05-06T06:16:53Z</time>
      </trkpt>
      <trkpt lat="47.01365" lon="-1.06564">
        <ele>137.1</ele>
        <time>2012-05-06T06:16:57Z</time>
      </trkpt>
      <trkpt lat="47.01374" lon="-1.06562">
        <ele>136.4</ele>
        <time>2012-05-06T06:16:59Z</time>
      </trkpt>
      <trkpt lat="47.01391" lon="-1.06563">
        <ele>135.5</ele>
        <time>2012-05-06T06:17:03Z</time>
      </trkpt>
      <trkpt lat="47.01391" lon="-1.06563">
        <ele>76.5</ele>
        <time>2012-05-06T06:17:15Z</time>
      </trkpt>
      <trkpt lat="47.01391" lon="-1.06563">
        <ele>76.5</ele>
        <time>2012-05-06T06:17:26Z</time>
      </trkpt>
      <trkpt lat="47.01403" lon="-1.06582">
        <ele>134.2</ele>
        <time>2012-05-06T06:17:29Z</time>
      </trkpt>
      <trkpt lat="47.0138" lon="-1.06593">
        <ele>133.7</ele>
        <time>2012-05-06T06:17:33Z</time>
      </trkpt>
      <trkpt lat="47.01368" lon="-1.06608">
        <ele>133.4</ele>
        <time>2012-05-06T06:17:37Z</time>
      </trkpt>
      <trkpt lat="47.01358" lon="-1.0663">
        <ele>132.4</ele>
        <time>2012-05-06T06:17:41Z</time>
      </trkpt>
      <trkpt lat="47.01356" lon="-1.06655">
        <ele>131.2</ele>
        <time>2012-05-06T06:17:45Z</time>
      </trkpt>
      <trkpt lat="47.01349" lon="-1.06677">
        <ele>130.2</ele>
        <time>2012-05-06T06:17:49Z</time>
      </trkpt>
      <trkpt lat="47.01343" lon="-1.06689">
        <ele>129.8</ele>
        <time>2012-05-06T06:17:51Z</time>
      </trkpt>
      <trkpt lat="47.01323" lon="-1.06754">
        <ele>126.9</ele>
        <time>2012-05-06T06:17:58Z</time>
      </trkpt>
      <trkpt lat="47.01314" lon="-1.06793">
        <ele>126.4</ele>
        <time>2012-05-06T06:18:01Z</time>
      </trkpt>
      <trkpt lat="47.01297" lon="-1.06859">
        <ele>125.5</ele>
        <time>2012-05-06T06:18:06Z</time>
      </trkpt>
      <trkpt lat="47.01287" lon="-1.069">
        <ele>124.1</ele>
        <time>2012-05-06T06:18:10Z</time>
      </trkpt>
      <trkpt lat="47.0128" lon="-1.06923">
        <ele>122.6</ele>
        <time>2012-05-06T06:18:13Z</time>
      </trkpt>
      <trkpt lat="47.01271" lon="-1.06947">
        <ele>120.9</ele>
        <time>2012-05-06T06:18:17Z</time>
      </trkpt>
      <trkpt lat="47.01259" lon="-1.0697">
        <ele>120.5</ele>
        <time>2012-05-06T06:18:21Z</time>
      </trkpt>
      <trkpt lat="47.01245" lon="-1.06993">
        <ele>120.1</ele>
        <time>2012-05-06T06:18:25Z</time>
      </trkpt>
      <trkpt lat="47.01231" lon="-1.07017">
        <ele>119.8</ele>
        <time>2012-05-06T06:18:29Z</time>
      </trkpt>
      <trkpt lat="47.01223" lon="-1.07046">
        <ele>118.8</ele>
        <time>2012-05-06T06:18:33Z</time>
      </trkpt>
      <trkpt lat="47.01214" lon="-1.07074">
        <ele>116.8</ele>
        <time>2012-05-06T06:18:37Z</time>
      </trkpt>
      <trkpt lat="47.01197" lon="-1.07099">
        <ele>116.3</ele>
        <time>2012-05-06T06:18:41Z</time>
      </trkpt>
      <trkpt lat="47.0118" lon="-1.07121">
        <ele>117.8</ele>
        <time>2012-05-06T06:18:45Z</time>
      </trkpt>
      <trkpt lat="47.01166" lon="-1.07145">
        <ele>117.7</ele>
        <time>2012-05-06T06:18:49Z</time>
      </trkpt>
      <trkpt lat="47.01152" lon="-1.07171">
        <ele>115.8</ele>
        <time>2012-05-06T06:18:53Z</time>
      </trkpt>
      <trkpt lat="47.01141" lon="-1.07195">
        <ele>115.2</ele>
        <time>2012-05-06T06:18:57Z</time>
      </trkpt>
      <trkpt lat="47.0113" lon="-1.07217">
        <ele>114.2</ele>
        <time>2012-05-06T06:19:01Z</time>
      </trkpt>
      <trkpt lat="47.01119" lon="-1.07237">
        <ele>113.8</ele>
        <time>2012-05-06T06:19:05Z</time>
      </trkpt>
      <trkpt lat="47.01105" lon="-1.07256">
        <ele>113.4</ele>
        <time>2012-05-06T06:19:09Z</time>
      </trkpt>
      <trkpt lat="47.01096" lon="-1.07276">
        <ele>113</ele>
        <time>2012-05-06T06:19:13Z</time>
      </trkpt>
      <trkpt lat="47.01097" lon="-1.073">
        <ele>112.8</ele>
        <time>2012-05-06T06:19:17Z</time>
      </trkpt>
      <trkpt lat="47.01102" lon="-1.07322">
        <ele>112.7</ele>
        <time>2012-05-06T06:19:21Z</time>
      </trkpt>
      <trkpt lat="47.01106" lon="-1.07343">
        <ele>112.4</ele>
        <time>2012-05-06T06:19:25Z</time>
      </trkpt>
      <trkpt lat="47.0111" lon="-1.07364">
        <ele>112.6</ele>
        <time>2012-05-06T06:19:29Z</time>
      </trkpt>
      <trkpt lat="47.01115" lon="-1.07384">
        <ele>113.2</ele>
        <time>2012-05-06T06:19:33Z</time>
      </trkpt>
      <trkpt lat="47.01119" lon="-1.07405">
        <ele>113.2</ele>
        <time>2012-05-06T06:19:37Z</time>
      </trkpt>
      <trkpt lat="47.01123" lon="-1.07425">
        <ele>113.7</ele>
        <time>2012-05-06T06:19:41Z</time>
      </trkpt>
      <trkpt lat="47.01127" lon="-1.07445">
        <ele>114.2</ele>
        <time>2012-05-06T06:19:45Z</time>
      </trkpt>
      <trkpt lat="47.01131" lon="-1.07465">
        <ele>114.9</ele>
        <time>2012-05-06T06:19:49Z</time>
      </trkpt>
      <trkpt lat="47.01144" lon="-1.07502">
        <ele>116.1</ele>
        <time>2012-05-06T06:19:57Z</time>
      </trkpt>
      <trkpt lat="47.01143" lon="-1.07525">
        <ele>116.2</ele>
        <time>2012-05-06T06:20:02Z</time>
      </trkpt>
      <trkpt lat="47.01143" lon="-1.07525">
        <ele>67.9</ele>
        <time>2012-05-06T06:20:13Z</time>
      </trkpt>
      <trkpt lat="47.01143" lon="-1.07525">
        <ele>67.9</ele>
        <time>2012-05-06T06:20:25Z</time>
      </trkpt>
      <trkpt lat="47.01143" lon="-1.07525">
        <ele>67.9</ele>
        <time>2012-05-06T06:20:36Z</time>
      </trkpt>
      <trkpt lat="47.01143" lon="-1.07525">
        <ele>67.9</ele>
        <time>2012-05-06T06:20:50Z</time>
      </trkpt>
      <trkpt lat="47.01138" lon="-1.07627">
        <ele>116.5</ele>
        <time>2012-05-06T06:20:52Z</time>
      </trkpt>
      <trkpt lat="47.0114" lon="-1.07649">
        <ele>115</ele>
        <time>2012-05-06T06:20:56Z</time>
      </trkpt>
      <trkpt lat="47.0114" lon="-1.07649">
        <ele>62.4</ele>
        <time>2012-05-06T06:21:07Z</time>
      </trkpt>
      <trkpt lat="47.0114" lon="-1.07649">
        <ele>62.4</ele>
        <time>2012-05-06T06:21:17Z</time>
      </trkpt>
      <trkpt lat="47.0114" lon="-1.07649">
        <ele>62.4</ele>
        <time>2012-05-06T06:21:28Z</time>
      </trkpt>
      <trkpt lat="47.0114" lon="-1.07649">
        <ele>62.4</ele>
        <time>2012-05-06T06:21:37Z</time>
      </trkpt>
      <trkpt lat="47.01162" lon="-1.07681">
        <ele>112.6</ele>
        <time>2012-05-06T06:21:41Z</time>
      </trkpt>
      <trkpt lat="47.0117" lon="-1.07698">
        <ele>111.6</ele>
        <time>2012-05-06T06:21:46Z</time>
      </trkpt>
      <trkpt lat="47.0117" lon="-1.07698">
        <ele>59.8</ele>
        <time>2012-05-06T06:21:57Z</time>
      </trkpt>
      <trkpt lat="47.0117" lon="-1.07698">
        <ele>59.8</ele>
        <time>2012-05-06T06:21:58Z</time>
      </trkpt>
      <trkpt lat="47.0117" lon="-1.07698">
        <ele>59.8</ele>
        <time>2012-05-06T06:22:09Z</time>
      </trkpt>
      <trkpt lat="47.0117" lon="-1.07698">
        <ele>59.8</ele>
        <time>2012-05-06T06:22:15Z</time>
      </trkpt>
      <trkpt lat="47.01152" lon="-1.07771">
        <ele>109.1</ele>
        <time>2012-05-06T06:22:17Z</time>
      </trkpt>
      <trkpt lat="47.01154" lon="-1.07796">
        <ele>107.8</ele>
        <time>2012-05-06T06:22:21Z</time>
      </trkpt>
      <trkpt lat="47.01159" lon="-1.07815">
        <ele>107.5</ele>
        <time>2012-05-06T06:22:25Z</time>
      </trkpt>
      <trkpt lat="47.01165" lon="-1.07837">
        <ele>106.9</ele>
        <time>2012-05-06T06:22:29Z</time>
      </trkpt>
      <trkpt lat="47.01174" lon="-1.07853">
        <ele>107</ele>
        <time>2012-05-06T06:22:33Z</time>
      </trkpt>
      <trkpt lat="47.01186" lon="-1.07865">
        <ele>107.1</ele>
        <time>2012-05-06T06:22:37Z</time>
      </trkpt>
      <trkpt lat="47.01199" lon="-1.07875">
        <ele>108.6</ele>
        <time>2012-05-06T06:22:41Z</time>
      </trkpt>
      <trkpt lat="47.01212" lon="-1.07885">
        <ele>108.9</ele>
        <time>2012-05-06T06:22:45Z</time>
      </trkpt>
      <trkpt lat="47.01219" lon="-1.07904">
        <ele>108.2</ele>
        <time>2012-05-06T06:22:50Z</time>
      </trkpt>
      <trkpt lat="47.01231" lon="-1.0793">
        <ele>107.6</ele>
        <time>2012-05-06T06:22:58Z</time>
      </trkpt>
      <trkpt lat="47.01235" lon="-1.07939">
        <ele>105.3</ele>
        <time>2012-05-06T06:23:02Z</time>
      </trkpt>
      <trkpt lat="47.01235" lon="-1.07939">
        <ele>53.8</ele>
        <time>2012-05-06T06:23:13Z</time>
      </trkpt>
      <trkpt lat="47.01235" lon="-1.07939">
        <ele>53.8</ele>
        <time>2012-05-06T06:23:25Z</time>
      </trkpt>
      <trkpt lat="47.01235" lon="-1.07939">
        <ele>53.8</ele>
        <time>2012-05-06T06:23:36Z</time>
      </trkpt>
      <trkpt lat="47.01235" lon="-1.07939">
        <ele>53.8</ele>
        <time>2012-05-06T06:23:44Z</time>
      </trkpt>
      <trkpt lat="47.01268" lon="-1.07994">
        <ele>108.2</ele>
        <time>2012-05-06T06:23:46Z</time>
      </trkpt>
      <trkpt lat="47.01279" lon="-1.08011">
        <ele>108.4</ele>
        <time>2012-05-06T06:23:50Z</time>
      </trkpt>
      <trkpt lat="47.01288" lon="-1.08027">
        <ele>109.1</ele>
        <time>2012-05-06T06:23:54Z</time>
      </trkpt>
      <trkpt lat="47.01292" lon="-1.08035">
        <ele>109.4</ele>
        <time>2012-05-06T06:23:56Z</time>
      </trkpt>
      <trkpt lat="47.01311" lon="-1.08061">
        <ele>109.6</ele>
        <time>2012-05-06T06:24:05Z</time>
      </trkpt>
      <trkpt lat="47.01316" lon="-1.08069">
        <ele>108.9</ele>
        <time>2012-05-06T06:24:08Z</time>
      </trkpt>
      <trkpt lat="47.0132" lon="-1.08076">
        <ele>108.9</ele>
        <time>2012-05-06T06:24:11Z</time>
      </trkpt>
      <trkpt lat="47.01331" lon="-1.08094">
        <ele>109.4</ele>
        <time>2012-05-06T06:24:17Z</time>
      </trkpt>
      <trkpt lat="47.01343" lon="-1.08113">
        <ele>110</ele>
        <time>2012-05-06T06:24:22Z</time>
      </trkpt>
      <trkpt lat="47.01343" lon="-1.08113">
        <ele>54.6</ele>
        <time>2012-05-06T06:24:33Z</time>
      </trkpt>
      <trkpt lat="47.01343" lon="-1.08113">
        <ele>54.6</ele>
        <time>2012-05-06T06:24:47Z</time>
      </trkpt>
      <trkpt lat="47.01358" lon="-1.08145">
        <ele>109.8</ele>
        <time>2012-05-06T06:24:52Z</time>
      </trkpt>
      <trkpt lat="47.01358" lon="-1.08145">
        <ele>54.6</ele>
        <time>2012-05-06T06:25:03Z</time>
      </trkpt>
      <trkpt lat="47.01358" lon="-1.08145">
        <ele>54.6</ele>
        <time>2012-05-06T06:25:12Z</time>
      </trkpt>
      <trkpt lat="47.0136" lon="-1.08242">
        <ele>106.1</ele>
        <time>2012-05-06T06:25:17Z</time>
      </trkpt>
      <trkpt lat="47.01354" lon="-1.08266">
        <ele>105.7</ele>
        <time>2012-05-06T06:25:21Z</time>
      </trkpt>
      <trkpt lat="47.01344" lon="-1.08291">
        <ele>106.5</ele>
        <time>2012-05-06T06:25:25Z</time>
      </trkpt>
      <trkpt lat="47.01331" lon="-1.08309">
        <ele>107.1</ele>
        <time>2012-05-06T06:25:29Z</time>
      </trkpt>
      <trkpt lat="47.01325" lon="-1.08317">
        <ele>107</ele>
        <time>2012-05-06T06:25:31Z</time>
      </trkpt>
      <trkpt lat="47.01319" lon="-1.08324">
        <ele>107.5</ele>
        <time>2012-05-06T06:25:34Z</time>
      </trkpt>
      <trkpt lat="47.01316" lon="-1.08333">
        <ele>108.5</ele>
        <time>2012-05-06T06:25:39Z</time>
      </trkpt>
      <trkpt lat="47.01306" lon="-1.0835">
        <ele>108.4</ele>
        <time>2012-05-06T06:25:45Z</time>
      </trkpt>
      <trkpt lat="47.01294" lon="-1.08358">
        <ele>108.5</ele>
        <time>2012-05-06T06:25:49Z</time>
      </trkpt>
      <trkpt lat="47.0128" lon="-1.08364">
        <ele>108.1</ele>
        <time>2012-05-06T06:25:53Z</time>
      </trkpt>
      <trkpt lat="47.01275" lon="-1.0837">
        <ele>107.2</ele>
        <time>2012-05-06T06:25:55Z</time>
      </trkpt>
      <trkpt lat="47.01269" lon="-1.08374">
        <ele>106.6</ele>
        <time>2012-05-06T06:25:58Z</time>
      </trkpt>
      <trkpt lat="47.01262" lon="-1.0837">
        <ele>106</ele>
        <time>2012-05-06T06:26:05Z</time>
      </trkpt>
      <trkpt lat="47.01255" lon="-1.08363">
        <ele>106</ele>
        <time>2012-05-06T06:26:13Z</time>
      </trkpt>
      <trkpt lat="47.0125" lon="-1.08354">
        <ele>106.2</ele>
        <time>2012-05-06T06:26:16Z</time>
      </trkpt>
      <trkpt lat="47.01246" lon="-1.08346">
        <ele>105.7</ele>
        <time>2012-05-06T06:26:19Z</time>
      </trkpt>
      <trkpt lat="47.01246" lon="-1.08346">
        <ele>50.5</ele>
        <time>2012-05-06T06:26:30Z</time>
      </trkpt>
      <trkpt lat="47.01246" lon="-1.08346">
        <ele>50.5</ele>
        <time>2012-05-06T06:26:43Z</time>
      </trkpt>
      <trkpt lat="47.01218" lon="-1.08308">
        <ele>103.2</ele>
        <time>2012-05-06T06:26:50Z</time>
      </trkpt>
      <trkpt lat="47.01212" lon="-1.08308">
        <ele>103.3</ele>
        <time>2012-05-06T06:26:53Z</time>
      </trkpt>
      <trkpt lat="47.01196" lon="-1.08308">
        <ele>103.6</ele>
        <time>2012-05-06T06:26:59Z</time>
      </trkpt>
      <trkpt lat="47.01181" lon="-1.08314">
        <ele>105.9</ele>
        <time>2012-05-06T06:27:05Z</time>
      </trkpt>
      <trkpt lat="47.01174" lon="-1.08319">
        <ele>106.3</ele>
        <time>2012-05-06T06:27:08Z</time>
      </trkpt>
      <trkpt lat="47.01161" lon="-1.08329">
        <ele>107.8</ele>
        <time>2012-05-06T06:27:14Z</time>
      </trkpt>
      <trkpt lat="47.01154" lon="-1.08336">
        <ele>108.1</ele>
        <time>2012-05-06T06:27:17Z</time>
      </trkpt>
      <trkpt lat="47.01148" lon="-1.08342">
        <ele>108.8</ele>
        <time>2012-05-06T06:27:20Z</time>
      </trkpt>
      <trkpt lat="47.01136" lon="-1.08358">
        <ele>110.3</ele>
        <time>2012-05-06T06:27:26Z</time>
      </trkpt>
      <trkpt lat="47.01129" lon="-1.08366">
        <ele>111</ele>
        <time>2012-05-06T06:27:29Z</time>
      </trkpt>
      <trkpt lat="47.01124" lon="-1.08374">
        <ele>112.2</ele>
        <time>2012-05-06T06:27:32Z</time>
      </trkpt>
      <trkpt lat="47.01109" lon="-1.08396">
        <ele>113.2</ele>
        <time>2012-05-06T06:27:41Z</time>
      </trkpt>
      <trkpt lat="47.01104" lon="-1.08403">
        <ele>113.4</ele>
        <time>2012-05-06T06:27:44Z</time>
      </trkpt>
      <trkpt lat="47.01098" lon="-1.08411">
        <ele>114</ele>
        <time>2012-05-06T06:27:47Z</time>
      </trkpt>
      <trkpt lat="47.01087" lon="-1.08429">
        <ele>115</ele>
        <time>2012-05-06T06:27:53Z</time>
      </trkpt>
      <trkpt lat="47.01081" lon="-1.08437">
        <ele>115</ele>
        <time>2012-05-06T06:27:56Z</time>
      </trkpt>
      <trkpt lat="47.01077" lon="-1.08421">
        <ele>116.1</ele>
        <time>2012-05-06T06:28:01Z</time>
      </trkpt>
      <trkpt lat="47.01075" lon="-1.08395">
        <ele>116.7</ele>
        <time>2012-05-06T06:28:05Z</time>
      </trkpt>
      <trkpt lat="47.01066" lon="-1.08346">
        <ele>116.5</ele>
        <time>2012-05-06T06:28:10Z</time>
      </trkpt>
      <trkpt lat="47.01056" lon="-1.08303">
        <ele>114.8</ele>
        <time>2012-05-06T06:28:14Z</time>
      </trkpt>
      <trkpt lat="47.01049" lon="-1.08262">
        <ele>112.9</ele>
        <time>2012-05-06T06:28:18Z</time>
      </trkpt>
      <trkpt lat="47.01046" lon="-1.08237">
        <ele>111.4</ele>
        <time>2012-05-06T06:28:21Z</time>
      </trkpt>
      <trkpt lat="47.01041" lon="-1.08217">
        <ele>111.4</ele>
        <time>2012-05-06T06:28:25Z</time>
      </trkpt>
      <trkpt lat="47.01041" lon="-1.08217">
        <ele>56.1</ele>
        <time>2012-05-06T06:28:36Z</time>
      </trkpt>
      <trkpt lat="47.01041" lon="-1.08217">
        <ele>56.1</ele>
        <time>2012-05-06T06:28:51Z</time>
      </trkpt>
      <trkpt lat="47.01007" lon="-1.0816">
        <ele>111.7</ele>
        <time>2012-05-06T06:28:53Z</time>
      </trkpt>
      <trkpt lat="47.0101" lon="-1.08142">
        <ele>111</ele>
        <time>2012-05-06T06:28:57Z</time>
      </trkpt>
      <trkpt lat="47.01015" lon="-1.08122">
        <ele>110</ele>
        <time>2012-05-06T06:29:01Z</time>
      </trkpt>
      <trkpt lat="47.01017" lon="-1.08103">
        <ele>110.2</ele>
        <time>2012-05-06T06:29:05Z</time>
      </trkpt>
      <trkpt lat="47.01018" lon="-1.08091">
        <ele>110.6</ele>
        <time>2012-05-06T06:29:08Z</time>
      </trkpt>
      <trkpt lat="47.0102" lon="-1.08081">
        <ele>110.6</ele>
        <time>2012-05-06T06:29:11Z</time>
      </trkpt>
      <trkpt lat="47.01019" lon="-1.08054">
        <ele>111.1</ele>
        <time>2012-05-06T06:29:17Z</time>
      </trkpt>
      <trkpt lat="47.0102" lon="-1.08042">
        <ele>111.9</ele>
        <time>2012-05-06T06:29:20Z</time>
      </trkpt>
      <trkpt lat="47.01018" lon="-1.0803">
        <ele>113</ele>
        <time>2012-05-06T06:29:23Z</time>
      </trkpt>
      <trkpt lat="47.01018" lon="-1.0803">
        <ele>63.5</ele>
        <time>2012-05-06T06:29:34Z</time>
      </trkpt>
      <trkpt lat="47.01018" lon="-1.0803">
        <ele>63.5</ele>
        <time>2012-05-06T06:29:35Z</time>
      </trkpt>
      <trkpt lat="47.01001" lon="-1.07979">
        <ele>115.3</ele>
        <time>2012-05-06T06:29:38Z</time>
      </trkpt>
      <trkpt lat="47.00996" lon="-1.07972">
        <ele>115.9</ele>
        <time>2012-05-06T06:29:41Z</time>
      </trkpt>
      <trkpt lat="47.00993" lon="-1.07962">
        <ele>116.1</ele>
        <time>2012-05-06T06:29:44Z</time>
      </trkpt>
      <trkpt lat="47.00991" lon="-1.07952">
        <ele>116.2</ele>
        <time>2012-05-06T06:29:47Z</time>
      </trkpt>
      <trkpt lat="47.00984" lon="-1.07937">
        <ele>116.9</ele>
        <time>2012-05-06T06:29:53Z</time>
      </trkpt>
      <trkpt lat="47.00977" lon="-1.07916">
        <ele>119.2</ele>
        <time>2012-05-06T06:30:01Z</time>
      </trkpt>
      <trkpt lat="47.00975" lon="-1.07907">
        <ele>119.9</ele>
        <time>2012-05-06T06:30:04Z</time>
      </trkpt>
      <trkpt lat="47.00969" lon="-1.07887">
        <ele>121.9</ele>
        <time>2012-05-06T06:30:10Z</time>
      </trkpt>
      <trkpt lat="47.00967" lon="-1.07877">
        <ele>122.8</ele>
        <time>2012-05-06T06:30:13Z</time>
      </trkpt>
      <trkpt lat="47.00963" lon="-1.07865">
        <ele>123.4</ele>
        <time>2012-05-06T06:30:16Z</time>
      </trkpt>
      <trkpt lat="47.00957" lon="-1.07843">
        <ele>125.1</ele>
        <time>2012-05-06T06:30:22Z</time>
      </trkpt>
      <trkpt lat="47.00953" lon="-1.07831">
        <ele>126.2</ele>
        <time>2012-05-06T06:30:25Z</time>
      </trkpt>
      <trkpt lat="47.00947" lon="-1.0781">
        <ele>127.7</ele>
        <time>2012-05-06T06:30:30Z</time>
      </trkpt>
      <trkpt lat="47.00942" lon="-1.07792">
        <ele>128.3</ele>
        <time>2012-05-06T06:30:34Z</time>
      </trkpt>
      <trkpt lat="47.00937" lon="-1.07774">
        <ele>129.7</ele>
        <time>2012-05-06T06:30:38Z</time>
      </trkpt>
      <trkpt lat="47.00935" lon="-1.07766">
        <ele>130.3</ele>
        <time>2012-05-06T06:30:40Z</time>
      </trkpt>
      <trkpt lat="47.00928" lon="-1.07746">
        <ele>132.2</ele>
        <time>2012-05-06T06:30:45Z</time>
      </trkpt>
      <trkpt lat="47.00923" lon="-1.07739">
        <ele>132.6</ele>
        <time>2012-05-06T06:30:47Z</time>
      </trkpt>
      <trkpt lat="47.00906" lon="-1.07723">
        <ele>133.3</ele>
        <time>2012-05-06T06:30:53Z</time>
      </trkpt>
      <trkpt lat="47.00889" lon="-1.07686">
        <ele>134.4</ele>
        <time>2012-05-06T06:31:01Z</time>
      </trkpt>
      <trkpt lat="47.00885" lon="-1.07674">
        <ele>135</ele>
        <time>2012-05-06T06:31:03Z</time>
      </trkpt>
      <trkpt lat="47.00845" lon="-1.07621">
        <ele>137.1</ele>
        <time>2012-05-06T06:31:13Z</time>
      </trkpt>
      <trkpt lat="47.00831" lon="-1.07612">
        <ele>136.7</ele>
        <time>2012-05-06T06:31:17Z</time>
      </trkpt>
      <trkpt lat="47.0082" lon="-1.07598">
        <ele>137.8</ele>
        <time>2012-05-06T06:31:21Z</time>
      </trkpt>
      <trkpt lat="47.00811" lon="-1.07577">
        <ele>138.3</ele>
        <time>2012-05-06T06:31:25Z</time>
      </trkpt>
      <trkpt lat="47.00805" lon="-1.07556">
        <ele>138.5</ele>
        <time>2012-05-06T06:31:29Z</time>
      </trkpt>
      <trkpt lat="47.00797" lon="-1.07535">
        <ele>139</ele>
        <time>2012-05-06T06:31:33Z</time>
      </trkpt>
      <trkpt lat="47.00789" lon="-1.07514">
        <ele>140.2</ele>
        <time>2012-05-06T06:31:37Z</time>
      </trkpt>
      <trkpt lat="47.0078" lon="-1.07495">
        <ele>140.5</ele>
        <time>2012-05-06T06:31:41Z</time>
      </trkpt>
      <trkpt lat="47.0077" lon="-1.07471">
        <ele>141.1</ele>
        <time>2012-05-06T06:31:45Z</time>
      </trkpt>
      <trkpt lat="47.00763" lon="-1.07447">
        <ele>141.5</ele>
        <time>2012-05-06T06:31:49Z</time>
      </trkpt>
      <trkpt lat="47.0076" lon="-1.07436">
        <ele>142.1</ele>
        <time>2012-05-06T06:31:51Z</time>
      </trkpt>
      <trkpt lat="47.00748" lon="-1.07402">
        <ele>142.5</ele>
        <time>2012-05-06T06:31:57Z</time>
      </trkpt>
      <trkpt lat="47.00733" lon="-1.07367">
        <ele>142</ele>
        <time>2012-05-06T06:32:02Z</time>
      </trkpt>
      <trkpt lat="47.00725" lon="-1.07343">
        <ele>141.4</ele>
        <time>2012-05-06T06:32:05Z</time>
      </trkpt>
      <trkpt lat="47.00709" lon="-1.07303">
        <ele>140.7</ele>
        <time>2012-05-06T06:32:10Z</time>
      </trkpt>
      <trkpt lat="47.00697" lon="-1.07271">
        <ele>140.4</ele>
        <time>2012-05-06T06:32:14Z</time>
      </trkpt>
      <trkpt lat="47.00691" lon="-1.07244">
        <ele>140</ele>
        <time>2012-05-06T06:32:18Z</time>
      </trkpt>
      <trkpt lat="47.00685" lon="-1.07216">
        <ele>140</ele>
        <time>2012-05-06T06:32:22Z</time>
      </trkpt>
      <trkpt lat="47.00681" lon="-1.07191">
        <ele>139.9</ele>
        <time>2012-05-06T06:32:26Z</time>
      </trkpt>
      <trkpt lat="47.00677" lon="-1.0717">
        <ele>140.6</ele>
        <time>2012-05-06T06:32:30Z</time>
      </trkpt>
      <trkpt lat="47.00672" lon="-1.07147">
        <ele>140.8</ele>
        <time>2012-05-06T06:32:34Z</time>
      </trkpt>
      <trkpt lat="47.00669" lon="-1.07121">
        <ele>141.9</ele>
        <time>2012-05-06T06:32:38Z</time>
      </trkpt>
      <trkpt lat="47.00667" lon="-1.07092">
        <ele>141.8</ele>
        <time>2012-05-06T06:32:42Z</time>
      </trkpt>
      <trkpt lat="47.00666" lon="-1.07064">
        <ele>142.5</ele>
        <time>2012-05-06T06:32:46Z</time>
      </trkpt>
      <trkpt lat="47.00666" lon="-1.07033">
        <ele>142.1</ele>
        <time>2012-05-06T06:32:50Z</time>
      </trkpt>
      <trkpt lat="47.00663" lon="-1.07005">
        <ele>142.2</ele>
        <time>2012-05-06T06:32:54Z</time>
      </trkpt>
      <trkpt lat="47.00649" lon="-1.07004">
        <ele>142.8</ele>
        <time>2012-05-06T06:33:01Z</time>
      </trkpt>
      <trkpt lat="47.00639" lon="-1.07025">
        <ele>143.5</ele>
        <time>2012-05-06T06:33:05Z</time>
      </trkpt>
      <trkpt lat="47.00625" lon="-1.07044">
        <ele>143.3</ele>
        <time>2012-05-06T06:33:09Z</time>
      </trkpt>
      <trkpt lat="47.0061" lon="-1.07063">
        <ele>143.1</ele>
        <time>2012-05-06T06:33:13Z</time>
      </trkpt>
      <trkpt lat="47.00593" lon="-1.07082">
        <ele>143.3</ele>
        <time>2012-05-06T06:33:17Z</time>
      </trkpt>
      <trkpt lat="47.00574" lon="-1.07103">
        <ele>141.6</ele>
        <time>2012-05-06T06:33:21Z</time>
      </trkpt>
      <trkpt lat="47.00564" lon="-1.07114">
        <ele>141</ele>
        <time>2012-05-06T06:33:23Z</time>
      </trkpt>
      <trkpt lat="47.00529" lon="-1.07153">
        <ele>139.3</ele>
        <time>2012-05-06T06:33:30Z</time>
      </trkpt>
      <trkpt lat="47.00507" lon="-1.07178">
        <ele>137.8</ele>
        <time>2012-05-06T06:33:34Z</time>
      </trkpt>
      <trkpt lat="47.00485" lon="-1.07203">
        <ele>137.2</ele>
        <time>2012-05-06T06:33:38Z</time>
      </trkpt>
      <trkpt lat="47.00462" lon="-1.07229">
        <ele>135.8</ele>
        <time>2012-05-06T06:33:42Z</time>
      </trkpt>
      <trkpt lat="47.00438" lon="-1.07255">
        <ele>134.3</ele>
        <time>2012-05-06T06:33:46Z</time>
      </trkpt>
      <trkpt lat="47.00409" lon="-1.07265">
        <ele>133</ele>
        <time>2012-05-06T06:33:50Z</time>
      </trkpt>
      <trkpt lat="47.0038" lon="-1.07268">
        <ele>132.5</ele>
        <time>2012-05-06T06:33:54Z</time>
      </trkpt>
      <trkpt lat="47.00353" lon="-1.0727">
        <ele>132.2</ele>
        <time>2012-05-06T06:33:58Z</time>
      </trkpt>
      <trkpt lat="47.00328" lon="-1.07272">
        <ele>132.5</ele>
        <time>2012-05-06T06:34:02Z</time>
      </trkpt>
      <trkpt lat="47.00304" lon="-1.07274">
        <ele>132.5</ele>
        <time>2012-05-06T06:34:06Z</time>
      </trkpt>
      <trkpt lat="47.0028" lon="-1.07276">
        <ele>132.8</ele>
        <time>2012-05-06T06:34:10Z</time>
      </trkpt>
      <trkpt lat="47.00257" lon="-1.0728">
        <ele>132.9</ele>
        <time>2012-05-06T06:34:14Z</time>
      </trkpt>
      <trkpt lat="47.00235" lon="-1.07288">
        <ele>133.3</ele>
        <time>2012-05-06T06:34:18Z</time>
      </trkpt>
      <trkpt lat="47.00212" lon="-1.07297">
        <ele>133.1</ele>
        <time>2012-05-06T06:34:22Z</time>
      </trkpt>
      <trkpt lat="47.00188" lon="-1.07307">
        <ele>132.4</ele>
        <time>2012-05-06T06:34:26Z</time>
      </trkpt>
      <trkpt lat="47.00133" lon="-1.07328">
        <ele>130.8</ele>
        <time>2012-05-06T06:34:30Z</time>
      </trkpt>
      <trkpt lat="47.00106" lon="-1.07339">
        <ele>130.1</ele>
        <time>2012-05-06T06:34:34Z</time>
      </trkpt>
      <trkpt lat="47.0008" lon="-1.07352">
        <ele>128.9</ele>
        <time>2012-05-06T06:34:38Z</time>
      </trkpt>
      <trkpt lat="47.00054" lon="-1.07368">
        <ele>127.2</ele>
        <time>2012-05-06T06:34:42Z</time>
      </trkpt>
      <trkpt lat="47.00029" lon="-1.07385">
        <ele>122.9</ele>
        <time>2012-05-06T06:34:46Z</time>
      </trkpt>
      <trkpt lat="47.00004" lon="-1.07404">
        <ele>120.4</ele>
        <time>2012-05-06T06:34:50Z</time>
      </trkpt>
      <trkpt lat="46.99981" lon="-1.07422">
        <ele>116.9</ele>
        <time>2012-05-06T06:34:54Z</time>
      </trkpt>
      <trkpt lat="46.99958" lon="-1.07438">
        <ele>114</ele>
        <time>2012-05-06T06:34:58Z</time>
      </trkpt>
      <trkpt lat="46.99915" lon="-1.0743">
        <ele>114.3</ele>
        <time>2012-05-06T06:35:05Z</time>
      </trkpt>
      <trkpt lat="46.99898" lon="-1.07418">
        <ele>115.5</ele>
        <time>2012-05-06T06:35:09Z</time>
      </trkpt>
      <trkpt lat="46.99891" lon="-1.07402">
        <ele>117</ele>
        <time>2012-05-06T06:35:14Z</time>
      </trkpt>
      <trkpt lat="46.999" lon="-1.07379">
        <ele>118.5</ele>
        <time>2012-05-06T06:35:18Z</time>
      </trkpt>
      <trkpt lat="46.99908" lon="-1.07356">
        <ele>119.3</ele>
        <time>2012-05-06T06:35:22Z</time>
      </trkpt>
      <trkpt lat="46.99913" lon="-1.07332">
        <ele>119.2</ele>
        <time>2012-05-06T06:35:26Z</time>
      </trkpt>
      <trkpt lat="46.99916" lon="-1.0731">
        <ele>118.7</ele>
        <time>2012-05-06T06:35:30Z</time>
      </trkpt>
      <trkpt lat="46.99917" lon="-1.07287">
        <ele>119.8</ele>
        <time>2012-05-06T06:35:34Z</time>
      </trkpt>
      <trkpt lat="46.99916" lon="-1.07275">
        <ele>120.4</ele>
        <time>2012-05-06T06:35:36Z</time>
      </trkpt>
      <trkpt lat="46.99913" lon="-1.07238">
        <ele>121.2</ele>
        <time>2012-05-06T06:35:42Z</time>
      </trkpt>
      <trkpt lat="46.99912" lon="-1.07213">
        <ele>122.5</ele>
        <time>2012-05-06T06:35:46Z</time>
      </trkpt>
      <trkpt lat="46.9991" lon="-1.07189">
        <ele>122.8</ele>
        <time>2012-05-06T06:35:50Z</time>
      </trkpt>
      <trkpt lat="46.99909" lon="-1.07177">
        <ele>123.4</ele>
        <time>2012-05-06T06:35:52Z</time>
      </trkpt>
      <trkpt lat="46.99907" lon="-1.0714">
        <ele>124.9</ele>
        <time>2012-05-06T06:35:58Z</time>
      </trkpt>
      <trkpt lat="46.99905" lon="-1.07117">
        <ele>126.1</ele>
        <time>2012-05-06T06:36:02Z</time>
      </trkpt>
      <trkpt lat="46.99901" lon="-1.07096">
        <ele>127.4</ele>
        <time>2012-05-06T06:36:06Z</time>
      </trkpt>
      <trkpt lat="46.99896" lon="-1.07076">
        <ele>128.2</ele>
        <time>2012-05-06T06:36:10Z</time>
      </trkpt>
      <trkpt lat="46.99887" lon="-1.07057">
        <ele>128.7</ele>
        <time>2012-05-06T06:36:14Z</time>
      </trkpt>
      <trkpt lat="46.99875" lon="-1.07042">
        <ele>129.6</ele>
        <time>2012-05-06T06:36:18Z</time>
      </trkpt>
      <trkpt lat="46.9986" lon="-1.07033">
        <ele>130.3</ele>
        <time>2012-05-06T06:36:22Z</time>
      </trkpt>
      <trkpt lat="46.99843" lon="-1.07027">
        <ele>131.1</ele>
        <time>2012-05-06T06:36:26Z</time>
      </trkpt>
      <trkpt lat="46.99826" lon="-1.07022">
        <ele>132.3</ele>
        <time>2012-05-06T06:36:30Z</time>
      </trkpt>
      <trkpt lat="46.9981" lon="-1.07017">
        <ele>132.9</ele>
        <time>2012-05-06T06:36:34Z</time>
      </trkpt>
      <trkpt lat="46.99795" lon="-1.07012">
        <ele>133.7</ele>
        <time>2012-05-06T06:36:38Z</time>
      </trkpt>
      <trkpt lat="46.99779" lon="-1.07004">
        <ele>134.5</ele>
        <time>2012-05-06T06:36:42Z</time>
      </trkpt>
      <trkpt lat="46.99765" lon="-1.06991">
        <ele>134.7</ele>
        <time>2012-05-06T06:36:46Z</time>
      </trkpt>
      <trkpt lat="46.99756" lon="-1.0697">
        <ele>135.6</ele>
        <time>2012-05-06T06:36:50Z</time>
      </trkpt>
      <trkpt lat="46.99753" lon="-1.06944">
        <ele>136.2</ele>
        <time>2012-05-06T06:36:54Z</time>
      </trkpt>
      <trkpt lat="46.99753" lon="-1.06916">
        <ele>135.9</ele>
        <time>2012-05-06T06:36:58Z</time>
      </trkpt>
      <trkpt lat="46.99754" lon="-1.0689">
        <ele>136.1</ele>
        <time>2012-05-06T06:37:02Z</time>
      </trkpt>
      <trkpt lat="46.9976" lon="-1.06867">
        <ele>136.6</ele>
        <time>2012-05-06T06:37:06Z</time>
      </trkpt>
      <trkpt lat="46.99767" lon="-1.06861">
        <ele>137.5</ele>
        <time>2012-05-06T06:37:08Z</time>
      </trkpt>
      <trkpt lat="46.99792" lon="-1.06869">
        <ele>138.6</ele>
        <time>2012-05-06T06:37:14Z</time>
      </trkpt>
      <trkpt lat="46.99809" lon="-1.06876">
        <ele>139.2</ele>
        <time>2012-05-06T06:37:18Z</time>
      </trkpt>
      <trkpt lat="46.99826" lon="-1.06884">
        <ele>139.6</ele>
        <time>2012-05-06T06:37:22Z</time>
      </trkpt>
      <trkpt lat="46.99836" lon="-1.06885">
        <ele>139.3</ele>
        <time>2012-05-06T06:37:24Z</time>
      </trkpt>
      <trkpt lat="46.99862" lon="-1.0686">
        <ele>138.7</ele>
        <time>2012-05-06T06:37:30Z</time>
      </trkpt>
      <trkpt lat="46.9987" lon="-1.06853">
        <ele>138.7</ele>
        <time>2012-05-06T06:37:32Z</time>
      </trkpt>
      <trkpt lat="46.99881" lon="-1.06836">
        <ele>138.7</ele>
        <time>2012-05-06T06:37:37Z</time>
      </trkpt>
      <trkpt lat="46.99884" lon="-1.06827">
        <ele>138.7</ele>
        <time>2012-05-06T06:37:39Z</time>
      </trkpt>
      <trkpt lat="46.99886" lon="-1.06792">
        <ele>139.2</ele>
        <time>2012-05-06T06:37:45Z</time>
      </trkpt>
      <trkpt lat="46.99887" lon="-1.06769">
        <ele>139.9</ele>
        <time>2012-05-06T06:37:49Z</time>
      </trkpt>
      <trkpt lat="46.9989" lon="-1.06743">
        <ele>140.6</ele>
        <time>2012-05-06T06:37:53Z</time>
      </trkpt>
      <trkpt lat="46.99893" lon="-1.06716">
        <ele>141.3</ele>
        <time>2012-05-06T06:37:57Z</time>
      </trkpt>
      <trkpt lat="46.99899" lon="-1.0669">
        <ele>141.4</ele>
        <time>2012-05-06T06:38:01Z</time>
      </trkpt>
      <trkpt lat="46.99909" lon="-1.06666">
        <ele>142.1</ele>
        <time>2012-05-06T06:38:05Z</time>
      </trkpt>
      <trkpt lat="46.99919" lon="-1.06643">
        <ele>142.5</ele>
        <time>2012-05-06T06:38:09Z</time>
      </trkpt>
      <trkpt lat="46.99932" lon="-1.06622">
        <ele>142.8</ele>
        <time>2012-05-06T06:38:13Z</time>
      </trkpt>
      <trkpt lat="46.99945" lon="-1.06603">
        <ele>143.1</ele>
        <time>2012-05-06T06:38:17Z</time>
      </trkpt>
      <trkpt lat="46.99958" lon="-1.06584">
        <ele>143.5</ele>
        <time>2012-05-06T06:38:21Z</time>
      </trkpt>
      <trkpt lat="46.9997" lon="-1.06563">
        <ele>144</ele>
        <time>2012-05-06T06:38:25Z</time>
      </trkpt>
      <trkpt lat="46.99978" lon="-1.06539">
        <ele>144.2</ele>
        <time>2012-05-06T06:38:29Z</time>
      </trkpt>
      <trkpt lat="46.99984" lon="-1.06513">
        <ele>144.3</ele>
        <time>2012-05-06T06:38:33Z</time>
      </trkpt>
      <trkpt lat="46.9999" lon="-1.06488">
        <ele>144.1</ele>
        <time>2012-05-06T06:38:37Z</time>
      </trkpt>
      <trkpt lat="46.99997" lon="-1.06465">
        <ele>144.3</ele>
        <time>2012-05-06T06:38:41Z</time>
      </trkpt>
      <trkpt lat="47.00001" lon="-1.06446">
        <ele>144.6</ele>
        <time>2012-05-06T06:38:45Z</time>
      </trkpt>
      <trkpt lat="47.00005" lon="-1.06422">
        <ele>144.5</ele>
        <time>2012-05-06T06:38:49Z</time>
      </trkpt>
      <trkpt lat="47.00005" lon="-1.06395">
        <ele>144.9</ele>
        <time>2012-05-06T06:38:53Z</time>
      </trkpt>
      <trkpt lat="47.00001" lon="-1.06343">
        <ele>146.5</ele>
        <time>2012-05-06T06:39:01Z</time>
      </trkpt>
      <trkpt lat="46.99996" lon="-1.06318">
        <ele>146.9</ele>
        <time>2012-05-06T06:39:05Z</time>
      </trkpt>
      <trkpt lat="46.99992" lon="-1.06295">
        <ele>147.6</ele>
        <time>2012-05-06T06:39:09Z</time>
      </trkpt>
      <trkpt lat="46.99988" lon="-1.06284">
        <ele>147.8</ele>
        <time>2012-05-06T06:39:11Z</time>
      </trkpt>
      <trkpt lat="46.99973" lon="-1.06253">
        <ele>147.6</ele>
        <time>2012-05-06T06:39:17Z</time>
      </trkpt>
      <trkpt lat="46.99961" lon="-1.06233">
        <ele>147.6</ele>
        <time>2012-05-06T06:39:21Z</time>
      </trkpt>
      <trkpt lat="46.99951" lon="-1.06211">
        <ele>148.4</ele>
        <time>2012-05-06T06:39:25Z</time>
      </trkpt>
      <trkpt lat="46.99942" lon="-1.06191">
        <ele>148.8</ele>
        <time>2012-05-06T06:39:29Z</time>
      </trkpt>
      <trkpt lat="46.99933" lon="-1.0617">
        <ele>149.7</ele>
        <time>2012-05-06T06:39:33Z</time>
      </trkpt>
      <trkpt lat="46.9993" lon="-1.06159">
        <ele>150</ele>
        <time>2012-05-06T06:39:35Z</time>
      </trkpt>
      <trkpt lat="46.99918" lon="-1.06124">
        <ele>151.3</ele>
        <time>2012-05-06T06:39:41Z</time>
      </trkpt>
      <trkpt lat="46.99908" lon="-1.06104">
        <ele>152.8</ele>
        <time>2012-05-06T06:39:45Z</time>
      </trkpt>
      <trkpt lat="46.99895" lon="-1.06085">
        <ele>153.9</ele>
        <time>2012-05-06T06:39:49Z</time>
      </trkpt>
      <trkpt lat="46.99881" lon="-1.06068">
        <ele>154.8</ele>
        <time>2012-05-06T06:39:53Z</time>
      </trkpt>
      <trkpt lat="46.99869" lon="-1.06047">
        <ele>155.5</ele>
        <time>2012-05-06T06:39:57Z</time>
      </trkpt>
      <trkpt lat="46.99858" lon="-1.06021">
        <ele>156</ele>
        <time>2012-05-06T06:40:01Z</time>
      </trkpt>
      <trkpt lat="46.99848" lon="-1.05994">
        <ele>156.8</ele>
        <time>2012-05-06T06:40:05Z</time>
      </trkpt>
      <trkpt lat="46.99839" lon="-1.05967">
        <ele>157.6</ele>
        <time>2012-05-06T06:40:09Z</time>
      </trkpt>
      <trkpt lat="46.99829" lon="-1.0594">
        <ele>159.2</ele>
        <time>2012-05-06T06:40:13Z</time>
      </trkpt>
      <trkpt lat="46.99817" lon="-1.05914">
        <ele>160.6</ele>
        <time>2012-05-06T06:40:17Z</time>
      </trkpt>
      <trkpt lat="46.99806" lon="-1.05886">
        <ele>161</ele>
        <time>2012-05-06T06:40:21Z</time>
      </trkpt>
      <trkpt lat="46.99801" lon="-1.05872">
        <ele>161.5</ele>
        <time>2012-05-06T06:40:23Z</time>
      </trkpt>
      <trkpt lat="46.99785" lon="-1.0583">
        <ele>162</ele>
        <time>2012-05-06T06:40:29Z</time>
      </trkpt>
      <trkpt lat="46.99774" lon="-1.05802">
        <ele>162.3</ele>
        <time>2012-05-06T06:40:33Z</time>
      </trkpt>
      <trkpt lat="46.99763" lon="-1.05774">
        <ele>162.5</ele>
        <time>2012-05-06T06:40:37Z</time>
      </trkpt>
      <trkpt lat="46.99749" lon="-1.0575">
        <ele>162.7</ele>
        <time>2012-05-06T06:40:41Z</time>
      </trkpt>
      <trkpt lat="46.99744" lon="-1.05738">
        <ele>162.9</ele>
        <time>2012-05-06T06:40:43Z</time>
      </trkpt>
      <trkpt lat="46.99753" lon="-1.05691">
        <ele>162.2</ele>
        <time>2012-05-06T06:40:49Z</time>
      </trkpt>
      <trkpt lat="46.99761" lon="-1.05659">
        <ele>161.8</ele>
        <time>2012-05-06T06:40:53Z</time>
      </trkpt>
      <trkpt lat="46.99771" lon="-1.05627">
        <ele>161.8</ele>
        <time>2012-05-06T06:40:57Z</time>
      </trkpt>
      <trkpt lat="46.99792" lon="-1.05554">
        <ele>161.6</ele>
        <time>2012-05-06T06:41:06Z</time>
      </trkpt>
      <trkpt lat="46.99798" lon="-1.05524">
        <ele>161.5</ele>
        <time>2012-05-06T06:41:10Z</time>
      </trkpt>
      <trkpt lat="46.99803" lon="-1.05493">
        <ele>161.9</ele>
        <time>2012-05-06T06:41:14Z</time>
      </trkpt>
      <trkpt lat="46.99809" lon="-1.05463">
        <ele>161.8</ele>
        <time>2012-05-06T06:41:18Z</time>
      </trkpt>
      <trkpt lat="46.99813" lon="-1.05431">
        <ele>160.5</ele>
        <time>2012-05-06T06:41:22Z</time>
      </trkpt>
      <trkpt lat="46.99812" lon="-1.05398">
        <ele>161.1</ele>
        <time>2012-05-06T06:41:26Z</time>
      </trkpt>
      <trkpt lat="46.99811" lon="-1.05366">
        <ele>161.9</ele>
        <time>2012-05-06T06:41:30Z</time>
      </trkpt>
      <trkpt lat="46.99807" lon="-1.05337">
        <ele>163</ele>
        <time>2012-05-06T06:41:34Z</time>
      </trkpt>
      <trkpt lat="46.99802" lon="-1.05306">
        <ele>163.8</ele>
        <time>2012-05-06T06:41:38Z</time>
      </trkpt>
      <trkpt lat="46.99796" lon="-1.05277">
        <ele>164.9</ele>
        <time>2012-05-06T06:41:42Z</time>
      </trkpt>
      <trkpt lat="46.9979" lon="-1.05247">
        <ele>165.6</ele>
        <time>2012-05-06T06:41:46Z</time>
      </trkpt>
      <trkpt lat="46.99787" lon="-1.05232">
        <ele>165.7</ele>
        <time>2012-05-06T06:41:48Z</time>
      </trkpt>
      <trkpt lat="46.9978" lon="-1.05203">
        <ele>166.6</ele>
        <time>2012-05-06T06:41:52Z</time>
      </trkpt>
      <trkpt lat="46.9977" lon="-1.05159">
        <ele>167.5</ele>
        <time>2012-05-06T06:41:58Z</time>
      </trkpt>
      <trkpt lat="46.99765" lon="-1.05146">
        <ele>167.6</ele>
        <time>2012-05-06T06:42:00Z</time>
      </trkpt>
      <trkpt lat="46.99756" lon="-1.05104">
        <ele>168.7</ele>
        <time>2012-05-06T06:42:06Z</time>
      </trkpt>
      <trkpt lat="46.99754" lon="-1.05075">
        <ele>169.3</ele>
        <time>2012-05-06T06:42:10Z</time>
      </trkpt>
      <trkpt lat="46.99751" lon="-1.05046">
        <ele>169.4</ele>
        <time>2012-05-06T06:42:14Z</time>
      </trkpt>
      <trkpt lat="46.99748" lon="-1.05017">
        <ele>170</ele>
        <time>2012-05-06T06:42:18Z</time>
      </trkpt>
      <trkpt lat="46.99749" lon="-1.04987">
        <ele>171.3</ele>
        <time>2012-05-06T06:42:22Z</time>
      </trkpt>
      <trkpt lat="46.99753" lon="-1.04961">
        <ele>172.3</ele>
        <time>2012-05-06T06:42:26Z</time>
      </trkpt>
      <trkpt lat="46.99732" lon="-1.04936">
        <ele>172.6</ele>
        <time>2012-05-06T06:42:34Z</time>
      </trkpt>
      <trkpt lat="46.99723" lon="-1.04927">
        <ele>172.4</ele>
        <time>2012-05-06T06:42:36Z</time>
      </trkpt>
      <trkpt lat="46.99694" lon="-1.04929">
        <ele>172.3</ele>
        <time>2012-05-06T06:42:42Z</time>
      </trkpt>
      <trkpt lat="46.99674" lon="-1.0493">
        <ele>173.2</ele>
        <time>2012-05-06T06:42:46Z</time>
      </trkpt>
      <trkpt lat="46.99655" lon="-1.04927">
        <ele>173.7</ele>
        <time>2012-05-06T06:42:50Z</time>
      </trkpt>
      <trkpt lat="46.99638" lon="-1.04927">
        <ele>173.1</ele>
        <time>2012-05-06T06:42:54Z</time>
      </trkpt>
      <trkpt lat="46.99621" lon="-1.04926">
        <ele>173.7</ele>
        <time>2012-05-06T06:42:58Z</time>
      </trkpt>
      <trkpt lat="46.99612" lon="-1.04924">
        <ele>173.7</ele>
        <time>2012-05-06T06:43:00Z</time>
      </trkpt>
      <trkpt lat="46.99582" lon="-1.04924">
        <ele>173.1</ele>
        <time>2012-05-06T06:43:06Z</time>
      </trkpt>
      <trkpt lat="46.99563" lon="-1.04924">
        <ele>173.6</ele>
        <time>2012-05-06T06:43:10Z</time>
      </trkpt>
      <trkpt lat="46.99547" lon="-1.04917">
        <ele>174.6</ele>
        <time>2012-05-06T06:43:14Z</time>
      </trkpt>
      <trkpt lat="46.9953" lon="-1.04909">
        <ele>174.7</ele>
        <time>2012-05-06T06:43:18Z</time>
      </trkpt>
      <trkpt lat="46.99509" lon="-1.04904">
        <ele>174.6</ele>
        <time>2012-05-06T06:43:22Z</time>
      </trkpt>
      <trkpt lat="46.99492" lon="-1.04898">
        <ele>174.7</ele>
        <time>2012-05-06T06:43:26Z</time>
      </trkpt>
      <trkpt lat="46.99472" lon="-1.04887">
        <ele>175.2</ele>
        <time>2012-05-06T06:43:30Z</time>
      </trkpt>
      <trkpt lat="46.99456" lon="-1.04877">
        <ele>176.3</ele>
        <time>2012-05-06T06:43:34Z</time>
      </trkpt>
      <trkpt lat="46.99448" lon="-1.04874">
        <ele>176.7</ele>
        <time>2012-05-06T06:43:36Z</time>
      </trkpt>
      <trkpt lat="46.99432" lon="-1.0487">
        <ele>176.8</ele>
        <time>2012-05-06T06:43:41Z</time>
      </trkpt>
      <trkpt lat="46.99431" lon="-1.0485">
        <ele>178.3</ele>
        <time>2012-05-06T06:43:46Z</time>
      </trkpt>
      <trkpt lat="46.99446" lon="-1.04832">
        <ele>179.4</ele>
        <time>2012-05-06T06:43:50Z</time>
      </trkpt>
      <trkpt lat="46.99464" lon="-1.04832">
        <ele>179.2</ele>
        <time>2012-05-06T06:43:54Z</time>
      </trkpt>
      <trkpt lat="46.99485" lon="-1.04828">
        <ele>179.3</ele>
        <time>2012-05-06T06:43:58Z</time>
      </trkpt>
      <trkpt lat="46.99504" lon="-1.04817">
        <ele>179.6</ele>
        <time>2012-05-06T06:44:02Z</time>
      </trkpt>
      <trkpt lat="46.99525" lon="-1.04807">
        <ele>179.8</ele>
        <time>2012-05-06T06:44:06Z</time>
      </trkpt>
      <trkpt lat="46.99545" lon="-1.04796">
        <ele>179.7</ele>
        <time>2012-05-06T06:44:10Z</time>
      </trkpt>
      <trkpt lat="46.99559" lon="-1.04776">
        <ele>179.7</ele>
        <time>2012-05-06T06:44:14Z</time>
      </trkpt>
      <trkpt lat="46.99555" lon="-1.04748">
        <ele>180.6</ele>
        <time>2012-05-06T06:44:18Z</time>
      </trkpt>
      <trkpt lat="46.99559" lon="-1.04735">
        <ele>180.7</ele>
        <time>2012-05-06T06:44:20Z</time>
      </trkpt>
      <trkpt lat="46.99587" lon="-1.04717">
        <ele>180.7</ele>
        <time>2012-05-06T06:44:26Z</time>
      </trkpt>
      <trkpt lat="46.99607" lon="-1.04707">
        <ele>180.6</ele>
        <time>2012-05-06T06:44:30Z</time>
      </trkpt>
      <trkpt lat="46.99624" lon="-1.04698">
        <ele>181.1</ele>
        <time>2012-05-06T06:44:34Z</time>
      </trkpt>
      <trkpt lat="46.99628" lon="-1.04689">
        <ele>181.1</ele>
        <time>2012-05-06T06:44:36Z</time>
      </trkpt>
      <trkpt lat="46.99631" lon="-1.04649">
        <ele>182.6</ele>
        <time>2012-05-06T06:44:42Z</time>
      </trkpt>
      <trkpt lat="46.99646" lon="-1.04629">
        <ele>182.9</ele>
        <time>2012-05-06T06:44:46Z</time>
      </trkpt>
      <trkpt lat="46.99655" lon="-1.04621">
        <ele>183.1</ele>
        <time>2012-05-06T06:44:48Z</time>
      </trkpt>
      <trkpt lat="46.99674" lon="-1.04605">
        <ele>183.2</ele>
        <time>2012-05-06T06:44:52Z</time>
      </trkpt>
      <trkpt lat="46.99692" lon="-1.04588">
        <ele>182.9</ele>
        <time>2012-05-06T06:44:56Z</time>
      </trkpt>
      <trkpt lat="46.99708" lon="-1.04574">
        <ele>182.5</ele>
        <time>2012-05-06T06:45:00Z</time>
      </trkpt>
      <trkpt lat="46.99721" lon="-1.04557">
        <ele>182.2</ele>
        <time>2012-05-06T06:45:04Z</time>
      </trkpt>
      <trkpt lat="46.99723" lon="-1.04529">
        <ele>182.3</ele>
        <time>2012-05-06T06:45:08Z</time>
      </trkpt>
      <trkpt lat="46.99717" lon="-1.04487">
        <ele>182</ele>
        <time>2012-05-06T06:45:14Z</time>
      </trkpt>
      <trkpt lat="46.99713" lon="-1.04458">
        <ele>182.9</ele>
        <time>2012-05-06T06:45:18Z</time>
      </trkpt>
      <trkpt lat="46.99709" lon="-1.0443">
        <ele>183.9</ele>
        <time>2012-05-06T06:45:22Z</time>
      </trkpt>
      <trkpt lat="46.99702" lon="-1.04403">
        <ele>184.8</ele>
        <time>2012-05-06T06:45:26Z</time>
      </trkpt>
      <trkpt lat="46.99696" lon="-1.04376">
        <ele>185.4</ele>
        <time>2012-05-06T06:45:30Z</time>
      </trkpt>
      <trkpt lat="46.99691" lon="-1.04347">
        <ele>186</ele>
        <time>2012-05-06T06:45:34Z</time>
      </trkpt>
      <trkpt lat="46.99684" lon="-1.04317">
        <ele>186.5</ele>
        <time>2012-05-06T06:45:38Z</time>
      </trkpt>
      <trkpt lat="46.99678" lon="-1.04288">
        <ele>187.1</ele>
        <time>2012-05-06T06:45:42Z</time>
      </trkpt>
      <trkpt lat="46.99672" lon="-1.0426">
        <ele>187.7</ele>
        <time>2012-05-06T06:45:46Z</time>
      </trkpt>
      <trkpt lat="46.99665" lon="-1.04233">
        <ele>188</ele>
        <time>2012-05-06T06:45:50Z</time>
      </trkpt>
      <trkpt lat="46.99659" lon="-1.04205">
        <ele>188.2</ele>
        <time>2012-05-06T06:45:54Z</time>
      </trkpt>
      <trkpt lat="46.99651" lon="-1.04178">
        <ele>188.4</ele>
        <time>2012-05-06T06:45:58Z</time>
      </trkpt>
      <trkpt lat="46.99644" lon="-1.0415">
        <ele>188.9</ele>
        <time>2012-05-06T06:46:02Z</time>
      </trkpt>
      <trkpt lat="46.99635" lon="-1.04123">
        <ele>189</ele>
        <time>2012-05-06T06:46:06Z</time>
      </trkpt>
      <trkpt lat="46.99627" lon="-1.04096">
        <ele>189.2</ele>
        <time>2012-05-06T06:46:10Z</time>
      </trkpt>
      <trkpt lat="46.99618" lon="-1.04067">
        <ele>189.2</ele>
        <time>2012-05-06T06:46:14Z</time>
      </trkpt>
      <trkpt lat="46.9961" lon="-1.04039">
        <ele>189.2</ele>
        <time>2012-05-06T06:46:18Z</time>
      </trkpt>
      <trkpt lat="46.99602" lon="-1.0401">
        <ele>188.9</ele>
        <time>2012-05-06T06:46:22Z</time>
      </trkpt>
      <trkpt lat="46.99594" lon="-1.03981">
        <ele>189.1</ele>
        <time>2012-05-06T06:46:26Z</time>
      </trkpt>
      <trkpt lat="46.99586" lon="-1.03953">
        <ele>188.9</ele>
        <time>2012-05-06T06:46:30Z</time>
      </trkpt>
      <trkpt lat="46.99582" lon="-1.0394">
        <ele>189.2</ele>
        <time>2012-05-06T06:46:32Z</time>
      </trkpt>
      <trkpt lat="46.99577" lon="-1.0391">
        <ele>189.7</ele>
        <time>2012-05-06T06:46:36Z</time>
      </trkpt>
      <trkpt lat="46.99568" lon="-1.03865">
        <ele>190.8</ele>
        <time>2012-05-06T06:46:42Z</time>
      </trkpt>
      <trkpt lat="46.99563" lon="-1.03833">
        <ele>191.2</ele>
        <time>2012-05-06T06:46:46Z</time>
      </trkpt>
      <trkpt lat="46.99558" lon="-1.03798">
        <ele>191.1</ele>
        <time>2012-05-06T06:46:50Z</time>
      </trkpt>
      <trkpt lat="46.99551" lon="-1.03767">
        <ele>191.6</ele>
        <time>2012-05-06T06:46:54Z</time>
      </trkpt>
      <trkpt lat="46.99532" lon="-1.03707">
        <ele>192</ele>
        <time>2012-05-06T06:47:02Z</time>
      </trkpt>
      <trkpt lat="46.99522" lon="-1.03677">
        <ele>192.3</ele>
        <time>2012-05-06T06:47:06Z</time>
      </trkpt>
      <trkpt lat="46.99513" lon="-1.03648">
        <ele>192.8</ele>
        <time>2012-05-06T06:47:10Z</time>
      </trkpt>
      <trkpt lat="46.99505" lon="-1.03623">
        <ele>193.2</ele>
        <time>2012-05-06T06:47:14Z</time>
      </trkpt>
      <trkpt lat="46.99502" lon="-1.03601">
        <ele>193.6</ele>
        <time>2012-05-06T06:47:18Z</time>
      </trkpt>
      <trkpt lat="46.995" lon="-1.03589">
        <ele>193.6</ele>
        <time>2012-05-06T06:47:20Z</time>
      </trkpt>
      <trkpt lat="46.99494" lon="-1.03545">
        <ele>193.1</ele>
        <time>2012-05-06T06:47:26Z</time>
      </trkpt>
      <trkpt lat="46.99493" lon="-1.0353">
        <ele>193.3</ele>
        <time>2012-05-06T06:47:28Z</time>
      </trkpt>
      <trkpt lat="46.99486" lon="-1.03479">
        <ele>193.3</ele>
        <time>2012-05-06T06:47:34Z</time>
      </trkpt>
      <trkpt lat="46.99482" lon="-1.03445">
        <ele>192.9</ele>
        <time>2012-05-06T06:47:38Z</time>
      </trkpt>
      <trkpt lat="46.9948" lon="-1.03426">
        <ele>192.5</ele>
        <time>2012-05-06T06:47:40Z</time>
      </trkpt>
      <trkpt lat="46.99478" lon="-1.0338">
        <ele>192.1</ele>
        <time>2012-05-06T06:47:45Z</time>
      </trkpt>
      <trkpt lat="46.99474" lon="-1.03342">
        <ele>191.7</ele>
        <time>2012-05-06T06:47:49Z</time>
      </trkpt>
      <trkpt lat="46.99465" lon="-1.03315">
        <ele>191.6</ele>
        <time>2012-05-06T06:47:52Z</time>
      </trkpt>
      <trkpt lat="46.99445" lon="-1.03275">
        <ele>191.2</ele>
        <time>2012-05-06T06:47:57Z</time>
      </trkpt>
      <trkpt lat="46.99431" lon="-1.03241">
        <ele>190.8</ele>
        <time>2012-05-06T06:48:01Z</time>
      </trkpt>
      <trkpt lat="46.99419" lon="-1.03206">
        <ele>190.3</ele>
        <time>2012-05-06T06:48:05Z</time>
      </trkpt>
      <trkpt lat="46.99405" lon="-1.0316">
        <ele>189.5</ele>
        <time>2012-05-06T06:48:10Z</time>
      </trkpt>
      <trkpt lat="46.99413" lon="-1.03122">
        <ele>189.2</ele>
        <time>2012-05-06T06:48:14Z</time>
      </trkpt>
      <trkpt lat="46.99428" lon="-1.03102">
        <ele>188.9</ele>
        <time>2012-05-06T06:48:17Z</time>
      </trkpt>
      <trkpt lat="46.99451" lon="-1.0307">
        <ele>188</ele>
        <time>2012-05-06T06:48:22Z</time>
      </trkpt>
      <trkpt lat="46.99469" lon="-1.03043">
        <ele>187.5</ele>
        <time>2012-05-06T06:48:26Z</time>
      </trkpt>
      <trkpt lat="46.99483" lon="-1.03008">
        <ele>186.4</ele>
        <time>2012-05-06T06:48:30Z</time>
      </trkpt>
      <trkpt lat="46.9949" lon="-1.02969">
        <ele>186.2</ele>
        <time>2012-05-06T06:48:34Z</time>
      </trkpt>
      <trkpt lat="46.99495" lon="-1.02926">
        <ele>185.8</ele>
        <time>2012-05-06T06:48:38Z</time>
      </trkpt>
      <trkpt lat="46.99501" lon="-1.02887">
        <ele>185.2</ele>
        <time>2012-05-06T06:48:42Z</time>
      </trkpt>
      <trkpt lat="46.9951" lon="-1.02849">
        <ele>184.4</ele>
        <time>2012-05-06T06:48:46Z</time>
      </trkpt>
      <trkpt lat="46.99518" lon="-1.0281">
        <ele>183.4</ele>
        <time>2012-05-06T06:48:50Z</time>
      </trkpt>
      <trkpt lat="46.99521" lon="-1.02779">
        <ele>182.9</ele>
        <time>2012-05-06T06:48:53Z</time>
      </trkpt>
      <trkpt lat="46.9952" lon="-1.02738">
        <ele>182.2</ele>
        <time>2012-05-06T06:48:57Z</time>
      </trkpt>
      <trkpt lat="46.99515" lon="-1.02688">
        <ele>181.7</ele>
        <time>2012-05-06T06:49:02Z</time>
      </trkpt>
      <trkpt lat="46.99509" lon="-1.0265">
        <ele>181.9</ele>
        <time>2012-05-06T06:49:06Z</time>
      </trkpt>
      <trkpt lat="46.99504" lon="-1.02611">
        <ele>182</ele>
        <time>2012-05-06T06:49:10Z</time>
      </trkpt>
      <trkpt lat="46.99504" lon="-1.02571">
        <ele>181.5</ele>
        <time>2012-05-06T06:49:14Z</time>
      </trkpt>
      <trkpt lat="46.99516" lon="-1.02536">
        <ele>180.9</ele>
        <time>2012-05-06T06:49:18Z</time>
      </trkpt>
      <trkpt lat="46.99531" lon="-1.02504">
        <ele>180.2</ele>
        <time>2012-05-06T06:49:22Z</time>
      </trkpt>
      <trkpt lat="46.99544" lon="-1.02467">
        <ele>179.5</ele>
        <time>2012-05-06T06:49:26Z</time>
      </trkpt>
      <trkpt lat="46.99551" lon="-1.02428">
        <ele>178.9</ele>
        <time>2012-05-06T06:49:30Z</time>
      </trkpt>
      <trkpt lat="46.99555" lon="-1.02391">
        <ele>179.5</ele>
        <time>2012-05-06T06:49:34Z</time>
      </trkpt>
      <trkpt lat="46.99555" lon="-1.02353">
        <ele>180.9</ele>
        <time>2012-05-06T06:49:38Z</time>
      </trkpt>
      <trkpt lat="46.9956" lon="-1.02316">
        <ele>181.7</ele>
        <time>2012-05-06T06:49:42Z</time>
      </trkpt>
      <trkpt lat="46.99568" lon="-1.02277">
        <ele>182.6</ele>
        <time>2012-05-06T06:49:46Z</time>
      </trkpt>
      <trkpt lat="46.99573" lon="-1.02247">
        <ele>182.9</ele>
        <time>2012-05-06T06:49:49Z</time>
      </trkpt>
      <trkpt lat="46.9957" lon="-1.02193">
        <ele>181.6</ele>
        <time>2012-05-06T06:49:54Z</time>
      </trkpt>
      <trkpt lat="46.99565" lon="-1.0216">
        <ele>180.7</ele>
        <time>2012-05-06T06:49:57Z</time>
      </trkpt>
      <trkpt lat="46.99557" lon="-1.02104">
        <ele>179.3</ele>
        <time>2012-05-06T06:50:02Z</time>
      </trkpt>
      <trkpt lat="46.9955" lon="-1.02057">
        <ele>177.3</ele>
        <time>2012-05-06T06:50:06Z</time>
      </trkpt>
      <trkpt lat="46.99541" lon="-1.02006">
        <ele>172.9</ele>
        <time>2012-05-06T06:50:10Z</time>
      </trkpt>
      <trkpt lat="46.99533" lon="-1.01951">
        <ele>169.7</ele>
        <time>2012-05-06T06:50:14Z</time>
      </trkpt>
      <trkpt lat="46.99524" lon="-1.01892">
        <ele>167.4</ele>
        <time>2012-05-06T06:50:18Z</time>
      </trkpt>
      <trkpt lat="46.99523" lon="-1.0183">
        <ele>164.9</ele>
        <time>2012-05-06T06:50:22Z</time>
      </trkpt>
      <trkpt lat="46.99532" lon="-1.01768">
        <ele>163.5</ele>
        <time>2012-05-06T06:50:26Z</time>
      </trkpt>
      <trkpt lat="46.99539" lon="-1.0172">
        <ele>162.3</ele>
        <time>2012-05-06T06:50:29Z</time>
      </trkpt>
      <trkpt lat="46.99523" lon="-1.01639">
        <ele>159.6</ele>
        <time>2012-05-06T06:50:34Z</time>
      </trkpt>
      <trkpt lat="46.9952" lon="-1.01623">
        <ele>158.9</ele>
        <time>2012-05-06T06:50:35Z</time>
      </trkpt>
      <trkpt lat="46.99545" lon="-1.01511">
        <ele>154.3</ele>
        <time>2012-05-06T06:50:42Z</time>
      </trkpt>
      <trkpt lat="46.9956" lon="-1.01438">
        <ele>149</ele>
        <time>2012-05-06T06:50:46Z</time>
      </trkpt>
      <trkpt lat="46.99574" lon="-1.01365">
        <ele>145.2</ele>
        <time>2012-05-06T06:50:50Z</time>
      </trkpt>
      <trkpt lat="46.99585" lon="-1.01294">
        <ele>143.5</ele>
        <time>2012-05-06T06:50:54Z</time>
      </trkpt>
      <trkpt lat="46.99589" lon="-1.01236">
        <ele>141.5</ele>
        <time>2012-05-06T06:50:57Z</time>
      </trkpt>
      <trkpt lat="46.99595" lon="-1.01144">
        <ele>137.1</ele>
        <time>2012-05-06T06:51:02Z</time>
      </trkpt>
      <trkpt lat="46.99617" lon="-1.01084">
        <ele>134.7</ele>
        <time>2012-05-06T06:51:06Z</time>
      </trkpt>
      <trkpt lat="46.99635" lon="-1.01041">
        <ele>135.2</ele>
        <time>2012-05-06T06:51:10Z</time>
      </trkpt>
      <trkpt lat="46.9965" lon="-1.01008">
        <ele>136.6</ele>
        <time>2012-05-06T06:51:14Z</time>
      </trkpt>
      <trkpt lat="46.99664" lon="-1.00976">
        <ele>137.6</ele>
        <time>2012-05-06T06:51:18Z</time>
      </trkpt>
      <trkpt lat="46.99677" lon="-1.00942">
        <ele>138.7</ele>
        <time>2012-05-06T06:51:22Z</time>
      </trkpt>
      <trkpt lat="46.99689" lon="-1.00911">
        <ele>139.8</ele>
        <time>2012-05-06T06:51:26Z</time>
      </trkpt>
      <trkpt lat="46.99698" lon="-1.00882">
        <ele>141.4</ele>
        <time>2012-05-06T06:51:30Z</time>
      </trkpt>
      <trkpt lat="46.99708" lon="-1.00854">
        <ele>142.8</ele>
        <time>2012-05-06T06:51:34Z</time>
      </trkpt>
      <trkpt lat="46.99716" lon="-1.00828">
        <ele>143.7</ele>
        <time>2012-05-06T06:51:38Z</time>
      </trkpt>
      <trkpt lat="46.99725" lon="-1.00799">
        <ele>143.6</ele>
        <time>2012-05-06T06:51:42Z</time>
      </trkpt>
      <trkpt lat="46.99735" lon="-1.00766">
        <ele>142.9</ele>
        <time>2012-05-06T06:51:46Z</time>
      </trkpt>
      <trkpt lat="46.99743" lon="-1.00728">
        <ele>141.6</ele>
        <time>2012-05-06T06:51:50Z</time>
      </trkpt>
      <trkpt lat="46.99747" lon="-1.00697">
        <ele>141.3</ele>
        <time>2012-05-06T06:51:53Z</time>
      </trkpt>
      <trkpt lat="46.99751" lon="-1.00656">
        <ele>140.9</ele>
        <time>2012-05-06T06:51:58Z</time>
      </trkpt>
      <trkpt lat="46.99755" lon="-1.00619">
        <ele>141.1</ele>
        <time>2012-05-06T06:52:01Z</time>
      </trkpt>
      <trkpt lat="46.99761" lon="-1.0055">
        <ele>139.6</ele>
        <time>2012-05-06T06:52:09Z</time>
      </trkpt>
      <trkpt lat="46.99752" lon="-1.00512">
        <ele>138.3</ele>
        <time>2012-05-06T06:52:13Z</time>
      </trkpt>
      <trkpt lat="46.99745" lon="-1.00481">
        <ele>137.9</ele>
        <time>2012-05-06T06:52:17Z</time>
      </trkpt>
      <trkpt lat="46.9974" lon="-1.00459">
        <ele>137.9</ele>
        <time>2012-05-06T06:52:21Z</time>
      </trkpt>
      <trkpt lat="46.99734" lon="-1.00432">
        <ele>138.1</ele>
        <time>2012-05-06T06:52:25Z</time>
      </trkpt>
      <trkpt lat="46.99727" lon="-1.00404">
        <ele>138.8</ele>
        <time>2012-05-06T06:52:30Z</time>
      </trkpt>
      <trkpt lat="46.9972" lon="-1.00376">
        <ele>139.7</ele>
        <time>2012-05-06T06:52:33Z</time>
      </trkpt>
      <trkpt lat="46.99713" lon="-1.00349">
        <ele>140</ele>
        <time>2012-05-06T06:52:37Z</time>
      </trkpt>
      <trkpt lat="46.99706" lon="-1.00321">
        <ele>140</ele>
        <time>2012-05-06T06:52:41Z</time>
      </trkpt>
      <trkpt lat="46.99698" lon="-1.00292">
        <ele>139.6</ele>
        <time>2012-05-06T06:52:45Z</time>
      </trkpt>
      <trkpt lat="46.99692" lon="-1.00262">
        <ele>139.4</ele>
        <time>2012-05-06T06:52:49Z</time>
      </trkpt>
      <trkpt lat="46.99688" lon="-1.00232">
        <ele>139.2</ele>
        <time>2012-05-06T06:52:53Z</time>
      </trkpt>
      <trkpt lat="46.99685" lon="-1.00202">
        <ele>139.3</ele>
        <time>2012-05-06T06:52:57Z</time>
      </trkpt>
      <trkpt lat="46.99683" lon="-1.00174">
        <ele>139.3</ele>
        <time>2012-05-06T06:53:01Z</time>
      </trkpt>
      <trkpt lat="46.99682" lon="-1.0014">
        <ele>139.2</ele>
        <time>2012-05-06T06:53:05Z</time>
      </trkpt>
      <trkpt lat="46.99681" lon="-1.00113">
        <ele>138.8</ele>
        <time>2012-05-06T06:53:08Z</time>
      </trkpt>
      <trkpt lat="46.99681" lon="-1.00079">
        <ele>138.2</ele>
        <time>2012-05-06T06:53:12Z</time>
      </trkpt>
      <trkpt lat="46.99683" lon="-1.00048">
        <ele>137.2</ele>
        <time>2012-05-06T06:53:16Z</time>
      </trkpt>
      <trkpt lat="46.9968" lon="-1.00021">
        <ele>136</ele>
        <time>2012-05-06T06:53:20Z</time>
      </trkpt>
      <trkpt lat="46.99671" lon="-0.99995">
        <ele>134.9</ele>
        <time>2012-05-06T06:53:24Z</time>
      </trkpt>
      <trkpt lat="46.9967" lon="-0.99972">
        <ele>133.6</ele>
        <time>2012-05-06T06:53:28Z</time>
      </trkpt>
      <trkpt lat="46.99672" lon="-0.99946">
        <ele>132.3</ele>
        <time>2012-05-06T06:53:32Z</time>
      </trkpt>
      <trkpt lat="46.99673" lon="-0.99931">
        <ele>132.2</ele>
        <time>2012-05-06T06:53:34Z</time>
      </trkpt>
      <trkpt lat="46.99675" lon="-0.99883">
        <ele>132.3</ele>
        <time>2012-05-06T06:53:39Z</time>
      </trkpt>
      <trkpt lat="46.99672" lon="-0.9982">
        <ele>133</ele>
        <time>2012-05-06T06:53:45Z</time>
      </trkpt>
      <trkpt lat="46.99669" lon="-0.99805">
        <ele>133.6</ele>
        <time>2012-05-06T06:53:47Z</time>
      </trkpt>
      <trkpt lat="46.99678" lon="-0.99771">
        <ele>131.9</ele>
        <time>2012-05-06T06:53:53Z</time>
      </trkpt>
      <trkpt lat="46.99681" lon="-0.99761">
        <ele>131.3</ele>
        <time>2012-05-06T06:53:58Z</time>
      </trkpt>
      <trkpt lat="46.99681" lon="-0.99761">
        <ele>66.4</ele>
        <time>2012-05-06T06:54:10Z</time>
      </trkpt>
      <trkpt lat="46.99681" lon="-0.99761">
        <ele>66.4</ele>
        <time>2012-05-06T06:54:14Z</time>
      </trkpt>
      <trkpt lat="46.99681" lon="-0.99761">
        <ele>66.4</ele>
        <time>2012-05-06T06:54:25Z</time>
      </trkpt>
      <trkpt lat="46.99681" lon="-0.99761">
        <ele>66.4</ele>
        <time>2012-05-06T06:55:27Z</time>
      </trkpt>
      <trkpt lat="46.99688" lon="-0.99685">
        <ele>122.1</ele>
        <time>2012-05-06T06:55:30Z</time>
      </trkpt>
      <trkpt lat="46.99677" lon="-0.9967">
        <ele>123.7</ele>
        <time>2012-05-06T06:55:35Z</time>
      </trkpt>
      <trkpt lat="46.9967" lon="-0.99652">
        <ele>124.2</ele>
        <time>2012-05-06T06:55:39Z</time>
      </trkpt>
      <trkpt lat="46.99664" lon="-0.99622">
        <ele>125.2</ele>
        <time>2012-05-06T06:55:43Z</time>
      </trkpt>
      <trkpt lat="46.99662" lon="-0.99597">
        <ele>124.9</ele>
        <time>2012-05-06T06:55:47Z</time>
      </trkpt>
      <trkpt lat="46.99663" lon="-0.99578">
        <ele>125.4</ele>
        <time>2012-05-06T06:55:51Z</time>
      </trkpt>
      <trkpt lat="46.9966" lon="-0.99544">
        <ele>127.5</ele>
        <time>2012-05-06T06:55:59Z</time>
      </trkpt>
      <trkpt lat="46.99657" lon="-0.99534">
        <ele>129.2</ele>
        <time>2012-05-06T06:56:02Z</time>
      </trkpt>
      <trkpt lat="46.99652" lon="-0.99516">
        <ele>133</ele>
        <time>2012-05-06T06:56:07Z</time>
      </trkpt>
      <trkpt lat="46.99651" lon="-0.99493">
        <ele>136.2</ele>
        <time>2012-05-06T06:56:12Z</time>
      </trkpt>
      <trkpt lat="46.9965" lon="-0.99484">
        <ele>138.1</ele>
        <time>2012-05-06T06:56:15Z</time>
      </trkpt>
      <trkpt lat="46.99647" lon="-0.99474">
        <ele>138.5</ele>
        <time>2012-05-06T06:56:18Z</time>
      </trkpt>
      <trkpt lat="46.99646" lon="-0.99449">
        <ele>139.8</ele>
        <time>2012-05-06T06:56:24Z</time>
      </trkpt>
      <trkpt lat="46.99645" lon="-0.99436">
        <ele>141.3</ele>
        <time>2012-05-06T06:56:27Z</time>
      </trkpt>
      <trkpt lat="46.99643" lon="-0.99422">
        <ele>142.1</ele>
        <time>2012-05-06T06:56:30Z</time>
      </trkpt>
      <trkpt lat="46.99641" lon="-0.99397">
        <ele>143.7</ele>
        <time>2012-05-06T06:56:36Z</time>
      </trkpt>
      <trkpt lat="46.99641" lon="-0.99397">
        <ele>83.9</ele>
        <time>2012-05-06T06:56:47Z</time>
      </trkpt>
      <trkpt lat="46.99641" lon="-0.99397">
        <ele>83.9</ele>
        <time>2012-05-06T06:56:48Z</time>
      </trkpt>
      <trkpt lat="46.99653" lon="-0.99338">
        <ele>142.1</ele>
        <time>2012-05-06T06:56:53Z</time>
      </trkpt>
      <trkpt lat="46.99656" lon="-0.99328">
        <ele>142.3</ele>
        <time>2012-05-06T06:56:56Z</time>
      </trkpt>
      <trkpt lat="46.99662" lon="-0.9932">
        <ele>142.5</ele>
        <time>2012-05-06T06:56:59Z</time>
      </trkpt>
      <trkpt lat="46.99673" lon="-0.99307">
        <ele>142.1</ele>
        <time>2012-05-06T06:57:05Z</time>
      </trkpt>
      <trkpt lat="46.99679" lon="-0.99301">
        <ele>142.6</ele>
        <time>2012-05-06T06:57:08Z</time>
      </trkpt>
      <trkpt lat="46.99685" lon="-0.99297">
        <ele>143.2</ele>
        <time>2012-05-06T06:57:11Z</time>
      </trkpt>
      <trkpt lat="46.99688" lon="-0.99285">
        <ele>143.6</ele>
        <time>2012-05-06T06:57:15Z</time>
      </trkpt>
      <trkpt lat="46.99687" lon="-0.99265">
        <ele>144.6</ele>
        <time>2012-05-06T06:57:21Z</time>
      </trkpt>
      <trkpt lat="46.99679" lon="-0.99258">
        <ele>145.3</ele>
        <time>2012-05-06T06:57:24Z</time>
      </trkpt>
      <trkpt lat="46.99664" lon="-0.9925">
        <ele>145.9</ele>
        <time>2012-05-06T06:57:29Z</time>
      </trkpt>
      <trkpt lat="46.99651" lon="-0.99245">
        <ele>146.2</ele>
        <time>2012-05-06T06:57:34Z</time>
      </trkpt>
      <trkpt lat="46.99637" lon="-0.99241">
        <ele>146.7</ele>
        <time>2012-05-06T06:57:38Z</time>
      </trkpt>
      <trkpt lat="46.99623" lon="-0.99238">
        <ele>146.7</ele>
        <time>2012-05-06T06:57:41Z</time>
      </trkpt>
      <trkpt lat="46.996" lon="-0.99232">
        <ele>147.4</ele>
        <time>2012-05-06T06:57:48Z</time>
      </trkpt>
      <trkpt lat="46.99584" lon="-0.99232">
        <ele>148</ele>
        <time>2012-05-06T06:57:52Z</time>
      </trkpt>
      <trkpt lat="46.99569" lon="-0.99238">
        <ele>148.7</ele>
        <time>2012-05-06T06:57:57Z</time>
      </trkpt>
      <trkpt lat="46.99546" lon="-0.99247">
        <ele>149.3</ele>
        <time>2012-05-06T06:58:02Z</time>
      </trkpt>
      <trkpt lat="46.99521" lon="-0.99244">
        <ele>151</ele>
        <time>2012-05-06T06:58:09Z</time>
      </trkpt>
      <trkpt lat="46.99507" lon="-0.99231">
        <ele>151.9</ele>
        <time>2012-05-06T06:58:12Z</time>
      </trkpt>
      <trkpt lat="46.99494" lon="-0.99214">
        <ele>153.7</ele>
        <time>2012-05-06T06:58:16Z</time>
      </trkpt>
      <trkpt lat="46.99483" lon="-0.99194">
        <ele>154.5</ele>
        <time>2012-05-06T06:58:21Z</time>
      </trkpt>
      <trkpt lat="46.99472" lon="-0.99175">
        <ele>155.3</ele>
        <time>2012-05-06T06:58:24Z</time>
      </trkpt>
      <trkpt lat="46.99461" lon="-0.99154">
        <ele>156</ele>
        <time>2012-05-06T06:58:28Z</time>
      </trkpt>
      <trkpt lat="46.99455" lon="-0.99144">
        <ele>156.1</ele>
        <time>2012-05-06T06:58:30Z</time>
      </trkpt>
      <trkpt lat="46.99438" lon="-0.99113">
        <ele>156.2</ele>
        <time>2012-05-06T06:58:37Z</time>
      </trkpt>
      <trkpt lat="46.99427" lon="-0.99093">
        <ele>156.5</ele>
        <time>2012-05-06T06:58:40Z</time>
      </trkpt>
      <trkpt lat="46.99415" lon="-0.99073">
        <ele>156.4</ele>
        <time>2012-05-06T06:58:44Z</time>
      </trkpt>
      <trkpt lat="46.99403" lon="-0.99053">
        <ele>156.7</ele>
        <time>2012-05-06T06:58:49Z</time>
      </trkpt>
      <trkpt lat="46.99391" lon="-0.99032">
        <ele>156.3</ele>
        <time>2012-05-06T06:58:52Z</time>
      </trkpt>
      <trkpt lat="46.9938" lon="-0.99011">
        <ele>156.5</ele>
        <time>2012-05-06T06:58:57Z</time>
      </trkpt>
      <trkpt lat="46.99368" lon="-0.9899">
        <ele>156.7</ele>
        <time>2012-05-06T06:59:01Z</time>
      </trkpt>
      <trkpt lat="46.99357" lon="-0.98969">
        <ele>157</ele>
        <time>2012-05-06T06:59:04Z</time>
      </trkpt>
      <trkpt lat="46.99345" lon="-0.98949">
        <ele>157.3</ele>
        <time>2012-05-06T06:59:08Z</time>
      </trkpt>
      <trkpt lat="46.99334" lon="-0.98929">
        <ele>158.4</ele>
        <time>2012-05-06T06:59:12Z</time>
      </trkpt>
      <trkpt lat="46.99322" lon="-0.98909">
        <ele>159.7</ele>
        <time>2012-05-06T06:59:16Z</time>
      </trkpt>
      <trkpt lat="46.99311" lon="-0.98889">
        <ele>160.3</ele>
        <time>2012-05-06T06:59:20Z</time>
      </trkpt>
      <trkpt lat="46.99299" lon="-0.98869">
        <ele>160.7</ele>
        <time>2012-05-06T06:59:24Z</time>
      </trkpt>
      <trkpt lat="46.99294" lon="-0.98859">
        <ele>161.2</ele>
        <time>2012-05-06T06:59:27Z</time>
      </trkpt>
      <trkpt lat="46.99277" lon="-0.9883">
        <ele>162.1</ele>
        <time>2012-05-06T06:59:32Z</time>
      </trkpt>
      <trkpt lat="46.99265" lon="-0.98809">
        <ele>162.5</ele>
        <time>2012-05-06T06:59:36Z</time>
      </trkpt>
      <trkpt lat="46.99251" lon="-0.98784">
        <ele>162.8</ele>
        <time>2012-05-06T06:59:41Z</time>
      </trkpt>
      <trkpt lat="46.9923" lon="-0.98747">
        <ele>161.3</ele>
        <time>2012-05-06T06:59:46Z</time>
      </trkpt>
      <trkpt lat="46.99193" lon="-0.98682">
        <ele>160.1</ele>
        <time>2012-05-06T06:59:50Z</time>
      </trkpt>
      <trkpt lat="46.99174" lon="-0.9865">
        <ele>159.8</ele>
        <time>2012-05-06T06:59:53Z</time>
      </trkpt>
      <trkpt lat="46.99154" lon="-0.98614">
        <ele>159.6</ele>
        <time>2012-05-06T06:59:58Z</time>
      </trkpt>
      <trkpt lat="46.99134" lon="-0.98577">
        <ele>158.7</ele>
        <time>2012-05-06T07:00:02Z</time>
      </trkpt>
      <trkpt lat="46.99116" lon="-0.9854">
        <ele>156.6</ele>
        <time>2012-05-06T07:00:06Z</time>
      </trkpt>
      <trkpt lat="46.99107" lon="-0.98501">
        <ele>155.7</ele>
        <time>2012-05-06T07:00:10Z</time>
      </trkpt>
      <trkpt lat="46.991" lon="-0.98462">
        <ele>155.5</ele>
        <time>2012-05-06T07:00:13Z</time>
      </trkpt>
      <trkpt lat="46.99095" lon="-0.98436">
        <ele>155.2</ele>
        <time>2012-05-06T07:00:16Z</time>
      </trkpt>
      <trkpt lat="46.99091" lon="-0.9841">
        <ele>156.1</ele>
        <time>2012-05-06T07:00:20Z</time>
      </trkpt>
      <trkpt lat="46.99102" lon="-0.98397">
        <ele>157.2</ele>
        <time>2012-05-06T07:00:24Z</time>
      </trkpt>
      <trkpt lat="46.99137" lon="-0.98375">
        <ele>157.7</ele>
        <time>2012-05-06T07:00:33Z</time>
      </trkpt>
      <trkpt lat="46.9915" lon="-0.98357">
        <ele>157.4</ele>
        <time>2012-05-06T07:00:37Z</time>
      </trkpt>
      <trkpt lat="46.99164" lon="-0.98337">
        <ele>157.1</ele>
        <time>2012-05-06T07:00:40Z</time>
      </trkpt>
      <trkpt lat="46.99172" lon="-0.98327">
        <ele>156.7</ele>
        <time>2012-05-06T07:00:43Z</time>
      </trkpt>
      <trkpt lat="46.99209" lon="-0.98273">
        <ele>155.9</ele>
        <time>2012-05-06T07:00:52Z</time>
      </trkpt>
      <trkpt lat="46.99226" lon="-0.98252">
        <ele>154.9</ele>
        <time>2012-05-06T07:00:57Z</time>
      </trkpt>
      <trkpt lat="46.99246" lon="-0.98233">
        <ele>154.1</ele>
        <time>2012-05-06T07:01:01Z</time>
      </trkpt>
      <trkpt lat="46.99267" lon="-0.98219">
        <ele>153.6</ele>
        <time>2012-05-06T07:01:04Z</time>
      </trkpt>
      <trkpt lat="46.99287" lon="-0.98212">
        <ele>152.9</ele>
        <time>2012-05-06T07:01:08Z</time>
      </trkpt>
      <trkpt lat="46.99308" lon="-0.98201">
        <ele>152.5</ele>
        <time>2012-05-06T07:01:12Z</time>
      </trkpt>
      <trkpt lat="46.99331" lon="-0.9817">
        <ele>151</ele>
        <time>2012-05-06T07:01:17Z</time>
      </trkpt>
      <trkpt lat="46.99342" lon="-0.98135">
        <ele>149.8</ele>
        <time>2012-05-06T07:01:22Z</time>
      </trkpt>
      <trkpt lat="46.99344" lon="-0.98098">
        <ele>147.7</ele>
        <time>2012-05-06T07:01:25Z</time>
      </trkpt>
      <trkpt lat="46.99355" lon="-0.98077">
        <ele>146.9</ele>
        <time>2012-05-06T07:01:28Z</time>
      </trkpt>
      <trkpt lat="46.99361" lon="-0.98069">
        <ele>146.2</ele>
        <time>2012-05-06T07:01:32Z</time>
      </trkpt>
      <trkpt lat="46.99365" lon="-0.98062">
        <ele>145.7</ele>
        <time>2012-05-06T07:01:37Z</time>
      </trkpt>
      <trkpt lat="46.99381" lon="-0.98052">
        <ele>144.4</ele>
        <time>2012-05-06T07:01:41Z</time>
      </trkpt>
      <trkpt lat="46.99403" lon="-0.98035">
        <ele>142.1</ele>
        <time>2012-05-06T07:01:46Z</time>
      </trkpt>
      <trkpt lat="46.99425" lon="-0.98018">
        <ele>139.7</ele>
        <time>2012-05-06T07:01:49Z</time>
      </trkpt>
      <trkpt lat="46.99445" lon="-0.98001">
        <ele>136.9</ele>
        <time>2012-05-06T07:01:53Z</time>
      </trkpt>
      <trkpt lat="46.99463" lon="-0.97986">
        <ele>133.6</ele>
        <time>2012-05-06T07:01:58Z</time>
      </trkpt>
      <trkpt lat="46.9948" lon="-0.97983">
        <ele>131.4</ele>
        <time>2012-05-06T07:02:02Z</time>
      </trkpt>
      <trkpt lat="46.99488" lon="-0.97987">
        <ele>130.1</ele>
        <time>2012-05-06T07:02:04Z</time>
      </trkpt>
      <trkpt lat="46.99495" lon="-0.97993">
        <ele>129.6</ele>
        <time>2012-05-06T07:02:06Z</time>
      </trkpt>
      <trkpt lat="46.99519" lon="-0.98024">
        <ele>127.8</ele>
        <time>2012-05-06T07:02:12Z</time>
      </trkpt>
      <trkpt lat="46.99533" lon="-0.98045">
        <ele>126.8</ele>
        <time>2012-05-06T07:02:17Z</time>
      </trkpt>
      <trkpt lat="46.99544" lon="-0.98035">
        <ele>125.9</ele>
        <time>2012-05-06T07:02:20Z</time>
      </trkpt>
      <trkpt lat="46.99549" lon="-0.98007">
        <ele>124.6</ele>
        <time>2012-05-06T07:02:24Z</time>
      </trkpt>
      <trkpt lat="46.99547" lon="-0.97993">
        <ele>124</ele>
        <time>2012-05-06T07:02:27Z</time>
      </trkpt>
      <trkpt lat="46.99529" lon="-0.97967">
        <ele>122.3</ele>
        <time>2012-05-06T07:02:33Z</time>
      </trkpt>
      <trkpt lat="46.99514" lon="-0.97955">
        <ele>121.8</ele>
        <time>2012-05-06T07:02:37Z</time>
      </trkpt>
      <trkpt lat="46.99501" lon="-0.97941">
        <ele>121</ele>
        <time>2012-05-06T07:02:40Z</time>
      </trkpt>
      <trkpt lat="46.9949" lon="-0.97927">
        <ele>119.9</ele>
        <time>2012-05-06T07:02:44Z</time>
      </trkpt>
      <trkpt lat="46.99481" lon="-0.97907">
        <ele>119.3</ele>
        <time>2012-05-06T07:02:48Z</time>
      </trkpt>
      <trkpt lat="46.99477" lon="-0.97897">
        <ele>119.3</ele>
        <time>2012-05-06T07:02:50Z</time>
      </trkpt>
      <trkpt lat="46.99459" lon="-0.97884">
        <ele>120.4</ele>
        <time>2012-05-06T07:02:59Z</time>
      </trkpt>
      <trkpt lat="46.99459" lon="-0.97884">
        <ele>63.8</ele>
        <time>2012-05-06T07:03:11Z</time>
      </trkpt>
      <trkpt lat="46.99459" lon="-0.97884">
        <ele>63.8</ele>
        <time>2012-05-06T07:03:16Z</time>
      </trkpt>
      <trkpt lat="46.99459" lon="-0.97884">
        <ele>63.8</ele>
        <time>2012-05-06T07:03:27Z</time>
      </trkpt>
      <trkpt lat="46.99459" lon="-0.97884">
        <ele>63.8</ele>
        <time>2012-05-06T07:03:33Z</time>
      </trkpt>
      <trkpt lat="46.99415" lon="-0.97838">
        <ele>119.9</ele>
        <time>2012-05-06T07:03:37Z</time>
      </trkpt>
      <trkpt lat="46.99397" lon="-0.97825">
        <ele>119.9</ele>
        <time>2012-05-06T07:03:41Z</time>
      </trkpt>
      <trkpt lat="46.99384" lon="-0.97809">
        <ele>119.8</ele>
        <time>2012-05-06T07:03:45Z</time>
      </trkpt>
      <trkpt lat="46.9937" lon="-0.97787">
        <ele>121.1</ele>
        <time>2012-05-06T07:03:54Z</time>
      </trkpt>
      <trkpt lat="46.99366" lon="-0.9778">
        <ele>121.1</ele>
        <time>2012-05-06T07:04:04Z</time>
      </trkpt>
      <trkpt lat="46.99366" lon="-0.9778">
        <ele>65.3</ele>
        <time>2012-05-06T07:04:15Z</time>
      </trkpt>
      <trkpt lat="46.99366" lon="-0.9778">
        <ele>65.3</ele>
        <time>2012-05-06T07:04:16Z</time>
      </trkpt>
      <trkpt lat="46.99363" lon="-0.97705">
        <ele>121.8</ele>
        <time>2012-05-06T07:04:25Z</time>
      </trkpt>
      <trkpt lat="46.99357" lon="-0.97683">
        <ele>122.8</ele>
        <time>2012-05-06T07:04:32Z</time>
      </trkpt>
      <trkpt lat="46.99346" lon="-0.97667">
        <ele>123.1</ele>
        <time>2012-05-06T07:04:37Z</time>
      </trkpt>
      <trkpt lat="46.99346" lon="-0.97654">
        <ele>123.1</ele>
        <time>2012-05-06T07:04:40Z</time>
      </trkpt>
      <trkpt lat="46.99344" lon="-0.97645">
        <ele>122.8</ele>
        <time>2012-05-06T07:04:49Z</time>
      </trkpt>
      <trkpt lat="46.99344" lon="-0.97645">
        <ele>64.7</ele>
        <time>2012-05-06T07:05:00Z</time>
      </trkpt>
      <trkpt lat="46.99344" lon="-0.97645">
        <ele>64.7</ele>
        <time>2012-05-06T07:05:02Z</time>
      </trkpt>
      <trkpt lat="46.99351" lon="-0.97595">
        <ele>120.2</ele>
        <time>2012-05-06T07:05:04Z</time>
      </trkpt>
      <trkpt lat="46.99363" lon="-0.9757">
        <ele>118.1</ele>
        <time>2012-05-06T07:05:11Z</time>
      </trkpt>
      <trkpt lat="46.99367" lon="-0.97562">
        <ele>118.7</ele>
        <time>2012-05-06T07:05:13Z</time>
      </trkpt>
      <trkpt lat="46.99382" lon="-0.97536">
        <ele>117.9</ele>
        <time>2012-05-06T07:05:19Z</time>
      </trkpt>
      <trkpt lat="46.99391" lon="-0.97508">
        <ele>116.7</ele>
        <time>2012-05-06T07:05:23Z</time>
      </trkpt>
      <trkpt lat="46.99398" lon="-0.9748">
        <ele>116.3</ele>
        <time>2012-05-06T07:05:27Z</time>
      </trkpt>
      <trkpt lat="46.99406" lon="-0.97454">
        <ele>116.5</ele>
        <time>2012-05-06T07:05:31Z</time>
      </trkpt>
      <trkpt lat="46.99413" lon="-0.97427">
        <ele>116.4</ele>
        <time>2012-05-06T07:05:35Z</time>
      </trkpt>
      <trkpt lat="46.99418" lon="-0.97401">
        <ele>116.2</ele>
        <time>2012-05-06T07:05:39Z</time>
      </trkpt>
      <trkpt lat="46.99423" lon="-0.97377">
        <ele>115.7</ele>
        <time>2012-05-06T07:05:43Z</time>
      </trkpt>
      <trkpt lat="46.99426" lon="-0.97365">
        <ele>115.6</ele>
        <time>2012-05-06T07:05:45Z</time>
      </trkpt>
      <trkpt lat="46.9944" lon="-0.97339">
        <ele>113.5</ele>
        <time>2012-05-06T07:05:51Z</time>
      </trkpt>
      <trkpt lat="46.99451" lon="-0.97322">
        <ele>113.1</ele>
        <time>2012-05-06T07:05:55Z</time>
      </trkpt>
      <trkpt lat="46.99458" lon="-0.97303">
        <ele>112.8</ele>
        <time>2012-05-06T07:05:59Z</time>
      </trkpt>
      <trkpt lat="46.99463" lon="-0.97284">
        <ele>112.5</ele>
        <time>2012-05-06T07:06:03Z</time>
      </trkpt>
      <trkpt lat="46.99468" lon="-0.97274">
        <ele>112.6</ele>
        <time>2012-05-06T07:06:06Z</time>
      </trkpt>
      <trkpt lat="46.99471" lon="-0.97249">
        <ele>112.8</ele>
        <time>2012-05-06T07:06:12Z</time>
      </trkpt>
      <trkpt lat="46.99475" lon="-0.97228">
        <ele>112.8</ele>
        <time>2012-05-06T07:06:16Z</time>
      </trkpt>
      <trkpt lat="46.99478" lon="-0.97195">
        <ele>114.2</ele>
        <time>2012-05-06T07:06:27Z</time>
      </trkpt>
      <trkpt lat="46.99477" lon="-0.97185">
        <ele>114.3</ele>
        <time>2012-05-06T07:06:29Z</time>
      </trkpt>
      <trkpt lat="46.99479" lon="-0.97152">
        <ele>114.1</ele>
        <time>2012-05-06T07:06:35Z</time>
      </trkpt>
      <trkpt lat="46.99484" lon="-0.9713">
        <ele>114.3</ele>
        <time>2012-05-06T07:06:40Z</time>
      </trkpt>
      <trkpt lat="46.99484" lon="-0.97119">
        <ele>114.5</ele>
        <time>2012-05-06T07:06:42Z</time>
      </trkpt>
      <trkpt lat="46.99484" lon="-0.97083">
        <ele>115.9</ele>
        <time>2012-05-06T07:06:50Z</time>
      </trkpt>
      <trkpt lat="46.99471" lon="-0.97084">
        <ele>118.2</ele>
        <time>2012-05-06T07:06:56Z</time>
      </trkpt>
      <trkpt lat="46.99465" lon="-0.97089">
        <ele>118.5</ele>
        <time>2012-05-06T07:07:02Z</time>
      </trkpt>
      <trkpt lat="46.99465" lon="-0.97089">
        <ele>63</ele>
        <time>2012-05-06T07:07:13Z</time>
      </trkpt>
      <trkpt lat="46.99465" lon="-0.97089">
        <ele>63</ele>
        <time>2012-05-06T07:08:09Z</time>
      </trkpt>
      <trkpt lat="46.99443" lon="-0.9707">
        <ele>115</ele>
        <time>2012-05-06T07:08:12Z</time>
      </trkpt>
      <trkpt lat="46.99444" lon="-0.97059">
        <ele>114.9</ele>
        <time>2012-05-06T07:08:15Z</time>
      </trkpt>
      <trkpt lat="46.99444" lon="-0.97034">
        <ele>114.2</ele>
        <time>2012-05-06T07:08:17Z</time>
      </trkpt>
      <trkpt lat="46.99443" lon="-0.97012">
        <ele>114.8</ele>
        <time>2012-05-06T07:08:24Z</time>
      </trkpt>
      <trkpt lat="46.99443" lon="-0.97">
        <ele>115.9</ele>
        <time>2012-05-06T07:08:27Z</time>
      </trkpt>
      <trkpt lat="46.99442" lon="-0.96988">
        <ele>116.7</ele>
        <time>2012-05-06T07:08:30Z</time>
      </trkpt>
      <trkpt lat="46.9944" lon="-0.96964">
        <ele>118.9</ele>
        <time>2012-05-06T07:08:36Z</time>
      </trkpt>
      <trkpt lat="46.9944" lon="-0.96941">
        <ele>120.6</ele>
        <time>2012-05-06T07:08:42Z</time>
      </trkpt>
      <trkpt lat="46.99452" lon="-0.96918">
        <ele>120.8</ele>
        <time>2012-05-06T07:08:51Z</time>
      </trkpt>
      <trkpt lat="46.99461" lon="-0.96898">
        <ele>120.1</ele>
        <time>2012-05-06T07:08:55Z</time>
      </trkpt>
      <trkpt lat="46.9947" lon="-0.96879">
        <ele>120.2</ele>
        <time>2012-05-06T07:08:59Z</time>
      </trkpt>
      <trkpt lat="46.99475" lon="-0.96872">
        <ele>118.9</ele>
        <time>2012-05-06T07:09:06Z</time>
      </trkpt>
      <trkpt lat="46.9949" lon="-0.96839">
        <ele>119.5</ele>
        <time>2012-05-06T07:09:16Z</time>
      </trkpt>
      <trkpt lat="46.99496" lon="-0.96833">
        <ele>119.4</ele>
        <time>2012-05-06T07:09:18Z</time>
      </trkpt>
      <trkpt lat="46.99507" lon="-0.96822">
        <ele>118.7</ele>
        <time>2012-05-06T07:09:22Z</time>
      </trkpt>
      <trkpt lat="46.99517" lon="-0.96809">
        <ele>118.7</ele>
        <time>2012-05-06T07:09:26Z</time>
      </trkpt>
      <trkpt lat="46.99533" lon="-0.96784">
        <ele>118.7</ele>
        <time>2012-05-06T07:09:32Z</time>
      </trkpt>
      <trkpt lat="46.99538" lon="-0.96765">
        <ele>118.6</ele>
        <time>2012-05-06T07:09:36Z</time>
      </trkpt>
      <trkpt lat="46.99543" lon="-0.96744">
        <ele>118.7</ele>
        <time>2012-05-06T07:09:40Z</time>
      </trkpt>
      <trkpt lat="46.99541" lon="-0.96723">
        <ele>118.8</ele>
        <time>2012-05-06T07:09:44Z</time>
      </trkpt>
      <trkpt lat="46.99539" lon="-0.96702">
        <ele>119.1</ele>
        <time>2012-05-06T07:09:48Z</time>
      </trkpt>
      <trkpt lat="46.99538" lon="-0.96689">
        <ele>119.7</ele>
        <time>2012-05-06T07:09:51Z</time>
      </trkpt>
      <trkpt lat="46.99536" lon="-0.96678">
        <ele>119.9</ele>
        <time>2012-05-06T07:09:54Z</time>
      </trkpt>
      <trkpt lat="46.99536" lon="-0.96678">
        <ele>68.8</ele>
        <time>2012-05-06T07:10:05Z</time>
      </trkpt>
      <trkpt lat="46.99536" lon="-0.96678">
        <ele>68.8</ele>
        <time>2012-05-06T07:13:48Z</time>
      </trkpt>
      <trkpt lat="46.99517" lon="-0.96606">
        <ele>123.3</ele>
        <time>2012-05-06T07:13:55Z</time>
      </trkpt>
      <trkpt lat="46.99513" lon="-0.96598">
        <ele>124</ele>
        <time>2012-05-06T07:13:58Z</time>
      </trkpt>
      <trkpt lat="46.99506" lon="-0.96593">
        <ele>123.4</ele>
        <time>2012-05-06T07:14:01Z</time>
      </trkpt>
      <trkpt lat="46.99499" lon="-0.96588">
        <ele>123.5</ele>
        <time>2012-05-06T07:14:04Z</time>
      </trkpt>
      <trkpt lat="46.99486" lon="-0.96577">
        <ele>123.6</ele>
        <time>2012-05-06T07:14:10Z</time>
      </trkpt>
      <trkpt lat="46.99479" lon="-0.96569">
        <ele>124.9</ele>
        <time>2012-05-06T07:14:13Z</time>
      </trkpt>
      <trkpt lat="46.99469" lon="-0.96551">
        <ele>125.4</ele>
        <time>2012-05-06T07:14:18Z</time>
      </trkpt>
      <trkpt lat="46.99464" lon="-0.96543">
        <ele>126</ele>
        <time>2012-05-06T07:14:21Z</time>
      </trkpt>
      <trkpt lat="46.99457" lon="-0.96537">
        <ele>126.7</ele>
        <time>2012-05-06T07:14:26Z</time>
      </trkpt>
      <trkpt lat="46.99451" lon="-0.96533">
        <ele>127.1</ele>
        <time>2012-05-06T07:14:29Z</time>
      </trkpt>
      <trkpt lat="46.99444" lon="-0.96527">
        <ele>127.4</ele>
        <time>2012-05-06T07:14:33Z</time>
      </trkpt>
      <trkpt lat="46.99438" lon="-0.96523">
        <ele>127.9</ele>
        <time>2012-05-06T07:14:38Z</time>
      </trkpt>
      <trkpt lat="46.99432" lon="-0.96517">
        <ele>127.9</ele>
        <time>2012-05-06T07:14:44Z</time>
      </trkpt>
      <trkpt lat="46.99426" lon="-0.96512">
        <ele>127.9</ele>
        <time>2012-05-06T07:14:54Z</time>
      </trkpt>
      <trkpt lat="46.9942" lon="-0.96505">
        <ele>131.6</ele>
        <time>2012-05-06T07:15:01Z</time>
      </trkpt>
      <trkpt lat="46.99414" lon="-0.96495">
        <ele>131.7</ele>
        <time>2012-05-06T07:15:04Z</time>
      </trkpt>
      <trkpt lat="46.99398" lon="-0.96457">
        <ele>131.4</ele>
        <time>2012-05-06T07:15:10Z</time>
      </trkpt>
      <trkpt lat="46.99398" lon="-0.96457">
        <ele>74.6</ele>
        <time>2012-05-06T07:15:22Z</time>
      </trkpt>
      <trkpt lat="46.99398" lon="-0.96457">
        <ele>74.6</ele>
        <time>2012-05-06T07:15:28Z</time>
      </trkpt>
      <trkpt lat="46.99381" lon="-0.96421">
        <ele>131.9</ele>
        <time>2012-05-06T07:15:33Z</time>
      </trkpt>
      <trkpt lat="46.99376" lon="-0.96412">
        <ele>132.8</ele>
        <time>2012-05-06T07:15:36Z</time>
      </trkpt>
      <trkpt lat="46.99371" lon="-0.96402">
        <ele>133.4</ele>
        <time>2012-05-06T07:15:40Z</time>
      </trkpt>
      <trkpt lat="46.99368" lon="-0.96392">
        <ele>133.7</ele>
        <time>2012-05-06T07:15:43Z</time>
      </trkpt>
      <trkpt lat="46.99363" lon="-0.9637">
        <ele>133.6</ele>
        <time>2012-05-06T07:15:49Z</time>
      </trkpt>
      <trkpt lat="46.9936" lon="-0.9636">
        <ele>133.1</ele>
        <time>2012-05-06T07:15:52Z</time>
      </trkpt>
      <trkpt lat="46.99348" lon="-0.9633">
        <ele>132.2</ele>
        <time>2012-05-06T07:16:01Z</time>
      </trkpt>
      <trkpt lat="46.99344" lon="-0.96321">
        <ele>131.7</ele>
        <time>2012-05-06T07:16:05Z</time>
      </trkpt>
      <trkpt lat="46.99339" lon="-0.96313">
        <ele>133</ele>
        <time>2012-05-06T07:16:09Z</time>
      </trkpt>
      <trkpt lat="46.99334" lon="-0.96307">
        <ele>134.1</ele>
        <time>2012-05-06T07:16:12Z</time>
      </trkpt>
      <trkpt lat="46.99329" lon="-0.96302">
        <ele>134.1</ele>
        <time>2012-05-06T07:16:15Z</time>
      </trkpt>
      <trkpt lat="46.99323" lon="-0.96298">
        <ele>134.2</ele>
        <time>2012-05-06T07:16:18Z</time>
      </trkpt>
      <trkpt lat="46.99311" lon="-0.96288">
        <ele>134.6</ele>
        <time>2012-05-06T07:16:25Z</time>
      </trkpt>
      <trkpt lat="46.99306" lon="-0.96281">
        <ele>135.4</ele>
        <time>2012-05-06T07:16:27Z</time>
      </trkpt>
      <trkpt lat="46.99294" lon="-0.96262">
        <ele>136.6</ele>
        <time>2012-05-06T07:16:33Z</time>
      </trkpt>
      <trkpt lat="46.9929" lon="-0.96255">
        <ele>136.7</ele>
        <time>2012-05-06T07:16:35Z</time>
      </trkpt>
      <trkpt lat="46.9928" lon="-0.96236">
        <ele>137.1</ele>
        <time>2012-05-06T07:16:40Z</time>
      </trkpt>
      <trkpt lat="46.99278" lon="-0.96226">
        <ele>137</ele>
        <time>2012-05-06T07:16:42Z</time>
      </trkpt>
      <trkpt lat="46.99271" lon="-0.96206">
        <ele>135.8</ele>
        <time>2012-05-06T07:16:49Z</time>
      </trkpt>
      <trkpt lat="46.99266" lon="-0.96198">
        <ele>135.8</ele>
        <time>2012-05-06T07:16:51Z</time>
      </trkpt>
      <trkpt lat="46.99255" lon="-0.96182">
        <ele>135.6</ele>
        <time>2012-05-06T07:16:56Z</time>
      </trkpt>
      <trkpt lat="46.99248" lon="-0.96175">
        <ele>136</ele>
        <time>2012-05-06T07:16:59Z</time>
      </trkpt>
      <trkpt lat="46.99243" lon="-0.9617">
        <ele>136.2</ele>
        <time>2012-05-06T07:17:03Z</time>
      </trkpt>
      <trkpt lat="46.99236" lon="-0.9615">
        <ele>136.6</ele>
        <time>2012-05-06T07:17:07Z</time>
      </trkpt>
      <trkpt lat="46.99226" lon="-0.96132">
        <ele>137.1</ele>
        <time>2012-05-06T07:17:12Z</time>
      </trkpt>
      <trkpt lat="46.99219" lon="-0.96109">
        <ele>136.6</ele>
        <time>2012-05-06T07:17:17Z</time>
      </trkpt>
      <trkpt lat="46.99215" lon="-0.96099">
        <ele>136.7</ele>
        <time>2012-05-06T07:17:19Z</time>
      </trkpt>
      <trkpt lat="46.99203" lon="-0.9607">
        <ele>137</ele>
        <time>2012-05-06T07:17:25Z</time>
      </trkpt>
      <trkpt lat="46.99193" lon="-0.96054">
        <ele>137.1</ele>
        <time>2012-05-06T07:17:29Z</time>
      </trkpt>
      <trkpt lat="46.99184" lon="-0.9604">
        <ele>137.8</ele>
        <time>2012-05-06T07:17:33Z</time>
      </trkpt>
      <trkpt lat="46.99173" lon="-0.96029">
        <ele>138.4</ele>
        <time>2012-05-06T07:17:37Z</time>
      </trkpt>
      <trkpt lat="46.99162" lon="-0.96014">
        <ele>138.7</ele>
        <time>2012-05-06T07:17:41Z</time>
      </trkpt>
      <trkpt lat="46.99159" lon="-0.96003">
        <ele>138.7</ele>
        <time>2012-05-06T07:17:44Z</time>
      </trkpt>
      <trkpt lat="46.99152" lon="-0.95983">
        <ele>139.2</ele>
        <time>2012-05-06T07:17:49Z</time>
      </trkpt>
      <trkpt lat="46.99149" lon="-0.9597">
        <ele>139.2</ele>
        <time>2012-05-06T07:17:52Z</time>
      </trkpt>
      <trkpt lat="46.99139" lon="-0.95957">
        <ele>139.3</ele>
        <time>2012-05-06T07:17:56Z</time>
      </trkpt>
      <trkpt lat="46.99136" lon="-0.95945">
        <ele>139.1</ele>
        <time>2012-05-06T07:17:59Z</time>
      </trkpt>
      <trkpt lat="46.99126" lon="-0.95927">
        <ele>140.3</ele>
        <time>2012-05-06T07:18:04Z</time>
      </trkpt>
      <trkpt lat="46.99117" lon="-0.95913">
        <ele>141.2</ele>
        <time>2012-05-06T07:18:08Z</time>
      </trkpt>
      <trkpt lat="46.99104" lon="-0.95905">
        <ele>142.4</ele>
        <time>2012-05-06T07:18:13Z</time>
      </trkpt>
      <trkpt lat="46.99095" lon="-0.95901">
        <ele>143</ele>
        <time>2012-05-06T07:18:16Z</time>
      </trkpt>
      <trkpt lat="46.99081" lon="-0.95896">
        <ele>144.4</ele>
        <time>2012-05-06T07:18:21Z</time>
      </trkpt>
      <trkpt lat="46.99072" lon="-0.95893">
        <ele>144</ele>
        <time>2012-05-06T07:18:24Z</time>
      </trkpt>
      <trkpt lat="46.99058" lon="-0.95876">
        <ele>143</ele>
        <time>2012-05-06T07:18:28Z</time>
      </trkpt>
      <trkpt lat="46.99039" lon="-0.95861">
        <ele>142.2</ele>
        <time>2012-05-06T07:18:32Z</time>
      </trkpt>
      <trkpt lat="46.9902" lon="-0.95851">
        <ele>141</ele>
        <time>2012-05-06T07:18:36Z</time>
      </trkpt>
      <trkpt lat="46.99003" lon="-0.9585">
        <ele>138.8</ele>
        <time>2012-05-06T07:18:40Z</time>
      </trkpt>
      <trkpt lat="46.98996" lon="-0.95852">
        <ele>138</ele>
        <time>2012-05-06T07:18:42Z</time>
      </trkpt>
      <trkpt lat="46.98977" lon="-0.95867">
        <ele>137.1</ele>
        <time>2012-05-06T07:18:46Z</time>
      </trkpt>
      <trkpt lat="46.98944" lon="-0.95883">
        <ele>135.7</ele>
        <time>2012-05-06T07:18:52Z</time>
      </trkpt>
      <trkpt lat="46.98909" lon="-0.9589">
        <ele>135</ele>
        <time>2012-05-06T07:18:57Z</time>
      </trkpt>
      <trkpt lat="46.98884" lon="-0.95901">
        <ele>134.6</ele>
        <time>2012-05-06T07:19:01Z</time>
      </trkpt>
      <trkpt lat="46.98868" lon="-0.95917">
        <ele>134.4</ele>
        <time>2012-05-06T07:19:05Z</time>
      </trkpt>
      <trkpt lat="46.98852" lon="-0.95934">
        <ele>134.3</ele>
        <time>2012-05-06T07:19:09Z</time>
      </trkpt>
      <trkpt lat="46.98819" lon="-0.95952">
        <ele>133.5</ele>
        <time>2012-05-06T07:19:17Z</time>
      </trkpt>
      <trkpt lat="46.98805" lon="-0.95961">
        <ele>133.2</ele>
        <time>2012-05-06T07:19:21Z</time>
      </trkpt>
      <trkpt lat="46.98792" lon="-0.95974">
        <ele>132.8</ele>
        <time>2012-05-06T07:19:25Z</time>
      </trkpt>
      <trkpt lat="46.98784" lon="-0.9598">
        <ele>132.9</ele>
        <time>2012-05-06T07:19:27Z</time>
      </trkpt>
      <trkpt lat="46.98759" lon="-0.95999">
        <ele>133.3</ele>
        <time>2012-05-06T07:19:33Z</time>
      </trkpt>
      <trkpt lat="46.98744" lon="-0.96008">
        <ele>132.3</ele>
        <time>2012-05-06T07:19:37Z</time>
      </trkpt>
      <trkpt lat="46.98738" lon="-0.96014">
        <ele>131.6</ele>
        <time>2012-05-06T07:19:41Z</time>
      </trkpt>
      <trkpt lat="46.98738" lon="-0.96014">
        <ele>71.6</ele>
        <time>2012-05-06T07:19:52Z</time>
      </trkpt>
      <trkpt lat="46.98738" lon="-0.96014">
        <ele>71.6</ele>
        <time>2012-05-06T07:20:04Z</time>
      </trkpt>
      <trkpt lat="46.98714" lon="-0.96053">
        <ele>130.8</ele>
        <time>2012-05-06T07:20:12Z</time>
      </trkpt>
      <trkpt lat="46.98701" lon="-0.96063">
        <ele>131.4</ele>
        <time>2012-05-06T07:20:16Z</time>
      </trkpt>
      <trkpt lat="46.98695" lon="-0.96067">
        <ele>131.8</ele>
        <time>2012-05-06T07:20:19Z</time>
      </trkpt>
      <trkpt lat="46.98684" lon="-0.96028">
        <ele>133.3</ele>
        <time>2012-05-06T07:20:25Z</time>
      </trkpt>
      <trkpt lat="46.98678" lon="-0.96008">
        <ele>132.4</ele>
        <time>2012-05-06T07:20:29Z</time>
      </trkpt>
      <trkpt lat="46.98677" lon="-0.95997">
        <ele>131.6</ele>
        <time>2012-05-06T07:20:31Z</time>
      </trkpt>
      <trkpt lat="46.98673" lon="-0.95967">
        <ele>130.3</ele>
        <time>2012-05-06T07:20:37Z</time>
      </trkpt>
      <trkpt lat="46.98672" lon="-0.95956">
        <ele>130.1</ele>
        <time>2012-05-06T07:20:39Z</time>
      </trkpt>
      <trkpt lat="46.98669" lon="-0.95935">
        <ele>129.3</ele>
        <time>2012-05-06T07:20:43Z</time>
      </trkpt>
      <trkpt lat="46.9867" lon="-0.95902">
        <ele>129.2</ele>
        <time>2012-05-06T07:20:49Z</time>
      </trkpt>
      <trkpt lat="46.98656" lon="-0.95887">
        <ele>129.2</ele>
        <time>2012-05-06T07:20:55Z</time>
      </trkpt>
      <trkpt lat="46.98656" lon="-0.95887">
        <ele>73.4</ele>
        <time>2012-05-06T07:21:06Z</time>
      </trkpt>
      <trkpt lat="46.98656" lon="-0.95887">
        <ele>73.4</ele>
        <time>2012-05-06T07:21:24Z</time>
      </trkpt>
      <trkpt lat="46.98656" lon="-0.95887">
        <ele>73.4</ele>
        <time>2012-05-06T07:21:35Z</time>
      </trkpt>
      <trkpt lat="46.98656" lon="-0.95887">
        <ele>73.4</ele>
        <time>2012-05-06T07:24:29Z</time>
      </trkpt>
      <trkpt lat="46.98611" lon="-0.95868">
        <ele>130</ele>
        <time>2012-05-06T07:24:33Z</time>
      </trkpt>
      <trkpt lat="46.98598" lon="-0.95856">
        <ele>130</ele>
        <time>2012-05-06T07:24:37Z</time>
      </trkpt>
      <trkpt lat="46.98586" lon="-0.95842">
        <ele>129.9</ele>
        <time>2012-05-06T07:24:41Z</time>
      </trkpt>
      <trkpt lat="46.98575" lon="-0.95824">
        <ele>129.4</ele>
        <time>2012-05-06T07:24:45Z</time>
      </trkpt>
      <trkpt lat="46.98565" lon="-0.95805">
        <ele>128.4</ele>
        <time>2012-05-06T07:24:49Z</time>
      </trkpt>
      <trkpt lat="46.98555" lon="-0.95783">
        <ele>127.6</ele>
        <time>2012-05-06T07:24:53Z</time>
      </trkpt>
      <trkpt lat="46.98546" lon="-0.95758">
        <ele>127.6</ele>
        <time>2012-05-06T07:24:57Z</time>
      </trkpt>
      <trkpt lat="46.98528" lon="-0.95706">
        <ele>126.2</ele>
        <time>2012-05-06T07:25:05Z</time>
      </trkpt>
      <trkpt lat="46.9852" lon="-0.95682">
        <ele>125.9</ele>
        <time>2012-05-06T07:25:09Z</time>
      </trkpt>
      <trkpt lat="46.985" lon="-0.95609">
        <ele>125.9</ele>
        <time>2012-05-06T07:25:21Z</time>
      </trkpt>
      <trkpt lat="46.98494" lon="-0.95585">
        <ele>126.4</ele>
        <time>2012-05-06T07:25:25Z</time>
      </trkpt>
      <trkpt lat="46.98488" lon="-0.95565">
        <ele>126.7</ele>
        <time>2012-05-06T07:25:29Z</time>
      </trkpt>
      <trkpt lat="46.98485" lon="-0.95556">
        <ele>126.9</ele>
        <time>2012-05-06T07:25:31Z</time>
      </trkpt>
      <trkpt lat="46.98482" lon="-0.95525">
        <ele>127.8</ele>
        <time>2012-05-06T07:25:37Z</time>
      </trkpt>
      <trkpt lat="46.98483" lon="-0.95515">
        <ele>128.2</ele>
        <time>2012-05-06T07:25:39Z</time>
      </trkpt>
      <trkpt lat="46.98481" lon="-0.9549">
        <ele>129.6</ele>
        <time>2012-05-06T07:25:45Z</time>
      </trkpt>
      <trkpt lat="46.98476" lon="-0.95481">
        <ele>129.8</ele>
        <time>2012-05-06T07:25:48Z</time>
      </trkpt>
      <trkpt lat="46.98466" lon="-0.95468">
        <ele>130.2</ele>
        <time>2012-05-06T07:25:52Z</time>
      </trkpt>
      <trkpt lat="46.98454" lon="-0.95453">
        <ele>130.7</ele>
        <time>2012-05-06T07:25:57Z</time>
      </trkpt>
      <trkpt lat="46.98449" lon="-0.95445">
        <ele>131.3</ele>
        <time>2012-05-06T07:25:59Z</time>
      </trkpt>
      <trkpt lat="46.98438" lon="-0.95429">
        <ele>132.5</ele>
        <time>2012-05-06T07:26:05Z</time>
      </trkpt>
      <trkpt lat="46.98427" lon="-0.95415">
        <ele>132.5</ele>
        <time>2012-05-06T07:26:11Z</time>
      </trkpt>
      <trkpt lat="46.98415" lon="-0.95398">
        <ele>132.9</ele>
        <time>2012-05-06T07:26:17Z</time>
      </trkpt>
      <trkpt lat="46.98411" lon="-0.95391">
        <ele>133.1</ele>
        <time>2012-05-06T07:26:19Z</time>
      </trkpt>
      <trkpt lat="46.98397" lon="-0.95373">
        <ele>133.5</ele>
        <time>2012-05-06T07:26:25Z</time>
      </trkpt>
      <trkpt lat="46.98392" lon="-0.95367">
        <ele>133.6</ele>
        <time>2012-05-06T07:26:27Z</time>
      </trkpt>
      <trkpt lat="46.98378" lon="-0.9535">
        <ele>134.6</ele>
        <time>2012-05-06T07:26:33Z</time>
      </trkpt>
      <trkpt lat="46.98365" lon="-0.95336">
        <ele>134.4</ele>
        <time>2012-05-06T07:26:37Z</time>
      </trkpt>
      <trkpt lat="46.9835" lon="-0.95324">
        <ele>134.4</ele>
        <time>2012-05-06T07:26:41Z</time>
      </trkpt>
      <trkpt lat="46.98338" lon="-0.95312">
        <ele>134.9</ele>
        <time>2012-05-06T07:26:45Z</time>
      </trkpt>
      <trkpt lat="46.98326" lon="-0.95302">
        <ele>135.3</ele>
        <time>2012-05-06T07:26:49Z</time>
      </trkpt>
      <trkpt lat="46.9832" lon="-0.95296">
        <ele>136</ele>
        <time>2012-05-06T07:26:52Z</time>
      </trkpt>
      <trkpt lat="46.9832" lon="-0.95296">
        <ele>81.3</ele>
        <time>2012-05-06T07:27:03Z</time>
      </trkpt>
      <trkpt lat="46.9832" lon="-0.95296">
        <ele>81.3</ele>
        <time>2012-05-06T07:27:09Z</time>
      </trkpt>
      <trkpt lat="46.9828" lon="-0.95278">
        <ele>134.9</ele>
        <time>2012-05-06T07:27:18Z</time>
      </trkpt>
      <trkpt lat="46.98267" lon="-0.95266">
        <ele>134.8</ele>
        <time>2012-05-06T07:27:22Z</time>
      </trkpt>
      <trkpt lat="46.98255" lon="-0.95254">
        <ele>134.3</ele>
        <time>2012-05-06T07:27:26Z</time>
      </trkpt>
      <trkpt lat="46.98245" lon="-0.95237">
        <ele>132.6</ele>
        <time>2012-05-06T07:27:31Z</time>
      </trkpt>
      <trkpt lat="46.98227" lon="-0.95217">
        <ele>131.8</ele>
        <time>2012-05-06T07:27:40Z</time>
      </trkpt>
      <trkpt lat="46.98218" lon="-0.952">
        <ele>131.4</ele>
        <time>2012-05-06T07:27:45Z</time>
      </trkpt>
      <trkpt lat="46.98205" lon="-0.95181">
        <ele>133.3</ele>
        <time>2012-05-06T07:27:51Z</time>
      </trkpt>
      <trkpt lat="46.98194" lon="-0.9517">
        <ele>133.7</ele>
        <time>2012-05-06T07:27:55Z</time>
      </trkpt>
      <trkpt lat="46.98183" lon="-0.9516">
        <ele>134.2</ele>
        <time>2012-05-06T07:27:59Z</time>
      </trkpt>
      <trkpt lat="46.98165" lon="-0.95139">
        <ele>134.8</ele>
        <time>2012-05-06T07:28:07Z</time>
      </trkpt>
      <trkpt lat="46.98165" lon="-0.95139">
        <ele>73</ele>
        <time>2012-05-06T07:28:18Z</time>
      </trkpt>
      <trkpt lat="46.98165" lon="-0.95139">
        <ele>73</ele>
        <time>2012-05-06T07:28:30Z</time>
      </trkpt>
      <trkpt lat="46.98165" lon="-0.95139">
        <ele>73</ele>
        <time>2012-05-06T07:28:41Z</time>
      </trkpt>
      <trkpt lat="46.98165" lon="-0.95139">
        <ele>73</ele>
        <time>2012-05-06T07:29:02Z</time>
      </trkpt>
      <trkpt lat="46.98129" lon="-0.95111">
        <ele>130.1</ele>
        <time>2012-05-06T07:29:04Z</time>
      </trkpt>
      <trkpt lat="46.98126" lon="-0.95101">
        <ele>130.1</ele>
        <time>2012-05-06T07:29:07Z</time>
      </trkpt>
      <trkpt lat="46.98126" lon="-0.95101">
        <ele>73.4</ele>
        <time>2012-05-06T07:29:18Z</time>
      </trkpt>
      <trkpt lat="46.98126" lon="-0.95101">
        <ele>73.4</ele>
        <time>2012-05-06T07:29:28Z</time>
      </trkpt>
      <trkpt lat="46.98126" lon="-0.95101">
        <ele>73.4</ele>
        <time>2012-05-06T07:29:39Z</time>
      </trkpt>
      <trkpt lat="46.98126" lon="-0.95101">
        <ele>73.4</ele>
        <time>2012-05-06T07:29:45Z</time>
      </trkpt>
      <trkpt lat="46.98115" lon="-0.95059">
        <ele>126.3</ele>
        <time>2012-05-06T07:29:47Z</time>
      </trkpt>
      <trkpt lat="46.98095" lon="-0.95024">
        <ele>128.7</ele>
        <time>2012-05-06T07:29:58Z</time>
      </trkpt>
      <trkpt lat="46.98087" lon="-0.95001">
        <ele>130.2</ele>
        <time>2012-05-06T07:30:04Z</time>
      </trkpt>
      <trkpt lat="46.98087" lon="-0.95001">
        <ele>74.6</ele>
        <time>2012-05-06T07:30:15Z</time>
      </trkpt>
      <trkpt lat="46.98087" lon="-0.95001">
        <ele>74.6</ele>
        <time>2012-05-06T07:30:20Z</time>
      </trkpt>
      <trkpt lat="46.98087" lon="-0.95001">
        <ele>74.6</ele>
        <time>2012-05-06T07:30:31Z</time>
      </trkpt>
      <trkpt lat="46.98087" lon="-0.95001">
        <ele>74.6</ele>
        <time>2012-05-06T07:30:34Z</time>
      </trkpt>
      <trkpt lat="46.9806" lon="-0.94956">
        <ele>130.9</ele>
        <time>2012-05-06T07:30:36Z</time>
      </trkpt>
      <trkpt lat="46.98053" lon="-0.9495">
        <ele>131.7</ele>
        <time>2012-05-06T07:30:39Z</time>
      </trkpt>
      <trkpt lat="46.98029" lon="-0.94933">
        <ele>131.4</ele>
        <time>2012-05-06T07:30:43Z</time>
      </trkpt>
      <trkpt lat="46.98023" lon="-0.94928">
        <ele>132.6</ele>
        <time>2012-05-06T07:30:45Z</time>
      </trkpt>
      <trkpt lat="46.9801" lon="-0.94914">
        <ele>132.1</ele>
        <time>2012-05-06T07:30:52Z</time>
      </trkpt>
      <trkpt lat="46.97998" lon="-0.94899">
        <ele>132.9</ele>
        <time>2012-05-06T07:30:56Z</time>
      </trkpt>
      <trkpt lat="46.97991" lon="-0.94872">
        <ele>131.1</ele>
        <time>2012-05-06T07:31:00Z</time>
      </trkpt>
      <trkpt lat="46.97982" lon="-0.94851">
        <ele>131.8</ele>
        <time>2012-05-06T07:31:04Z</time>
      </trkpt>
      <trkpt lat="46.97966" lon="-0.94836">
        <ele>131.1</ele>
        <time>2012-05-06T07:31:08Z</time>
      </trkpt>
      <trkpt lat="46.97953" lon="-0.94823">
        <ele>131.3</ele>
        <time>2012-05-06T07:31:12Z</time>
      </trkpt>
      <trkpt lat="46.97942" lon="-0.9481">
        <ele>131.3</ele>
        <time>2012-05-06T07:31:16Z</time>
      </trkpt>
      <trkpt lat="46.97935" lon="-0.94803">
        <ele>131.4</ele>
        <time>2012-05-06T07:31:19Z</time>
      </trkpt>
      <trkpt lat="46.9792" lon="-0.94793">
        <ele>131.8</ele>
        <time>2012-05-06T07:31:24Z</time>
      </trkpt>
      <trkpt lat="46.97907" lon="-0.94781">
        <ele>131.2</ele>
        <time>2012-05-06T07:31:28Z</time>
      </trkpt>
      <trkpt lat="46.97883" lon="-0.94754">
        <ele>131.5</ele>
        <time>2012-05-06T07:31:36Z</time>
      </trkpt>
      <trkpt lat="46.9787" lon="-0.94744">
        <ele>130.9</ele>
        <time>2012-05-06T07:31:40Z</time>
      </trkpt>
      <trkpt lat="46.97849" lon="-0.94736">
        <ele>131.7</ele>
        <time>2012-05-06T07:31:47Z</time>
      </trkpt>
      <trkpt lat="46.97832" lon="-0.94737">
        <ele>133.9</ele>
        <time>2012-05-06T07:31:51Z</time>
      </trkpt>
      <trkpt lat="46.97815" lon="-0.9474">
        <ele>134.4</ele>
        <time>2012-05-06T07:31:55Z</time>
      </trkpt>
      <trkpt lat="46.97799" lon="-0.94741">
        <ele>135.4</ele>
        <time>2012-05-06T07:31:59Z</time>
      </trkpt>
      <trkpt lat="46.97781" lon="-0.94738">
        <ele>134.8</ele>
        <time>2012-05-06T07:32:03Z</time>
      </trkpt>
      <trkpt lat="46.97773" lon="-0.94733">
        <ele>134.8</ele>
        <time>2012-05-06T07:32:05Z</time>
      </trkpt>
      <trkpt lat="46.97752" lon="-0.94709">
        <ele>135.3</ele>
        <time>2012-05-06T07:32:11Z</time>
      </trkpt>
      <trkpt lat="46.97737" lon="-0.94708">
        <ele>136</ele>
        <time>2012-05-06T07:32:15Z</time>
      </trkpt>
      <trkpt lat="46.97726" lon="-0.94726">
        <ele>137.6</ele>
        <time>2012-05-06T07:32:19Z</time>
      </trkpt>
      <trkpt lat="46.9772" lon="-0.94736">
        <ele>138</ele>
        <time>2012-05-06T07:32:21Z</time>
      </trkpt>
      <trkpt lat="46.9771" lon="-0.94755">
        <ele>139.3</ele>
        <time>2012-05-06T07:32:25Z</time>
      </trkpt>
      <trkpt lat="46.97697" lon="-0.94775">
        <ele>139.7</ele>
        <time>2012-05-06T07:32:29Z</time>
      </trkpt>
      <trkpt lat="46.97675" lon="-0.94834">
        <ele>139.1</ele>
        <time>2012-05-06T07:32:39Z</time>
      </trkpt>
      <trkpt lat="46.97655" lon="-0.94866">
        <ele>139.3</ele>
        <time>2012-05-06T07:32:45Z</time>
      </trkpt>
      <trkpt lat="46.97631" lon="-0.94887">
        <ele>139.6</ele>
        <time>2012-05-06T07:32:51Z</time>
      </trkpt>
      <trkpt lat="46.97616" lon="-0.94903">
        <ele>139.8</ele>
        <time>2012-05-06T07:32:55Z</time>
      </trkpt>
      <trkpt lat="46.97601" lon="-0.94916">
        <ele>139.7</ele>
        <time>2012-05-06T07:32:59Z</time>
      </trkpt>
      <trkpt lat="46.97601" lon="-0.94916">
        <ele>75.6</ele>
        <time>2012-05-06T07:33:10Z</time>
      </trkpt>
      <trkpt lat="46.97601" lon="-0.94916">
        <ele>75.6</ele>
        <time>2012-05-06T07:33:11Z</time>
      </trkpt>
      <trkpt lat="46.97534" lon="-0.94921">
        <ele>137.3</ele>
        <time>2012-05-06T07:33:13Z</time>
      </trkpt>
      <trkpt lat="46.97524" lon="-0.94917">
        <ele>137.2</ele>
        <time>2012-05-06T07:33:15Z</time>
      </trkpt>
      <trkpt lat="46.97505" lon="-0.94908">
        <ele>135.6</ele>
        <time>2012-05-06T07:33:19Z</time>
      </trkpt>
      <trkpt lat="46.97481" lon="-0.94887">
        <ele>134.2</ele>
        <time>2012-05-06T07:33:25Z</time>
      </trkpt>
      <trkpt lat="46.97469" lon="-0.94869">
        <ele>134.6</ele>
        <time>2012-05-06T07:33:29Z</time>
      </trkpt>
      <trkpt lat="46.97463" lon="-0.94859">
        <ele>134.9</ele>
        <time>2012-05-06T07:33:31Z</time>
      </trkpt>
      <trkpt lat="46.97458" lon="-0.9485">
        <ele>134.8</ele>
        <time>2012-05-06T07:33:33Z</time>
      </trkpt>
      <trkpt lat="46.97435" lon="-0.94816">
        <ele>134.2</ele>
        <time>2012-05-06T07:33:41Z</time>
      </trkpt>
      <trkpt lat="46.97423" lon="-0.94795">
        <ele>133.2</ele>
        <time>2012-05-06T07:33:45Z</time>
      </trkpt>
      <trkpt lat="46.97418" lon="-0.94787">
        <ele>133.1</ele>
        <time>2012-05-06T07:33:47Z</time>
      </trkpt>
      <trkpt lat="46.97399" lon="-0.94765">
        <ele>134.1</ele>
        <time>2012-05-06T07:33:53Z</time>
      </trkpt>
      <trkpt lat="46.97386" lon="-0.94751">
        <ele>134.8</ele>
        <time>2012-05-06T07:33:57Z</time>
      </trkpt>
      <trkpt lat="46.97379" lon="-0.94745">
        <ele>135</ele>
        <time>2012-05-06T07:34:00Z</time>
      </trkpt>
      <trkpt lat="46.97366" lon="-0.94728">
        <ele>135.3</ele>
        <time>2012-05-06T07:34:06Z</time>
      </trkpt>
      <trkpt lat="46.97369" lon="-0.94715">
        <ele>135.5</ele>
        <time>2012-05-06T07:34:11Z</time>
      </trkpt>
      <trkpt lat="46.97374" lon="-0.94707">
        <ele>134.7</ele>
        <time>2012-05-06T07:34:14Z</time>
      </trkpt>
      <trkpt lat="46.97383" lon="-0.94689">
        <ele>135.3</ele>
        <time>2012-05-06T07:34:20Z</time>
      </trkpt>
      <trkpt lat="46.97387" lon="-0.94681">
        <ele>136.6</ele>
        <time>2012-05-06T07:34:30Z</time>
      </trkpt>
      <trkpt lat="46.97387" lon="-0.94681">
        <ele>84.5</ele>
        <time>2012-05-06T07:34:42Z</time>
      </trkpt>
      <trkpt lat="46.97387" lon="-0.94681">
        <ele>84.5</ele>
        <time>2012-05-06T07:35:04Z</time>
      </trkpt>
      <trkpt lat="46.97408" lon="-0.94642">
        <ele>143.6</ele>
        <time>2012-05-06T07:35:07Z</time>
      </trkpt>
      <trkpt lat="46.97408" lon="-0.94642">
        <ele>92.8</ele>
        <time>2012-05-06T07:35:18Z</time>
      </trkpt>
      <trkpt lat="46.97408" lon="-0.94642">
        <ele>92.8</ele>
        <time>2012-05-06T07:35:25Z</time>
      </trkpt>
      <trkpt lat="46.97408" lon="-0.94642">
        <ele>92.8</ele>
        <time>2012-05-06T07:35:36Z</time>
      </trkpt>
      <trkpt lat="46.97408" lon="-0.94642">
        <ele>92.8</ele>
        <time>2012-05-06T07:35:37Z</time>
      </trkpt>
      <trkpt lat="46.97448" lon="-0.94586">
        <ele>152.5</ele>
        <time>2012-05-06T07:35:40Z</time>
      </trkpt>
      <trkpt lat="46.97463" lon="-0.94576">
        <ele>153.7</ele>
        <time>2012-05-06T07:35:47Z</time>
      </trkpt>
      <trkpt lat="46.9747" lon="-0.9457">
        <ele>154.3</ele>
        <time>2012-05-06T07:35:50Z</time>
      </trkpt>
      <trkpt lat="46.97476" lon="-0.94566">
        <ele>154.6</ele>
        <time>2012-05-06T07:35:53Z</time>
      </trkpt>
      <trkpt lat="46.97486" lon="-0.94554">
        <ele>155.4</ele>
        <time>2012-05-06T07:35:59Z</time>
      </trkpt>
      <trkpt lat="46.97491" lon="-0.94548">
        <ele>156</ele>
        <time>2012-05-06T07:36:02Z</time>
      </trkpt>
      <trkpt lat="46.97497" lon="-0.94542">
        <ele>156.4</ele>
        <time>2012-05-06T07:36:05Z</time>
      </trkpt>
      <trkpt lat="46.97502" lon="-0.94535">
        <ele>156.7</ele>
        <time>2012-05-06T07:36:08Z</time>
      </trkpt>
      <trkpt lat="46.97513" lon="-0.94518">
        <ele>158.6</ele>
        <time>2012-05-06T07:36:14Z</time>
      </trkpt>
      <trkpt lat="46.97516" lon="-0.94508">
        <ele>159.3</ele>
        <time>2012-05-06T07:36:17Z</time>
      </trkpt>
      <trkpt lat="46.97518" lon="-0.94497">
        <ele>160.2</ele>
        <time>2012-05-06T07:36:20Z</time>
      </trkpt>
      <trkpt lat="46.97519" lon="-0.9447">
        <ele>160.2</ele>
        <time>2012-05-06T07:36:25Z</time>
      </trkpt>
      <trkpt lat="46.9752" lon="-0.94449">
        <ele>161.3</ele>
        <time>2012-05-06T07:36:30Z</time>
      </trkpt>
      <trkpt lat="46.9752" lon="-0.94429">
        <ele>162.1</ele>
        <time>2012-05-06T07:36:34Z</time>
      </trkpt>
      <trkpt lat="46.97521" lon="-0.9441">
        <ele>162.1</ele>
        <time>2012-05-06T07:36:38Z</time>
      </trkpt>
      <trkpt lat="46.97524" lon="-0.94399">
        <ele>162.2</ele>
        <time>2012-05-06T07:36:40Z</time>
      </trkpt>
      <trkpt lat="46.97543" lon="-0.94365">
        <ele>161.4</ele>
        <time>2012-05-06T07:36:46Z</time>
      </trkpt>
      <trkpt lat="46.97548" lon="-0.94316">
        <ele>161.9</ele>
        <time>2012-05-06T07:36:54Z</time>
      </trkpt>
      <trkpt lat="46.97549" lon="-0.94305">
        <ele>161.9</ele>
        <time>2012-05-06T07:36:56Z</time>
      </trkpt>
      <trkpt lat="46.9755" lon="-0.94275">
        <ele>162.3</ele>
        <time>2012-05-06T07:37:02Z</time>
      </trkpt>
      <trkpt lat="46.9755" lon="-0.94254">
        <ele>162.5</ele>
        <time>2012-05-06T07:37:06Z</time>
      </trkpt>
      <trkpt lat="46.97551" lon="-0.94228">
        <ele>163</ele>
        <time>2012-05-06T07:37:10Z</time>
      </trkpt>
      <trkpt lat="46.97549" lon="-0.942">
        <ele>162.9</ele>
        <time>2012-05-06T07:37:14Z</time>
      </trkpt>
      <trkpt lat="46.97543" lon="-0.94159">
        <ele>163.2</ele>
        <time>2012-05-06T07:37:19Z</time>
      </trkpt>
      <trkpt lat="46.9754" lon="-0.94146">
        <ele>163.3</ele>
        <time>2012-05-06T07:37:21Z</time>
      </trkpt>
      <trkpt lat="46.97518" lon="-0.94116">
        <ele>164.2</ele>
        <time>2012-05-06T07:37:30Z</time>
      </trkpt>
      <trkpt lat="46.9751" lon="-0.94112">
        <ele>164.7</ele>
        <time>2012-05-06T07:37:33Z</time>
      </trkpt>
      <trkpt lat="46.97497" lon="-0.94104">
        <ele>166.2</ele>
        <time>2012-05-06T07:37:39Z</time>
      </trkpt>
      <trkpt lat="46.9749" lon="-0.94102">
        <ele>166.9</ele>
        <time>2012-05-06T07:37:42Z</time>
      </trkpt>
      <trkpt lat="46.97476" lon="-0.941">
        <ele>168.6</ele>
        <time>2012-05-06T07:37:47Z</time>
      </trkpt>
      <trkpt lat="46.97461" lon="-0.94099">
        <ele>169.3</ele>
        <time>2012-05-06T07:37:51Z</time>
      </trkpt>
      <trkpt lat="46.97446" lon="-0.94096">
        <ele>170.7</ele>
        <time>2012-05-06T07:37:55Z</time>
      </trkpt>
      <trkpt lat="46.97431" lon="-0.94095">
        <ele>171.5</ele>
        <time>2012-05-06T07:37:59Z</time>
      </trkpt>
      <trkpt lat="46.97423" lon="-0.94094">
        <ele>171.5</ele>
        <time>2012-05-06T07:38:01Z</time>
      </trkpt>
      <trkpt lat="46.97396" lon="-0.9409">
        <ele>173</ele>
        <time>2012-05-06T07:38:07Z</time>
      </trkpt>
      <trkpt lat="46.97378" lon="-0.94087">
        <ele>174</ele>
        <time>2012-05-06T07:38:11Z</time>
      </trkpt>
      <trkpt lat="46.97369" lon="-0.94087">
        <ele>174.4</ele>
        <time>2012-05-06T07:38:13Z</time>
      </trkpt>
      <trkpt lat="46.97344" lon="-0.94087">
        <ele>174.9</ele>
        <time>2012-05-06T07:38:19Z</time>
      </trkpt>
      <trkpt lat="46.97328" lon="-0.94094">
        <ele>175.4</ele>
        <time>2012-05-06T07:38:23Z</time>
      </trkpt>
      <trkpt lat="46.97298" lon="-0.94122">
        <ele>177</ele>
        <time>2012-05-06T07:38:31Z</time>
      </trkpt>
      <trkpt lat="46.97276" lon="-0.94136">
        <ele>177</ele>
        <time>2012-05-06T07:38:35Z</time>
      </trkpt>
      <trkpt lat="46.97223" lon="-0.94149">
        <ele>176.7</ele>
        <time>2012-05-06T07:38:38Z</time>
      </trkpt>
      <trkpt lat="46.97201" lon="-0.94151">
        <ele>176.1</ele>
        <time>2012-05-06T07:38:41Z</time>
      </trkpt>
      <trkpt lat="46.97147" lon="-0.94148">
        <ele>172.8</ele>
        <time>2012-05-06T07:38:47Z</time>
      </trkpt>
      <trkpt lat="46.97122" lon="-0.94163">
        <ele>172.5</ele>
        <time>2012-05-06T07:38:50Z</time>
      </trkpt>
      <trkpt lat="46.97112" lon="-0.94205">
        <ele>171.2</ele>
        <time>2012-05-06T07:38:54Z</time>
      </trkpt>
      <trkpt lat="46.971" lon="-0.94245">
        <ele>170.3</ele>
        <time>2012-05-06T07:38:59Z</time>
      </trkpt>
      <trkpt lat="46.9708" lon="-0.94256">
        <ele>169.8</ele>
        <time>2012-05-06T07:39:02Z</time>
      </trkpt>
      <trkpt lat="46.97061" lon="-0.94253">
        <ele>169.2</ele>
        <time>2012-05-06T07:39:06Z</time>
      </trkpt>
      <trkpt lat="46.97021" lon="-0.94239">
        <ele>169.7</ele>
        <time>2012-05-06T07:39:15Z</time>
      </trkpt>
      <trkpt lat="46.97002" lon="-0.94231">
        <ele>169.4</ele>
        <time>2012-05-06T07:39:19Z</time>
      </trkpt>
      <trkpt lat="46.96982" lon="-0.94224">
        <ele>168.3</ele>
        <time>2012-05-06T07:39:23Z</time>
      </trkpt>
      <trkpt lat="46.96961" lon="-0.94227">
        <ele>168</ele>
        <time>2012-05-06T07:39:27Z</time>
      </trkpt>
      <trkpt lat="46.96938" lon="-0.94244">
        <ele>167.5</ele>
        <time>2012-05-06T07:39:31Z</time>
      </trkpt>
      <trkpt lat="46.96914" lon="-0.94265">
        <ele>166</ele>
        <time>2012-05-06T07:39:35Z</time>
      </trkpt>
      <trkpt lat="46.969" lon="-0.94281">
        <ele>165.2</ele>
        <time>2012-05-06T07:39:38Z</time>
      </trkpt>
      <trkpt lat="46.96892" lon="-0.9429">
        <ele>165.2</ele>
        <time>2012-05-06T07:39:40Z</time>
      </trkpt>
      <trkpt lat="46.96869" lon="-0.94304">
        <ele>165.8</ele>
        <time>2012-05-06T07:39:46Z</time>
      </trkpt>
      <trkpt lat="46.96855" lon="-0.9431">
        <ele>166.4</ele>
        <time>2012-05-06T07:39:50Z</time>
      </trkpt>
      <trkpt lat="46.96841" lon="-0.94314">
        <ele>166.3</ele>
        <time>2012-05-06T07:39:54Z</time>
      </trkpt>
      <trkpt lat="46.96826" lon="-0.9432">
        <ele>167.6</ele>
        <time>2012-05-06T07:39:58Z</time>
      </trkpt>
      <trkpt lat="46.96806" lon="-0.94322">
        <ele>167.1</ele>
        <time>2012-05-06T07:40:02Z</time>
      </trkpt>
      <trkpt lat="46.96797" lon="-0.94322">
        <ele>167.2</ele>
        <time>2012-05-06T07:40:04Z</time>
      </trkpt>
      <trkpt lat="46.96769" lon="-0.94316">
        <ele>167.4</ele>
        <time>2012-05-06T07:40:10Z</time>
      </trkpt>
      <trkpt lat="46.96752" lon="-0.94299">
        <ele>167.6</ele>
        <time>2012-05-06T07:40:14Z</time>
      </trkpt>
      <trkpt lat="46.96733" lon="-0.94277">
        <ele>166.4</ele>
        <time>2012-05-06T07:40:18Z</time>
      </trkpt>
      <trkpt lat="46.96709" lon="-0.94245">
        <ele>163.6</ele>
        <time>2012-05-06T07:40:23Z</time>
      </trkpt>
      <trkpt lat="46.96689" lon="-0.94217">
        <ele>161.8</ele>
        <time>2012-05-06T07:40:27Z</time>
      </trkpt>
      <trkpt lat="46.96677" lon="-0.94189">
        <ele>160.4</ele>
        <time>2012-05-06T07:40:30Z</time>
      </trkpt>
      <trkpt lat="46.96666" lon="-0.94147">
        <ele>158.6</ele>
        <time>2012-05-06T07:40:34Z</time>
      </trkpt>
      <trkpt lat="46.96643" lon="-0.94096">
        <ele>155</ele>
        <time>2012-05-06T07:40:39Z</time>
      </trkpt>
      <trkpt lat="46.96602" lon="-0.94058">
        <ele>152.8</ele>
        <time>2012-05-06T07:40:47Z</time>
      </trkpt>
      <trkpt lat="46.96593" lon="-0.94062">
        <ele>152.6</ele>
        <time>2012-05-06T07:40:49Z</time>
      </trkpt>
      <trkpt lat="46.96574" lon="-0.94024">
        <ele>151.9</ele>
        <time>2012-05-06T07:40:55Z</time>
      </trkpt>
      <trkpt lat="46.96564" lon="-0.93992">
        <ele>151.2</ele>
        <time>2012-05-06T07:40:59Z</time>
      </trkpt>
      <trkpt lat="46.96558" lon="-0.93963">
        <ele>150.3</ele>
        <time>2012-05-06T07:41:03Z</time>
      </trkpt>
      <trkpt lat="46.96554" lon="-0.93934">
        <ele>149.4</ele>
        <time>2012-05-06T07:41:07Z</time>
      </trkpt>
      <trkpt lat="46.9655" lon="-0.93906">
        <ele>148.7</ele>
        <time>2012-05-06T07:41:11Z</time>
      </trkpt>
      <trkpt lat="46.96547" lon="-0.93879">
        <ele>148.8</ele>
        <time>2012-05-06T07:41:15Z</time>
      </trkpt>
      <trkpt lat="46.96545" lon="-0.93854">
        <ele>148.4</ele>
        <time>2012-05-06T07:41:19Z</time>
      </trkpt>
      <trkpt lat="46.96544" lon="-0.93829">
        <ele>147.9</ele>
        <time>2012-05-06T07:41:23Z</time>
      </trkpt>
      <trkpt lat="46.96542" lon="-0.93806">
        <ele>147.3</ele>
        <time>2012-05-06T07:41:27Z</time>
      </trkpt>
      <trkpt lat="46.96542" lon="-0.93791">
        <ele>147.5</ele>
        <time>2012-05-06T07:41:29Z</time>
      </trkpt>
      <trkpt lat="46.96547" lon="-0.93751">
        <ele>147.4</ele>
        <time>2012-05-06T07:41:35Z</time>
      </trkpt>
      <trkpt lat="46.96553" lon="-0.93727">
        <ele>147.8</ele>
        <time>2012-05-06T07:41:39Z</time>
      </trkpt>
      <trkpt lat="46.96553" lon="-0.93703">
        <ele>147.8</ele>
        <time>2012-05-06T07:41:43Z</time>
      </trkpt>
      <trkpt lat="46.96554" lon="-0.93675">
        <ele>147.9</ele>
        <time>2012-05-06T07:41:47Z</time>
      </trkpt>
      <trkpt lat="46.96557" lon="-0.93646">
        <ele>147.3</ele>
        <time>2012-05-06T07:41:51Z</time>
      </trkpt>
      <trkpt lat="46.96559" lon="-0.93632">
        <ele>147.7</ele>
        <time>2012-05-06T07:41:53Z</time>
      </trkpt>
      <trkpt lat="46.96567" lon="-0.93565">
        <ele>147.6</ele>
        <time>2012-05-06T07:42:03Z</time>
      </trkpt>
      <trkpt lat="46.96563" lon="-0.9353">
        <ele>147.5</ele>
        <time>2012-05-06T07:42:10Z</time>
      </trkpt>
      <trkpt lat="46.96557" lon="-0.93507">
        <ele>148.2</ele>
        <time>2012-05-06T07:42:14Z</time>
      </trkpt>
      <trkpt lat="46.96559" lon="-0.9348">
        <ele>148.7</ele>
        <time>2012-05-06T07:42:18Z</time>
      </trkpt>
      <trkpt lat="46.96565" lon="-0.93449">
        <ele>148.5</ele>
        <time>2012-05-06T07:42:22Z</time>
      </trkpt>
      <trkpt lat="46.9657" lon="-0.93417">
        <ele>148.8</ele>
        <time>2012-05-06T07:42:26Z</time>
      </trkpt>
      <trkpt lat="46.96575" lon="-0.93386">
        <ele>147.9</ele>
        <time>2012-05-06T07:42:30Z</time>
      </trkpt>
      <trkpt lat="46.96582" lon="-0.93353">
        <ele>148.6</ele>
        <time>2012-05-06T07:42:34Z</time>
      </trkpt>
      <trkpt lat="46.96588" lon="-0.93323">
        <ele>149.7</ele>
        <time>2012-05-06T07:42:38Z</time>
      </trkpt>
      <trkpt lat="46.9659" lon="-0.93282">
        <ele>150.2</ele>
        <time>2012-05-06T07:42:44Z</time>
      </trkpt>
      <trkpt lat="46.96592" lon="-0.93232">
        <ele>148.4</ele>
        <time>2012-05-06T07:42:51Z</time>
      </trkpt>
      <trkpt lat="46.96598" lon="-0.93198">
        <ele>148.3</ele>
        <time>2012-05-06T07:42:55Z</time>
      </trkpt>
      <trkpt lat="46.96601" lon="-0.93169">
        <ele>147.7</ele>
        <time>2012-05-06T07:42:59Z</time>
      </trkpt>
      <trkpt lat="46.96609" lon="-0.93139">
        <ele>147.7</ele>
        <time>2012-05-06T07:43:03Z</time>
      </trkpt>
      <trkpt lat="46.96621" lon="-0.93114">
        <ele>147.3</ele>
        <time>2012-05-06T07:43:07Z</time>
      </trkpt>
      <trkpt lat="46.96632" lon="-0.93087">
        <ele>147.7</ele>
        <time>2012-05-06T07:43:11Z</time>
      </trkpt>
      <trkpt lat="46.96645" lon="-0.93063">
        <ele>147.5</ele>
        <time>2012-05-06T07:43:15Z</time>
      </trkpt>
      <trkpt lat="46.9666" lon="-0.93041">
        <ele>148</ele>
        <time>2012-05-06T07:43:19Z</time>
      </trkpt>
      <trkpt lat="46.96669" lon="-0.93032">
        <ele>148.3</ele>
        <time>2012-05-06T07:43:21Z</time>
      </trkpt>
      <trkpt lat="46.96692" lon="-0.93009">
        <ele>148.5</ele>
        <time>2012-05-06T07:43:27Z</time>
      </trkpt>
      <trkpt lat="46.96705" lon="-0.92995">
        <ele>149.2</ele>
        <time>2012-05-06T07:43:31Z</time>
      </trkpt>
      <trkpt lat="46.9669" lon="-0.92983">
        <ele>152.4</ele>
        <time>2012-05-06T07:43:40Z</time>
      </trkpt>
      <trkpt lat="46.96664" lon="-0.92963">
        <ele>153.6</ele>
        <time>2012-05-06T07:43:46Z</time>
      </trkpt>
      <trkpt lat="46.96649" lon="-0.9294">
        <ele>153.4</ele>
        <time>2012-05-06T07:43:50Z</time>
      </trkpt>
      <trkpt lat="46.96632" lon="-0.92919">
        <ele>154.3</ele>
        <time>2012-05-06T07:43:54Z</time>
      </trkpt>
      <trkpt lat="46.96623" lon="-0.92913">
        <ele>153.5</ele>
        <time>2012-05-06T07:43:56Z</time>
      </trkpt>
      <trkpt lat="46.96582" lon="-0.92909">
        <ele>154.7</ele>
        <time>2012-05-06T07:44:06Z</time>
      </trkpt>
      <trkpt lat="46.96574" lon="-0.92905">
        <ele>154.1</ele>
        <time>2012-05-06T07:44:08Z</time>
      </trkpt>
      <trkpt lat="46.96571" lon="-0.92885">
        <ele>153.9</ele>
        <time>2012-05-06T07:44:13Z</time>
      </trkpt>
      <trkpt lat="46.96577" lon="-0.92862">
        <ele>154.7</ele>
        <time>2012-05-06T07:44:17Z</time>
      </trkpt>
      <trkpt lat="46.96586" lon="-0.92839">
        <ele>154.6</ele>
        <time>2012-05-06T07:44:22Z</time>
      </trkpt>
      <trkpt lat="46.96589" lon="-0.92831">
        <ele>154.1</ele>
        <time>2012-05-06T07:44:26Z</time>
      </trkpt>
      <trkpt lat="46.96586" lon="-0.92793">
        <ele>154.4</ele>
        <time>2012-05-06T07:44:33Z</time>
      </trkpt>
      <trkpt lat="46.96583" lon="-0.92784">
        <ele>154.2</ele>
        <time>2012-05-06T07:44:35Z</time>
      </trkpt>
      <trkpt lat="46.96561" lon="-0.92773">
        <ele>155.5</ele>
        <time>2012-05-06T07:44:41Z</time>
      </trkpt>
      <trkpt lat="46.96558" lon="-0.92753">
        <ele>155.9</ele>
        <time>2012-05-06T07:44:45Z</time>
      </trkpt>
      <trkpt lat="46.96551" lon="-0.92733">
        <ele>156.4</ele>
        <time>2012-05-06T07:44:49Z</time>
      </trkpt>
      <trkpt lat="46.96537" lon="-0.92713">
        <ele>157.7</ele>
        <time>2012-05-06T07:44:53Z</time>
      </trkpt>
      <trkpt lat="46.96521" lon="-0.92701">
        <ele>157.4</ele>
        <time>2012-05-06T07:44:57Z</time>
      </trkpt>
      <trkpt lat="46.96506" lon="-0.92695">
        <ele>159</ele>
        <time>2012-05-06T07:45:01Z</time>
      </trkpt>
      <trkpt lat="46.96486" lon="-0.92696">
        <ele>160.5</ele>
        <time>2012-05-06T07:45:05Z</time>
      </trkpt>
      <trkpt lat="46.96446" lon="-0.9269">
        <ele>161.2</ele>
        <time>2012-05-06T07:45:13Z</time>
      </trkpt>
      <trkpt lat="46.96436" lon="-0.92691">
        <ele>161.2</ele>
        <time>2012-05-06T07:45:15Z</time>
      </trkpt>
      <trkpt lat="46.96409" lon="-0.9269">
        <ele>163.1</ele>
        <time>2012-05-06T07:45:22Z</time>
      </trkpt>
      <trkpt lat="46.96401" lon="-0.92684">
        <ele>162.8</ele>
        <time>2012-05-06T07:45:25Z</time>
      </trkpt>
      <trkpt lat="46.96401" lon="-0.92684">
        <ele>106.5</ele>
        <time>2012-05-06T07:45:37Z</time>
      </trkpt>
      <trkpt lat="46.96401" lon="-0.92684">
        <ele>106.5</ele>
        <time>2012-05-06T07:47:18Z</time>
      </trkpt>
      <trkpt lat="46.96404" lon="-0.92655">
        <ele>155.4</ele>
        <time>2012-05-06T07:47:23Z</time>
      </trkpt>
      <trkpt lat="46.96418" lon="-0.9264">
        <ele>157</ele>
        <time>2012-05-06T07:47:28Z</time>
      </trkpt>
      <trkpt lat="46.96424" lon="-0.92634">
        <ele>157.7</ele>
        <time>2012-05-06T07:47:30Z</time>
      </trkpt>
      <trkpt lat="46.96439" lon="-0.92616">
        <ele>158.2</ele>
        <time>2012-05-06T07:47:36Z</time>
      </trkpt>
      <trkpt lat="46.96447" lon="-0.92609">
        <ele>157.3</ele>
        <time>2012-05-06T07:47:39Z</time>
      </trkpt>
      <trkpt lat="46.96464" lon="-0.92596">
        <ele>156.2</ele>
        <time>2012-05-06T07:47:43Z</time>
      </trkpt>
      <trkpt lat="46.96475" lon="-0.92589">
        <ele>155.6</ele>
        <time>2012-05-06T07:47:45Z</time>
      </trkpt>
      <trkpt lat="46.9649" lon="-0.92563">
        <ele>156.2</ele>
        <time>2012-05-06T07:47:56Z</time>
      </trkpt>
      <trkpt lat="46.96483" lon="-0.92551">
        <ele>156.7</ele>
        <time>2012-05-06T07:47:58Z</time>
      </trkpt>
      <trkpt lat="46.96463" lon="-0.92514">
        <ele>158</ele>
        <time>2012-05-06T07:48:04Z</time>
      </trkpt>
      <trkpt lat="46.96453" lon="-0.92491">
        <ele>158</ele>
        <time>2012-05-06T07:48:08Z</time>
      </trkpt>
      <trkpt lat="46.96447" lon="-0.92471">
        <ele>158</ele>
        <time>2012-05-06T07:48:12Z</time>
      </trkpt>
      <trkpt lat="46.9644" lon="-0.92446">
        <ele>158.4</ele>
        <time>2012-05-06T07:48:16Z</time>
      </trkpt>
      <trkpt lat="46.96432" lon="-0.92429">
        <ele>159</ele>
        <time>2012-05-06T07:48:20Z</time>
      </trkpt>
      <trkpt lat="46.96423" lon="-0.92413">
        <ele>158.8</ele>
        <time>2012-05-06T07:48:24Z</time>
      </trkpt>
      <trkpt lat="46.96419" lon="-0.92391">
        <ele>157.4</ele>
        <time>2012-05-06T07:48:28Z</time>
      </trkpt>
      <trkpt lat="46.9643" lon="-0.92356">
        <ele>155</ele>
        <time>2012-05-06T07:48:32Z</time>
      </trkpt>
      <trkpt lat="46.96444" lon="-0.92324">
        <ele>154.4</ele>
        <time>2012-05-06T07:48:36Z</time>
      </trkpt>
      <trkpt lat="46.96458" lon="-0.923">
        <ele>155.3</ele>
        <time>2012-05-06T07:48:40Z</time>
      </trkpt>
      <trkpt lat="46.96496" lon="-0.9226">
        <ele>155.3</ele>
        <time>2012-05-06T07:48:48Z</time>
      </trkpt>
      <trkpt lat="46.9653" lon="-0.92224">
        <ele>155.7</ele>
        <time>2012-05-06T07:48:56Z</time>
      </trkpt>
      <trkpt lat="46.96545" lon="-0.92205">
        <ele>155.5</ele>
        <time>2012-05-06T07:49:00Z</time>
      </trkpt>
      <trkpt lat="46.9655" lon="-0.92192">
        <ele>155.7</ele>
        <time>2012-05-06T07:49:02Z</time>
      </trkpt>
      <trkpt lat="46.96522" lon="-0.92138">
        <ele>155.8</ele>
        <time>2012-05-06T07:49:12Z</time>
      </trkpt>
      <trkpt lat="46.96512" lon="-0.92137">
        <ele>156.6</ele>
        <time>2012-05-06T07:49:15Z</time>
      </trkpt>
      <trkpt lat="46.96496" lon="-0.9214">
        <ele>157.3</ele>
        <time>2012-05-06T07:49:19Z</time>
      </trkpt>
      <trkpt lat="46.96479" lon="-0.9214">
        <ele>157.9</ele>
        <time>2012-05-06T07:49:23Z</time>
      </trkpt>
      <trkpt lat="46.96461" lon="-0.92132">
        <ele>158.2</ele>
        <time>2012-05-06T07:49:27Z</time>
      </trkpt>
      <trkpt lat="46.96443" lon="-0.92124">
        <ele>158.5</ele>
        <time>2012-05-06T07:49:31Z</time>
      </trkpt>
      <trkpt lat="46.96426" lon="-0.92109">
        <ele>159</ele>
        <time>2012-05-06T07:49:35Z</time>
      </trkpt>
      <trkpt lat="46.96422" lon="-0.92088">
        <ele>160</ele>
        <time>2012-05-06T07:49:39Z</time>
      </trkpt>
      <trkpt lat="46.96416" lon="-0.92055">
        <ele>161.1</ele>
        <time>2012-05-06T07:49:46Z</time>
      </trkpt>
      <trkpt lat="46.96412" lon="-0.92033">
        <ele>161.4</ele>
        <time>2012-05-06T07:49:51Z</time>
      </trkpt>
      <trkpt lat="46.96409" lon="-0.92014">
        <ele>162.2</ele>
        <time>2012-05-06T07:49:55Z</time>
      </trkpt>
      <trkpt lat="46.96414" lon="-0.91988">
        <ele>163.5</ele>
        <time>2012-05-06T07:49:59Z</time>
      </trkpt>
      <trkpt lat="46.96432" lon="-0.91962">
        <ele>163</ele>
        <time>2012-05-06T07:50:03Z</time>
      </trkpt>
      <trkpt lat="46.96458" lon="-0.91937">
        <ele>163</ele>
        <time>2012-05-06T07:50:08Z</time>
      </trkpt>
      <trkpt lat="46.96483" lon="-0.91916">
        <ele>162.3</ele>
        <time>2012-05-06T07:50:12Z</time>
      </trkpt>
      <trkpt lat="46.96502" lon="-0.91915">
        <ele>162.4</ele>
        <time>2012-05-06T07:50:15Z</time>
      </trkpt>
      <trkpt lat="46.96522" lon="-0.9191">
        <ele>161.5</ele>
        <time>2012-05-06T07:50:19Z</time>
      </trkpt>
      <trkpt lat="46.96529" lon="-0.91883">
        <ele>160.6</ele>
        <time>2012-05-06T07:50:23Z</time>
      </trkpt>
      <trkpt lat="46.96541" lon="-0.91855">
        <ele>159.2</ele>
        <time>2012-05-06T07:50:27Z</time>
      </trkpt>
      <trkpt lat="46.96552" lon="-0.91828">
        <ele>158</ele>
        <time>2012-05-06T07:50:31Z</time>
      </trkpt>
      <trkpt lat="46.96559" lon="-0.91806">
        <ele>157</ele>
        <time>2012-05-06T07:50:35Z</time>
      </trkpt>
      <trkpt lat="46.96562" lon="-0.91786">
        <ele>156.7</ele>
        <time>2012-05-06T07:50:39Z</time>
      </trkpt>
      <trkpt lat="46.96562" lon="-0.91777">
        <ele>156.2</ele>
        <time>2012-05-06T07:50:41Z</time>
      </trkpt>
      <trkpt lat="46.96543" lon="-0.91748">
        <ele>158.5</ele>
        <time>2012-05-06T07:50:52Z</time>
      </trkpt>
      <trkpt lat="46.96535" lon="-0.91744">
        <ele>159.6</ele>
        <time>2012-05-06T07:50:56Z</time>
      </trkpt>
      <trkpt lat="46.9653" lon="-0.91737">
        <ele>159.8</ele>
        <time>2012-05-06T07:50:59Z</time>
      </trkpt>
      <trkpt lat="46.96527" lon="-0.91726">
        <ele>160.4</ele>
        <time>2012-05-06T07:51:02Z</time>
      </trkpt>
      <trkpt lat="46.96517" lon="-0.91709">
        <ele>162.4</ele>
        <time>2012-05-06T07:51:08Z</time>
      </trkpt>
      <trkpt lat="46.96511" lon="-0.91702">
        <ele>163.8</ele>
        <time>2012-05-06T07:51:11Z</time>
      </trkpt>
      <trkpt lat="46.96502" lon="-0.91685">
        <ele>164.2</ele>
        <time>2012-05-06T07:51:16Z</time>
      </trkpt>
      <trkpt lat="46.96503" lon="-0.91673">
        <ele>164.5</ele>
        <time>2012-05-06T07:51:18Z</time>
      </trkpt>
      <trkpt lat="46.96504" lon="-0.91664">
        <ele>165.4</ele>
        <time>2012-05-06T07:51:24Z</time>
      </trkpt>
      <trkpt lat="46.96504" lon="-0.91664">
        <ele>111</ele>
        <time>2012-05-06T07:51:35Z</time>
      </trkpt>
      <trkpt lat="46.96504" lon="-0.91664">
        <ele>111</ele>
        <time>2012-05-06T07:54:53Z</time>
      </trkpt>
      <trkpt lat="46.96504" lon="-0.91664">
        <ele>111</ele>
        <time>2012-05-06T07:55:04Z</time>
      </trkpt>
      <trkpt lat="46.96504" lon="-0.91664">
        <ele>111</ele>
        <time>2012-05-06T07:57:52Z</time>
      </trkpt>
      <trkpt lat="46.96504" lon="-0.91664">
        <ele>111</ele>
        <time>2012-05-06T07:58:03Z</time>
      </trkpt>
      <trkpt lat="46.96504" lon="-0.91664">
        <ele>111</ele>
        <time>2012-05-06T07:59:50Z</time>
      </trkpt>
      <trkpt lat="46.96483" lon="-0.91648">
        <ele>170.4</ele>
        <time>2012-05-06T07:59:52Z</time>
      </trkpt>
      <trkpt lat="46.96475" lon="-0.91647">
        <ele>169.8</ele>
        <time>2012-05-06T07:59:54Z</time>
      </trkpt>
      <trkpt lat="46.96454" lon="-0.91631">
        <ele>169.9</ele>
        <time>2012-05-06T08:00:01Z</time>
      </trkpt>
      <trkpt lat="46.96435" lon="-0.91631">
        <ele>170.3</ele>
        <time>2012-05-06T08:00:05Z</time>
      </trkpt>
      <trkpt lat="46.96426" lon="-0.91634">
        <ele>171.4</ele>
        <time>2012-05-06T08:00:08Z</time>
      </trkpt>
      <trkpt lat="46.9641" lon="-0.91632">
        <ele>172.2</ele>
        <time>2012-05-06T08:00:12Z</time>
      </trkpt>
      <trkpt lat="46.96394" lon="-0.91622">
        <ele>172.7</ele>
        <time>2012-05-06T08:00:16Z</time>
      </trkpt>
      <trkpt lat="46.96378" lon="-0.91612">
        <ele>171.7</ele>
        <time>2012-05-06T08:00:20Z</time>
      </trkpt>
      <trkpt lat="46.96365" lon="-0.91601">
        <ele>174.3</ele>
        <time>2012-05-06T08:00:24Z</time>
      </trkpt>
      <trkpt lat="46.96358" lon="-0.91595">
        <ele>175.2</ele>
        <time>2012-05-06T08:00:26Z</time>
      </trkpt>
      <trkpt lat="46.96346" lon="-0.91577">
        <ele>175.8</ele>
        <time>2012-05-06T08:00:31Z</time>
      </trkpt>
      <trkpt lat="46.96337" lon="-0.91558">
        <ele>175.6</ele>
        <time>2012-05-06T08:00:36Z</time>
      </trkpt>
      <trkpt lat="46.96326" lon="-0.91544">
        <ele>176.3</ele>
        <time>2012-05-06T08:00:40Z</time>
      </trkpt>
      <trkpt lat="46.96316" lon="-0.91528">
        <ele>177.1</ele>
        <time>2012-05-06T08:00:44Z</time>
      </trkpt>
      <trkpt lat="46.96308" lon="-0.91509">
        <ele>176.3</ele>
        <time>2012-05-06T08:00:48Z</time>
      </trkpt>
      <trkpt lat="46.963" lon="-0.9149">
        <ele>175.9</ele>
        <time>2012-05-06T08:00:53Z</time>
      </trkpt>
      <trkpt lat="46.963" lon="-0.91479">
        <ele>176.3</ele>
        <time>2012-05-06T08:00:55Z</time>
      </trkpt>
      <trkpt lat="46.96299" lon="-0.91455">
        <ele>176.5</ele>
        <time>2012-05-06T08:01:01Z</time>
      </trkpt>
      <trkpt lat="46.96297" lon="-0.91446">
        <ele>176.6</ele>
        <time>2012-05-06T08:01:03Z</time>
      </trkpt>
      <trkpt lat="46.96296" lon="-0.91423">
        <ele>177.6</ele>
        <time>2012-05-06T08:01:09Z</time>
      </trkpt>
      <trkpt lat="46.96297" lon="-0.91378">
        <ele>180.5</ele>
        <time>2012-05-06T08:01:21Z</time>
      </trkpt>
      <trkpt lat="46.96299" lon="-0.91365">
        <ele>181.4</ele>
        <time>2012-05-06T08:01:24Z</time>
      </trkpt>
      <trkpt lat="46.96299" lon="-0.91354">
        <ele>181.6</ele>
        <time>2012-05-06T08:01:27Z</time>
      </trkpt>
      <trkpt lat="46.96299" lon="-0.91354">
        <ele>139</ele>
        <time>2012-05-06T08:01:39Z</time>
      </trkpt>
      <trkpt lat="46.96299" lon="-0.91354">
        <ele>139</ele>
        <time>2012-05-06T08:01:40Z</time>
      </trkpt>
      <trkpt lat="46.96307" lon="-0.91296">
        <ele>185</ele>
        <time>2012-05-06T08:01:42Z</time>
      </trkpt>
      <trkpt lat="46.96311" lon="-0.91288">
        <ele>185.6</ele>
        <time>2012-05-06T08:01:44Z</time>
      </trkpt>
      <trkpt lat="46.96315" lon="-0.91279">
        <ele>186.7</ele>
        <time>2012-05-06T08:01:47Z</time>
      </trkpt>
      <trkpt lat="46.96317" lon="-0.91267">
        <ele>188.1</ele>
        <time>2012-05-06T08:01:50Z</time>
      </trkpt>
      <trkpt lat="46.96296" lon="-0.91237">
        <ele>192.7</ele>
        <time>2012-05-06T08:02:02Z</time>
      </trkpt>
      <trkpt lat="46.96289" lon="-0.91229">
        <ele>193.5</ele>
        <time>2012-05-06T08:02:05Z</time>
      </trkpt>
      <trkpt lat="46.96286" lon="-0.9122">
        <ele>193.8</ele>
        <time>2012-05-06T08:02:08Z</time>
      </trkpt>
      <trkpt lat="46.96277" lon="-0.91187">
        <ele>195.3</ele>
        <time>2012-05-06T08:02:16Z</time>
      </trkpt>
      <trkpt lat="46.96263" lon="-0.91172">
        <ele>194.9</ele>
        <time>2012-05-06T08:02:22Z</time>
      </trkpt>
      <trkpt lat="46.96259" lon="-0.91164">
        <ele>195.5</ele>
        <time>2012-05-06T08:02:25Z</time>
      </trkpt>
      <trkpt lat="46.96256" lon="-0.91154">
        <ele>196.8</ele>
        <time>2012-05-06T08:02:28Z</time>
      </trkpt>
      <trkpt lat="46.9625" lon="-0.91135">
        <ele>197.2</ele>
        <time>2012-05-06T08:02:33Z</time>
      </trkpt>
      <trkpt lat="46.96243" lon="-0.91115">
        <ele>197.3</ele>
        <time>2012-05-06T08:02:37Z</time>
      </trkpt>
      <trkpt lat="46.96238" lon="-0.91093">
        <ele>197.6</ele>
        <time>2012-05-06T08:02:41Z</time>
      </trkpt>
      <trkpt lat="46.96232" lon="-0.91073">
        <ele>198.6</ele>
        <time>2012-05-06T08:02:45Z</time>
      </trkpt>
      <trkpt lat="46.96222" lon="-0.91056">
        <ele>200.1</ele>
        <time>2012-05-06T08:02:49Z</time>
      </trkpt>
      <trkpt lat="46.96214" lon="-0.91039">
        <ele>200.2</ele>
        <time>2012-05-06T08:02:53Z</time>
      </trkpt>
      <trkpt lat="46.96211" lon="-0.91026">
        <ele>200.9</ele>
        <time>2012-05-06T08:02:56Z</time>
      </trkpt>
      <trkpt lat="46.9622" lon="-0.91004">
        <ele>201.9</ele>
        <time>2012-05-06T08:03:00Z</time>
      </trkpt>
      <trkpt lat="46.96255" lon="-0.90959">
        <ele>202.8</ele>
        <time>2012-05-06T08:03:10Z</time>
      </trkpt>
      <trkpt lat="46.96269" lon="-0.90945">
        <ele>203.6</ele>
        <time>2012-05-06T08:03:14Z</time>
      </trkpt>
      <trkpt lat="46.96281" lon="-0.90932">
        <ele>204.1</ele>
        <time>2012-05-06T08:03:18Z</time>
      </trkpt>
      <trkpt lat="46.96281" lon="-0.90932">
        <ele>157.3</ele>
        <time>2012-05-06T08:03:29Z</time>
      </trkpt>
      <trkpt lat="46.96281" lon="-0.90932">
        <ele>157.3</ele>
        <time>2012-05-06T08:05:24Z</time>
      </trkpt>
      <trkpt lat="46.96281" lon="-0.90932">
        <ele>157.3</ele>
        <time>2012-05-06T08:05:35Z</time>
      </trkpt>
      <trkpt lat="46.96281" lon="-0.90932">
        <ele>157.3</ele>
        <time>2012-05-06T08:07:49Z</time>
      </trkpt>
      <trkpt lat="46.96278" lon="-0.90896">
        <ele>209.9</ele>
        <time>2012-05-06T08:07:53Z</time>
      </trkpt>
      <trkpt lat="46.96265" lon="-0.90882">
        <ele>211.4</ele>
        <time>2012-05-06T08:07:58Z</time>
      </trkpt>
      <trkpt lat="46.96253" lon="-0.90867">
        <ele>211.5</ele>
        <time>2012-05-06T08:08:02Z</time>
      </trkpt>
      <trkpt lat="46.96239" lon="-0.9085">
        <ele>211.4</ele>
        <time>2012-05-06T08:08:06Z</time>
      </trkpt>
      <trkpt lat="46.96223" lon="-0.90832">
        <ele>211.2</ele>
        <time>2012-05-06T08:08:10Z</time>
      </trkpt>
      <trkpt lat="46.96215" lon="-0.90823">
        <ele>211.3</ele>
        <time>2012-05-06T08:08:12Z</time>
      </trkpt>
      <trkpt lat="46.96192" lon="-0.90797">
        <ele>210.4</ele>
        <time>2012-05-06T08:08:18Z</time>
      </trkpt>
      <trkpt lat="46.96179" lon="-0.90778">
        <ele>210</ele>
        <time>2012-05-06T08:08:22Z</time>
      </trkpt>
      <trkpt lat="46.96155" lon="-0.90747">
        <ele>208.8</ele>
        <time>2012-05-06T08:08:30Z</time>
      </trkpt>
      <trkpt lat="46.96149" lon="-0.90739">
        <ele>208.6</ele>
        <time>2012-05-06T08:08:32Z</time>
      </trkpt>
      <trkpt lat="46.9611" lon="-0.90725">
        <ele>207.9</ele>
        <time>2012-05-06T08:08:42Z</time>
      </trkpt>
      <trkpt lat="46.96086" lon="-0.90717">
        <ele>207.3</ele>
        <time>2012-05-06T08:08:46Z</time>
      </trkpt>
      <trkpt lat="46.96062" lon="-0.90694">
        <ele>207</ele>
        <time>2012-05-06T08:08:50Z</time>
      </trkpt>
      <trkpt lat="46.96029" lon="-0.90671">
        <ele>206.1</ele>
        <time>2012-05-06T08:08:55Z</time>
      </trkpt>
      <trkpt lat="46.96004" lon="-0.90654">
        <ele>204.1</ele>
        <time>2012-05-06T08:08:59Z</time>
      </trkpt>
      <trkpt lat="46.95998" lon="-0.90647">
        <ele>203.6</ele>
        <time>2012-05-06T08:09:01Z</time>
      </trkpt>
      <trkpt lat="46.9599" lon="-0.90613">
        <ele>201.9</ele>
        <time>2012-05-06T08:09:07Z</time>
      </trkpt>
      <trkpt lat="46.9599" lon="-0.90601">
        <ele>201.7</ele>
        <time>2012-05-06T08:09:09Z</time>
      </trkpt>
      <trkpt lat="46.9599" lon="-0.9058">
        <ele>202.2</ele>
        <time>2012-05-06T08:09:13Z</time>
      </trkpt>
      <trkpt lat="46.95996" lon="-0.90539">
        <ele>201.3</ele>
        <time>2012-05-06T08:09:19Z</time>
      </trkpt>
      <trkpt lat="46.96001" lon="-0.9051">
        <ele>201.3</ele>
        <time>2012-05-06T08:09:23Z</time>
      </trkpt>
      <trkpt lat="46.96001" lon="-0.90496">
        <ele>201.8</ele>
        <time>2012-05-06T08:09:25Z</time>
      </trkpt>
      <trkpt lat="46.96" lon="-0.90452">
        <ele>201.8</ele>
        <time>2012-05-06T08:09:31Z</time>
      </trkpt>
      <trkpt lat="46.95998" lon="-0.90421">
        <ele>201.6</ele>
        <time>2012-05-06T08:09:35Z</time>
      </trkpt>
      <trkpt lat="46.95995" lon="-0.90406">
        <ele>201.8</ele>
        <time>2012-05-06T08:09:37Z</time>
      </trkpt>
      <trkpt lat="46.95988" lon="-0.90363">
        <ele>202.1</ele>
        <time>2012-05-06T08:09:43Z</time>
      </trkpt>
      <trkpt lat="46.95982" lon="-0.90336">
        <ele>202.7</ele>
        <time>2012-05-06T08:09:47Z</time>
      </trkpt>
      <trkpt lat="46.9598" lon="-0.90322">
        <ele>202.4</ele>
        <time>2012-05-06T08:09:49Z</time>
      </trkpt>
      <trkpt lat="46.95971" lon="-0.90275">
        <ele>202.3</ele>
        <time>2012-05-06T08:09:55Z</time>
      </trkpt>
      <trkpt lat="46.95966" lon="-0.90255">
        <ele>201.4</ele>
        <time>2012-05-06T08:09:59Z</time>
      </trkpt>
      <trkpt lat="46.95935" lon="-0.90261">
        <ele>203.4</ele>
        <time>2012-05-06T08:10:11Z</time>
      </trkpt>
      <trkpt lat="46.95916" lon="-0.90266">
        <ele>203.9</ele>
        <time>2012-05-06T08:10:15Z</time>
      </trkpt>
      <trkpt lat="46.95895" lon="-0.90269">
        <ele>204.2</ele>
        <time>2012-05-06T08:10:19Z</time>
      </trkpt>
      <trkpt lat="46.95884" lon="-0.90268">
        <ele>204.3</ele>
        <time>2012-05-06T08:10:21Z</time>
      </trkpt>
      <trkpt lat="46.95837" lon="-0.90278">
        <ele>204.6</ele>
        <time>2012-05-06T08:10:31Z</time>
      </trkpt>
      <trkpt lat="46.95821" lon="-0.90287">
        <ele>204.4</ele>
        <time>2012-05-06T08:10:35Z</time>
      </trkpt>
      <trkpt lat="46.95805" lon="-0.90297">
        <ele>204.2</ele>
        <time>2012-05-06T08:10:39Z</time>
      </trkpt>
      <trkpt lat="46.95799" lon="-0.90303">
        <ele>203.6</ele>
        <time>2012-05-06T08:10:42Z</time>
      </trkpt>
      <trkpt lat="46.95794" lon="-0.90309">
        <ele>203.3</ele>
        <time>2012-05-06T08:10:44Z</time>
      </trkpt>
      <trkpt lat="46.95781" lon="-0.90308">
        <ele>203.8</ele>
        <time>2012-05-06T08:10:50Z</time>
      </trkpt>
      <trkpt lat="46.95777" lon="-0.90301">
        <ele>203.4</ele>
        <time>2012-05-06T08:10:53Z</time>
      </trkpt>
      <trkpt lat="46.95741" lon="-0.90273">
        <ele>202.8</ele>
        <time>2012-05-06T08:11:03Z</time>
      </trkpt>
      <trkpt lat="46.95728" lon="-0.90251">
        <ele>202.9</ele>
        <time>2012-05-06T08:11:07Z</time>
      </trkpt>
      <trkpt lat="46.95727" lon="-0.90212">
        <ele>202.9</ele>
        <time>2012-05-06T08:11:11Z</time>
      </trkpt>
      <trkpt lat="46.95735" lon="-0.9017">
        <ele>201.9</ele>
        <time>2012-05-06T08:11:15Z</time>
      </trkpt>
      <trkpt lat="46.95743" lon="-0.90137">
        <ele>202.2</ele>
        <time>2012-05-06T08:11:18Z</time>
      </trkpt>
      <trkpt lat="46.95759" lon="-0.9009">
        <ele>200.8</ele>
        <time>2012-05-06T08:11:23Z</time>
      </trkpt>
      <trkpt lat="46.95768" lon="-0.90054">
        <ele>199.6</ele>
        <time>2012-05-06T08:11:27Z</time>
      </trkpt>
      <trkpt lat="46.95773" lon="-0.90046">
        <ele>199.2</ele>
        <time>2012-05-06T08:11:28Z</time>
      </trkpt>
      <trkpt lat="46.95797" lon="-0.90005">
        <ele>197.2</ele>
        <time>2012-05-06T08:11:35Z</time>
      </trkpt>
      <trkpt lat="46.95793" lon="-0.89994">
        <ele>196.6</ele>
        <time>2012-05-06T08:11:38Z</time>
      </trkpt>
      <trkpt lat="46.95781" lon="-0.89981">
        <ele>195.6</ele>
        <time>2012-05-06T08:11:42Z</time>
      </trkpt>
      <trkpt lat="46.95759" lon="-0.89968">
        <ele>194.8</ele>
        <time>2012-05-06T08:11:46Z</time>
      </trkpt>
      <trkpt lat="46.95739" lon="-0.89954">
        <ele>193.1</ele>
        <time>2012-05-06T08:11:50Z</time>
      </trkpt>
      <trkpt lat="46.9572" lon="-0.89941">
        <ele>192.1</ele>
        <time>2012-05-06T08:11:54Z</time>
      </trkpt>
      <trkpt lat="46.95702" lon="-0.89929">
        <ele>191.8</ele>
        <time>2012-05-06T08:11:58Z</time>
      </trkpt>
      <trkpt lat="46.95685" lon="-0.89917">
        <ele>190.9</ele>
        <time>2012-05-06T08:12:02Z</time>
      </trkpt>
      <trkpt lat="46.95669" lon="-0.899">
        <ele>191.2</ele>
        <time>2012-05-06T08:12:06Z</time>
      </trkpt>
      <trkpt lat="46.95662" lon="-0.89876">
        <ele>191.2</ele>
        <time>2012-05-06T08:12:10Z</time>
      </trkpt>
      <trkpt lat="46.95661" lon="-0.89863">
        <ele>191.3</ele>
        <time>2012-05-06T08:12:12Z</time>
      </trkpt>
      <trkpt lat="46.95668" lon="-0.89828">
        <ele>189.5</ele>
        <time>2012-05-06T08:12:18Z</time>
      </trkpt>
      <trkpt lat="46.95685" lon="-0.89816">
        <ele>188.7</ele>
        <time>2012-05-06T08:12:22Z</time>
      </trkpt>
      <trkpt lat="46.95703" lon="-0.89807">
        <ele>188.5</ele>
        <time>2012-05-06T08:12:26Z</time>
      </trkpt>
      <trkpt lat="46.95721" lon="-0.898">
        <ele>187.7</ele>
        <time>2012-05-06T08:12:30Z</time>
      </trkpt>
      <trkpt lat="46.95739" lon="-0.89793">
        <ele>188.1</ele>
        <time>2012-05-06T08:12:34Z</time>
      </trkpt>
      <trkpt lat="46.95758" lon="-0.8979">
        <ele>188</ele>
        <time>2012-05-06T08:12:38Z</time>
      </trkpt>
      <trkpt lat="46.95776" lon="-0.89788">
        <ele>187.9</ele>
        <time>2012-05-06T08:12:42Z</time>
      </trkpt>
      <trkpt lat="46.95795" lon="-0.89788">
        <ele>187.7</ele>
        <time>2012-05-06T08:12:46Z</time>
      </trkpt>
      <trkpt lat="46.95814" lon="-0.8979">
        <ele>186.8</ele>
        <time>2012-05-06T08:12:50Z</time>
      </trkpt>
      <trkpt lat="46.95823" lon="-0.89794">
        <ele>186.5</ele>
        <time>2012-05-06T08:12:52Z</time>
      </trkpt>
      <trkpt lat="46.95846" lon="-0.89807">
        <ele>185.6</ele>
        <time>2012-05-06T08:12:58Z</time>
      </trkpt>
      <trkpt lat="46.95862" lon="-0.89814">
        <ele>185.5</ele>
        <time>2012-05-06T08:13:02Z</time>
      </trkpt>
      <trkpt lat="46.95879" lon="-0.8982">
        <ele>185.8</ele>
        <time>2012-05-06T08:13:06Z</time>
      </trkpt>
      <trkpt lat="46.95887" lon="-0.89825">
        <ele>185.7</ele>
        <time>2012-05-06T08:13:08Z</time>
      </trkpt>
      <trkpt lat="46.95909" lon="-0.89834">
        <ele>186.2</ele>
        <time>2012-05-06T08:13:15Z</time>
      </trkpt>
      <trkpt lat="46.95909" lon="-0.89834">
        <ele>134.4</ele>
        <time>2012-05-06T08:13:26Z</time>
      </trkpt>
      <trkpt lat="46.95909" lon="-0.89834">
        <ele>134.4</ele>
        <time>2012-05-06T08:19:40Z</time>
      </trkpt>
      <trkpt lat="46.95927" lon="-0.89842">
        <ele>189</ele>
        <time>2012-05-06T08:19:41Z</time>
      </trkpt>
      <trkpt lat="46.95938" lon="-0.89869">
        <ele>188.7</ele>
        <time>2012-05-06T08:19:48Z</time>
      </trkpt>
      <trkpt lat="46.95951" lon="-0.89882">
        <ele>189</ele>
        <time>2012-05-06T08:19:52Z</time>
      </trkpt>
      <trkpt lat="46.9596" lon="-0.89891">
        <ele>188.6</ele>
        <time>2012-05-06T08:19:54Z</time>
      </trkpt>
      <trkpt lat="46.95993" lon="-0.89905">
        <ele>187.4</ele>
        <time>2012-05-06T08:20:00Z</time>
      </trkpt>
      <trkpt lat="46.96015" lon="-0.89917">
        <ele>186.6</ele>
        <time>2012-05-06T08:20:04Z</time>
      </trkpt>
      <trkpt lat="46.96035" lon="-0.89926">
        <ele>187.1</ele>
        <time>2012-05-06T08:20:08Z</time>
      </trkpt>
      <trkpt lat="46.96054" lon="-0.89928">
        <ele>186.7</ele>
        <time>2012-05-06T08:20:12Z</time>
      </trkpt>
      <trkpt lat="46.96074" lon="-0.89928">
        <ele>186.4</ele>
        <time>2012-05-06T08:20:16Z</time>
      </trkpt>
      <trkpt lat="46.96094" lon="-0.8993">
        <ele>185.8</ele>
        <time>2012-05-06T08:20:20Z</time>
      </trkpt>
      <trkpt lat="46.96127" lon="-0.8995">
        <ele>186.4</ele>
        <time>2012-05-06T08:20:28Z</time>
      </trkpt>
      <trkpt lat="46.9614" lon="-0.89964">
        <ele>186.4</ele>
        <time>2012-05-06T08:20:32Z</time>
      </trkpt>
      <trkpt lat="46.96146" lon="-0.8997">
        <ele>186.7</ele>
        <time>2012-05-06T08:20:34Z</time>
      </trkpt>
      <trkpt lat="46.9616" lon="-0.89974">
        <ele>186.7</ele>
        <time>2012-05-06T08:20:40Z</time>
      </trkpt>
      <trkpt lat="46.96165" lon="-0.8998">
        <ele>186.9</ele>
        <time>2012-05-06T08:20:43Z</time>
      </trkpt>
      <trkpt lat="46.96185" lon="-0.90017">
        <ele>186.2</ele>
        <time>2012-05-06T08:20:52Z</time>
      </trkpt>
      <trkpt lat="46.96194" lon="-0.90036">
        <ele>186.1</ele>
        <time>2012-05-06T08:20:57Z</time>
      </trkpt>
      <trkpt lat="46.96194" lon="-0.90036">
        <ele>125.7</ele>
        <time>2012-05-06T08:21:08Z</time>
      </trkpt>
      <trkpt lat="46.96194" lon="-0.90036">
        <ele>125.7</ele>
        <time>2012-05-06T08:21:22Z</time>
      </trkpt>
      <trkpt lat="46.96214" lon="-0.90054">
        <ele>183</ele>
        <time>2012-05-06T08:21:27Z</time>
      </trkpt>
      <trkpt lat="46.96229" lon="-0.90059">
        <ele>183.5</ele>
        <time>2012-05-06T08:21:31Z</time>
      </trkpt>
      <trkpt lat="46.96248" lon="-0.90069">
        <ele>183.9</ele>
        <time>2012-05-06T08:21:35Z</time>
      </trkpt>
      <trkpt lat="46.96269" lon="-0.90073">
        <ele>183.6</ele>
        <time>2012-05-06T08:21:39Z</time>
      </trkpt>
      <trkpt lat="46.9629" lon="-0.90076">
        <ele>184</ele>
        <time>2012-05-06T08:21:43Z</time>
      </trkpt>
      <trkpt lat="46.96332" lon="-0.90063">
        <ele>183.3</ele>
        <time>2012-05-06T08:21:51Z</time>
      </trkpt>
      <trkpt lat="46.96356" lon="-0.90059">
        <ele>182.6</ele>
        <time>2012-05-06T08:21:55Z</time>
      </trkpt>
      <trkpt lat="46.96376" lon="-0.90065">
        <ele>181.4</ele>
        <time>2012-05-06T08:21:59Z</time>
      </trkpt>
      <trkpt lat="46.9639" lon="-0.90076">
        <ele>180.4</ele>
        <time>2012-05-06T08:22:05Z</time>
      </trkpt>
      <trkpt lat="46.9639" lon="-0.90076">
        <ele>106.3</ele>
        <time>2012-05-06T08:22:16Z</time>
      </trkpt>
      <trkpt lat="46.9639" lon="-0.90076">
        <ele>106.3</ele>
        <time>2012-05-06T08:22:31Z</time>
      </trkpt>
      <trkpt lat="46.96407" lon="-0.90097">
        <ele>175.3</ele>
        <time>2012-05-06T08:22:33Z</time>
      </trkpt>
      <trkpt lat="46.96422" lon="-0.90114">
        <ele>174.4</ele>
        <time>2012-05-06T08:22:37Z</time>
      </trkpt>
      <trkpt lat="46.96435" lon="-0.90129">
        <ele>173.2</ele>
        <time>2012-05-06T08:22:41Z</time>
      </trkpt>
      <trkpt lat="46.9645" lon="-0.90141">
        <ele>172.1</ele>
        <time>2012-05-06T08:22:45Z</time>
      </trkpt>
      <trkpt lat="46.96485" lon="-0.90169">
        <ele>171</ele>
        <time>2012-05-06T08:22:53Z</time>
      </trkpt>
      <trkpt lat="46.96493" lon="-0.90172">
        <ele>170.8</ele>
        <time>2012-05-06T08:22:55Z</time>
      </trkpt>
      <trkpt lat="46.96508" lon="-0.90176">
        <ele>170.5</ele>
        <time>2012-05-06T08:22:59Z</time>
      </trkpt>
      <trkpt lat="46.96527" lon="-0.90191">
        <ele>171.5</ele>
        <time>2012-05-06T08:23:06Z</time>
      </trkpt>
      <trkpt lat="46.96538" lon="-0.90205">
        <ele>171.9</ele>
        <time>2012-05-06T08:23:10Z</time>
      </trkpt>
      <trkpt lat="46.96553" lon="-0.90208">
        <ele>170.4</ele>
        <time>2012-05-06T08:23:14Z</time>
      </trkpt>
      <trkpt lat="46.96559" lon="-0.90204">
        <ele>169.7</ele>
        <time>2012-05-06T08:23:16Z</time>
      </trkpt>
      <trkpt lat="46.96581" lon="-0.90192">
        <ele>168.1</ele>
        <time>2012-05-06T08:23:24Z</time>
      </trkpt>
      <trkpt lat="46.96602" lon="-0.90207">
        <ele>169.5</ele>
        <time>2012-05-06T08:23:30Z</time>
      </trkpt>
      <trkpt lat="46.96614" lon="-0.90218">
        <ele>169.7</ele>
        <time>2012-05-06T08:23:34Z</time>
      </trkpt>
      <trkpt lat="46.96614" lon="-0.90218">
        <ele>105.9</ele>
        <time>2012-05-06T08:23:45Z</time>
      </trkpt>
      <trkpt lat="46.96614" lon="-0.90218">
        <ele>105.9</ele>
        <time>2012-05-06T08:25:41Z</time>
      </trkpt>
      <trkpt lat="46.96638" lon="-0.90243">
        <ele>170</ele>
        <time>2012-05-06T08:25:45Z</time>
      </trkpt>
      <trkpt lat="46.96653" lon="-0.90257">
        <ele>169.6</ele>
        <time>2012-05-06T08:25:49Z</time>
      </trkpt>
      <trkpt lat="46.96687" lon="-0.90292">
        <ele>168.7</ele>
        <time>2012-05-06T08:25:57Z</time>
      </trkpt>
      <trkpt lat="46.96713" lon="-0.90328">
        <ele>167.7</ele>
        <time>2012-05-06T08:26:06Z</time>
      </trkpt>
      <trkpt lat="46.96718" lon="-0.90349">
        <ele>166.5</ele>
        <time>2012-05-06T08:26:10Z</time>
      </trkpt>
      <trkpt lat="46.96722" lon="-0.90371">
        <ele>165.5</ele>
        <time>2012-05-06T08:26:14Z</time>
      </trkpt>
      <trkpt lat="46.96724" lon="-0.90384">
        <ele>165</ele>
        <time>2012-05-06T08:26:17Z</time>
      </trkpt>
      <trkpt lat="46.96726" lon="-0.90394">
        <ele>164.5</ele>
        <time>2012-05-06T08:26:19Z</time>
      </trkpt>
      <trkpt lat="46.96726" lon="-0.90394">
        <ele>107</ele>
        <time>2012-05-06T08:26:30Z</time>
      </trkpt>
      <trkpt lat="46.96726" lon="-0.90394">
        <ele>107</ele>
        <time>2012-05-06T08:26:36Z</time>
      </trkpt>
      <trkpt lat="46.96733" lon="-0.90435">
        <ele>162</ele>
        <time>2012-05-06T08:26:40Z</time>
      </trkpt>
      <trkpt lat="46.96738" lon="-0.90473">
        <ele>160.7</ele>
        <time>2012-05-06T08:26:47Z</time>
      </trkpt>
      <trkpt lat="46.96738" lon="-0.90483">
        <ele>160.8</ele>
        <time>2012-05-06T08:26:50Z</time>
      </trkpt>
      <trkpt lat="46.96738" lon="-0.90483">
        <ele>104.6</ele>
        <time>2012-05-06T08:27:01Z</time>
      </trkpt>
      <trkpt lat="46.96738" lon="-0.90483">
        <ele>104.6</ele>
        <time>2012-05-06T08:27:03Z</time>
      </trkpt>
      <trkpt lat="46.96763" lon="-0.90517">
        <ele>159</ele>
        <time>2012-05-06T08:27:05Z</time>
      </trkpt>
      <trkpt lat="46.96769" lon="-0.90525">
        <ele>159</ele>
        <time>2012-05-06T08:27:08Z</time>
      </trkpt>
      <trkpt lat="46.96839" lon="-0.90591">
        <ele>159.4</ele>
        <time>2012-05-06T08:27:45Z</time>
      </trkpt>
      <trkpt lat="46.9685" lon="-0.90606">
        <ele>160.1</ele>
        <time>2012-05-06T08:27:49Z</time>
      </trkpt>
      <trkpt lat="46.96861" lon="-0.90623">
        <ele>160.5</ele>
        <time>2012-05-06T08:27:53Z</time>
      </trkpt>
      <trkpt lat="46.96893" lon="-0.90672">
        <ele>159.2</ele>
        <time>2012-05-06T08:28:02Z</time>
      </trkpt>
      <trkpt lat="46.96907" lon="-0.90692">
        <ele>158.9</ele>
        <time>2012-05-06T08:28:06Z</time>
      </trkpt>
      <trkpt lat="46.96938" lon="-0.90731">
        <ele>159.6</ele>
        <time>2012-05-06T08:28:14Z</time>
      </trkpt>
      <trkpt lat="46.96955" lon="-0.90783">
        <ele>159.4</ele>
        <time>2012-05-06T08:28:22Z</time>
      </trkpt>
      <trkpt lat="46.96958" lon="-0.90795">
        <ele>159.9</ele>
        <time>2012-05-06T08:28:23Z</time>
      </trkpt>
      <trkpt lat="46.9697" lon="-0.90827">
        <ele>160.2</ele>
        <time>2012-05-06T08:28:30Z</time>
      </trkpt>
      <trkpt lat="46.96981" lon="-0.90878">
        <ele>161.2</ele>
        <time>2012-05-06T08:28:37Z</time>
      </trkpt>
      <trkpt lat="46.96985" lon="-0.90892">
        <ele>160.9</ele>
        <time>2012-05-06T08:28:39Z</time>
      </trkpt>
      <trkpt lat="46.96996" lon="-0.90927">
        <ele>160</ele>
        <time>2012-05-06T08:28:45Z</time>
      </trkpt>
      <trkpt lat="46.97" lon="-0.90948">
        <ele>159.4</ele>
        <time>2012-05-06T08:28:49Z</time>
      </trkpt>
      <trkpt lat="46.97003" lon="-0.90959">
        <ele>160.7</ele>
        <time>2012-05-06T08:28:57Z</time>
      </trkpt>
      <trkpt lat="46.97001" lon="-0.90969">
        <ele>160.6</ele>
        <time>2012-05-06T08:28:59Z</time>
      </trkpt>
      <trkpt lat="46.96999" lon="-0.90978">
        <ele>160</ele>
        <time>2012-05-06T08:29:10Z</time>
      </trkpt>
      <trkpt lat="46.96999" lon="-0.90978">
        <ele>108.4</ele>
        <time>2012-05-06T08:29:22Z</time>
      </trkpt>
      <trkpt lat="46.96999" lon="-0.90978">
        <ele>108.4</ele>
        <time>2012-05-06T08:30:01Z</time>
      </trkpt>
      <trkpt lat="46.96996" lon="-0.91027">
        <ele>168.2</ele>
        <time>2012-05-06T08:30:04Z</time>
      </trkpt>
      <trkpt lat="46.96998" lon="-0.91037">
        <ele>168.2</ele>
        <time>2012-05-06T08:30:06Z</time>
      </trkpt>
      <trkpt lat="46.96998" lon="-0.91037">
        <ele>118.3</ele>
        <time>2012-05-06T08:30:17Z</time>
      </trkpt>
      <trkpt lat="46.96998" lon="-0.91037">
        <ele>118.3</ele>
        <time>2012-05-06T08:30:30Z</time>
      </trkpt>
      <trkpt lat="46.97015" lon="-0.91109">
        <ele>171.8</ele>
        <time>2012-05-06T08:30:34Z</time>
      </trkpt>
      <trkpt lat="46.97015" lon="-0.91109">
        <ele>120.5</ele>
        <time>2012-05-06T08:30:45Z</time>
      </trkpt>
      <trkpt lat="46.97015" lon="-0.91109">
        <ele>120.5</ele>
        <time>2012-05-06T08:30:51Z</time>
      </trkpt>
      <trkpt lat="46.96996" lon="-0.9117">
        <ele>171.5</ele>
        <time>2012-05-06T08:30:56Z</time>
      </trkpt>
      <trkpt lat="46.96994" lon="-0.91193">
        <ele>171</ele>
        <time>2012-05-06T08:31:00Z</time>
      </trkpt>
      <trkpt lat="46.96993" lon="-0.91203">
        <ele>171.2</ele>
        <time>2012-05-06T08:31:02Z</time>
      </trkpt>
      <trkpt lat="46.96989" lon="-0.91245">
        <ele>170.2</ele>
        <time>2012-05-06T08:31:16Z</time>
      </trkpt>
      <trkpt lat="46.96991" lon="-0.91255">
        <ele>170.3</ele>
        <time>2012-05-06T08:31:18Z</time>
      </trkpt>
      <trkpt lat="46.96992" lon="-0.91274">
        <ele>170</ele>
        <time>2012-05-06T08:31:24Z</time>
      </trkpt>
      <trkpt lat="46.9699" lon="-0.91283">
        <ele>170.6</ele>
        <time>2012-05-06T08:31:32Z</time>
      </trkpt>
      <trkpt lat="46.9699" lon="-0.91292">
        <ele>170.6</ele>
        <time>2012-05-06T08:31:43Z</time>
      </trkpt>
      <trkpt lat="46.9699" lon="-0.91343">
        <ele>171</ele>
        <time>2012-05-06T08:31:52Z</time>
      </trkpt>
      <trkpt lat="46.96999" lon="-0.91355">
        <ele>172.1</ele>
        <time>2012-05-06T08:31:56Z</time>
      </trkpt>
      <trkpt lat="46.97007" lon="-0.9136">
        <ele>172.5</ele>
        <time>2012-05-06T08:32:00Z</time>
      </trkpt>
      <trkpt lat="46.97013" lon="-0.91381">
        <ele>173.6</ele>
        <time>2012-05-06T08:32:08Z</time>
      </trkpt>
      <trkpt lat="46.97016" lon="-0.91391">
        <ele>174.6</ele>
        <time>2012-05-06T08:32:12Z</time>
      </trkpt>
      <trkpt lat="46.97026" lon="-0.91422">
        <ele>176.8</ele>
        <time>2012-05-06T08:32:23Z</time>
      </trkpt>
      <trkpt lat="46.97025" lon="-0.91445">
        <ele>176.5</ele>
        <time>2012-05-06T08:32:28Z</time>
      </trkpt>
      <trkpt lat="46.97026" lon="-0.91455">
        <ele>176.9</ele>
        <time>2012-05-06T08:32:31Z</time>
      </trkpt>
      <trkpt lat="46.97028" lon="-0.91466">
        <ele>177.2</ele>
        <time>2012-05-06T08:32:34Z</time>
      </trkpt>
      <trkpt lat="46.97026" lon="-0.91489">
        <ele>177.6</ele>
        <time>2012-05-06T08:32:40Z</time>
      </trkpt>
      <trkpt lat="46.97025" lon="-0.91501">
        <ele>177.1</ele>
        <time>2012-05-06T08:32:43Z</time>
      </trkpt>
      <trkpt lat="46.97024" lon="-0.91522">
        <ele>176.5</ele>
        <time>2012-05-06T08:32:47Z</time>
      </trkpt>
      <trkpt lat="46.97026" lon="-0.91534">
        <ele>176.2</ele>
        <time>2012-05-06T08:32:49Z</time>
      </trkpt>
      <trkpt lat="46.97024" lon="-0.91553">
        <ele>175.1</ele>
        <time>2012-05-06T08:32:54Z</time>
      </trkpt>
      <trkpt lat="46.97017" lon="-0.91562">
        <ele>174.2</ele>
        <time>2012-05-06T08:32:59Z</time>
      </trkpt>
      <trkpt lat="46.96997" lon="-0.9157">
        <ele>172.8</ele>
        <time>2012-05-06T08:33:05Z</time>
      </trkpt>
      <trkpt lat="46.96982" lon="-0.91578">
        <ele>171.7</ele>
        <time>2012-05-06T08:33:09Z</time>
      </trkpt>
      <trkpt lat="46.96971" lon="-0.91592">
        <ele>171.2</ele>
        <time>2012-05-06T08:33:15Z</time>
      </trkpt>
      <trkpt lat="46.9697" lon="-0.91602">
        <ele>170.7</ele>
        <time>2012-05-06T08:33:18Z</time>
      </trkpt>
      <trkpt lat="46.96967" lon="-0.9161">
        <ele>170.8</ele>
        <time>2012-05-06T08:33:21Z</time>
      </trkpt>
      <trkpt lat="46.96961" lon="-0.91632">
        <ele>170.4</ele>
        <time>2012-05-06T08:33:28Z</time>
      </trkpt>
      <trkpt lat="46.96959" lon="-0.91644">
        <ele>170.2</ele>
        <time>2012-05-06T08:33:31Z</time>
      </trkpt>
      <trkpt lat="46.96962" lon="-0.91654">
        <ele>169.6</ele>
        <time>2012-05-06T08:33:34Z</time>
      </trkpt>
      <trkpt lat="46.96972" lon="-0.91678">
        <ele>168.2</ele>
        <time>2012-05-06T08:33:39Z</time>
      </trkpt>
      <trkpt lat="46.96972" lon="-0.91689">
        <ele>168.3</ele>
        <time>2012-05-06T08:33:43Z</time>
      </trkpt>
      <trkpt lat="46.96984" lon="-0.91703">
        <ele>168.8</ele>
        <time>2012-05-06T08:33:56Z</time>
      </trkpt>
      <trkpt lat="46.96991" lon="-0.91704">
        <ele>168.8</ele>
        <time>2012-05-06T08:33:58Z</time>
      </trkpt>
      <trkpt lat="46.96991" lon="-0.91704">
        <ele>112.2</ele>
        <time>2012-05-06T08:34:10Z</time>
      </trkpt>
      <trkpt lat="46.96991" lon="-0.91704">
        <ele>112.2</ele>
        <time>2012-05-06T08:34:10Z</time>
      </trkpt>
      <trkpt lat="46.96968" lon="-0.91731">
        <ele>167.8</ele>
        <time>2012-05-06T08:34:13Z</time>
      </trkpt>
      <trkpt lat="46.96962" lon="-0.91736">
        <ele>168.1</ele>
        <time>2012-05-06T08:34:16Z</time>
      </trkpt>
      <trkpt lat="46.96948" lon="-0.91748">
        <ele>168.6</ele>
        <time>2012-05-06T08:34:21Z</time>
      </trkpt>
      <trkpt lat="46.96937" lon="-0.91759">
        <ele>168.4</ele>
        <time>2012-05-06T08:34:25Z</time>
      </trkpt>
      <trkpt lat="46.96924" lon="-0.91771">
        <ele>168.4</ele>
        <time>2012-05-06T08:34:29Z</time>
      </trkpt>
      <trkpt lat="46.96906" lon="-0.9178">
        <ele>169.1</ele>
        <time>2012-05-06T08:34:33Z</time>
      </trkpt>
      <trkpt lat="46.96882" lon="-0.91775">
        <ele>169.7</ele>
        <time>2012-05-06T08:34:37Z</time>
      </trkpt>
      <trkpt lat="46.96865" lon="-0.91764">
        <ele>169.9</ele>
        <time>2012-05-06T08:34:40Z</time>
      </trkpt>
      <trkpt lat="46.96855" lon="-0.91764">
        <ele>170.5</ele>
        <time>2012-05-06T08:34:42Z</time>
      </trkpt>
      <trkpt lat="46.96842" lon="-0.91774">
        <ele>170.6</ele>
        <time>2012-05-06T08:34:46Z</time>
      </trkpt>
      <trkpt lat="46.96835" lon="-0.91796">
        <ele>170.7</ele>
        <time>2012-05-06T08:34:52Z</time>
      </trkpt>
      <trkpt lat="46.9683" lon="-0.91808">
        <ele>170.6</ele>
        <time>2012-05-06T08:34:55Z</time>
      </trkpt>
      <trkpt lat="46.9683" lon="-0.91818">
        <ele>170.6</ele>
        <time>2012-05-06T08:34:58Z</time>
      </trkpt>
      <trkpt lat="46.96825" lon="-0.91835">
        <ele>170.8</ele>
        <time>2012-05-06T08:35:05Z</time>
      </trkpt>
      <trkpt lat="46.96804" lon="-0.91861">
        <ele>171.8</ele>
        <time>2012-05-06T08:35:14Z</time>
      </trkpt>
      <trkpt lat="46.96791" lon="-0.91893">
        <ele>172.1</ele>
        <time>2012-05-06T08:35:20Z</time>
      </trkpt>
      <trkpt lat="46.96779" lon="-0.91897">
        <ele>172</ele>
        <time>2012-05-06T08:35:24Z</time>
      </trkpt>
      <trkpt lat="46.96766" lon="-0.91887">
        <ele>171</ele>
        <time>2012-05-06T08:35:29Z</time>
      </trkpt>
      <trkpt lat="46.96762" lon="-0.91879">
        <ele>170.5</ele>
        <time>2012-05-06T08:35:32Z</time>
      </trkpt>
      <trkpt lat="46.96759" lon="-0.9189">
        <ele>168.8</ele>
        <time>2012-05-06T08:35:40Z</time>
      </trkpt>
      <trkpt lat="46.96754" lon="-0.91914">
        <ele>167.7</ele>
        <time>2012-05-06T08:35:44Z</time>
      </trkpt>
      <trkpt lat="46.96748" lon="-0.91926">
        <ele>167</ele>
        <time>2012-05-06T08:35:46Z</time>
      </trkpt>
      <trkpt lat="46.9673" lon="-0.91965">
        <ele>164.9</ele>
        <time>2012-05-06T08:35:52Z</time>
      </trkpt>
      <trkpt lat="46.96732" lon="-0.91993">
        <ele>163.9</ele>
        <time>2012-05-06T08:35:56Z</time>
      </trkpt>
      <trkpt lat="46.96735" lon="-0.92005">
        <ele>163.8</ele>
        <time>2012-05-06T08:35:58Z</time>
      </trkpt>
      <trkpt lat="46.96737" lon="-0.92036">
        <ele>163</ele>
        <time>2012-05-06T08:36:05Z</time>
      </trkpt>
      <trkpt lat="46.96736" lon="-0.92049">
        <ele>162.3</ele>
        <time>2012-05-06T08:36:08Z</time>
      </trkpt>
      <trkpt lat="46.96733" lon="-0.92061">
        <ele>162.4</ele>
        <time>2012-05-06T08:36:11Z</time>
      </trkpt>
      <trkpt lat="46.96727" lon="-0.92088">
        <ele>161.5</ele>
        <time>2012-05-06T08:36:16Z</time>
      </trkpt>
      <trkpt lat="46.96721" lon="-0.92113">
        <ele>162.5</ele>
        <time>2012-05-06T08:36:20Z</time>
      </trkpt>
      <trkpt lat="46.96715" lon="-0.92134">
        <ele>163.2</ele>
        <time>2012-05-06T08:36:24Z</time>
      </trkpt>
      <trkpt lat="46.96707" lon="-0.92155">
        <ele>164.4</ele>
        <time>2012-05-06T08:36:29Z</time>
      </trkpt>
      <trkpt lat="46.96702" lon="-0.92161">
        <ele>164.7</ele>
        <time>2012-05-06T08:36:31Z</time>
      </trkpt>
      <trkpt lat="46.96688" lon="-0.92185">
        <ele>164.5</ele>
        <time>2012-05-06T08:36:39Z</time>
      </trkpt>
      <trkpt lat="46.96686" lon="-0.92193">
        <ele>164.2</ele>
        <time>2012-05-06T08:36:43Z</time>
      </trkpt>
      <trkpt lat="46.96685" lon="-0.92203">
        <ele>164.3</ele>
        <time>2012-05-06T08:36:46Z</time>
      </trkpt>
      <trkpt lat="46.96693" lon="-0.92206">
        <ele>165</ele>
        <time>2012-05-06T08:36:55Z</time>
      </trkpt>
      <trkpt lat="46.96708" lon="-0.92204">
        <ele>166.4</ele>
        <time>2012-05-06T08:37:01Z</time>
      </trkpt>
      <trkpt lat="46.96714" lon="-0.92206">
        <ele>166.8</ele>
        <time>2012-05-06T08:37:04Z</time>
      </trkpt>
      <trkpt lat="46.9672" lon="-0.92209">
        <ele>167.5</ele>
        <time>2012-05-06T08:37:07Z</time>
      </trkpt>
      <trkpt lat="46.9672" lon="-0.92209">
        <ele>120.3</ele>
        <time>2012-05-06T08:37:18Z</time>
      </trkpt>
      <trkpt lat="46.9672" lon="-0.92209">
        <ele>120.3</ele>
        <time>2012-05-06T08:37:19Z</time>
      </trkpt>
      <trkpt lat="46.96741" lon="-0.92184">
        <ele>172.2</ele>
        <time>2012-05-06T08:37:22Z</time>
      </trkpt>
      <trkpt lat="46.96745" lon="-0.92171">
        <ele>173</ele>
        <time>2012-05-06T08:37:25Z</time>
      </trkpt>
      <trkpt lat="46.96753" lon="-0.92143">
        <ele>173.1</ele>
        <time>2012-05-06T08:37:29Z</time>
      </trkpt>
      <trkpt lat="46.96761" lon="-0.92122">
        <ele>175.1</ele>
        <time>2012-05-06T08:37:34Z</time>
      </trkpt>
      <trkpt lat="46.96767" lon="-0.92117">
        <ele>175.1</ele>
        <time>2012-05-06T08:37:36Z</time>
      </trkpt>
      <trkpt lat="46.96773" lon="-0.9211">
        <ele>174.8</ele>
        <time>2012-05-06T08:37:39Z</time>
      </trkpt>
      <trkpt lat="46.9679" lon="-0.9209">
        <ele>176.8</ele>
        <time>2012-05-06T08:37:49Z</time>
      </trkpt>
      <trkpt lat="46.96795" lon="-0.92083">
        <ele>177.6</ele>
        <time>2012-05-06T08:37:52Z</time>
      </trkpt>
      <trkpt lat="46.968" lon="-0.92063">
        <ele>178.4</ele>
        <time>2012-05-06T08:37:58Z</time>
      </trkpt>
      <trkpt lat="46.96808" lon="-0.92043">
        <ele>179.1</ele>
        <time>2012-05-06T08:38:02Z</time>
      </trkpt>
      <trkpt lat="46.96823" lon="-0.92029">
        <ele>179.7</ele>
        <time>2012-05-06T08:38:06Z</time>
      </trkpt>
      <trkpt lat="46.96835" lon="-0.92017">
        <ele>179.7</ele>
        <time>2012-05-06T08:38:10Z</time>
      </trkpt>
      <trkpt lat="46.96846" lon="-0.92">
        <ele>180.1</ele>
        <time>2012-05-06T08:38:14Z</time>
      </trkpt>
      <trkpt lat="46.96859" lon="-0.91985">
        <ele>179.3</ele>
        <time>2012-05-06T08:38:18Z</time>
      </trkpt>
      <trkpt lat="46.96875" lon="-0.91974">
        <ele>179.3</ele>
        <time>2012-05-06T08:38:22Z</time>
      </trkpt>
      <trkpt lat="46.9689" lon="-0.9197">
        <ele>180.4</ele>
        <time>2012-05-06T08:38:26Z</time>
      </trkpt>
      <trkpt lat="46.96898" lon="-0.91969">
        <ele>181</ele>
        <time>2012-05-06T08:38:28Z</time>
      </trkpt>
      <trkpt lat="46.96921" lon="-0.91966">
        <ele>181.6</ele>
        <time>2012-05-06T08:38:34Z</time>
      </trkpt>
      <trkpt lat="46.96936" lon="-0.91961">
        <ele>181.7</ele>
        <time>2012-05-06T08:38:38Z</time>
      </trkpt>
      <trkpt lat="46.96949" lon="-0.91951">
        <ele>182.2</ele>
        <time>2012-05-06T08:38:42Z</time>
      </trkpt>
      <trkpt lat="46.96962" lon="-0.91944">
        <ele>182.8</ele>
        <time>2012-05-06T08:38:46Z</time>
      </trkpt>
      <trkpt lat="46.96971" lon="-0.91944">
        <ele>183.6</ele>
        <time>2012-05-06T08:38:49Z</time>
      </trkpt>
      <trkpt lat="46.96993" lon="-0.91955">
        <ele>186</ele>
        <time>2012-05-06T08:38:57Z</time>
      </trkpt>
      <trkpt lat="46.97005" lon="-0.91966">
        <ele>186.6</ele>
        <time>2012-05-06T08:39:01Z</time>
      </trkpt>
      <trkpt lat="46.97017" lon="-0.91977">
        <ele>187.1</ele>
        <time>2012-05-06T08:39:05Z</time>
      </trkpt>
      <trkpt lat="46.9703" lon="-0.9199">
        <ele>187.3</ele>
        <time>2012-05-06T08:39:09Z</time>
      </trkpt>
      <trkpt lat="46.97042" lon="-0.91999">
        <ele>188.5</ele>
        <time>2012-05-06T08:39:13Z</time>
      </trkpt>
      <trkpt lat="46.97055" lon="-0.92009">
        <ele>189.2</ele>
        <time>2012-05-06T08:39:17Z</time>
      </trkpt>
      <trkpt lat="46.97068" lon="-0.92018">
        <ele>190</ele>
        <time>2012-05-06T08:39:21Z</time>
      </trkpt>
      <trkpt lat="46.97082" lon="-0.92028">
        <ele>190.7</ele>
        <time>2012-05-06T08:39:25Z</time>
      </trkpt>
      <trkpt lat="46.97089" lon="-0.92032">
        <ele>190.9</ele>
        <time>2012-05-06T08:39:27Z</time>
      </trkpt>
      <trkpt lat="46.97113" lon="-0.92045">
        <ele>190.7</ele>
        <time>2012-05-06T08:39:33Z</time>
      </trkpt>
      <trkpt lat="46.97129" lon="-0.92054">
        <ele>191.1</ele>
        <time>2012-05-06T08:39:37Z</time>
      </trkpt>
      <trkpt lat="46.97155" lon="-0.92067">
        <ele>191.8</ele>
        <time>2012-05-06T08:39:43Z</time>
      </trkpt>
      <trkpt lat="46.9718" lon="-0.92079">
        <ele>191.7</ele>
        <time>2012-05-06T08:39:49Z</time>
      </trkpt>
      <trkpt lat="46.97195" lon="-0.92086">
        <ele>192.7</ele>
        <time>2012-05-06T08:39:53Z</time>
      </trkpt>
      <trkpt lat="46.97211" lon="-0.92094">
        <ele>193.3</ele>
        <time>2012-05-06T08:39:57Z</time>
      </trkpt>
      <trkpt lat="46.97228" lon="-0.92103">
        <ele>193.7</ele>
        <time>2012-05-06T08:40:01Z</time>
      </trkpt>
      <trkpt lat="46.97243" lon="-0.92111">
        <ele>194</ele>
        <time>2012-05-06T08:40:05Z</time>
      </trkpt>
      <trkpt lat="46.9726" lon="-0.9212">
        <ele>194.1</ele>
        <time>2012-05-06T08:40:09Z</time>
      </trkpt>
      <trkpt lat="46.97276" lon="-0.92129">
        <ele>194.3</ele>
        <time>2012-05-06T08:40:13Z</time>
      </trkpt>
      <trkpt lat="46.97294" lon="-0.92138">
        <ele>194.3</ele>
        <time>2012-05-06T08:40:17Z</time>
      </trkpt>
      <trkpt lat="46.9731" lon="-0.92147">
        <ele>194.3</ele>
        <time>2012-05-06T08:40:21Z</time>
      </trkpt>
      <trkpt lat="46.97325" lon="-0.92156">
        <ele>195.1</ele>
        <time>2012-05-06T08:40:25Z</time>
      </trkpt>
      <trkpt lat="46.97329" lon="-0.92164">
        <ele>195.4</ele>
        <time>2012-05-06T08:40:27Z</time>
      </trkpt>
      <trkpt lat="46.97323" lon="-0.92203">
        <ele>194.9</ele>
        <time>2012-05-06T08:40:33Z</time>
      </trkpt>
      <trkpt lat="46.97322" lon="-0.92234">
        <ele>194.1</ele>
        <time>2012-05-06T08:40:37Z</time>
      </trkpt>
      <trkpt lat="46.97323" lon="-0.92265">
        <ele>193.6</ele>
        <time>2012-05-06T08:40:41Z</time>
      </trkpt>
      <trkpt lat="46.97324" lon="-0.92295">
        <ele>193.3</ele>
        <time>2012-05-06T08:40:45Z</time>
      </trkpt>
      <trkpt lat="46.97323" lon="-0.92325">
        <ele>193</ele>
        <time>2012-05-06T08:40:49Z</time>
      </trkpt>
      <trkpt lat="46.9732" lon="-0.92355">
        <ele>192.7</ele>
        <time>2012-05-06T08:40:53Z</time>
      </trkpt>
      <trkpt lat="46.97312" lon="-0.92383">
        <ele>192.4</ele>
        <time>2012-05-06T08:40:57Z</time>
      </trkpt>
      <trkpt lat="46.97301" lon="-0.92411">
        <ele>191.7</ele>
        <time>2012-05-06T08:41:01Z</time>
      </trkpt>
      <trkpt lat="46.97294" lon="-0.92441">
        <ele>190.8</ele>
        <time>2012-05-06T08:41:05Z</time>
      </trkpt>
      <trkpt lat="46.97293" lon="-0.92473">
        <ele>190.6</ele>
        <time>2012-05-06T08:41:09Z</time>
      </trkpt>
      <trkpt lat="46.97291" lon="-0.92505">
        <ele>190.3</ele>
        <time>2012-05-06T08:41:13Z</time>
      </trkpt>
      <trkpt lat="46.97286" lon="-0.92537">
        <ele>189.9</ele>
        <time>2012-05-06T08:41:17Z</time>
      </trkpt>
      <trkpt lat="46.97286" lon="-0.9257">
        <ele>189.8</ele>
        <time>2012-05-06T08:41:21Z</time>
      </trkpt>
      <trkpt lat="46.97288" lon="-0.926">
        <ele>189.2</ele>
        <time>2012-05-06T08:41:25Z</time>
      </trkpt>
      <trkpt lat="46.97286" lon="-0.92611">
        <ele>189.3</ele>
        <time>2012-05-06T08:41:27Z</time>
      </trkpt>
      <trkpt lat="46.9726" lon="-0.92629">
        <ele>189.5</ele>
        <time>2012-05-06T08:41:33Z</time>
      </trkpt>
      <trkpt lat="46.97239" lon="-0.92638">
        <ele>189.7</ele>
        <time>2012-05-06T08:41:37Z</time>
      </trkpt>
      <trkpt lat="46.97218" lon="-0.92645">
        <ele>189.4</ele>
        <time>2012-05-06T08:41:41Z</time>
      </trkpt>
      <trkpt lat="46.97201" lon="-0.9266">
        <ele>189.4</ele>
        <time>2012-05-06T08:41:45Z</time>
      </trkpt>
      <trkpt lat="46.97187" lon="-0.92685">
        <ele>188.4</ele>
        <time>2012-05-06T08:41:49Z</time>
      </trkpt>
      <trkpt lat="46.97167" lon="-0.92755">
        <ele>187.1</ele>
        <time>2012-05-06T08:41:58Z</time>
      </trkpt>
      <trkpt lat="46.97152" lon="-0.92789">
        <ele>186.4</ele>
        <time>2012-05-06T08:42:02Z</time>
      </trkpt>
      <trkpt lat="46.9713" lon="-0.92814">
        <ele>185.6</ele>
        <time>2012-05-06T08:42:06Z</time>
      </trkpt>
      <trkpt lat="46.97105" lon="-0.9284">
        <ele>184.2</ele>
        <time>2012-05-06T08:42:10Z</time>
      </trkpt>
      <trkpt lat="46.97084" lon="-0.92871">
        <ele>182.4</ele>
        <time>2012-05-06T08:42:14Z</time>
      </trkpt>
      <trkpt lat="46.97075" lon="-0.9289">
        <ele>181.3</ele>
        <time>2012-05-06T08:42:16Z</time>
      </trkpt>
      <trkpt lat="46.97049" lon="-0.92947">
        <ele>177.7</ele>
        <time>2012-05-06T08:42:22Z</time>
      </trkpt>
      <trkpt lat="46.97035" lon="-0.92966">
        <ele>176.9</ele>
        <time>2012-05-06T08:42:25Z</time>
      </trkpt>
      <trkpt lat="46.97016" lon="-0.92978">
        <ele>176.1</ele>
        <time>2012-05-06T08:42:28Z</time>
      </trkpt>
      <trkpt lat="46.96966" lon="-0.92969">
        <ele>173.4</ele>
        <time>2012-05-06T08:42:34Z</time>
      </trkpt>
      <trkpt lat="46.96933" lon="-0.92941">
        <ele>171.2</ele>
        <time>2012-05-06T08:42:38Z</time>
      </trkpt>
      <trkpt lat="46.96902" lon="-0.92906">
        <ele>171.8</ele>
        <time>2012-05-06T08:42:42Z</time>
      </trkpt>
      <trkpt lat="46.96869" lon="-0.92872">
        <ele>172.6</ele>
        <time>2012-05-06T08:42:46Z</time>
      </trkpt>
      <trkpt lat="46.96844" lon="-0.92842">
        <ele>170.1</ele>
        <time>2012-05-06T08:42:50Z</time>
      </trkpt>
      <trkpt lat="46.96834" lon="-0.92835">
        <ele>170.1</ele>
        <time>2012-05-06T08:42:52Z</time>
      </trkpt>
      <trkpt lat="46.96807" lon="-0.92857">
        <ele>167.1</ele>
        <time>2012-05-06T08:42:58Z</time>
      </trkpt>
      <trkpt lat="46.96791" lon="-0.92881">
        <ele>164.4</ele>
        <time>2012-05-06T08:43:02Z</time>
      </trkpt>
      <trkpt lat="46.96777" lon="-0.92906">
        <ele>162.4</ele>
        <time>2012-05-06T08:43:06Z</time>
      </trkpt>
      <trkpt lat="46.96769" lon="-0.92929">
        <ele>160.1</ele>
        <time>2012-05-06T08:43:09Z</time>
      </trkpt>
      <trkpt lat="46.96756" lon="-0.92958">
        <ele>158.9</ele>
        <time>2012-05-06T08:43:13Z</time>
      </trkpt>
      <trkpt lat="46.96747" lon="-0.9298">
        <ele>158.5</ele>
        <time>2012-05-06T08:43:17Z</time>
      </trkpt>
      <trkpt lat="46.9674" lon="-0.92997">
        <ele>157.9</ele>
        <time>2012-05-06T08:43:22Z</time>
      </trkpt>
      <trkpt lat="46.96741" lon="-0.93006">
        <ele>157.2</ele>
        <time>2012-05-06T08:43:26Z</time>
      </trkpt>
      <trkpt lat="46.96744" lon="-0.93014">
        <ele>158.2</ele>
        <time>2012-05-06T08:43:30Z</time>
      </trkpt>
      <trkpt lat="46.96748" lon="-0.93022">
        <ele>158.5</ele>
        <time>2012-05-06T08:43:33Z</time>
      </trkpt>
      <trkpt lat="46.96755" lon="-0.93031">
        <ele>159.4</ele>
        <time>2012-05-06T08:43:37Z</time>
      </trkpt>
      <trkpt lat="46.9676" lon="-0.93038">
        <ele>160.6</ele>
        <time>2012-05-06T08:43:40Z</time>
      </trkpt>
      <trkpt lat="46.96771" lon="-0.93052">
        <ele>161.7</ele>
        <time>2012-05-06T08:43:46Z</time>
      </trkpt>
      <trkpt lat="46.96776" lon="-0.93059">
        <ele>162.5</ele>
        <time>2012-05-06T08:43:49Z</time>
      </trkpt>
      <trkpt lat="46.96781" lon="-0.93067">
        <ele>162.6</ele>
        <time>2012-05-06T08:43:52Z</time>
      </trkpt>
      <trkpt lat="46.96787" lon="-0.93075">
        <ele>163.3</ele>
        <time>2012-05-06T08:43:55Z</time>
      </trkpt>
      <trkpt lat="46.96798" lon="-0.93087">
        <ele>166.4</ele>
        <time>2012-05-06T08:44:02Z</time>
      </trkpt>
      <trkpt lat="46.96803" lon="-0.93094">
        <ele>167.6</ele>
        <time>2012-05-06T08:44:06Z</time>
      </trkpt>
      <trkpt lat="46.96809" lon="-0.93097">
        <ele>168.4</ele>
        <time>2012-05-06T08:44:09Z</time>
      </trkpt>
      <trkpt lat="46.96816" lon="-0.93101">
        <ele>168.6</ele>
        <time>2012-05-06T08:44:12Z</time>
      </trkpt>
      <trkpt lat="46.9683" lon="-0.93108">
        <ele>170.4</ele>
        <time>2012-05-06T08:44:18Z</time>
      </trkpt>
      <trkpt lat="46.96834" lon="-0.93118">
        <ele>171.3</ele>
        <time>2012-05-06T08:44:21Z</time>
      </trkpt>
      <trkpt lat="46.96837" lon="-0.93129">
        <ele>171.1</ele>
        <time>2012-05-06T08:44:24Z</time>
      </trkpt>
      <trkpt lat="46.96842" lon="-0.93149">
        <ele>171.2</ele>
        <time>2012-05-06T08:44:30Z</time>
      </trkpt>
      <trkpt lat="46.96845" lon="-0.93159">
        <ele>171.4</ele>
        <time>2012-05-06T08:44:33Z</time>
      </trkpt>
      <trkpt lat="46.96848" lon="-0.93169">
        <ele>171.3</ele>
        <time>2012-05-06T08:44:36Z</time>
      </trkpt>
      <trkpt lat="46.96854" lon="-0.9318">
        <ele>172.4</ele>
        <time>2012-05-06T08:44:40Z</time>
      </trkpt>
      <trkpt lat="46.96865" lon="-0.93197">
        <ele>173.3</ele>
        <time>2012-05-06T08:44:46Z</time>
      </trkpt>
      <trkpt lat="46.96871" lon="-0.93206">
        <ele>174</ele>
        <time>2012-05-06T08:44:49Z</time>
      </trkpt>
      <trkpt lat="46.96875" lon="-0.93213">
        <ele>175.1</ele>
        <time>2012-05-06T08:44:52Z</time>
      </trkpt>
      <trkpt lat="46.96883" lon="-0.93234">
        <ele>176</ele>
        <time>2012-05-06T08:44:58Z</time>
      </trkpt>
      <trkpt lat="46.9689" lon="-0.93255">
        <ele>177.7</ele>
        <time>2012-05-06T08:45:04Z</time>
      </trkpt>
      <trkpt lat="46.96904" lon="-0.93253">
        <ele>178.5</ele>
        <time>2012-05-06T08:45:10Z</time>
      </trkpt>
      <trkpt lat="46.96913" lon="-0.93247">
        <ele>179.2</ele>
        <time>2012-05-06T08:45:13Z</time>
      </trkpt>
      <trkpt lat="46.96939" lon="-0.9323">
        <ele>179.3</ele>
        <time>2012-05-06T08:45:21Z</time>
      </trkpt>
      <trkpt lat="46.96954" lon="-0.93219">
        <ele>179.3</ele>
        <time>2012-05-06T08:45:25Z</time>
      </trkpt>
      <trkpt lat="46.96962" lon="-0.93215">
        <ele>179</ele>
        <time>2012-05-06T08:45:27Z</time>
      </trkpt>
      <trkpt lat="46.96979" lon="-0.93215">
        <ele>179.3</ele>
        <time>2012-05-06T08:45:31Z</time>
      </trkpt>
      <trkpt lat="46.97003" lon="-0.93254">
        <ele>181.4</ele>
        <time>2012-05-06T08:45:41Z</time>
      </trkpt>
      <trkpt lat="46.97012" lon="-0.93273">
        <ele>181.7</ele>
        <time>2012-05-06T08:45:45Z</time>
      </trkpt>
      <trkpt lat="46.97021" lon="-0.93291">
        <ele>181.9</ele>
        <time>2012-05-06T08:45:49Z</time>
      </trkpt>
      <trkpt lat="46.97029" lon="-0.93309">
        <ele>182.5</ele>
        <time>2012-05-06T08:45:53Z</time>
      </trkpt>
      <trkpt lat="46.97037" lon="-0.93326">
        <ele>183.3</ele>
        <time>2012-05-06T08:45:57Z</time>
      </trkpt>
      <trkpt lat="46.97046" lon="-0.93345">
        <ele>183.4</ele>
        <time>2012-05-06T08:46:01Z</time>
      </trkpt>
      <trkpt lat="46.9705" lon="-0.93354">
        <ele>183.5</ele>
        <time>2012-05-06T08:46:03Z</time>
      </trkpt>
      <trkpt lat="46.97062" lon="-0.93379">
        <ele>184.7</ele>
        <time>2012-05-06T08:46:09Z</time>
      </trkpt>
      <trkpt lat="46.9707" lon="-0.93396">
        <ele>185.7</ele>
        <time>2012-05-06T08:46:13Z</time>
      </trkpt>
      <trkpt lat="46.97078" lon="-0.93412">
        <ele>187</ele>
        <time>2012-05-06T08:46:17Z</time>
      </trkpt>
      <trkpt lat="46.97087" lon="-0.93431">
        <ele>187.8</ele>
        <time>2012-05-06T08:46:21Z</time>
      </trkpt>
      <trkpt lat="46.97095" lon="-0.93448">
        <ele>189</ele>
        <time>2012-05-06T08:46:25Z</time>
      </trkpt>
      <trkpt lat="46.97107" lon="-0.93455">
        <ele>189.1</ele>
        <time>2012-05-06T08:46:29Z</time>
      </trkpt>
      <trkpt lat="46.97141" lon="-0.93461">
        <ele>189.4</ele>
        <time>2012-05-06T08:46:37Z</time>
      </trkpt>
      <trkpt lat="46.97171" lon="-0.93473">
        <ele>189.5</ele>
        <time>2012-05-06T08:46:43Z</time>
      </trkpt>
      <trkpt lat="46.97181" lon="-0.93477">
        <ele>189.5</ele>
        <time>2012-05-06T08:46:45Z</time>
      </trkpt>
      <trkpt lat="46.97219" lon="-0.93503">
        <ele>190.2</ele>
        <time>2012-05-06T08:46:53Z</time>
      </trkpt>
      <trkpt lat="46.97251" lon="-0.9355">
        <ele>190.6</ele>
        <time>2012-05-06T08:47:01Z</time>
      </trkpt>
      <trkpt lat="46.97265" lon="-0.93576">
        <ele>190.2</ele>
        <time>2012-05-06T08:47:05Z</time>
      </trkpt>
      <trkpt lat="46.97274" lon="-0.93588">
        <ele>190.3</ele>
        <time>2012-05-06T08:47:07Z</time>
      </trkpt>
      <trkpt lat="46.973" lon="-0.93639">
        <ele>187.7</ele>
        <time>2012-05-06T08:47:14Z</time>
      </trkpt>
      <trkpt lat="46.97307" lon="-0.93674">
        <ele>186.1</ele>
        <time>2012-05-06T08:47:18Z</time>
      </trkpt>
      <trkpt lat="46.97316" lon="-0.93705">
        <ele>185.3</ele>
        <time>2012-05-06T08:47:22Z</time>
      </trkpt>
      <trkpt lat="46.97331" lon="-0.93726">
        <ele>185</ele>
        <time>2012-05-06T08:47:26Z</time>
      </trkpt>
      <trkpt lat="46.97347" lon="-0.93743">
        <ele>183.6</ele>
        <time>2012-05-06T08:47:30Z</time>
      </trkpt>
      <trkpt lat="46.97366" lon="-0.93757">
        <ele>182.2</ele>
        <time>2012-05-06T08:47:34Z</time>
      </trkpt>
      <trkpt lat="46.97386" lon="-0.93767">
        <ele>180.8</ele>
        <time>2012-05-06T08:47:38Z</time>
      </trkpt>
      <trkpt lat="46.97392" lon="-0.9377">
        <ele>180.9</ele>
        <time>2012-05-06T08:47:40Z</time>
      </trkpt>
      <trkpt lat="46.97403" lon="-0.93782">
        <ele>180.4</ele>
        <time>2012-05-06T08:47:50Z</time>
      </trkpt>
      <trkpt lat="46.97408" lon="-0.93791">
        <ele>180.6</ele>
        <time>2012-05-06T08:47:54Z</time>
      </trkpt>
      <trkpt lat="46.97422" lon="-0.93804">
        <ele>180.1</ele>
        <time>2012-05-06T08:47:58Z</time>
      </trkpt>
      <trkpt lat="46.9744" lon="-0.93816">
        <ele>178.8</ele>
        <time>2012-05-06T08:48:02Z</time>
      </trkpt>
      <trkpt lat="46.97466" lon="-0.93828">
        <ele>176.4</ele>
        <time>2012-05-06T08:48:06Z</time>
      </trkpt>
      <trkpt lat="46.9748" lon="-0.93833">
        <ele>176</ele>
        <time>2012-05-06T08:48:08Z</time>
      </trkpt>
      <trkpt lat="46.97521" lon="-0.93854">
        <ele>173.4</ele>
        <time>2012-05-06T08:48:14Z</time>
      </trkpt>
      <trkpt lat="46.97545" lon="-0.93879">
        <ele>170.7</ele>
        <time>2012-05-06T08:48:19Z</time>
      </trkpt>
      <trkpt lat="46.97558" lon="-0.93896">
        <ele>166.5</ele>
        <time>2012-05-06T08:48:25Z</time>
      </trkpt>
      <trkpt lat="46.97574" lon="-0.93908">
        <ele>164.8</ele>
        <time>2012-05-06T08:48:29Z</time>
      </trkpt>
      <trkpt lat="46.97604" lon="-0.93929">
        <ele>161.5</ele>
        <time>2012-05-06T08:48:35Z</time>
      </trkpt>
      <trkpt lat="46.97615" lon="-0.93938">
        <ele>160.9</ele>
        <time>2012-05-06T08:48:37Z</time>
      </trkpt>
      <trkpt lat="46.9764" lon="-0.93972">
        <ele>158.4</ele>
        <time>2012-05-06T08:48:43Z</time>
      </trkpt>
      <trkpt lat="46.97657" lon="-0.94001">
        <ele>156.6</ele>
        <time>2012-05-06T08:48:47Z</time>
      </trkpt>
      <trkpt lat="46.97672" lon="-0.94056">
        <ele>152.4</ele>
        <time>2012-05-06T08:48:55Z</time>
      </trkpt>
      <trkpt lat="46.97697" lon="-0.94073">
        <ele>150.3</ele>
        <time>2012-05-06T08:49:05Z</time>
      </trkpt>
      <trkpt lat="46.97727" lon="-0.94089">
        <ele>148.6</ele>
        <time>2012-05-06T08:49:10Z</time>
      </trkpt>
      <trkpt lat="46.97755" lon="-0.94097">
        <ele>146.6</ele>
        <time>2012-05-06T08:49:14Z</time>
      </trkpt>
      <trkpt lat="46.97784" lon="-0.94133">
        <ele>145.2</ele>
        <time>2012-05-06T08:49:19Z</time>
      </trkpt>
      <trkpt lat="46.97813" lon="-0.94171">
        <ele>143.5</ele>
        <time>2012-05-06T08:49:25Z</time>
      </trkpt>
      <trkpt lat="46.97831" lon="-0.94183">
        <ele>144</ele>
        <time>2012-05-06T08:49:29Z</time>
      </trkpt>
      <trkpt lat="46.97846" lon="-0.94194">
        <ele>144.6</ele>
        <time>2012-05-06T08:49:33Z</time>
      </trkpt>
      <trkpt lat="46.9786" lon="-0.94204">
        <ele>145.2</ele>
        <time>2012-05-06T08:49:38Z</time>
      </trkpt>
      <trkpt lat="46.97884" lon="-0.94226">
        <ele>147.2</ele>
        <time>2012-05-06T08:49:45Z</time>
      </trkpt>
      <trkpt lat="46.97896" lon="-0.94238">
        <ele>147.9</ele>
        <time>2012-05-06T08:49:49Z</time>
      </trkpt>
      <trkpt lat="46.97907" lon="-0.94252">
        <ele>147.9</ele>
        <time>2012-05-06T08:49:53Z</time>
      </trkpt>
      <trkpt lat="46.9792" lon="-0.94268">
        <ele>148.3</ele>
        <time>2012-05-06T08:49:57Z</time>
      </trkpt>
      <trkpt lat="46.97926" lon="-0.94275">
        <ele>148.5</ele>
        <time>2012-05-06T08:49:59Z</time>
      </trkpt>
      <trkpt lat="46.97947" lon="-0.9429">
        <ele>149.5</ele>
        <time>2012-05-06T08:50:05Z</time>
      </trkpt>
      <trkpt lat="46.97963" lon="-0.9429">
        <ele>150.6</ele>
        <time>2012-05-06T08:50:09Z</time>
      </trkpt>
      <trkpt lat="46.97978" lon="-0.94287">
        <ele>151.8</ele>
        <time>2012-05-06T08:50:13Z</time>
      </trkpt>
      <trkpt lat="46.97986" lon="-0.94285">
        <ele>152.1</ele>
        <time>2012-05-06T08:50:15Z</time>
      </trkpt>
      <trkpt lat="46.98021" lon="-0.94281">
        <ele>153.9</ele>
        <time>2012-05-06T08:50:25Z</time>
      </trkpt>
      <trkpt lat="46.98032" lon="-0.94293">
        <ele>154.1</ele>
        <time>2012-05-06T08:50:29Z</time>
      </trkpt>
      <trkpt lat="46.98044" lon="-0.94308">
        <ele>154.3</ele>
        <time>2012-05-06T08:50:33Z</time>
      </trkpt>
      <trkpt lat="46.98057" lon="-0.94321">
        <ele>155</ele>
        <time>2012-05-06T08:50:37Z</time>
      </trkpt>
      <trkpt lat="46.9807" lon="-0.94337">
        <ele>155.1</ele>
        <time>2012-05-06T08:50:41Z</time>
      </trkpt>
      <trkpt lat="46.98082" lon="-0.94352">
        <ele>155.6</ele>
        <time>2012-05-06T08:50:45Z</time>
      </trkpt>
      <trkpt lat="46.98089" lon="-0.9436">
        <ele>155.8</ele>
        <time>2012-05-06T08:50:47Z</time>
      </trkpt>
      <trkpt lat="46.98104" lon="-0.94377">
        <ele>155.6</ele>
        <time>2012-05-06T08:50:51Z</time>
      </trkpt>
      <trkpt lat="46.98128" lon="-0.94405">
        <ele>155.4</ele>
        <time>2012-05-06T08:50:57Z</time>
      </trkpt>
      <trkpt lat="46.98143" lon="-0.94422">
        <ele>155.8</ele>
        <time>2012-05-06T08:51:01Z</time>
      </trkpt>
      <trkpt lat="46.98157" lon="-0.94439">
        <ele>156.2</ele>
        <time>2012-05-06T08:51:05Z</time>
      </trkpt>
      <trkpt lat="46.98178" lon="-0.94464">
        <ele>156.9</ele>
        <time>2012-05-06T08:51:11Z</time>
      </trkpt>
      <trkpt lat="46.98186" lon="-0.94472">
        <ele>157.2</ele>
        <time>2012-05-06T08:51:13Z</time>
      </trkpt>
      <trkpt lat="46.982" lon="-0.94489">
        <ele>157.6</ele>
        <time>2012-05-06T08:51:17Z</time>
      </trkpt>
      <trkpt lat="46.98214" lon="-0.94506">
        <ele>158</ele>
        <time>2012-05-06T08:51:21Z</time>
      </trkpt>
      <trkpt lat="46.98228" lon="-0.94521">
        <ele>158.7</ele>
        <time>2012-05-06T08:51:25Z</time>
      </trkpt>
      <trkpt lat="46.98256" lon="-0.94554">
        <ele>159.5</ele>
        <time>2012-05-06T08:51:33Z</time>
      </trkpt>
      <trkpt lat="46.9827" lon="-0.9457">
        <ele>160.1</ele>
        <time>2012-05-06T08:51:37Z</time>
      </trkpt>
      <trkpt lat="46.98285" lon="-0.94587">
        <ele>161.1</ele>
        <time>2012-05-06T08:51:41Z</time>
      </trkpt>
      <trkpt lat="46.98299" lon="-0.94604">
        <ele>161.7</ele>
        <time>2012-05-06T08:51:45Z</time>
      </trkpt>
      <trkpt lat="46.98332" lon="-0.94642">
        <ele>162.9</ele>
        <time>2012-05-06T08:51:55Z</time>
      </trkpt>
      <trkpt lat="46.98346" lon="-0.94658">
        <ele>163.7</ele>
        <time>2012-05-06T08:51:59Z</time>
      </trkpt>
      <trkpt lat="46.9837" lon="-0.94685">
        <ele>165.1</ele>
        <time>2012-05-06T08:52:05Z</time>
      </trkpt>
      <trkpt lat="46.98395" lon="-0.94712">
        <ele>165.9</ele>
        <time>2012-05-06T08:52:11Z</time>
      </trkpt>
      <trkpt lat="46.98403" lon="-0.94722">
        <ele>165.9</ele>
        <time>2012-05-06T08:52:13Z</time>
      </trkpt>
      <trkpt lat="46.98428" lon="-0.94751">
        <ele>165.3</ele>
        <time>2012-05-06T08:52:18Z</time>
      </trkpt>
      <trkpt lat="46.98451" lon="-0.9477">
        <ele>164.3</ele>
        <time>2012-05-06T08:52:23Z</time>
      </trkpt>
      <trkpt lat="46.98462" lon="-0.94776">
        <ele>164</ele>
        <time>2012-05-06T08:52:25Z</time>
      </trkpt>
      <trkpt lat="46.98482" lon="-0.94796">
        <ele>163.5</ele>
        <time>2012-05-06T08:52:29Z</time>
      </trkpt>
      <trkpt lat="46.98509" lon="-0.94826">
        <ele>163</ele>
        <time>2012-05-06T08:52:35Z</time>
      </trkpt>
      <trkpt lat="46.9851" lon="-0.9484">
        <ele>163.2</ele>
        <time>2012-05-06T08:52:37Z</time>
      </trkpt>
      <trkpt lat="46.98491" lon="-0.94866">
        <ele>162.6</ele>
        <time>2012-05-06T08:52:42Z</time>
      </trkpt>
      <trkpt lat="46.98475" lon="-0.94888">
        <ele>162.6</ele>
        <time>2012-05-06T08:52:46Z</time>
      </trkpt>
      <trkpt lat="46.9846" lon="-0.94915">
        <ele>162.1</ele>
        <time>2012-05-06T08:52:50Z</time>
      </trkpt>
      <trkpt lat="46.9844" lon="-0.94952">
        <ele>160.8</ele>
        <time>2012-05-06T08:52:55Z</time>
      </trkpt>
      <trkpt lat="46.98438" lon="-0.94961">
        <ele>160.5</ele>
        <time>2012-05-06T08:52:56Z</time>
      </trkpt>
      <trkpt lat="46.98434" lon="-0.95013">
        <ele>160.4</ele>
        <time>2012-05-06T08:53:02Z</time>
      </trkpt>
      <trkpt lat="46.98435" lon="-0.95042">
        <ele>160.6</ele>
        <time>2012-05-06T08:53:06Z</time>
      </trkpt>
      <trkpt lat="46.9844" lon="-0.9509">
        <ele>162.9</ele>
        <time>2012-05-06T08:53:14Z</time>
      </trkpt>
      <trkpt lat="46.98451" lon="-0.95103">
        <ele>163</ele>
        <time>2012-05-06T08:53:18Z</time>
      </trkpt>
      <trkpt lat="46.98468" lon="-0.9511">
        <ele>163.2</ele>
        <time>2012-05-06T08:53:22Z</time>
      </trkpt>
      <trkpt lat="46.98499" lon="-0.95128">
        <ele>164.7</ele>
        <time>2012-05-06T08:53:30Z</time>
      </trkpt>
      <trkpt lat="46.98516" lon="-0.95139">
        <ele>164.7</ele>
        <time>2012-05-06T08:53:34Z</time>
      </trkpt>
      <trkpt lat="46.98531" lon="-0.95151">
        <ele>165.1</ele>
        <time>2012-05-06T08:53:38Z</time>
      </trkpt>
      <trkpt lat="46.98538" lon="-0.95158">
        <ele>165.2</ele>
        <time>2012-05-06T08:53:40Z</time>
      </trkpt>
      <trkpt lat="46.98553" lon="-0.95171">
        <ele>166.1</ele>
        <time>2012-05-06T08:53:44Z</time>
      </trkpt>
      <trkpt lat="46.98581" lon="-0.95199">
        <ele>166.8</ele>
        <time>2012-05-06T08:53:52Z</time>
      </trkpt>
      <trkpt lat="46.98602" lon="-0.95218">
        <ele>167.2</ele>
        <time>2012-05-06T08:53:58Z</time>
      </trkpt>
      <trkpt lat="46.98627" lon="-0.95254">
        <ele>167.3</ele>
        <time>2012-05-06T08:54:06Z</time>
      </trkpt>
      <trkpt lat="46.9863" lon="-0.95262">
        <ele>167.3</ele>
        <time>2012-05-06T08:54:08Z</time>
      </trkpt>
      <trkpt lat="46.98641" lon="-0.95283">
        <ele>168.4</ele>
        <time>2012-05-06T08:54:14Z</time>
      </trkpt>
      <trkpt lat="46.98646" lon="-0.9529">
        <ele>169.1</ele>
        <time>2012-05-06T08:54:16Z</time>
      </trkpt>
      <trkpt lat="46.98664" lon="-0.9531">
        <ele>169.9</ele>
        <time>2012-05-06T08:54:22Z</time>
      </trkpt>
      <trkpt lat="46.98679" lon="-0.95316">
        <ele>170</ele>
        <time>2012-05-06T08:54:26Z</time>
      </trkpt>
      <trkpt lat="46.98695" lon="-0.95316">
        <ele>169.5</ele>
        <time>2012-05-06T08:54:30Z</time>
      </trkpt>
      <trkpt lat="46.98711" lon="-0.95313">
        <ele>169.6</ele>
        <time>2012-05-06T08:54:34Z</time>
      </trkpt>
      <trkpt lat="46.98726" lon="-0.95324">
        <ele>168.9</ele>
        <time>2012-05-06T08:54:38Z</time>
      </trkpt>
      <trkpt lat="46.98733" lon="-0.95331">
        <ele>168.2</ele>
        <time>2012-05-06T08:54:40Z</time>
      </trkpt>
      <trkpt lat="46.9874" lon="-0.95345">
        <ele>166.7</ele>
        <time>2012-05-06T08:54:46Z</time>
      </trkpt>
      <trkpt lat="46.98742" lon="-0.95356">
        <ele>165.8</ele>
        <time>2012-05-06T08:54:49Z</time>
      </trkpt>
      <trkpt lat="46.98769" lon="-0.95375">
        <ele>164.3</ele>
        <time>2012-05-06T08:54:55Z</time>
      </trkpt>
      <trkpt lat="46.98797" lon="-0.95378">
        <ele>162.5</ele>
        <time>2012-05-06T08:54:59Z</time>
      </trkpt>
      <trkpt lat="46.98825" lon="-0.95385">
        <ele>159.2</ele>
        <time>2012-05-06T08:55:03Z</time>
      </trkpt>
      <trkpt lat="46.98842" lon="-0.95402">
        <ele>157.2</ele>
        <time>2012-05-06T08:55:07Z</time>
      </trkpt>
      <trkpt lat="46.98852" lon="-0.95415">
        <ele>155.9</ele>
        <time>2012-05-06T08:55:11Z</time>
      </trkpt>
      <trkpt lat="46.98854" lon="-0.95448">
        <ele>153.9</ele>
        <time>2012-05-06T08:55:15Z</time>
      </trkpt>
      <trkpt lat="46.98883" lon="-0.9551">
        <ele>152.8</ele>
        <time>2012-05-06T08:55:26Z</time>
      </trkpt>
      <trkpt lat="46.98897" lon="-0.95526">
        <ele>152.1</ele>
        <time>2012-05-06T08:55:31Z</time>
      </trkpt>
      <trkpt lat="46.98903" lon="-0.95539">
        <ele>150.7</ele>
        <time>2012-05-06T08:55:35Z</time>
      </trkpt>
      <trkpt lat="46.98902" lon="-0.95567">
        <ele>149.2</ele>
        <time>2012-05-06T08:55:39Z</time>
      </trkpt>
      <trkpt lat="46.98893" lon="-0.95593">
        <ele>148.4</ele>
        <time>2012-05-06T08:55:43Z</time>
      </trkpt>
      <trkpt lat="46.98884" lon="-0.9561">
        <ele>147.5</ele>
        <time>2012-05-06T08:55:47Z</time>
      </trkpt>
      <trkpt lat="46.98878" lon="-0.95619">
        <ele>147.2</ele>
        <time>2012-05-06T08:55:49Z</time>
      </trkpt>
      <trkpt lat="46.98848" lon="-0.95647">
        <ele>144.4</ele>
        <time>2012-05-06T08:55:55Z</time>
      </trkpt>
      <trkpt lat="46.98831" lon="-0.95677">
        <ele>142.1</ele>
        <time>2012-05-06T08:55:59Z</time>
      </trkpt>
      <trkpt lat="46.98814" lon="-0.95709">
        <ele>139.8</ele>
        <time>2012-05-06T08:56:03Z</time>
      </trkpt>
      <trkpt lat="46.98801" lon="-0.95733">
        <ele>137.6</ele>
        <time>2012-05-06T08:56:06Z</time>
      </trkpt>
      <trkpt lat="46.98756" lon="-0.95804">
        <ele>137.2</ele>
        <time>2012-05-06T08:56:11Z</time>
      </trkpt>
      <trkpt lat="46.98732" lon="-0.95832">
        <ele>136.7</ele>
        <time>2012-05-06T08:56:15Z</time>
      </trkpt>
      <trkpt lat="46.98706" lon="-0.9586">
        <ele>136.3</ele>
        <time>2012-05-06T08:56:19Z</time>
      </trkpt>
      <trkpt lat="46.98682" lon="-0.95886">
        <ele>134.9</ele>
        <time>2012-05-06T08:56:23Z</time>
      </trkpt>
      <trkpt lat="46.98677" lon="-0.95892">
        <ele>134.1</ele>
        <time>2012-05-06T08:56:24Z</time>
      </trkpt>
      <trkpt lat="46.98668" lon="-0.95929">
        <ele>131.6</ele>
        <time>2012-05-06T08:56:30Z</time>
      </trkpt>
      <trkpt lat="46.9869" lon="-0.95913">
        <ele>131.4</ele>
        <time>2012-05-06T08:56:35Z</time>
      </trkpt>
      <trkpt lat="46.98713" lon="-0.95888">
        <ele>130.9</ele>
        <time>2012-05-06T08:56:39Z</time>
      </trkpt>
      <trkpt lat="46.98718" lon="-0.95882">
        <ele>131.1</ele>
        <time>2012-05-06T08:56:40Z</time>
      </trkpt>
      <trkpt lat="46.98718" lon="-0.95882">
        <ele>71.2</ele>
        <time>2012-05-06T08:56:51Z</time>
      </trkpt>
      <trkpt lat="46.98718" lon="-0.95882">
        <ele>71.2</ele>
        <time>2012-05-06T08:56:55Z</time>
      </trkpt>
      <trkpt lat="46.9876" lon="-0.95834">
        <ele>125.6</ele>
        <time>2012-05-06T08:56:59Z</time>
      </trkpt>
      <trkpt lat="46.98768" lon="-0.95825">
        <ele>125.1</ele>
        <time>2012-05-06T08:57:01Z</time>
      </trkpt>
      <trkpt lat="46.98786" lon="-0.95809">
        <ele>123.9</ele>
        <time>2012-05-06T08:57:05Z</time>
      </trkpt>
      <trkpt lat="46.98808" lon="-0.95778">
        <ele>123.3</ele>
        <time>2012-05-06T08:57:11Z</time>
      </trkpt>
      <trkpt lat="46.98814" lon="-0.95767">
        <ele>123.1</ele>
        <time>2012-05-06T08:57:13Z</time>
      </trkpt>
      <trkpt lat="46.98834" lon="-0.95732">
        <ele>122.9</ele>
        <time>2012-05-06T08:57:19Z</time>
      </trkpt>
      <trkpt lat="46.98846" lon="-0.95707">
        <ele>122.9</ele>
        <time>2012-05-06T08:57:23Z</time>
      </trkpt>
      <trkpt lat="46.98853" lon="-0.95698">
        <ele>122.9</ele>
        <time>2012-05-06T08:57:25Z</time>
      </trkpt>
      <trkpt lat="46.98862" lon="-0.95697">
        <ele>123</ele>
        <time>2012-05-06T08:57:27Z</time>
      </trkpt>
      <trkpt lat="46.98908" lon="-0.95712">
        <ele>121.3</ele>
        <time>2012-05-06T08:57:37Z</time>
      </trkpt>
      <trkpt lat="46.9894" lon="-0.95689">
        <ele>122.4</ele>
        <time>2012-05-06T08:57:43Z</time>
      </trkpt>
      <trkpt lat="46.98962" lon="-0.95675">
        <ele>122.7</ele>
        <time>2012-05-06T08:57:47Z</time>
      </trkpt>
      <trkpt lat="46.98999" lon="-0.95634">
        <ele>122.5</ele>
        <time>2012-05-06T08:57:55Z</time>
      </trkpt>
      <trkpt lat="46.99011" lon="-0.95628">
        <ele>122.6</ele>
        <time>2012-05-06T08:57:57Z</time>
      </trkpt>
      <trkpt lat="46.99031" lon="-0.95613">
        <ele>122.5</ele>
        <time>2012-05-06T08:58:01Z</time>
      </trkpt>
      <trkpt lat="46.99041" lon="-0.95605">
        <ele>122.6</ele>
        <time>2012-05-06T08:58:03Z</time>
      </trkpt>
      <trkpt lat="46.99041" lon="-0.95605">
        <ele>69.3</ele>
        <time>2012-05-06T08:58:15Z</time>
      </trkpt>
      <trkpt lat="46.99041" lon="-0.95605">
        <ele>69.3</ele>
        <time>2012-05-06T08:58:17Z</time>
      </trkpt>
      <trkpt lat="46.99135" lon="-0.95648">
        <ele>119.8</ele>
        <time>2012-05-06T08:58:23Z</time>
      </trkpt>
      <trkpt lat="46.99158" lon="-0.95677">
        <ele>119.1</ele>
        <time>2012-05-06T08:58:29Z</time>
      </trkpt>
      <trkpt lat="46.99163" lon="-0.95684">
        <ele>118.9</ele>
        <time>2012-05-06T08:58:32Z</time>
      </trkpt>
      <trkpt lat="46.99183" lon="-0.95683">
        <ele>118.5</ele>
        <time>2012-05-06T08:58:41Z</time>
      </trkpt>
      <trkpt lat="46.99195" lon="-0.95693">
        <ele>118.5</ele>
        <time>2012-05-06T08:58:45Z</time>
      </trkpt>
      <trkpt lat="46.99201" lon="-0.95698">
        <ele>118.6</ele>
        <time>2012-05-06T08:58:47Z</time>
      </trkpt>
      <trkpt lat="46.99215" lon="-0.9572">
        <ele>118.3</ele>
        <time>2012-05-06T08:58:53Z</time>
      </trkpt>
      <trkpt lat="46.99225" lon="-0.95736">
        <ele>117.9</ele>
        <time>2012-05-06T08:58:57Z</time>
      </trkpt>
      <trkpt lat="46.9923" lon="-0.95746">
        <ele>117.6</ele>
        <time>2012-05-06T08:58:59Z</time>
      </trkpt>
      <trkpt lat="46.9924" lon="-0.95763">
        <ele>116.9</ele>
        <time>2012-05-06T08:59:03Z</time>
      </trkpt>
      <trkpt lat="46.9925" lon="-0.95784">
        <ele>116.9</ele>
        <time>2012-05-06T08:59:08Z</time>
      </trkpt>
      <trkpt lat="46.99273" lon="-0.95817">
        <ele>118.2</ele>
        <time>2012-05-06T08:59:17Z</time>
      </trkpt>
      <trkpt lat="46.99288" lon="-0.95847">
        <ele>118.9</ele>
        <time>2012-05-06T08:59:24Z</time>
      </trkpt>
      <trkpt lat="46.99298" lon="-0.95872">
        <ele>118.3</ele>
        <time>2012-05-06T08:59:28Z</time>
      </trkpt>
      <trkpt lat="46.99302" lon="-0.95881">
        <ele>118</ele>
        <time>2012-05-06T08:59:30Z</time>
      </trkpt>
      <trkpt lat="46.99304" lon="-0.95892">
        <ele>118.2</ele>
        <time>2012-05-06T08:59:34Z</time>
      </trkpt>
      <trkpt lat="46.99313" lon="-0.95929">
        <ele>116.3</ele>
        <time>2012-05-06T08:59:41Z</time>
      </trkpt>
      <trkpt lat="46.99325" lon="-0.95952">
        <ele>116.8</ele>
        <time>2012-05-06T08:59:45Z</time>
      </trkpt>
      <trkpt lat="46.99332" lon="-0.95961">
        <ele>116.9</ele>
        <time>2012-05-06T08:59:47Z</time>
      </trkpt>
      <trkpt lat="46.99354" lon="-0.95982">
        <ele>116.9</ele>
        <time>2012-05-06T08:59:53Z</time>
      </trkpt>
      <trkpt lat="46.99368" lon="-0.9599">
        <ele>116.8</ele>
        <time>2012-05-06T08:59:57Z</time>
      </trkpt>
      <trkpt lat="46.99392" lon="-0.96001">
        <ele>118.8</ele>
        <time>2012-05-06T09:00:05Z</time>
      </trkpt>
      <trkpt lat="46.99403" lon="-0.96015">
        <ele>120.8</ele>
        <time>2012-05-06T09:00:09Z</time>
      </trkpt>
      <trkpt lat="46.99415" lon="-0.96027">
        <ele>122.3</ele>
        <time>2012-05-06T09:00:13Z</time>
      </trkpt>
      <trkpt lat="46.99423" lon="-0.96034">
        <ele>123.4</ele>
        <time>2012-05-06T09:00:16Z</time>
      </trkpt>
      <trkpt lat="46.9944" lon="-0.96088">
        <ele>122.7</ele>
        <time>2012-05-06T09:00:25Z</time>
      </trkpt>
      <trkpt lat="46.99464" lon="-0.96176">
        <ele>121.4</ele>
        <time>2012-05-06T09:00:29Z</time>
      </trkpt>
      <trkpt lat="46.99466" lon="-0.96185">
        <ele>121.2</ele>
        <time>2012-05-06T09:00:30Z</time>
      </trkpt>
      <trkpt lat="46.99477" lon="-0.96221">
        <ele>120.9</ele>
        <time>2012-05-06T09:00:36Z</time>
      </trkpt>
      <trkpt lat="46.99482" lon="-0.96235">
        <ele>121</ele>
        <time>2012-05-06T09:00:38Z</time>
      </trkpt>
      <trkpt lat="46.99495" lon="-0.96278">
        <ele>120</ele>
        <time>2012-05-06T09:00:44Z</time>
      </trkpt>
      <trkpt lat="46.99503" lon="-0.96307">
        <ele>119.9</ele>
        <time>2012-05-06T09:00:48Z</time>
      </trkpt>
      <trkpt lat="46.99513" lon="-0.96333">
        <ele>119.7</ele>
        <time>2012-05-06T09:00:52Z</time>
      </trkpt>
      <trkpt lat="46.99526" lon="-0.96363">
        <ele>119.6</ele>
        <time>2012-05-06T09:00:56Z</time>
      </trkpt>
      <trkpt lat="46.99543" lon="-0.96398">
        <ele>119.3</ele>
        <time>2012-05-06T09:01:01Z</time>
      </trkpt>
      <trkpt lat="46.99556" lon="-0.96424">
        <ele>117.9</ele>
        <time>2012-05-06T09:01:05Z</time>
      </trkpt>
      <trkpt lat="46.99568" lon="-0.96449">
        <ele>117.1</ele>
        <time>2012-05-06T09:01:09Z</time>
      </trkpt>
      <trkpt lat="46.99577" lon="-0.96471">
        <ele>117</ele>
        <time>2012-05-06T09:01:12Z</time>
      </trkpt>
      <trkpt lat="46.99596" lon="-0.9651">
        <ele>116.7</ele>
        <time>2012-05-06T09:01:17Z</time>
      </trkpt>
      <trkpt lat="46.99612" lon="-0.96538">
        <ele>117</ele>
        <time>2012-05-06T09:01:21Z</time>
      </trkpt>
      <trkpt lat="46.99626" lon="-0.96563">
        <ele>117.3</ele>
        <time>2012-05-06T09:01:25Z</time>
      </trkpt>
      <trkpt lat="46.99638" lon="-0.96586">
        <ele>117.6</ele>
        <time>2012-05-06T09:01:29Z</time>
      </trkpt>
      <trkpt lat="46.99644" lon="-0.96598">
        <ele>117.8</ele>
        <time>2012-05-06T09:01:31Z</time>
      </trkpt>
      <trkpt lat="46.99658" lon="-0.96639">
        <ele>117.6</ele>
        <time>2012-05-06T09:01:37Z</time>
      </trkpt>
      <trkpt lat="46.99663" lon="-0.96663">
        <ele>117.3</ele>
        <time>2012-05-06T09:01:41Z</time>
      </trkpt>
      <trkpt lat="46.99656" lon="-0.96699">
        <ele>117</ele>
        <time>2012-05-06T09:01:45Z</time>
      </trkpt>
      <trkpt lat="46.99652" lon="-0.96714">
        <ele>116.4</ele>
        <time>2012-05-06T09:01:47Z</time>
      </trkpt>
      <trkpt lat="46.99635" lon="-0.96752">
        <ele>117.3</ele>
        <time>2012-05-06T09:01:53Z</time>
      </trkpt>
      <trkpt lat="46.99617" lon="-0.96784">
        <ele>117.8</ele>
        <time>2012-05-06T09:01:59Z</time>
      </trkpt>
      <trkpt lat="46.996" lon="-0.96803">
        <ele>117.2</ele>
        <time>2012-05-06T09:02:03Z</time>
      </trkpt>
      <trkpt lat="46.99584" lon="-0.96826">
        <ele>118</ele>
        <time>2012-05-06T09:02:07Z</time>
      </trkpt>
      <trkpt lat="46.99568" lon="-0.9685">
        <ele>116.9</ele>
        <time>2012-05-06T09:02:11Z</time>
      </trkpt>
      <trkpt lat="46.99554" lon="-0.96877">
        <ele>117.1</ele>
        <time>2012-05-06T09:02:15Z</time>
      </trkpt>
      <trkpt lat="46.99546" lon="-0.9691">
        <ele>117.3</ele>
        <time>2012-05-06T09:02:19Z</time>
      </trkpt>
      <trkpt lat="46.99537" lon="-0.96967">
        <ele>116.3</ele>
        <time>2012-05-06T09:02:27Z</time>
      </trkpt>
      <trkpt lat="46.99536" lon="-0.96983">
        <ele>116.2</ele>
        <time>2012-05-06T09:02:29Z</time>
      </trkpt>
      <trkpt lat="46.99529" lon="-0.97031">
        <ele>115</ele>
        <time>2012-05-06T09:02:35Z</time>
      </trkpt>
      <trkpt lat="46.9953" lon="-0.97082">
        <ele>114.3</ele>
        <time>2012-05-06T09:02:41Z</time>
      </trkpt>
      <trkpt lat="46.99526" lon="-0.97146">
        <ele>113.9</ele>
        <time>2012-05-06T09:02:48Z</time>
      </trkpt>
      <trkpt lat="46.99529" lon="-0.97175">
        <ele>114.3</ele>
        <time>2012-05-06T09:02:52Z</time>
      </trkpt>
      <trkpt lat="46.9952" lon="-0.97233">
        <ele>114</ele>
        <time>2012-05-06T09:02:59Z</time>
      </trkpt>
      <trkpt lat="46.99515" lon="-0.97268">
        <ele>114</ele>
        <time>2012-05-06T09:03:03Z</time>
      </trkpt>
      <trkpt lat="46.99509" lon="-0.973">
        <ele>113.8</ele>
        <time>2012-05-06T09:03:07Z</time>
      </trkpt>
      <trkpt lat="46.99501" lon="-0.97326">
        <ele>113.3</ele>
        <time>2012-05-06T09:03:11Z</time>
      </trkpt>
      <trkpt lat="46.99495" lon="-0.97353">
        <ele>112.7</ele>
        <time>2012-05-06T09:03:15Z</time>
      </trkpt>
      <trkpt lat="46.99488" lon="-0.97384">
        <ele>112.4</ele>
        <time>2012-05-06T09:03:19Z</time>
      </trkpt>
      <trkpt lat="46.99489" lon="-0.97418">
        <ele>112.1</ele>
        <time>2012-05-06T09:03:23Z</time>
      </trkpt>
      <trkpt lat="46.9949" lon="-0.97445">
        <ele>111.3</ele>
        <time>2012-05-06T09:03:27Z</time>
      </trkpt>
      <trkpt lat="46.99498" lon="-0.97504">
        <ele>111.3</ele>
        <time>2012-05-06T09:03:35Z</time>
      </trkpt>
      <trkpt lat="46.99501" lon="-0.97519">
        <ele>111.3</ele>
        <time>2012-05-06T09:03:37Z</time>
      </trkpt>
      <trkpt lat="46.99505" lon="-0.97572">
        <ele>112</ele>
        <time>2012-05-06T09:03:43Z</time>
      </trkpt>
      <trkpt lat="46.99509" lon="-0.97606">
        <ele>112</ele>
        <time>2012-05-06T09:03:47Z</time>
      </trkpt>
      <trkpt lat="46.99511" lon="-0.9764">
        <ele>111.5</ele>
        <time>2012-05-06T09:03:51Z</time>
      </trkpt>
      <trkpt lat="46.99512" lon="-0.97656">
        <ele>111.5</ele>
        <time>2012-05-06T09:03:53Z</time>
      </trkpt>
      <trkpt lat="46.99513" lon="-0.97706">
        <ele>110.5</ele>
        <time>2012-05-06T09:03:59Z</time>
      </trkpt>
      <trkpt lat="46.99514" lon="-0.97738">
        <ele>109.9</ele>
        <time>2012-05-06T09:04:03Z</time>
      </trkpt>
      <trkpt lat="46.99517" lon="-0.97772">
        <ele>109.9</ele>
        <time>2012-05-06T09:04:07Z</time>
      </trkpt>
      <trkpt lat="46.99527" lon="-0.97804">
        <ele>109.9</ele>
        <time>2012-05-06T09:04:11Z</time>
      </trkpt>
      <trkpt lat="46.99545" lon="-0.97821">
        <ele>108.9</ele>
        <time>2012-05-06T09:04:15Z</time>
      </trkpt>
      <trkpt lat="46.99568" lon="-0.97829">
        <ele>109.1</ele>
        <time>2012-05-06T09:04:19Z</time>
      </trkpt>
      <trkpt lat="46.99591" lon="-0.97835">
        <ele>109.9</ele>
        <time>2012-05-06T09:04:23Z</time>
      </trkpt>
      <trkpt lat="46.99602" lon="-0.97838">
        <ele>110</ele>
        <time>2012-05-06T09:04:25Z</time>
      </trkpt>
      <trkpt lat="46.99633" lon="-0.97859">
        <ele>110.5</ele>
        <time>2012-05-06T09:04:31Z</time>
      </trkpt>
      <trkpt lat="46.9965" lon="-0.9788">
        <ele>110.7</ele>
        <time>2012-05-06T09:04:35Z</time>
      </trkpt>
      <trkpt lat="46.99675" lon="-0.97918">
        <ele>111.4</ele>
        <time>2012-05-06T09:04:43Z</time>
      </trkpt>
      <trkpt lat="46.99679" lon="-0.97946">
        <ele>111.2</ele>
        <time>2012-05-06T09:04:47Z</time>
      </trkpt>
      <trkpt lat="46.99704" lon="-0.97999">
        <ele>110.9</ele>
        <time>2012-05-06T09:04:55Z</time>
      </trkpt>
      <trkpt lat="46.99719" lon="-0.98022">
        <ele>111.5</ele>
        <time>2012-05-06T09:04:59Z</time>
      </trkpt>
      <trkpt lat="46.99733" lon="-0.98044">
        <ele>112.5</ele>
        <time>2012-05-06T09:05:03Z</time>
      </trkpt>
      <trkpt lat="46.99748" lon="-0.98062">
        <ele>112.2</ele>
        <time>2012-05-06T09:05:07Z</time>
      </trkpt>
      <trkpt lat="46.99766" lon="-0.98077">
        <ele>112.1</ele>
        <time>2012-05-06T09:05:11Z</time>
      </trkpt>
      <trkpt lat="46.99779" lon="-0.98101">
        <ele>112</ele>
        <time>2012-05-06T09:05:15Z</time>
      </trkpt>
      <trkpt lat="46.99781" lon="-0.98132">
        <ele>111.8</ele>
        <time>2012-05-06T09:05:19Z</time>
      </trkpt>
      <trkpt lat="46.99779" lon="-0.98161">
        <ele>111.1</ele>
        <time>2012-05-06T09:05:23Z</time>
      </trkpt>
      <trkpt lat="46.99786" lon="-0.98209">
        <ele>110.9</ele>
        <time>2012-05-06T09:05:28Z</time>
      </trkpt>
      <trkpt lat="46.99796" lon="-0.98245">
        <ele>110.7</ele>
        <time>2012-05-06T09:05:32Z</time>
      </trkpt>
      <trkpt lat="46.99796" lon="-0.98275">
        <ele>110.5</ele>
        <time>2012-05-06T09:05:36Z</time>
      </trkpt>
      <trkpt lat="46.99808" lon="-0.98296">
        <ele>111.1</ele>
        <time>2012-05-06T09:05:40Z</time>
      </trkpt>
      <trkpt lat="46.99817" lon="-0.98306">
        <ele>111</ele>
        <time>2012-05-06T09:05:42Z</time>
      </trkpt>
      <trkpt lat="46.99833" lon="-0.98337">
        <ele>108.8</ele>
        <time>2012-05-06T09:05:47Z</time>
      </trkpt>
      <trkpt lat="46.99841" lon="-0.98364">
        <ele>108</ele>
        <time>2012-05-06T09:05:51Z</time>
      </trkpt>
      <trkpt lat="46.99848" lon="-0.98396">
        <ele>108.4</ele>
        <time>2012-05-06T09:05:55Z</time>
      </trkpt>
      <trkpt lat="46.99854" lon="-0.98413">
        <ele>108.3</ele>
        <time>2012-05-06T09:05:57Z</time>
      </trkpt>
      <trkpt lat="46.99876" lon="-0.98467">
        <ele>108.2</ele>
        <time>2012-05-06T09:06:04Z</time>
      </trkpt>
      <trkpt lat="46.99887" lon="-0.98497">
        <ele>108.3</ele>
        <time>2012-05-06T09:06:08Z</time>
      </trkpt>
      <trkpt lat="46.99894" lon="-0.98529">
        <ele>108.5</ele>
        <time>2012-05-06T09:06:12Z</time>
      </trkpt>
      <trkpt lat="46.99899" lon="-0.98555">
        <ele>108.2</ele>
        <time>2012-05-06T09:06:15Z</time>
      </trkpt>
      <trkpt lat="46.99905" lon="-0.98598">
        <ele>107.4</ele>
        <time>2012-05-06T09:06:20Z</time>
      </trkpt>
      <trkpt lat="46.99908" lon="-0.98617">
        <ele>107.2</ele>
        <time>2012-05-06T09:06:22Z</time>
      </trkpt>
      <trkpt lat="46.99912" lon="-0.98645">
        <ele>106.4</ele>
        <time>2012-05-06T09:06:25Z</time>
      </trkpt>
      <trkpt lat="46.99923" lon="-0.98688">
        <ele>105.1</ele>
        <time>2012-05-06T09:06:30Z</time>
      </trkpt>
      <trkpt lat="46.9993" lon="-0.98738">
        <ele>105.2</ele>
        <time>2012-05-06T09:06:36Z</time>
      </trkpt>
      <trkpt lat="46.99936" lon="-0.9875">
        <ele>105.4</ele>
        <time>2012-05-06T09:06:38Z</time>
      </trkpt>
      <trkpt lat="46.99962" lon="-0.98763">
        <ele>105.7</ele>
        <time>2012-05-06T09:06:44Z</time>
      </trkpt>
      <trkpt lat="46.99973" lon="-0.98785">
        <ele>106.6</ele>
        <time>2012-05-06T09:06:48Z</time>
      </trkpt>
      <trkpt lat="46.99977" lon="-0.98795">
        <ele>106.8</ele>
        <time>2012-05-06T09:06:50Z</time>
      </trkpt>
      <trkpt lat="46.99982" lon="-0.98819">
        <ele>107.1</ele>
        <time>2012-05-06T09:06:55Z</time>
      </trkpt>
      <trkpt lat="46.99994" lon="-0.98836">
        <ele>108.2</ele>
        <time>2012-05-06T09:07:00Z</time>
      </trkpt>
      <trkpt lat="47.00006" lon="-0.98856">
        <ele>107.9</ele>
        <time>2012-05-06T09:07:04Z</time>
      </trkpt>
      <trkpt lat="47.00005" lon="-0.98895">
        <ele>108.2</ele>
        <time>2012-05-06T09:07:08Z</time>
      </trkpt>
      <trkpt lat="46.99981" lon="-0.98927">
        <ele>107.9</ele>
        <time>2012-05-06T09:07:12Z</time>
      </trkpt>
      <trkpt lat="46.99972" lon="-0.98969">
        <ele>108.1</ele>
        <time>2012-05-06T09:07:16Z</time>
      </trkpt>
      <trkpt lat="46.99972" lon="-0.99011">
        <ele>108.3</ele>
        <time>2012-05-06T09:07:20Z</time>
      </trkpt>
      <trkpt lat="46.99972" lon="-0.99029">
        <ele>108.2</ele>
        <time>2012-05-06T09:07:22Z</time>
      </trkpt>
      <trkpt lat="46.99976" lon="-0.99074">
        <ele>108.6</ele>
        <time>2012-05-06T09:07:28Z</time>
      </trkpt>
      <trkpt lat="46.99977" lon="-0.99105">
        <ele>108.4</ele>
        <time>2012-05-06T09:07:32Z</time>
      </trkpt>
      <trkpt lat="46.99982" lon="-0.99139">
        <ele>107.1</ele>
        <time>2012-05-06T09:07:36Z</time>
      </trkpt>
      <trkpt lat="46.9999" lon="-0.99165">
        <ele>105.3</ele>
        <time>2012-05-06T09:07:40Z</time>
      </trkpt>
      <trkpt lat="47.00001" lon="-0.9919">
        <ele>104.6</ele>
        <time>2012-05-06T09:07:44Z</time>
      </trkpt>
      <trkpt lat="47.00028" lon="-0.99238">
        <ele>105</ele>
        <time>2012-05-06T09:07:52Z</time>
      </trkpt>
      <trkpt lat="47.00035" lon="-0.99265">
        <ele>105.4</ele>
        <time>2012-05-06T09:07:56Z</time>
      </trkpt>
      <trkpt lat="47.00046" lon="-0.99299">
        <ele>105.7</ele>
        <time>2012-05-06T09:08:03Z</time>
      </trkpt>
      <trkpt lat="47.00049" lon="-0.99311">
        <ele>105.6</ele>
        <time>2012-05-06T09:08:06Z</time>
      </trkpt>
      <trkpt lat="47.0006" lon="-0.99329">
        <ele>105.8</ele>
        <time>2012-05-06T09:08:12Z</time>
      </trkpt>
      <trkpt lat="47.00065" lon="-0.99339">
        <ele>106</ele>
        <time>2012-05-06T09:08:15Z</time>
      </trkpt>
      <trkpt lat="47.00073" lon="-0.9936">
        <ele>106.5</ele>
        <time>2012-05-06T09:08:20Z</time>
      </trkpt>
      <trkpt lat="47.00078" lon="-0.99381">
        <ele>106.9</ele>
        <time>2012-05-06T09:08:24Z</time>
      </trkpt>
      <trkpt lat="47.0008" lon="-0.99392">
        <ele>106.6</ele>
        <time>2012-05-06T09:08:26Z</time>
      </trkpt>
      <trkpt lat="47.00079" lon="-0.99431">
        <ele>108.5</ele>
        <time>2012-05-06T09:08:32Z</time>
      </trkpt>
      <trkpt lat="47.00076" lon="-0.99446">
        <ele>108.9</ele>
        <time>2012-05-06T09:08:34Z</time>
      </trkpt>
      <trkpt lat="47.00072" lon="-0.99456">
        <ele>109.1</ele>
        <time>2012-05-06T09:08:37Z</time>
      </trkpt>
      <trkpt lat="47.00068" lon="-0.99467">
        <ele>107.9</ele>
        <time>2012-05-06T09:08:41Z</time>
      </trkpt>
      <trkpt lat="47.00076" lon="-0.995">
        <ele>107.7</ele>
        <time>2012-05-06T09:08:48Z</time>
      </trkpt>
      <trkpt lat="47.00077" lon="-0.99511">
        <ele>107.5</ele>
        <time>2012-05-06T09:08:51Z</time>
      </trkpt>
      <trkpt lat="47.0008" lon="-0.99544">
        <ele>106.1</ele>
        <time>2012-05-06T09:08:59Z</time>
      </trkpt>
      <trkpt lat="47.00083" lon="-0.99552">
        <ele>105.6</ele>
        <time>2012-05-06T09:09:01Z</time>
      </trkpt>
      <trkpt lat="47.00085" lon="-0.99561">
        <ele>106.1</ele>
        <time>2012-05-06T09:09:05Z</time>
      </trkpt>
      <trkpt lat="47.00085" lon="-0.99561">
        <ele>62.8</ele>
        <time>2012-05-06T09:09:17Z</time>
      </trkpt>
      <trkpt lat="47.00085" lon="-0.99561">
        <ele>62.8</ele>
        <time>2012-05-06T09:09:26Z</time>
      </trkpt>
      <trkpt lat="47.00103" lon="-0.99574">
        <ele>109.8</ele>
        <time>2012-05-06T09:09:30Z</time>
      </trkpt>
      <trkpt lat="47.0011" lon="-0.99574">
        <ele>110</ele>
        <time>2012-05-06T09:09:34Z</time>
      </trkpt>
      <trkpt lat="47.00117" lon="-0.99571">
        <ele>110.3</ele>
        <time>2012-05-06T09:09:39Z</time>
      </trkpt>
      <trkpt lat="47.00117" lon="-0.99571">
        <ele>72.3</ele>
        <time>2012-05-06T09:09:50Z</time>
      </trkpt>
      <trkpt lat="47.00117" lon="-0.99571">
        <ele>72.3</ele>
        <time>2012-05-06T09:09:52Z</time>
      </trkpt>
      <trkpt lat="47.00117" lon="-0.99571">
        <ele>72.3</ele>
        <time>2012-05-06T09:10:03Z</time>
      </trkpt>
      <trkpt lat="47.00117" lon="-0.99571">
        <ele>72.3</ele>
        <time>2012-05-06T09:10:20Z</time>
      </trkpt>
      <trkpt lat="47.00175" lon="-0.99512">
        <ele>124.4</ele>
        <time>2012-05-06T09:10:24Z</time>
      </trkpt>
      <trkpt lat="47.00181" lon="-0.99506">
        <ele>126.6</ele>
        <time>2012-05-06T09:10:29Z</time>
      </trkpt>
      <trkpt lat="47.00188" lon="-0.99499">
        <ele>127.2</ele>
        <time>2012-05-06T09:10:32Z</time>
      </trkpt>
      <trkpt lat="47.00195" lon="-0.99493">
        <ele>128.9</ele>
        <time>2012-05-06T09:10:36Z</time>
      </trkpt>
      <trkpt lat="47.00202" lon="-0.99487">
        <ele>130.3</ele>
        <time>2012-05-06T09:10:40Z</time>
      </trkpt>
      <trkpt lat="47.00208" lon="-0.99484">
        <ele>130.7</ele>
        <time>2012-05-06T09:10:44Z</time>
      </trkpt>
      <trkpt lat="47.00216" lon="-0.99482">
        <ele>132</ele>
        <time>2012-05-06T09:10:47Z</time>
      </trkpt>
      <trkpt lat="47.00222" lon="-0.99478">
        <ele>133</ele>
        <time>2012-05-06T09:10:50Z</time>
      </trkpt>
      <trkpt lat="47.00237" lon="-0.99468">
        <ele>134.5</ele>
        <time>2012-05-06T09:10:56Z</time>
      </trkpt>
      <trkpt lat="47.00243" lon="-0.99463">
        <ele>135.2</ele>
        <time>2012-05-06T09:10:59Z</time>
      </trkpt>
      <trkpt lat="47.00249" lon="-0.99454">
        <ele>136</ele>
        <time>2012-05-06T09:11:03Z</time>
      </trkpt>
      <trkpt lat="47.00256" lon="-0.99437">
        <ele>138.3</ele>
        <time>2012-05-06T09:11:10Z</time>
      </trkpt>
      <trkpt lat="47.00259" lon="-0.99428">
        <ele>139</ele>
        <time>2012-05-06T09:11:14Z</time>
      </trkpt>
      <trkpt lat="47.00263" lon="-0.9942">
        <ele>139.9</ele>
        <time>2012-05-06T09:11:18Z</time>
      </trkpt>
      <trkpt lat="47.00267" lon="-0.9941">
        <ele>140.6</ele>
        <time>2012-05-06T09:11:22Z</time>
      </trkpt>
      <trkpt lat="47.0027" lon="-0.99402">
        <ele>141.4</ele>
        <time>2012-05-06T09:11:26Z</time>
      </trkpt>
      <trkpt lat="47.0027" lon="-0.99402">
        <ele>98.6</ele>
        <time>2012-05-06T09:11:37Z</time>
      </trkpt>
      <trkpt lat="47.0027" lon="-0.99402">
        <ele>98.6</ele>
        <time>2012-05-06T09:11:45Z</time>
      </trkpt>
      <trkpt lat="47.00277" lon="-0.99361">
        <ele>145.9</ele>
        <time>2012-05-06T09:11:48Z</time>
      </trkpt>
      <trkpt lat="47.0028" lon="-0.99349">
        <ele>146.2</ele>
        <time>2012-05-06T09:11:51Z</time>
      </trkpt>
      <trkpt lat="47.00286" lon="-0.99346">
        <ele>147.7</ele>
        <time>2012-05-06T09:11:55Z</time>
      </trkpt>
      <trkpt lat="47.00292" lon="-0.99354">
        <ele>147.9</ele>
        <time>2012-05-06T09:11:59Z</time>
      </trkpt>
      <trkpt lat="47.00297" lon="-0.9936">
        <ele>148.7</ele>
        <time>2012-05-06T09:12:02Z</time>
      </trkpt>
      <trkpt lat="47.00309" lon="-0.99375">
        <ele>150</ele>
        <time>2012-05-06T09:12:09Z</time>
      </trkpt>
      <trkpt lat="47.00314" lon="-0.99382">
        <ele>150.8</ele>
        <time>2012-05-06T09:12:13Z</time>
      </trkpt>
      <trkpt lat="47.00319" lon="-0.99388">
        <ele>151.1</ele>
        <time>2012-05-06T09:12:16Z</time>
      </trkpt>
      <trkpt lat="47.00324" lon="-0.99396">
        <ele>151.3</ele>
        <time>2012-05-06T09:12:19Z</time>
      </trkpt>
      <trkpt lat="47.00338" lon="-0.99413">
        <ele>152.3</ele>
        <time>2012-05-06T09:12:25Z</time>
      </trkpt>
      <trkpt lat="47.00343" lon="-0.99419">
        <ele>152.1</ele>
        <time>2012-05-06T09:12:27Z</time>
      </trkpt>
      <trkpt lat="47.00359" lon="-0.99432">
        <ele>152.4</ele>
        <time>2012-05-06T09:12:33Z</time>
      </trkpt>
      <trkpt lat="47.00372" lon="-0.99439">
        <ele>152.6</ele>
        <time>2012-05-06T09:12:37Z</time>
      </trkpt>
      <trkpt lat="47.00386" lon="-0.9944">
        <ele>153.4</ele>
        <time>2012-05-06T09:12:41Z</time>
      </trkpt>
      <trkpt lat="47.004" lon="-0.99439">
        <ele>154</ele>
        <time>2012-05-06T09:12:45Z</time>
      </trkpt>
      <trkpt lat="47.00414" lon="-0.99438">
        <ele>154.5</ele>
        <time>2012-05-06T09:12:49Z</time>
      </trkpt>
      <trkpt lat="47.00429" lon="-0.99435">
        <ele>154.6</ele>
        <time>2012-05-06T09:12:53Z</time>
      </trkpt>
      <trkpt lat="47.00446" lon="-0.99435">
        <ele>154.6</ele>
        <time>2012-05-06T09:12:57Z</time>
      </trkpt>
      <trkpt lat="47.00463" lon="-0.99433">
        <ele>154.9</ele>
        <time>2012-05-06T09:13:01Z</time>
      </trkpt>
      <trkpt lat="47.00479" lon="-0.99431">
        <ele>155</ele>
        <time>2012-05-06T09:13:05Z</time>
      </trkpt>
      <trkpt lat="47.00496" lon="-0.9943">
        <ele>155.4</ele>
        <time>2012-05-06T09:13:09Z</time>
      </trkpt>
      <trkpt lat="47.00504" lon="-0.99429">
        <ele>155.3</ele>
        <time>2012-05-06T09:13:11Z</time>
      </trkpt>
      <trkpt lat="47.00526" lon="-0.99413">
        <ele>154.4</ele>
        <time>2012-05-06T09:13:20Z</time>
      </trkpt>
      <trkpt lat="47.00519" lon="-0.99393">
        <ele>154.4</ele>
        <time>2012-05-06T09:13:25Z</time>
      </trkpt>
      <trkpt lat="47.00515" lon="-0.99382">
        <ele>154.2</ele>
        <time>2012-05-06T09:13:28Z</time>
      </trkpt>
      <trkpt lat="47.00513" lon="-0.99363">
        <ele>154.2</ele>
        <time>2012-05-06T09:13:32Z</time>
      </trkpt>
      <trkpt lat="47.00511" lon="-0.99344">
        <ele>154.8</ele>
        <time>2012-05-06T09:13:36Z</time>
      </trkpt>
      <trkpt lat="47.0051" lon="-0.99321">
        <ele>155.4</ele>
        <time>2012-05-06T09:13:41Z</time>
      </trkpt>
      <trkpt lat="47.00511" lon="-0.99301">
        <ele>155.1</ele>
        <time>2012-05-06T09:13:45Z</time>
      </trkpt>
      <trkpt lat="47.00511" lon="-0.99291">
        <ele>154.7</ele>
        <time>2012-05-06T09:13:47Z</time>
      </trkpt>
      <trkpt lat="47.00511" lon="-0.99268">
        <ele>154.8</ele>
        <time>2012-05-06T09:13:52Z</time>
      </trkpt>
      <trkpt lat="47.0051" lon="-0.99248">
        <ele>154.9</ele>
        <time>2012-05-06T09:13:56Z</time>
      </trkpt>
      <trkpt lat="47.0051" lon="-0.99227">
        <ele>155.4</ele>
        <time>2012-05-06T09:14:00Z</time>
      </trkpt>
      <trkpt lat="47.0051" lon="-0.99207">
        <ele>156.1</ele>
        <time>2012-05-06T09:14:04Z</time>
      </trkpt>
      <trkpt lat="47.00511" lon="-0.99185">
        <ele>156.3</ele>
        <time>2012-05-06T09:14:08Z</time>
      </trkpt>
      <trkpt lat="47.00511" lon="-0.99164">
        <ele>156.9</ele>
        <time>2012-05-06T09:14:12Z</time>
      </trkpt>
      <trkpt lat="47.00511" lon="-0.99142">
        <ele>157.2</ele>
        <time>2012-05-06T09:14:16Z</time>
      </trkpt>
      <trkpt lat="47.00511" lon="-0.99118">
        <ele>158.2</ele>
        <time>2012-05-06T09:14:20Z</time>
      </trkpt>
      <trkpt lat="47.00514" lon="-0.99091">
        <ele>158.6</ele>
        <time>2012-05-06T09:14:24Z</time>
      </trkpt>
      <trkpt lat="47.00522" lon="-0.99065">
        <ele>159</ele>
        <time>2012-05-06T09:14:28Z</time>
      </trkpt>
      <trkpt lat="47.00536" lon="-0.99044">
        <ele>159.4</ele>
        <time>2012-05-06T09:14:32Z</time>
      </trkpt>
      <trkpt lat="47.00551" lon="-0.99023">
        <ele>159.5</ele>
        <time>2012-05-06T09:14:36Z</time>
      </trkpt>
      <trkpt lat="47.00562" lon="-0.98995">
        <ele>159.8</ele>
        <time>2012-05-06T09:14:40Z</time>
      </trkpt>
      <trkpt lat="47.00565" lon="-0.9896">
        <ele>159.9</ele>
        <time>2012-05-06T09:14:44Z</time>
      </trkpt>
      <trkpt lat="47.00564" lon="-0.98925">
        <ele>159.9</ele>
        <time>2012-05-06T09:14:48Z</time>
      </trkpt>
      <trkpt lat="47.00565" lon="-0.98897">
        <ele>159.9</ele>
        <time>2012-05-06T09:14:52Z</time>
      </trkpt>
      <trkpt lat="47.00578" lon="-0.98897">
        <ele>160.2</ele>
        <time>2012-05-06T09:14:56Z</time>
      </trkpt>
      <trkpt lat="47.00591" lon="-0.98914">
        <ele>160.1</ele>
        <time>2012-05-06T09:15:00Z</time>
      </trkpt>
      <trkpt lat="47.00603" lon="-0.98932">
        <ele>160.9</ele>
        <time>2012-05-06T09:15:04Z</time>
      </trkpt>
      <trkpt lat="47.00609" lon="-0.98941">
        <ele>161</ele>
        <time>2012-05-06T09:15:06Z</time>
      </trkpt>
      <trkpt lat="47.00629" lon="-0.98969">
        <ele>161.4</ele>
        <time>2012-05-06T09:15:12Z</time>
      </trkpt>
      <trkpt lat="47.00641" lon="-0.98987">
        <ele>162.2</ele>
        <time>2012-05-06T09:15:16Z</time>
      </trkpt>
      <trkpt lat="47.00653" lon="-0.99002">
        <ele>162.9</ele>
        <time>2012-05-06T09:15:20Z</time>
      </trkpt>
      <trkpt lat="47.00664" lon="-0.99019">
        <ele>163.9</ele>
        <time>2012-05-06T09:15:24Z</time>
      </trkpt>
      <trkpt lat="47.0067" lon="-0.99027">
        <ele>164.6</ele>
        <time>2012-05-06T09:15:26Z</time>
      </trkpt>
      <trkpt lat="47.00689" lon="-0.99055">
        <ele>165.3</ele>
        <time>2012-05-06T09:15:32Z</time>
      </trkpt>
      <trkpt lat="47.00696" lon="-0.99063">
        <ele>165.5</ele>
        <time>2012-05-06T09:15:34Z</time>
      </trkpt>
      <trkpt lat="47.00715" lon="-0.99084">
        <ele>166.5</ele>
        <time>2012-05-06T09:15:40Z</time>
      </trkpt>
      <trkpt lat="47.00721" lon="-0.99091">
        <ele>166.3</ele>
        <time>2012-05-06T09:15:42Z</time>
      </trkpt>
      <trkpt lat="47.00758" lon="-0.99119">
        <ele>169.4</ele>
        <time>2012-05-06T09:15:52Z</time>
      </trkpt>
      <trkpt lat="47.00786" lon="-0.99153">
        <ele>171.5</ele>
        <time>2012-05-06T09:16:00Z</time>
      </trkpt>
      <trkpt lat="47.00797" lon="-0.99168">
        <ele>172.1</ele>
        <time>2012-05-06T09:16:04Z</time>
      </trkpt>
      <trkpt lat="47.00811" lon="-0.99185">
        <ele>172.7</ele>
        <time>2012-05-06T09:16:08Z</time>
      </trkpt>
      <trkpt lat="47.00826" lon="-0.99201">
        <ele>173.1</ele>
        <time>2012-05-06T09:16:12Z</time>
      </trkpt>
      <trkpt lat="47.00841" lon="-0.99221">
        <ele>173.2</ele>
        <time>2012-05-06T09:16:16Z</time>
      </trkpt>
      <trkpt lat="47.00847" lon="-0.99232">
        <ele>173</ele>
        <time>2012-05-06T09:16:18Z</time>
      </trkpt>
      <trkpt lat="47.00863" lon="-0.99272">
        <ele>172.8</ele>
        <time>2012-05-06T09:16:24Z</time>
      </trkpt>
      <trkpt lat="47.00873" lon="-0.99299">
        <ele>171.8</ele>
        <time>2012-05-06T09:16:28Z</time>
      </trkpt>
      <trkpt lat="47.0089" lon="-0.99316">
        <ele>171.5</ele>
        <time>2012-05-06T09:16:32Z</time>
      </trkpt>
      <trkpt lat="47.009" lon="-0.9932">
        <ele>171.8</ele>
        <time>2012-05-06T09:16:34Z</time>
      </trkpt>
      <trkpt lat="47.00926" lon="-0.9934">
        <ele>172.3</ele>
        <time>2012-05-06T09:16:40Z</time>
      </trkpt>
      <trkpt lat="47.00942" lon="-0.99358">
        <ele>173</ele>
        <time>2012-05-06T09:16:44Z</time>
      </trkpt>
      <trkpt lat="47.00957" lon="-0.99377">
        <ele>174</ele>
        <time>2012-05-06T09:16:48Z</time>
      </trkpt>
      <trkpt lat="47.00971" lon="-0.99399">
        <ele>174.4</ele>
        <time>2012-05-06T09:16:52Z</time>
      </trkpt>
      <trkpt lat="47.00986" lon="-0.9942">
        <ele>174.7</ele>
        <time>2012-05-06T09:16:56Z</time>
      </trkpt>
      <trkpt lat="47.00999" lon="-0.99439">
        <ele>175.1</ele>
        <time>2012-05-06T09:17:00Z</time>
      </trkpt>
      <trkpt lat="47.01013" lon="-0.99458">
        <ele>175.1</ele>
        <time>2012-05-06T09:17:04Z</time>
      </trkpt>
      <trkpt lat="47.01027" lon="-0.99481">
        <ele>175.1</ele>
        <time>2012-05-06T09:17:08Z</time>
      </trkpt>
      <trkpt lat="47.01035" lon="-0.9951">
        <ele>174.7</ele>
        <time>2012-05-06T09:17:12Z</time>
      </trkpt>
      <trkpt lat="47.01041" lon="-0.99554">
        <ele>173.8</ele>
        <time>2012-05-06T09:17:18Z</time>
      </trkpt>
      <trkpt lat="47.01053" lon="-0.99579">
        <ele>173.5</ele>
        <time>2012-05-06T09:17:22Z</time>
      </trkpt>
      <trkpt lat="47.01078" lon="-0.99615">
        <ele>173.6</ele>
        <time>2012-05-06T09:17:28Z</time>
      </trkpt>
      <trkpt lat="47.0109" lon="-0.9964">
        <ele>173.6</ele>
        <time>2012-05-06T09:17:32Z</time>
      </trkpt>
      <trkpt lat="47.01105" lon="-0.99668">
        <ele>174.2</ele>
        <time>2012-05-06T09:17:36Z</time>
      </trkpt>
      <trkpt lat="47.01121" lon="-0.9969">
        <ele>174</ele>
        <time>2012-05-06T09:17:40Z</time>
      </trkpt>
      <trkpt lat="47.01139" lon="-0.99706">
        <ele>173.4</ele>
        <time>2012-05-06T09:17:44Z</time>
      </trkpt>
      <trkpt lat="47.01148" lon="-0.99714">
        <ele>173.2</ele>
        <time>2012-05-06T09:17:46Z</time>
      </trkpt>
      <trkpt lat="47.0119" lon="-0.99757">
        <ele>173</ele>
        <time>2012-05-06T09:17:56Z</time>
      </trkpt>
      <trkpt lat="47.01205" lon="-0.99774">
        <ele>173.1</ele>
        <time>2012-05-06T09:18:00Z</time>
      </trkpt>
      <trkpt lat="47.01219" lon="-0.99787">
        <ele>173.7</ele>
        <time>2012-05-06T09:18:04Z</time>
      </trkpt>
      <trkpt lat="47.01247" lon="-0.99815">
        <ele>174.7</ele>
        <time>2012-05-06T09:18:12Z</time>
      </trkpt>
      <trkpt lat="47.0126" lon="-0.99827">
        <ele>175.6</ele>
        <time>2012-05-06T09:18:16Z</time>
      </trkpt>
      <trkpt lat="47.01274" lon="-0.99836">
        <ele>176.3</ele>
        <time>2012-05-06T09:18:20Z</time>
      </trkpt>
      <trkpt lat="47.01287" lon="-0.99822">
        <ele>176.7</ele>
        <time>2012-05-06T09:18:24Z</time>
      </trkpt>
      <trkpt lat="47.01302" lon="-0.99807">
        <ele>177.1</ele>
        <time>2012-05-06T09:18:28Z</time>
      </trkpt>
      <trkpt lat="47.01318" lon="-0.99793">
        <ele>177.5</ele>
        <time>2012-05-06T09:18:32Z</time>
      </trkpt>
      <trkpt lat="47.01335" lon="-0.99779">
        <ele>178.1</ele>
        <time>2012-05-06T09:18:36Z</time>
      </trkpt>
      <trkpt lat="47.01351" lon="-0.99765">
        <ele>178.4</ele>
        <time>2012-05-06T09:18:40Z</time>
      </trkpt>
      <trkpt lat="47.01367" lon="-0.99751">
        <ele>178.8</ele>
        <time>2012-05-06T09:18:44Z</time>
      </trkpt>
      <trkpt lat="47.01384" lon="-0.99737">
        <ele>179.3</ele>
        <time>2012-05-06T09:18:48Z</time>
      </trkpt>
      <trkpt lat="47.01401" lon="-0.99724">
        <ele>179.2</ele>
        <time>2012-05-06T09:18:52Z</time>
      </trkpt>
      <trkpt lat="47.01417" lon="-0.99711">
        <ele>179.2</ele>
        <time>2012-05-06T09:18:56Z</time>
      </trkpt>
      <trkpt lat="47.01433" lon="-0.99698">
        <ele>179.5</ele>
        <time>2012-05-06T09:19:00Z</time>
      </trkpt>
      <trkpt lat="47.01448" lon="-0.99688">
        <ele>180.1</ele>
        <time>2012-05-06T09:19:04Z</time>
      </trkpt>
      <trkpt lat="47.01462" lon="-0.99675">
        <ele>180.6</ele>
        <time>2012-05-06T09:19:08Z</time>
      </trkpt>
      <trkpt lat="47.01468" lon="-0.99668">
        <ele>180.9</ele>
        <time>2012-05-06T09:19:10Z</time>
      </trkpt>
      <trkpt lat="47.01475" lon="-0.99661">
        <ele>183</ele>
        <time>2012-05-06T09:19:20Z</time>
      </trkpt>
      <trkpt lat="47.0149" lon="-0.99651">
        <ele>183.4</ele>
        <time>2012-05-06T09:19:25Z</time>
      </trkpt>
      <trkpt lat="47.01509" lon="-0.99643">
        <ele>183.1</ele>
        <time>2012-05-06T09:19:29Z</time>
      </trkpt>
      <trkpt lat="47.01528" lon="-0.99635">
        <ele>183.2</ele>
        <time>2012-05-06T09:19:33Z</time>
      </trkpt>
      <trkpt lat="47.01546" lon="-0.99625">
        <ele>183.3</ele>
        <time>2012-05-06T09:19:37Z</time>
      </trkpt>
      <trkpt lat="47.01565" lon="-0.99615">
        <ele>183.5</ele>
        <time>2012-05-06T09:19:41Z</time>
      </trkpt>
      <trkpt lat="47.01583" lon="-0.99606">
        <ele>183.4</ele>
        <time>2012-05-06T09:19:45Z</time>
      </trkpt>
      <trkpt lat="47.01602" lon="-0.99596">
        <ele>183.4</ele>
        <time>2012-05-06T09:19:49Z</time>
      </trkpt>
      <trkpt lat="47.01621" lon="-0.99587">
        <ele>183.5</ele>
        <time>2012-05-06T09:19:53Z</time>
      </trkpt>
      <trkpt lat="47.0164" lon="-0.99577">
        <ele>183.8</ele>
        <time>2012-05-06T09:19:57Z</time>
      </trkpt>
      <trkpt lat="47.01659" lon="-0.99568">
        <ele>184.2</ele>
        <time>2012-05-06T09:20:01Z</time>
      </trkpt>
      <trkpt lat="47.0168" lon="-0.99557">
        <ele>184.1</ele>
        <time>2012-05-06T09:20:05Z</time>
      </trkpt>
      <trkpt lat="47.01701" lon="-0.99547">
        <ele>184</ele>
        <time>2012-05-06T09:20:09Z</time>
      </trkpt>
      <trkpt lat="47.01722" lon="-0.99536">
        <ele>183.7</ele>
        <time>2012-05-06T09:20:13Z</time>
      </trkpt>
      <trkpt lat="47.0174" lon="-0.99524">
        <ele>183.6</ele>
        <time>2012-05-06T09:20:17Z</time>
      </trkpt>
      <trkpt lat="47.01775" lon="-0.99535">
        <ele>183.8</ele>
        <time>2012-05-06T09:20:25Z</time>
      </trkpt>
      <trkpt lat="47.01793" lon="-0.99551">
        <ele>183.9</ele>
        <time>2012-05-06T09:20:29Z</time>
      </trkpt>
      <trkpt lat="47.0181" lon="-0.99567">
        <ele>184.2</ele>
        <time>2012-05-06T09:20:33Z</time>
      </trkpt>
      <trkpt lat="47.01829" lon="-0.99586">
        <ele>183.9</ele>
        <time>2012-05-06T09:20:37Z</time>
      </trkpt>
      <trkpt lat="47.01847" lon="-0.99607">
        <ele>183.7</ele>
        <time>2012-05-06T09:20:41Z</time>
      </trkpt>
      <trkpt lat="47.01863" lon="-0.9963">
        <ele>183.7</ele>
        <time>2012-05-06T09:20:45Z</time>
      </trkpt>
      <trkpt lat="47.01885" lon="-0.99662">
        <ele>183.3</ele>
        <time>2012-05-06T09:20:50Z</time>
      </trkpt>
      <trkpt lat="47.01899" lon="-0.99683">
        <ele>182.9</ele>
        <time>2012-05-06T09:20:53Z</time>
      </trkpt>
      <trkpt lat="47.01922" lon="-0.99717">
        <ele>182.6</ele>
        <time>2012-05-06T09:20:58Z</time>
      </trkpt>
      <trkpt lat="47.01935" lon="-0.99736">
        <ele>182.4</ele>
        <time>2012-05-06T09:21:01Z</time>
      </trkpt>
      <trkpt lat="47.01953" lon="-0.99762">
        <ele>182.1</ele>
        <time>2012-05-06T09:21:05Z</time>
      </trkpt>
      <trkpt lat="47.01969" lon="-0.99788">
        <ele>181.3</ele>
        <time>2012-05-06T09:21:09Z</time>
      </trkpt>
      <trkpt lat="47.01986" lon="-0.99813">
        <ele>180.4</ele>
        <time>2012-05-06T09:21:13Z</time>
      </trkpt>
      <trkpt lat="47.02005" lon="-0.99832">
        <ele>180</ele>
        <time>2012-05-06T09:21:17Z</time>
      </trkpt>
      <trkpt lat="47.02028" lon="-0.99839">
        <ele>179.5</ele>
        <time>2012-05-06T09:21:21Z</time>
      </trkpt>
      <trkpt lat="47.0205" lon="-0.99843">
        <ele>178.7</ele>
        <time>2012-05-06T09:21:25Z</time>
      </trkpt>
      <trkpt lat="47.02072" lon="-0.99847">
        <ele>177.6</ele>
        <time>2012-05-06T09:21:29Z</time>
      </trkpt>
      <trkpt lat="47.02093" lon="-0.99863">
        <ele>177.6</ele>
        <time>2012-05-06T09:21:33Z</time>
      </trkpt>
      <trkpt lat="47.02115" lon="-0.99896">
        <ele>177.7</ele>
        <time>2012-05-06T09:21:38Z</time>
      </trkpt>
      <trkpt lat="47.02132" lon="-0.99922">
        <ele>177.5</ele>
        <time>2012-05-06T09:21:42Z</time>
      </trkpt>
      <trkpt lat="47.02149" lon="-0.99947">
        <ele>177.2</ele>
        <time>2012-05-06T09:21:46Z</time>
      </trkpt>
      <trkpt lat="47.02166" lon="-0.99971">
        <ele>176.4</ele>
        <time>2012-05-06T09:21:50Z</time>
      </trkpt>
      <trkpt lat="47.0218" lon="-0.99989">
        <ele>175.9</ele>
        <time>2012-05-06T09:21:53Z</time>
      </trkpt>
      <trkpt lat="47.0219" lon="-1">
        <ele>175.6</ele>
        <time>2012-05-06T09:21:55Z</time>
      </trkpt>
      <trkpt lat="47.02219" lon="-1.00027">
        <ele>175.1</ele>
        <time>2012-05-06T09:22:01Z</time>
      </trkpt>
      <trkpt lat="47.02245" lon="-1.00051">
        <ele>174.4</ele>
        <time>2012-05-06T09:22:06Z</time>
      </trkpt>
      <trkpt lat="47.02266" lon="-1.00069">
        <ele>174.6</ele>
        <time>2012-05-06T09:22:10Z</time>
      </trkpt>
      <trkpt lat="47.02276" lon="-1.00078">
        <ele>174.8</ele>
        <time>2012-05-06T09:22:12Z</time>
      </trkpt>
      <trkpt lat="47.02306" lon="-1.00104">
        <ele>174.7</ele>
        <time>2012-05-06T09:22:18Z</time>
      </trkpt>
      <trkpt lat="47.02325" lon="-1.0012">
        <ele>174.5</ele>
        <time>2012-05-06T09:22:22Z</time>
      </trkpt>
      <trkpt lat="47.02335" lon="-1.00127">
        <ele>174.6</ele>
        <time>2012-05-06T09:22:24Z</time>
      </trkpt>
      <trkpt lat="47.02353" lon="-1.00141">
        <ele>175</ele>
        <time>2012-05-06T09:22:28Z</time>
      </trkpt>
      <trkpt lat="47.02381" lon="-1.00168">
        <ele>174.7</ele>
        <time>2012-05-06T09:22:34Z</time>
      </trkpt>
      <trkpt lat="47.024" lon="-1.00179">
        <ele>174.9</ele>
        <time>2012-05-06T09:22:38Z</time>
      </trkpt>
      <trkpt lat="47.02418" lon="-1.00189">
        <ele>175.3</ele>
        <time>2012-05-06T09:22:42Z</time>
      </trkpt>
      <trkpt lat="47.02435" lon="-1.00201">
        <ele>175.5</ele>
        <time>2012-05-06T09:22:46Z</time>
      </trkpt>
      <trkpt lat="47.02443" lon="-1.00207">
        <ele>175.5</ele>
        <time>2012-05-06T09:22:48Z</time>
      </trkpt>
      <trkpt lat="47.02466" lon="-1.00224">
        <ele>175.8</ele>
        <time>2012-05-06T09:22:54Z</time>
      </trkpt>
      <trkpt lat="47.02496" lon="-1.00258">
        <ele>176.5</ele>
        <time>2012-05-06T09:23:02Z</time>
      </trkpt>
      <trkpt lat="47.02509" lon="-1.00275">
        <ele>176.7</ele>
        <time>2012-05-06T09:23:06Z</time>
      </trkpt>
      <trkpt lat="47.02519" lon="-1.003">
        <ele>176.4</ele>
        <time>2012-05-06T09:23:10Z</time>
      </trkpt>
      <trkpt lat="47.02529" lon="-1.00325">
        <ele>176.2</ele>
        <time>2012-05-06T09:23:14Z</time>
      </trkpt>
      <trkpt lat="47.02536" lon="-1.00338">
        <ele>176.7</ele>
        <time>2012-05-06T09:23:16Z</time>
      </trkpt>
      <trkpt lat="47.02554" lon="-1.00368">
        <ele>177</ele>
        <time>2012-05-06T09:23:22Z</time>
      </trkpt>
      <trkpt lat="47.02569" lon="-1.00386">
        <ele>176.6</ele>
        <time>2012-05-06T09:23:26Z</time>
      </trkpt>
      <trkpt lat="47.02581" lon="-1.00401">
        <ele>177.3</ele>
        <time>2012-05-06T09:23:30Z</time>
      </trkpt>
      <trkpt lat="47.02586" lon="-1.0041">
        <ele>177.4</ele>
        <time>2012-05-06T09:23:32Z</time>
      </trkpt>
      <trkpt lat="47.02604" lon="-1.00435">
        <ele>178.4</ele>
        <time>2012-05-06T09:23:38Z</time>
      </trkpt>
      <trkpt lat="47.02616" lon="-1.00451">
        <ele>178.8</ele>
        <time>2012-05-06T09:23:42Z</time>
      </trkpt>
      <trkpt lat="47.0263" lon="-1.0047">
        <ele>178.8</ele>
        <time>2012-05-06T09:23:46Z</time>
      </trkpt>
      <trkpt lat="47.02644" lon="-1.00489">
        <ele>179.6</ele>
        <time>2012-05-06T09:23:50Z</time>
      </trkpt>
      <trkpt lat="47.02658" lon="-1.00508">
        <ele>179.6</ele>
        <time>2012-05-06T09:23:54Z</time>
      </trkpt>
      <trkpt lat="47.02665" lon="-1.00517">
        <ele>179.9</ele>
        <time>2012-05-06T09:23:56Z</time>
      </trkpt>
      <trkpt lat="47.02686" lon="-1.00547">
        <ele>180.8</ele>
        <time>2012-05-06T09:24:02Z</time>
      </trkpt>
      <trkpt lat="47.02698" lon="-1.00568">
        <ele>181.1</ele>
        <time>2012-05-06T09:24:06Z</time>
      </trkpt>
      <trkpt lat="47.02703" lon="-1.00579">
        <ele>180.8</ele>
        <time>2012-05-06T09:24:08Z</time>
      </trkpt>
      <trkpt lat="47.02715" lon="-1.00616">
        <ele>181.2</ele>
        <time>2012-05-06T09:24:14Z</time>
      </trkpt>
      <trkpt lat="47.0272" lon="-1.00644">
        <ele>181.9</ele>
        <time>2012-05-06T09:24:18Z</time>
      </trkpt>
      <trkpt lat="47.02724" lon="-1.00672">
        <ele>182.3</ele>
        <time>2012-05-06T09:24:22Z</time>
      </trkpt>
      <trkpt lat="47.02726" lon="-1.00686">
        <ele>182.4</ele>
        <time>2012-05-06T09:24:24Z</time>
      </trkpt>
      <trkpt lat="47.02733" lon="-1.00728">
        <ele>182.6</ele>
        <time>2012-05-06T09:24:30Z</time>
      </trkpt>
      <trkpt lat="47.0274" lon="-1.00753">
        <ele>182.5</ele>
        <time>2012-05-06T09:24:34Z</time>
      </trkpt>
      <trkpt lat="47.02744" lon="-1.00765">
        <ele>182.4</ele>
        <time>2012-05-06T09:24:37Z</time>
      </trkpt>
      <trkpt lat="47.02748" lon="-1.00777">
        <ele>183.1</ele>
        <time>2012-05-06T09:24:39Z</time>
      </trkpt>
      <trkpt lat="47.0276" lon="-1.00823">
        <ele>183</ele>
        <time>2012-05-06T09:24:48Z</time>
      </trkpt>
      <trkpt lat="47.02766" lon="-1.00817">
        <ele>183.1</ele>
        <time>2012-05-06T09:24:52Z</time>
      </trkpt>
      <trkpt lat="47.02765" lon="-1.00795">
        <ele>183.8</ele>
        <time>2012-05-06T09:24:57Z</time>
      </trkpt>
      <trkpt lat="47.02767" lon="-1.00774">
        <ele>185.5</ele>
        <time>2012-05-06T09:25:01Z</time>
      </trkpt>
      <trkpt lat="47.02771" lon="-1.00755">
        <ele>186.3</ele>
        <time>2012-05-06T09:25:05Z</time>
      </trkpt>
      <trkpt lat="47.02777" lon="-1.00731">
        <ele>187</ele>
        <time>2012-05-06T09:25:09Z</time>
      </trkpt>
      <trkpt lat="47.02784" lon="-1.00706">
        <ele>187.6</ele>
        <time>2012-05-06T09:25:13Z</time>
      </trkpt>
      <trkpt lat="47.02791" lon="-1.00681">
        <ele>187.8</ele>
        <time>2012-05-06T09:25:17Z</time>
      </trkpt>
      <trkpt lat="47.02807" lon="-1.00627">
        <ele>187.1</ele>
        <time>2012-05-06T09:25:24Z</time>
      </trkpt>
      <trkpt lat="47.02821" lon="-1.00603">
        <ele>186.1</ele>
        <time>2012-05-06T09:25:28Z</time>
      </trkpt>
      <trkpt lat="47.02834" lon="-1.00579">
        <ele>184.5</ele>
        <time>2012-05-06T09:25:32Z</time>
      </trkpt>
      <trkpt lat="47.02847" lon="-1.00556">
        <ele>183.9</ele>
        <time>2012-05-06T09:25:36Z</time>
      </trkpt>
      <trkpt lat="47.02859" lon="-1.00531">
        <ele>183.1</ele>
        <time>2012-05-06T09:25:40Z</time>
      </trkpt>
      <trkpt lat="47.02865" lon="-1.00519">
        <ele>182.9</ele>
        <time>2012-05-06T09:25:42Z</time>
      </trkpt>
      <trkpt lat="47.02881" lon="-1.00482">
        <ele>181.7</ele>
        <time>2012-05-06T09:25:48Z</time>
      </trkpt>
      <trkpt lat="47.02892" lon="-1.00457">
        <ele>181.7</ele>
        <time>2012-05-06T09:25:52Z</time>
      </trkpt>
      <trkpt lat="47.02902" lon="-1.00431">
        <ele>181.4</ele>
        <time>2012-05-06T09:25:56Z</time>
      </trkpt>
      <trkpt lat="47.02918" lon="-1.0038">
        <ele>181.9</ele>
        <time>2012-05-06T09:26:04Z</time>
      </trkpt>
      <trkpt lat="47.02926" lon="-1.00353">
        <ele>182.1</ele>
        <time>2012-05-06T09:26:08Z</time>
      </trkpt>
      <trkpt lat="47.02932" lon="-1.00324">
        <ele>180.7</ele>
        <time>2012-05-06T09:26:12Z</time>
      </trkpt>
      <trkpt lat="47.02936" lon="-1.00297">
        <ele>180</ele>
        <time>2012-05-06T09:26:16Z</time>
      </trkpt>
      <trkpt lat="47.02941" lon="-1.00271">
        <ele>181.2</ele>
        <time>2012-05-06T09:26:20Z</time>
      </trkpt>
      <trkpt lat="47.02944" lon="-1.00247">
        <ele>182.3</ele>
        <time>2012-05-06T09:26:24Z</time>
      </trkpt>
      <trkpt lat="47.02948" lon="-1.00222">
        <ele>183.4</ele>
        <time>2012-05-06T09:26:28Z</time>
      </trkpt>
      <trkpt lat="47.02951" lon="-1.00193">
        <ele>186.1</ele>
        <time>2012-05-06T09:26:32Z</time>
      </trkpt>
      <trkpt lat="47.02953" lon="-1.00163">
        <ele>187.1</ele>
        <time>2012-05-06T09:26:36Z</time>
      </trkpt>
      <trkpt lat="47.02955" lon="-1.00148">
        <ele>187.2</ele>
        <time>2012-05-06T09:26:38Z</time>
      </trkpt>
      <trkpt lat="47.02958" lon="-1.00107">
        <ele>187.1</ele>
        <time>2012-05-06T09:26:44Z</time>
      </trkpt>
      <trkpt lat="47.0296" lon="-1.00078">
        <ele>186.6</ele>
        <time>2012-05-06T09:26:48Z</time>
      </trkpt>
      <trkpt lat="47.02965" lon="-1.00045">
        <ele>185.9</ele>
        <time>2012-05-06T09:26:52Z</time>
      </trkpt>
      <trkpt lat="47.02968" lon="-1.00012">
        <ele>184.5</ele>
        <time>2012-05-06T09:26:56Z</time>
      </trkpt>
      <trkpt lat="47.02968" lon="-0.99986">
        <ele>183.8</ele>
        <time>2012-05-06T09:27:00Z</time>
      </trkpt>
      <trkpt lat="47.02964" lon="-0.99961">
        <ele>183.6</ele>
        <time>2012-05-06T09:27:05Z</time>
      </trkpt>
      <trkpt lat="47.02968" lon="-0.99936">
        <ele>183.4</ele>
        <time>2012-05-06T09:27:09Z</time>
      </trkpt>
      <trkpt lat="47.02973" lon="-0.99909">
        <ele>182.9</ele>
        <time>2012-05-06T09:27:13Z</time>
      </trkpt>
      <trkpt lat="47.02977" lon="-0.99889">
        <ele>182.2</ele>
        <time>2012-05-06T09:27:17Z</time>
      </trkpt>
      <trkpt lat="47.02981" lon="-0.99865">
        <ele>181.4</ele>
        <time>2012-05-06T09:27:21Z</time>
      </trkpt>
      <trkpt lat="47.02986" lon="-0.99834">
        <ele>179.7</ele>
        <time>2012-05-06T09:27:25Z</time>
      </trkpt>
      <trkpt lat="47.02988" lon="-0.99823">
        <ele>179</ele>
        <time>2012-05-06T09:27:27Z</time>
      </trkpt>
      <trkpt lat="47.02996" lon="-0.99804">
        <ele>177.7</ele>
        <time>2012-05-06T09:27:33Z</time>
      </trkpt>
      <trkpt lat="47.03001" lon="-0.99795">
        <ele>177.6</ele>
        <time>2012-05-06T09:27:36Z</time>
      </trkpt>
      <trkpt lat="47.0301" lon="-0.99765">
        <ele>177.1</ele>
        <time>2012-05-06T09:27:42Z</time>
      </trkpt>
      <trkpt lat="47.03015" lon="-0.99741">
        <ele>176.6</ele>
        <time>2012-05-06T09:27:46Z</time>
      </trkpt>
      <trkpt lat="47.03024" lon="-0.99704">
        <ele>176.2</ele>
        <time>2012-05-06T09:27:52Z</time>
      </trkpt>
      <trkpt lat="47.03032" lon="-0.99661">
        <ele>176.1</ele>
        <time>2012-05-06T09:27:58Z</time>
      </trkpt>
      <trkpt lat="47.03034" lon="-0.99647">
        <ele>176.1</ele>
        <time>2012-05-06T09:28:00Z</time>
      </trkpt>
      <trkpt lat="47.03043" lon="-0.99612">
        <ele>175.9</ele>
        <time>2012-05-06T09:28:06Z</time>
      </trkpt>
      <trkpt lat="47.03049" lon="-0.99609">
        <ele>175.4</ele>
        <time>2012-05-06T09:28:09Z</time>
      </trkpt>
      <trkpt lat="47.03059" lon="-0.99614">
        <ele>174.8</ele>
        <time>2012-05-06T09:28:12Z</time>
      </trkpt>
      <trkpt lat="47.03075" lon="-0.99628">
        <ele>174.2</ele>
        <time>2012-05-06T09:28:16Z</time>
      </trkpt>
      <trkpt lat="47.03092" lon="-0.99644">
        <ele>173.9</ele>
        <time>2012-05-06T09:28:20Z</time>
      </trkpt>
      <trkpt lat="47.03108" lon="-0.99657">
        <ele>173.9</ele>
        <time>2012-05-06T09:28:24Z</time>
      </trkpt>
      <trkpt lat="47.03136" lon="-0.9968">
        <ele>173.3</ele>
        <time>2012-05-06T09:28:30Z</time>
      </trkpt>
      <trkpt lat="47.03145" lon="-0.99687">
        <ele>173.1</ele>
        <time>2012-05-06T09:28:32Z</time>
      </trkpt>
      <trkpt lat="47.03163" lon="-0.997">
        <ele>172.4</ele>
        <time>2012-05-06T09:28:36Z</time>
      </trkpt>
      <trkpt lat="47.0319" lon="-0.99727">
        <ele>172.5</ele>
        <time>2012-05-06T09:28:42Z</time>
      </trkpt>
      <trkpt lat="47.03209" lon="-0.9975">
        <ele>172.2</ele>
        <time>2012-05-06T09:28:46Z</time>
      </trkpt>
      <trkpt lat="47.03236" lon="-0.99782">
        <ele>171.4</ele>
        <time>2012-05-06T09:28:52Z</time>
      </trkpt>
      <trkpt lat="47.03262" lon="-0.99808">
        <ele>170.4</ele>
        <time>2012-05-06T09:28:57Z</time>
      </trkpt>
      <trkpt lat="47.03283" lon="-0.99821">
        <ele>169.7</ele>
        <time>2012-05-06T09:29:01Z</time>
      </trkpt>
      <trkpt lat="47.03304" lon="-0.99832">
        <ele>169.2</ele>
        <time>2012-05-06T09:29:05Z</time>
      </trkpt>
      <trkpt lat="47.03324" lon="-0.99844">
        <ele>169.2</ele>
        <time>2012-05-06T09:29:09Z</time>
      </trkpt>
      <trkpt lat="47.03344" lon="-0.99856">
        <ele>169.4</ele>
        <time>2012-05-06T09:29:13Z</time>
      </trkpt>
      <trkpt lat="47.03363" lon="-0.99866">
        <ele>169.6</ele>
        <time>2012-05-06T09:29:17Z</time>
      </trkpt>
      <trkpt lat="47.03374" lon="-0.9987">
        <ele>170.1</ele>
        <time>2012-05-06T09:29:19Z</time>
      </trkpt>
      <trkpt lat="47.03407" lon="-0.99883">
        <ele>170.9</ele>
        <time>2012-05-06T09:29:25Z</time>
      </trkpt>
      <trkpt lat="47.03435" lon="-0.99895">
        <ele>170.2</ele>
        <time>2012-05-06T09:29:30Z</time>
      </trkpt>
      <trkpt lat="47.03456" lon="-0.99906">
        <ele>169</ele>
        <time>2012-05-06T09:29:34Z</time>
      </trkpt>
      <trkpt lat="47.03478" lon="-0.99913">
        <ele>168.7</ele>
        <time>2012-05-06T09:29:38Z</time>
      </trkpt>
      <trkpt lat="47.035" lon="-0.99925">
        <ele>168</ele>
        <time>2012-05-06T09:29:42Z</time>
      </trkpt>
      <trkpt lat="47.03524" lon="-0.99943">
        <ele>167.1</ele>
        <time>2012-05-06T09:29:46Z</time>
      </trkpt>
      <trkpt lat="47.03543" lon="-0.9996">
        <ele>166.6</ele>
        <time>2012-05-06T09:29:49Z</time>
      </trkpt>
      <trkpt lat="47.03573" lon="-0.99988">
        <ele>165.6</ele>
        <time>2012-05-06T09:29:54Z</time>
      </trkpt>
      <trkpt lat="47.0359" lon="-1.00004">
        <ele>164.8</ele>
        <time>2012-05-06T09:29:57Z</time>
      </trkpt>
      <trkpt lat="47.03618" lon="-1.00029">
        <ele>163.8</ele>
        <time>2012-05-06T09:30:02Z</time>
      </trkpt>
      <trkpt lat="47.03643" lon="-1.00038">
        <ele>163.5</ele>
        <time>2012-05-06T09:30:06Z</time>
      </trkpt>
      <trkpt lat="47.03669" lon="-1.00035">
        <ele>162.4</ele>
        <time>2012-05-06T09:30:10Z</time>
      </trkpt>
      <trkpt lat="47.03688" lon="-1.00032">
        <ele>162.8</ele>
        <time>2012-05-06T09:30:13Z</time>
      </trkpt>
      <trkpt lat="47.03712" lon="-1.00034">
        <ele>163.5</ele>
        <time>2012-05-06T09:30:17Z</time>
      </trkpt>
      <trkpt lat="47.03734" lon="-1.00036">
        <ele>163.7</ele>
        <time>2012-05-06T09:30:21Z</time>
      </trkpt>
      <trkpt lat="47.03755" lon="-1.00037">
        <ele>164.6</ele>
        <time>2012-05-06T09:30:25Z</time>
      </trkpt>
      <trkpt lat="47.03765" lon="-1.00038">
        <ele>165.1</ele>
        <time>2012-05-06T09:30:27Z</time>
      </trkpt>
      <trkpt lat="47.03795" lon="-1.00041">
        <ele>166.3</ele>
        <time>2012-05-06T09:30:33Z</time>
      </trkpt>
      <trkpt lat="47.03815" lon="-1.0005">
        <ele>167.2</ele>
        <time>2012-05-06T09:30:37Z</time>
      </trkpt>
      <trkpt lat="47.03824" lon="-1.00055">
        <ele>167.3</ele>
        <time>2012-05-06T09:30:39Z</time>
      </trkpt>
      <trkpt lat="47.03868" lon="-1.00099">
        <ele>168.5</ele>
        <time>2012-05-06T09:30:49Z</time>
      </trkpt>
      <trkpt lat="47.03898" lon="-1.00133">
        <ele>168.9</ele>
        <time>2012-05-06T09:30:57Z</time>
      </trkpt>
      <trkpt lat="47.03915" lon="-1.00149">
        <ele>169.1</ele>
        <time>2012-05-06T09:31:01Z</time>
      </trkpt>
      <trkpt lat="47.03931" lon="-1.00167">
        <ele>169.4</ele>
        <time>2012-05-06T09:31:05Z</time>
      </trkpt>
      <trkpt lat="47.03939" lon="-1.00176">
        <ele>169.1</ele>
        <time>2012-05-06T09:31:07Z</time>
      </trkpt>
      <trkpt lat="47.03964" lon="-1.00207">
        <ele>168.7</ele>
        <time>2012-05-06T09:31:13Z</time>
      </trkpt>
      <trkpt lat="47.03994" lon="-1.00256">
        <ele>168.7</ele>
        <time>2012-05-06T09:31:21Z</time>
      </trkpt>
      <trkpt lat="47.0401" lon="-1.00282">
        <ele>168.2</ele>
        <time>2012-05-06T09:31:25Z</time>
      </trkpt>
      <trkpt lat="47.04028" lon="-1.00304">
        <ele>167.7</ele>
        <time>2012-05-06T09:31:29Z</time>
      </trkpt>
      <trkpt lat="47.04037" lon="-1.00314">
        <ele>167.5</ele>
        <time>2012-05-06T09:31:31Z</time>
      </trkpt>
      <trkpt lat="47.04056" lon="-1.00332">
        <ele>167.1</ele>
        <time>2012-05-06T09:31:35Z</time>
      </trkpt>
      <trkpt lat="47.04094" lon="-1.00367">
        <ele>166.8</ele>
        <time>2012-05-06T09:31:43Z</time>
      </trkpt>
      <trkpt lat="47.04126" lon="-1.00404">
        <ele>166.5</ele>
        <time>2012-05-06T09:31:50Z</time>
      </trkpt>
      <trkpt lat="47.04142" lon="-1.00425">
        <ele>166.1</ele>
        <time>2012-05-06T09:31:54Z</time>
      </trkpt>
      <trkpt lat="47.04161" lon="-1.00446">
        <ele>165.8</ele>
        <time>2012-05-06T09:31:58Z</time>
      </trkpt>
      <trkpt lat="47.04179" lon="-1.00467">
        <ele>166</ele>
        <time>2012-05-06T09:32:02Z</time>
      </trkpt>
      <trkpt lat="47.04196" lon="-1.00489">
        <ele>166.6</ele>
        <time>2012-05-06T09:32:06Z</time>
      </trkpt>
      <trkpt lat="47.04213" lon="-1.0051">
        <ele>166.2</ele>
        <time>2012-05-06T09:32:10Z</time>
      </trkpt>
      <trkpt lat="47.0423" lon="-1.00535">
        <ele>166.3</ele>
        <time>2012-05-06T09:32:14Z</time>
      </trkpt>
      <trkpt lat="47.04243" lon="-1.00554">
        <ele>166.4</ele>
        <time>2012-05-06T09:32:17Z</time>
      </trkpt>
      <trkpt lat="47.0425" lon="-1.00568">
        <ele>165.9</ele>
        <time>2012-05-06T09:32:19Z</time>
      </trkpt>
      <trkpt lat="47.04271" lon="-1.0061">
        <ele>168</ele>
        <time>2012-05-06T09:32:25Z</time>
      </trkpt>
      <trkpt lat="47.04284" lon="-1.00633">
        <ele>168.4</ele>
        <time>2012-05-06T09:32:29Z</time>
      </trkpt>
      <trkpt lat="47.04297" lon="-1.00657">
        <ele>168.1</ele>
        <time>2012-05-06T09:32:33Z</time>
      </trkpt>
      <trkpt lat="47.04311" lon="-1.00681">
        <ele>168</ele>
        <time>2012-05-06T09:32:37Z</time>
      </trkpt>
      <trkpt lat="47.04317" lon="-1.00694">
        <ele>168.4</ele>
        <time>2012-05-06T09:32:39Z</time>
      </trkpt>
      <trkpt lat="47.04336" lon="-1.00732">
        <ele>168.6</ele>
        <time>2012-05-06T09:32:45Z</time>
      </trkpt>
      <trkpt lat="47.04349" lon="-1.00755">
        <ele>168.7</ele>
        <time>2012-05-06T09:32:49Z</time>
      </trkpt>
      <trkpt lat="47.04361" lon="-1.00777">
        <ele>168.2</ele>
        <time>2012-05-06T09:32:53Z</time>
      </trkpt>
      <trkpt lat="47.04375" lon="-1.00795">
        <ele>169.4</ele>
        <time>2012-05-06T09:32:57Z</time>
      </trkpt>
      <trkpt lat="47.04382" lon="-1.00817">
        <ele>170.3</ele>
        <time>2012-05-06T09:33:01Z</time>
      </trkpt>
      <trkpt lat="47.04381" lon="-1.00842">
        <ele>170.9</ele>
        <time>2012-05-06T09:33:05Z</time>
      </trkpt>
      <trkpt lat="47.04382" lon="-1.00868">
        <ele>171.4</ele>
        <time>2012-05-06T09:33:09Z</time>
      </trkpt>
      <trkpt lat="47.04387" lon="-1.00933">
        <ele>172.5</ele>
        <time>2012-05-06T09:33:19Z</time>
      </trkpt>
      <trkpt lat="47.04401" lon="-1.00963">
        <ele>173.1</ele>
        <time>2012-05-06T09:33:25Z</time>
      </trkpt>
      <trkpt lat="47.04426" lon="-1.0099">
        <ele>173.1</ele>
        <time>2012-05-06T09:33:33Z</time>
      </trkpt>
      <trkpt lat="47.04438" lon="-1.01">
        <ele>172.8</ele>
        <time>2012-05-06T09:33:37Z</time>
      </trkpt>
      <trkpt lat="47.04451" lon="-1.01017">
        <ele>173.5</ele>
        <time>2012-05-06T09:33:41Z</time>
      </trkpt>
      <trkpt lat="47.04462" lon="-1.01033">
        <ele>172.7</ele>
        <time>2012-05-06T09:33:45Z</time>
      </trkpt>
      <trkpt lat="47.04472" lon="-1.0105">
        <ele>172.9</ele>
        <time>2012-05-06T09:33:49Z</time>
      </trkpt>
      <trkpt lat="47.04482" lon="-1.01067">
        <ele>172.7</ele>
        <time>2012-05-06T09:33:53Z</time>
      </trkpt>
      <trkpt lat="47.04493" lon="-1.01086">
        <ele>174.3</ele>
        <time>2012-05-06T09:33:57Z</time>
      </trkpt>
      <trkpt lat="47.04503" lon="-1.01108">
        <ele>174.1</ele>
        <time>2012-05-06T09:34:01Z</time>
      </trkpt>
      <trkpt lat="47.04515" lon="-1.01133">
        <ele>174.2</ele>
        <time>2012-05-06T09:34:05Z</time>
      </trkpt>
      <trkpt lat="47.0452" lon="-1.01144">
        <ele>174.6</ele>
        <time>2012-05-06T09:34:07Z</time>
      </trkpt>
      <trkpt lat="47.04538" lon="-1.01178">
        <ele>175.9</ele>
        <time>2012-05-06T09:34:13Z</time>
      </trkpt>
      <trkpt lat="47.0455" lon="-1.01199">
        <ele>176.8</ele>
        <time>2012-05-06T09:34:17Z</time>
      </trkpt>
      <trkpt lat="47.04562" lon="-1.01221">
        <ele>177.3</ele>
        <time>2012-05-06T09:34:21Z</time>
      </trkpt>
      <trkpt lat="47.04568" lon="-1.0123">
        <ele>177.4</ele>
        <time>2012-05-06T09:34:23Z</time>
      </trkpt>
      <trkpt lat="47.04583" lon="-1.01255">
        <ele>176.5</ele>
        <time>2012-05-06T09:34:29Z</time>
      </trkpt>
      <trkpt lat="47.04596" lon="-1.01276">
        <ele>176.4</ele>
        <time>2012-05-06T09:34:33Z</time>
      </trkpt>
      <trkpt lat="47.04611" lon="-1.01298">
        <ele>176.1</ele>
        <time>2012-05-06T09:34:37Z</time>
      </trkpt>
      <trkpt lat="47.04618" lon="-1.0132">
        <ele>175.5</ele>
        <time>2012-05-06T09:34:41Z</time>
      </trkpt>
      <trkpt lat="47.0462" lon="-1.01346">
        <ele>175.2</ele>
        <time>2012-05-06T09:34:45Z</time>
      </trkpt>
      <trkpt lat="47.04615" lon="-1.01371">
        <ele>175.7</ele>
        <time>2012-05-06T09:34:49Z</time>
      </trkpt>
      <trkpt lat="47.04609" lon="-1.01396">
        <ele>175.9</ele>
        <time>2012-05-06T09:34:53Z</time>
      </trkpt>
      <trkpt lat="47.04601" lon="-1.01421">
        <ele>176.1</ele>
        <time>2012-05-06T09:34:57Z</time>
      </trkpt>
      <trkpt lat="47.04594" lon="-1.01448">
        <ele>177.3</ele>
        <time>2012-05-06T09:35:01Z</time>
      </trkpt>
      <trkpt lat="47.04588" lon="-1.01472">
        <ele>177.7</ele>
        <time>2012-05-06T09:35:05Z</time>
      </trkpt>
      <trkpt lat="47.04582" lon="-1.0149">
        <ele>178.4</ele>
        <time>2012-05-06T09:35:09Z</time>
      </trkpt>
      <trkpt lat="47.04579" lon="-1.01501">
        <ele>178.6</ele>
        <time>2012-05-06T09:35:12Z</time>
      </trkpt>
      <trkpt lat="47.04581" lon="-1.01523">
        <ele>179.9</ele>
        <time>2012-05-06T09:35:18Z</time>
      </trkpt>
      <trkpt lat="47.04585" lon="-1.01547">
        <ele>179.2</ele>
        <time>2012-05-06T09:35:22Z</time>
      </trkpt>
      <trkpt lat="47.0459" lon="-1.0157">
        <ele>179.4</ele>
        <time>2012-05-06T09:35:26Z</time>
      </trkpt>
      <trkpt lat="47.04595" lon="-1.01593">
        <ele>179.7</ele>
        <time>2012-05-06T09:35:30Z</time>
      </trkpt>
      <trkpt lat="47.04599" lon="-1.01605">
        <ele>179.2</ele>
        <time>2012-05-06T09:35:33Z</time>
      </trkpt>
      <trkpt lat="47.04609" lon="-1.01626">
        <ele>179.8</ele>
        <time>2012-05-06T09:35:37Z</time>
      </trkpt>
      <trkpt lat="47.04618" lon="-1.01646">
        <ele>179.5</ele>
        <time>2012-05-06T09:35:41Z</time>
      </trkpt>
      <trkpt lat="47.04629" lon="-1.0167">
        <ele>179.9</ele>
        <time>2012-05-06T09:35:45Z</time>
      </trkpt>
      <trkpt lat="47.04635" lon="-1.01684">
        <ele>179.7</ele>
        <time>2012-05-06T09:35:47Z</time>
      </trkpt>
      <trkpt lat="47.04651" lon="-1.01718">
        <ele>179.2</ele>
        <time>2012-05-06T09:35:53Z</time>
      </trkpt>
      <trkpt lat="47.04665" lon="-1.0174">
        <ele>178.2</ele>
        <time>2012-05-06T09:35:57Z</time>
      </trkpt>
      <trkpt lat="47.04678" lon="-1.01762">
        <ele>176.6</ele>
        <time>2012-05-06T09:36:01Z</time>
      </trkpt>
      <trkpt lat="47.04684" lon="-1.01774">
        <ele>175.9</ele>
        <time>2012-05-06T09:36:03Z</time>
      </trkpt>
      <trkpt lat="47.04713" lon="-1.01821">
        <ele>175.5</ele>
        <time>2012-05-06T09:36:10Z</time>
      </trkpt>
      <trkpt lat="47.04724" lon="-1.0184">
        <ele>175</ele>
        <time>2012-05-06T09:36:13Z</time>
      </trkpt>
      <trkpt lat="47.04738" lon="-1.01863">
        <ele>174.9</ele>
        <time>2012-05-06T09:36:17Z</time>
      </trkpt>
      <trkpt lat="47.04752" lon="-1.01884">
        <ele>175.3</ele>
        <time>2012-05-06T09:36:21Z</time>
      </trkpt>
      <trkpt lat="47.04768" lon="-1.0191">
        <ele>175.4</ele>
        <time>2012-05-06T09:36:25Z</time>
      </trkpt>
      <trkpt lat="47.04788" lon="-1.01942">
        <ele>175.6</ele>
        <time>2012-05-06T09:36:30Z</time>
      </trkpt>
      <trkpt lat="47.04799" lon="-1.01972">
        <ele>175.3</ele>
        <time>2012-05-06T09:36:34Z</time>
      </trkpt>
      <trkpt lat="47.04807" lon="-1.02">
        <ele>175.2</ele>
        <time>2012-05-06T09:36:38Z</time>
      </trkpt>
      <trkpt lat="47.04819" lon="-1.0203">
        <ele>176.1</ele>
        <time>2012-05-06T09:36:42Z</time>
      </trkpt>
      <trkpt lat="47.04822" lon="-1.02048">
        <ele>176.9</ele>
        <time>2012-05-06T09:36:44Z</time>
      </trkpt>
      <trkpt lat="47.04832" lon="-1.02098">
        <ele>177.1</ele>
        <time>2012-05-06T09:36:50Z</time>
      </trkpt>
      <trkpt lat="47.04844" lon="-1.02127">
        <ele>176.9</ele>
        <time>2012-05-06T09:36:54Z</time>
      </trkpt>
      <trkpt lat="47.04856" lon="-1.02154">
        <ele>176.1</ele>
        <time>2012-05-06T09:36:58Z</time>
      </trkpt>
      <trkpt lat="47.0487" lon="-1.0218">
        <ele>176</ele>
        <time>2012-05-06T09:37:02Z</time>
      </trkpt>
      <trkpt lat="47.04883" lon="-1.02225">
        <ele>176.6</ele>
        <time>2012-05-06T09:37:10Z</time>
      </trkpt>
      <trkpt lat="47.04871" lon="-1.02246">
        <ele>176.5</ele>
        <time>2012-05-06T09:37:14Z</time>
      </trkpt>
      <trkpt lat="47.04857" lon="-1.02266">
        <ele>176</ele>
        <time>2012-05-06T09:37:18Z</time>
      </trkpt>
      <trkpt lat="47.04851" lon="-1.02275">
        <ele>176.2</ele>
        <time>2012-05-06T09:37:20Z</time>
      </trkpt>
      <trkpt lat="47.04841" lon="-1.02289">
        <ele>176.4</ele>
        <time>2012-05-06T09:37:24Z</time>
      </trkpt>
      <trkpt lat="47.04836" lon="-1.02295">
        <ele>177</ele>
        <time>2012-05-06T09:37:28Z</time>
      </trkpt>
      <trkpt lat="47.04836" lon="-1.02295">
        <ele>126.4</ele>
        <time>2012-05-06T09:37:39Z</time>
      </trkpt>
      <trkpt lat="47.04836" lon="-1.02295">
        <ele>126.4</ele>
        <time>2012-05-06T09:37:44Z</time>
      </trkpt>
      <trkpt lat="47.04825" lon="-1.0231">
        <ele>177.9</ele>
        <time>2012-05-06T09:37:46Z</time>
      </trkpt>
      <trkpt lat="47.04817" lon="-1.02327">
        <ele>177.1</ele>
        <time>2012-05-06T09:37:50Z</time>
      </trkpt>
      <trkpt lat="47.04807" lon="-1.02345">
        <ele>177.2</ele>
        <time>2012-05-06T09:37:54Z</time>
      </trkpt>
      <trkpt lat="47.04797" lon="-1.02363">
        <ele>177.5</ele>
        <time>2012-05-06T09:37:58Z</time>
      </trkpt>
      <trkpt lat="47.04785" lon="-1.02383">
        <ele>177</ele>
        <time>2012-05-06T09:38:02Z</time>
      </trkpt>
      <trkpt lat="47.04772" lon="-1.02403">
        <ele>176.8</ele>
        <time>2012-05-06T09:38:06Z</time>
      </trkpt>
      <trkpt lat="47.04759" lon="-1.02424">
        <ele>176</ele>
        <time>2012-05-06T09:38:10Z</time>
      </trkpt>
      <trkpt lat="47.04752" lon="-1.02435">
        <ele>175.4</ele>
        <time>2012-05-06T09:38:12Z</time>
      </trkpt>
      <trkpt lat="47.04732" lon="-1.02469">
        <ele>175.1</ele>
        <time>2012-05-06T09:38:18Z</time>
      </trkpt>
      <trkpt lat="47.04719" lon="-1.02492">
        <ele>174.2</ele>
        <time>2012-05-06T09:38:22Z</time>
      </trkpt>
      <trkpt lat="47.04706" lon="-1.02515">
        <ele>173.8</ele>
        <time>2012-05-06T09:38:26Z</time>
      </trkpt>
      <trkpt lat="47.04697" lon="-1.02541">
        <ele>174</ele>
        <time>2012-05-06T09:38:30Z</time>
      </trkpt>
      <trkpt lat="47.04688" lon="-1.02566">
        <ele>174.2</ele>
        <time>2012-05-06T09:38:34Z</time>
      </trkpt>
      <trkpt lat="47.0468" lon="-1.02584">
        <ele>174.2</ele>
        <time>2012-05-06T09:38:38Z</time>
      </trkpt>
      <trkpt lat="47.04662" lon="-1.02578">
        <ele>172.6</ele>
        <time>2012-05-06T09:38:43Z</time>
      </trkpt>
      <trkpt lat="47.04653" lon="-1.02573">
        <ele>172.2</ele>
        <time>2012-05-06T09:38:45Z</time>
      </trkpt>
      <trkpt lat="47.04626" lon="-1.02557">
        <ele>171.4</ele>
        <time>2012-05-06T09:38:51Z</time>
      </trkpt>
      <trkpt lat="47.04615" lon="-1.02552">
        <ele>171.2</ele>
        <time>2012-05-06T09:38:54Z</time>
      </trkpt>
      <trkpt lat="47.04596" lon="-1.02542">
        <ele>171.4</ele>
        <time>2012-05-06T09:38:58Z</time>
      </trkpt>
      <trkpt lat="47.04576" lon="-1.02531">
        <ele>170.7</ele>
        <time>2012-05-06T09:39:02Z</time>
      </trkpt>
      <trkpt lat="47.04557" lon="-1.02522">
        <ele>170.8</ele>
        <time>2012-05-06T09:39:06Z</time>
      </trkpt>
      <trkpt lat="47.04538" lon="-1.02514">
        <ele>171.1</ele>
        <time>2012-05-06T09:39:10Z</time>
      </trkpt>
      <trkpt lat="47.0452" lon="-1.02505">
        <ele>171</ele>
        <time>2012-05-06T09:39:14Z</time>
      </trkpt>
      <trkpt lat="47.04501" lon="-1.02497">
        <ele>171.2</ele>
        <time>2012-05-06T09:39:18Z</time>
      </trkpt>
      <trkpt lat="47.04492" lon="-1.02494">
        <ele>171.2</ele>
        <time>2012-05-06T09:39:20Z</time>
      </trkpt>
      <trkpt lat="47.04464" lon="-1.02481">
        <ele>170.8</ele>
        <time>2012-05-06T09:39:26Z</time>
      </trkpt>
      <trkpt lat="47.04448" lon="-1.02473">
        <ele>170.8</ele>
        <time>2012-05-06T09:39:30Z</time>
      </trkpt>
      <trkpt lat="47.04431" lon="-1.02467">
        <ele>169.5</ele>
        <time>2012-05-06T09:39:34Z</time>
      </trkpt>
      <trkpt lat="47.04417" lon="-1.02458">
        <ele>169.4</ele>
        <time>2012-05-06T09:39:39Z</time>
      </trkpt>
      <trkpt lat="47.04419" lon="-1.02429">
        <ele>169.7</ele>
        <time>2012-05-06T09:39:43Z</time>
      </trkpt>
      <trkpt lat="47.04422" lon="-1.02403">
        <ele>170.7</ele>
        <time>2012-05-06T09:39:47Z</time>
      </trkpt>
      <trkpt lat="47.04419" lon="-1.02379">
        <ele>170.4</ele>
        <time>2012-05-06T09:39:51Z</time>
      </trkpt>
      <trkpt lat="47.04404" lon="-1.02373">
        <ele>170.8</ele>
        <time>2012-05-06T09:39:55Z</time>
      </trkpt>
      <trkpt lat="47.04387" lon="-1.02376">
        <ele>170</ele>
        <time>2012-05-06T09:39:59Z</time>
      </trkpt>
      <trkpt lat="47.0437" lon="-1.02377">
        <ele>170.5</ele>
        <time>2012-05-06T09:40:03Z</time>
      </trkpt>
      <trkpt lat="47.04351" lon="-1.02379">
        <ele>170.3</ele>
        <time>2012-05-06T09:40:07Z</time>
      </trkpt>
      <trkpt lat="47.04334" lon="-1.02379">
        <ele>170.2</ele>
        <time>2012-05-06T09:40:11Z</time>
      </trkpt>
      <trkpt lat="47.04318" lon="-1.02381">
        <ele>169.6</ele>
        <time>2012-05-06T09:40:15Z</time>
      </trkpt>
      <trkpt lat="47.043" lon="-1.02382">
        <ele>169.5</ele>
        <time>2012-05-06T09:40:19Z</time>
      </trkpt>
      <trkpt lat="47.04282" lon="-1.02383">
        <ele>169.1</ele>
        <time>2012-05-06T09:40:23Z</time>
      </trkpt>
      <trkpt lat="47.04266" lon="-1.02384">
        <ele>169.5</ele>
        <time>2012-05-06T09:40:27Z</time>
      </trkpt>
      <trkpt lat="47.04248" lon="-1.02385">
        <ele>168.9</ele>
        <time>2012-05-06T09:40:31Z</time>
      </trkpt>
      <trkpt lat="47.0423" lon="-1.02386">
        <ele>168.8</ele>
        <time>2012-05-06T09:40:35Z</time>
      </trkpt>
      <trkpt lat="47.04212" lon="-1.02388">
        <ele>169.5</ele>
        <time>2012-05-06T09:40:39Z</time>
      </trkpt>
      <trkpt lat="47.04194" lon="-1.02385">
        <ele>170.1</ele>
        <time>2012-05-06T09:40:43Z</time>
      </trkpt>
      <trkpt lat="47.04174" lon="-1.02379">
        <ele>170.1</ele>
        <time>2012-05-06T09:40:47Z</time>
      </trkpt>
      <trkpt lat="47.04156" lon="-1.0237">
        <ele>170.1</ele>
        <time>2012-05-06T09:40:51Z</time>
      </trkpt>
      <trkpt lat="47.04136" lon="-1.02362">
        <ele>169.9</ele>
        <time>2012-05-06T09:40:55Z</time>
      </trkpt>
      <trkpt lat="47.04116" lon="-1.02352">
        <ele>170.5</ele>
        <time>2012-05-06T09:40:59Z</time>
      </trkpt>
      <trkpt lat="47.04096" lon="-1.02342">
        <ele>171.3</ele>
        <time>2012-05-06T09:41:03Z</time>
      </trkpt>
      <trkpt lat="47.04076" lon="-1.02334">
        <ele>172</ele>
        <time>2012-05-06T09:41:07Z</time>
      </trkpt>
      <trkpt lat="47.04056" lon="-1.02326">
        <ele>172.3</ele>
        <time>2012-05-06T09:41:11Z</time>
      </trkpt>
      <trkpt lat="47.04038" lon="-1.02317">
        <ele>172.9</ele>
        <time>2012-05-06T09:41:15Z</time>
      </trkpt>
      <trkpt lat="47.04018" lon="-1.02311">
        <ele>173.6</ele>
        <time>2012-05-06T09:41:19Z</time>
      </trkpt>
      <trkpt lat="47.03975" lon="-1.02303">
        <ele>174.8</ele>
        <time>2012-05-06T09:41:27Z</time>
      </trkpt>
      <trkpt lat="47.03953" lon="-1.02299">
        <ele>174.8</ele>
        <time>2012-05-06T09:41:31Z</time>
      </trkpt>
      <trkpt lat="47.0393" lon="-1.02295">
        <ele>174.6</ele>
        <time>2012-05-06T09:41:35Z</time>
      </trkpt>
      <trkpt lat="47.03907" lon="-1.02292">
        <ele>174.7</ele>
        <time>2012-05-06T09:41:39Z</time>
      </trkpt>
      <trkpt lat="47.03884" lon="-1.02289">
        <ele>175.1</ele>
        <time>2012-05-06T09:41:43Z</time>
      </trkpt>
      <trkpt lat="47.03862" lon="-1.02286">
        <ele>175.5</ele>
        <time>2012-05-06T09:41:47Z</time>
      </trkpt>
      <trkpt lat="47.0384" lon="-1.02281">
        <ele>175.7</ele>
        <time>2012-05-06T09:41:51Z</time>
      </trkpt>
      <trkpt lat="47.03795" lon="-1.02274">
        <ele>175.8</ele>
        <time>2012-05-06T09:41:59Z</time>
      </trkpt>
      <trkpt lat="47.03773" lon="-1.02269">
        <ele>176</ele>
        <time>2012-05-06T09:42:03Z</time>
      </trkpt>
      <trkpt lat="47.03762" lon="-1.02265">
        <ele>176.2</ele>
        <time>2012-05-06T09:42:05Z</time>
      </trkpt>
      <trkpt lat="47.03731" lon="-1.02249">
        <ele>176.3</ele>
        <time>2012-05-06T09:42:11Z</time>
      </trkpt>
      <trkpt lat="47.03712" lon="-1.0224">
        <ele>176.9</ele>
        <time>2012-05-06T09:42:15Z</time>
      </trkpt>
      <trkpt lat="47.03694" lon="-1.02233">
        <ele>177.3</ele>
        <time>2012-05-06T09:42:19Z</time>
      </trkpt>
      <trkpt lat="47.03665" lon="-1.02222">
        <ele>177.8</ele>
        <time>2012-05-06T09:42:27Z</time>
      </trkpt>
      <trkpt lat="47.0365" lon="-1.02217">
        <ele>178.3</ele>
        <time>2012-05-06T09:42:31Z</time>
      </trkpt>
      <trkpt lat="47.03635" lon="-1.02211">
        <ele>179.2</ele>
        <time>2012-05-06T09:42:35Z</time>
      </trkpt>
      <trkpt lat="47.03629" lon="-1.02207">
        <ele>179.6</ele>
        <time>2012-05-06T09:42:37Z</time>
      </trkpt>
      <trkpt lat="47.03618" lon="-1.02187">
        <ele>180.3</ele>
        <time>2012-05-06T09:42:43Z</time>
      </trkpt>
      <trkpt lat="47.0361" lon="-1.02169">
        <ele>180.9</ele>
        <time>2012-05-06T09:42:47Z</time>
      </trkpt>
      <trkpt lat="47.03601" lon="-1.02151">
        <ele>181.3</ele>
        <time>2012-05-06T09:42:51Z</time>
      </trkpt>
      <trkpt lat="47.03591" lon="-1.02131">
        <ele>181.5</ele>
        <time>2012-05-06T09:42:55Z</time>
      </trkpt>
      <trkpt lat="47.0358" lon="-1.02108">
        <ele>182.2</ele>
        <time>2012-05-06T09:42:59Z</time>
      </trkpt>
      <trkpt lat="47.03567" lon="-1.02082">
        <ele>182.8</ele>
        <time>2012-05-06T09:43:03Z</time>
      </trkpt>
      <trkpt lat="47.03554" lon="-1.02055">
        <ele>183.5</ele>
        <time>2012-05-06T09:43:07Z</time>
      </trkpt>
      <trkpt lat="47.0354" lon="-1.02027">
        <ele>183.6</ele>
        <time>2012-05-06T09:43:11Z</time>
      </trkpt>
      <trkpt lat="47.03525" lon="-1.01999">
        <ele>184.3</ele>
        <time>2012-05-06T09:43:15Z</time>
      </trkpt>
      <trkpt lat="47.0351" lon="-1.01969">
        <ele>184.4</ele>
        <time>2012-05-06T09:43:19Z</time>
      </trkpt>
      <trkpt lat="47.03499" lon="-1.01946">
        <ele>184.9</ele>
        <time>2012-05-06T09:43:22Z</time>
      </trkpt>
      <trkpt lat="47.03481" lon="-1.01909">
        <ele>185.4</ele>
        <time>2012-05-06T09:43:27Z</time>
      </trkpt>
      <trkpt lat="47.03466" lon="-1.01878">
        <ele>185.5</ele>
        <time>2012-05-06T09:43:31Z</time>
      </trkpt>
      <trkpt lat="47.0345" lon="-1.01847">
        <ele>185.8</ele>
        <time>2012-05-06T09:43:35Z</time>
      </trkpt>
      <trkpt lat="47.03435" lon="-1.01816">
        <ele>185.8</ele>
        <time>2012-05-06T09:43:39Z</time>
      </trkpt>
      <trkpt lat="47.0342" lon="-1.01784">
        <ele>185.9</ele>
        <time>2012-05-06T09:43:43Z</time>
      </trkpt>
      <trkpt lat="47.03404" lon="-1.01754">
        <ele>185.6</ele>
        <time>2012-05-06T09:43:47Z</time>
      </trkpt>
      <trkpt lat="47.03383" lon="-1.01729">
        <ele>185.6</ele>
        <time>2012-05-06T09:43:51Z</time>
      </trkpt>
      <trkpt lat="47.03363" lon="-1.01704">
        <ele>186.2</ele>
        <time>2012-05-06T09:43:55Z</time>
      </trkpt>
      <trkpt lat="47.03353" lon="-1.01667">
        <ele>186.3</ele>
        <time>2012-05-06T09:43:59Z</time>
      </trkpt>
      <trkpt lat="47.03353" lon="-1.01625">
        <ele>186.5</ele>
        <time>2012-05-06T09:44:03Z</time>
      </trkpt>
      <trkpt lat="47.0336" lon="-1.01585">
        <ele>186.4</ele>
        <time>2012-05-06T09:44:07Z</time>
      </trkpt>
      <trkpt lat="47.03361" lon="-1.01575">
        <ele>186.1</ele>
        <time>2012-05-06T09:44:08Z</time>
      </trkpt>
      <trkpt lat="47.03353" lon="-1.01503">
        <ele>185.5</ele>
        <time>2012-05-06T09:44:15Z</time>
      </trkpt>
      <trkpt lat="47.0334" lon="-1.01466">
        <ele>185.1</ele>
        <time>2012-05-06T09:44:19Z</time>
      </trkpt>
      <trkpt lat="47.03322" lon="-1.01432">
        <ele>185.2</ele>
        <time>2012-05-06T09:44:23Z</time>
      </trkpt>
      <trkpt lat="47.03304" lon="-1.01399">
        <ele>185.1</ele>
        <time>2012-05-06T09:44:27Z</time>
      </trkpt>
      <trkpt lat="47.03288" lon="-1.01364">
        <ele>184.9</ele>
        <time>2012-05-06T09:44:31Z</time>
      </trkpt>
      <trkpt lat="47.03271" lon="-1.01334">
        <ele>184.2</ele>
        <time>2012-05-06T09:44:35Z</time>
      </trkpt>
      <trkpt lat="47.03256" lon="-1.01307">
        <ele>183.9</ele>
        <time>2012-05-06T09:44:39Z</time>
      </trkpt>
      <trkpt lat="47.03223" lon="-1.01311">
        <ele>182.8</ele>
        <time>2012-05-06T09:44:46Z</time>
      </trkpt>
      <trkpt lat="47.03203" lon="-1.01328">
        <ele>182.4</ele>
        <time>2012-05-06T09:44:50Z</time>
      </trkpt>
      <trkpt lat="47.03182" lon="-1.01346">
        <ele>181.7</ele>
        <time>2012-05-06T09:44:54Z</time>
      </trkpt>
      <trkpt lat="47.03162" lon="-1.01364">
        <ele>181.3</ele>
        <time>2012-05-06T09:44:58Z</time>
      </trkpt>
      <trkpt lat="47.03142" lon="-1.01381">
        <ele>181.3</ele>
        <time>2012-05-06T09:45:02Z</time>
      </trkpt>
      <trkpt lat="47.0312" lon="-1.01395">
        <ele>180.9</ele>
        <time>2012-05-06T09:45:06Z</time>
      </trkpt>
      <trkpt lat="47.03097" lon="-1.01404">
        <ele>180.6</ele>
        <time>2012-05-06T09:45:10Z</time>
      </trkpt>
      <trkpt lat="47.03068" lon="-1.0142">
        <ele>180.1</ele>
        <time>2012-05-06T09:45:15Z</time>
      </trkpt>
      <trkpt lat="47.03032" lon="-1.01452">
        <ele>180.1</ele>
        <time>2012-05-06T09:45:23Z</time>
      </trkpt>
      <trkpt lat="47.03015" lon="-1.01468">
        <ele>180.4</ele>
        <time>2012-05-06T09:45:27Z</time>
      </trkpt>
      <trkpt lat="47.03008" lon="-1.01479">
        <ele>180.7</ele>
        <time>2012-05-06T09:45:29Z</time>
      </trkpt>
      <trkpt lat="47.02996" lon="-1.01505">
        <ele>181</ele>
        <time>2012-05-06T09:45:33Z</time>
      </trkpt>
      <trkpt lat="47.02988" lon="-1.01549">
        <ele>181.6</ele>
        <time>2012-05-06T09:45:39Z</time>
      </trkpt>
      <trkpt lat="47.02984" lon="-1.01605">
        <ele>182.2</ele>
        <time>2012-05-06T09:45:47Z</time>
      </trkpt>
      <trkpt lat="47.02981" lon="-1.01618">
        <ele>182.1</ele>
        <time>2012-05-06T09:45:49Z</time>
      </trkpt>
      <trkpt lat="47.02971" lon="-1.01643">
        <ele>182.6</ele>
        <time>2012-05-06T09:45:53Z</time>
      </trkpt>
      <trkpt lat="47.02955" lon="-1.01664">
        <ele>182.9</ele>
        <time>2012-05-06T09:45:57Z</time>
      </trkpt>
      <trkpt lat="47.02929" lon="-1.01694">
        <ele>183.4</ele>
        <time>2012-05-06T09:46:03Z</time>
      </trkpt>
      <trkpt lat="47.02912" lon="-1.01716">
        <ele>183.8</ele>
        <time>2012-05-06T09:46:07Z</time>
      </trkpt>
      <trkpt lat="47.02905" lon="-1.01729">
        <ele>184</ele>
        <time>2012-05-06T09:46:09Z</time>
      </trkpt>
      <trkpt lat="47.02881" lon="-1.01783">
        <ele>185.6</ele>
        <time>2012-05-06T09:46:17Z</time>
      </trkpt>
      <trkpt lat="47.02862" lon="-1.01824">
        <ele>186</ele>
        <time>2012-05-06T09:46:23Z</time>
      </trkpt>
      <trkpt lat="47.02855" lon="-1.01838">
        <ele>186.1</ele>
        <time>2012-05-06T09:46:25Z</time>
      </trkpt>
      <trkpt lat="47.0283" lon="-1.01875">
        <ele>186</ele>
        <time>2012-05-06T09:46:31Z</time>
      </trkpt>
      <trkpt lat="47.02821" lon="-1.01886">
        <ele>186</ele>
        <time>2012-05-06T09:46:33Z</time>
      </trkpt>
      <trkpt lat="47.02804" lon="-1.01908">
        <ele>186.3</ele>
        <time>2012-05-06T09:46:37Z</time>
      </trkpt>
      <trkpt lat="47.02779" lon="-1.0194">
        <ele>186.2</ele>
        <time>2012-05-06T09:46:43Z</time>
      </trkpt>
      <trkpt lat="47.02764" lon="-1.01965">
        <ele>186.4</ele>
        <time>2012-05-06T09:46:47Z</time>
      </trkpt>
      <trkpt lat="47.02755" lon="-1.01996">
        <ele>186.7</ele>
        <time>2012-05-06T09:46:51Z</time>
      </trkpt>
      <trkpt lat="47.02749" lon="-1.02028">
        <ele>186.8</ele>
        <time>2012-05-06T09:46:55Z</time>
      </trkpt>
      <trkpt lat="47.02744" lon="-1.02061">
        <ele>186.7</ele>
        <time>2012-05-06T09:46:59Z</time>
      </trkpt>
      <trkpt lat="47.02732" lon="-1.02129">
        <ele>186.8</ele>
        <time>2012-05-06T09:47:07Z</time>
      </trkpt>
      <trkpt lat="47.02726" lon="-1.02163">
        <ele>186.8</ele>
        <time>2012-05-06T09:47:11Z</time>
      </trkpt>
      <trkpt lat="47.02721" lon="-1.02197">
        <ele>186.7</ele>
        <time>2012-05-06T09:47:15Z</time>
      </trkpt>
      <trkpt lat="47.02717" lon="-1.02232">
        <ele>186.4</ele>
        <time>2012-05-06T09:47:19Z</time>
      </trkpt>
      <trkpt lat="47.02711" lon="-1.02301">
        <ele>186.4</ele>
        <time>2012-05-06T09:47:27Z</time>
      </trkpt>
      <trkpt lat="47.02703" lon="-1.02366">
        <ele>186.8</ele>
        <time>2012-05-06T09:47:35Z</time>
      </trkpt>
      <trkpt lat="47.027" lon="-1.02379">
        <ele>186.8</ele>
        <time>2012-05-06T09:47:37Z</time>
      </trkpt>
      <trkpt lat="47.02689" lon="-1.02419">
        <ele>186.4</ele>
        <time>2012-05-06T09:47:43Z</time>
      </trkpt>
      <trkpt lat="47.02687" lon="-1.02435">
        <ele>186.2</ele>
        <time>2012-05-06T09:47:45Z</time>
      </trkpt>
      <trkpt lat="47.0268" lon="-1.02485">
        <ele>186.1</ele>
        <time>2012-05-06T09:47:51Z</time>
      </trkpt>
      <trkpt lat="47.02676" lon="-1.02521">
        <ele>185.4</ele>
        <time>2012-05-06T09:47:55Z</time>
      </trkpt>
      <trkpt lat="47.02673" lon="-1.02556">
        <ele>185.3</ele>
        <time>2012-05-06T09:47:59Z</time>
      </trkpt>
      <trkpt lat="47.0267" lon="-1.02583">
        <ele>185.4</ele>
        <time>2012-05-06T09:48:02Z</time>
      </trkpt>
      <trkpt lat="47.02665" lon="-1.02629">
        <ele>185.1</ele>
        <time>2012-05-06T09:48:07Z</time>
      </trkpt>
      <trkpt lat="47.02662" lon="-1.02668">
        <ele>185.3</ele>
        <time>2012-05-06T09:48:11Z</time>
      </trkpt>
      <trkpt lat="47.0266" lon="-1.02695">
        <ele>185.2</ele>
        <time>2012-05-06T09:48:14Z</time>
      </trkpt>
      <trkpt lat="47.02656" lon="-1.02741">
        <ele>185.4</ele>
        <time>2012-05-06T09:48:19Z</time>
      </trkpt>
      <trkpt lat="47.02653" lon="-1.02769">
        <ele>185.3</ele>
        <time>2012-05-06T09:48:22Z</time>
      </trkpt>
      <trkpt lat="47.0265" lon="-1.02805">
        <ele>185.4</ele>
        <time>2012-05-06T09:48:26Z</time>
      </trkpt>
      <trkpt lat="47.02649" lon="-1.02823">
        <ele>185.6</ele>
        <time>2012-05-06T09:48:28Z</time>
      </trkpt>
      <trkpt lat="47.02646" lon="-1.02888">
        <ele>185.5</ele>
        <time>2012-05-06T09:48:35Z</time>
      </trkpt>
      <trkpt lat="47.02643" lon="-1.02925">
        <ele>184.8</ele>
        <time>2012-05-06T09:48:39Z</time>
      </trkpt>
      <trkpt lat="47.0264" lon="-1.0296">
        <ele>184</ele>
        <time>2012-05-06T09:48:43Z</time>
      </trkpt>
      <trkpt lat="47.02638" lon="-1.02988">
        <ele>183.8</ele>
        <time>2012-05-06T09:48:47Z</time>
      </trkpt>
      <trkpt lat="47.02635" lon="-1.03014">
        <ele>184.3</ele>
        <time>2012-05-06T09:48:51Z</time>
      </trkpt>
      <trkpt lat="47.02631" lon="-1.03043">
        <ele>184.2</ele>
        <time>2012-05-06T09:48:55Z</time>
      </trkpt>
      <trkpt lat="47.02622" lon="-1.03107">
        <ele>186.6</ele>
        <time>2012-05-06T09:49:03Z</time>
      </trkpt>
      <trkpt lat="47.02617" lon="-1.0314">
        <ele>186.1</ele>
        <time>2012-05-06T09:49:07Z</time>
      </trkpt>
      <trkpt lat="47.02613" lon="-1.03174">
        <ele>186</ele>
        <time>2012-05-06T09:49:11Z</time>
      </trkpt>
      <trkpt lat="47.02607" lon="-1.03208">
        <ele>185.6</ele>
        <time>2012-05-06T09:49:15Z</time>
      </trkpt>
      <trkpt lat="47.02601" lon="-1.03244">
        <ele>185.8</ele>
        <time>2012-05-06T09:49:19Z</time>
      </trkpt>
      <trkpt lat="47.02595" lon="-1.03281">
        <ele>185.9</ele>
        <time>2012-05-06T09:49:23Z</time>
      </trkpt>
      <trkpt lat="47.02588" lon="-1.03317">
        <ele>186</ele>
        <time>2012-05-06T09:49:27Z</time>
      </trkpt>
      <trkpt lat="47.02582" lon="-1.03353">
        <ele>186</ele>
        <time>2012-05-06T09:49:31Z</time>
      </trkpt>
      <trkpt lat="47.02577" lon="-1.0338">
        <ele>185.9</ele>
        <time>2012-05-06T09:49:34Z</time>
      </trkpt>
      <trkpt lat="47.0257" lon="-1.03415">
        <ele>185.8</ele>
        <time>2012-05-06T09:49:38Z</time>
      </trkpt>
      <trkpt lat="47.02564" lon="-1.0345">
        <ele>185.7</ele>
        <time>2012-05-06T09:49:42Z</time>
      </trkpt>
      <trkpt lat="47.02558" lon="-1.03482">
        <ele>185.5</ele>
        <time>2012-05-06T09:49:46Z</time>
      </trkpt>
      <trkpt lat="47.0256" lon="-1.03496">
        <ele>185.3</ele>
        <time>2012-05-06T09:49:48Z</time>
      </trkpt>
      <trkpt lat="47.02581" lon="-1.03521">
        <ele>184.9</ele>
        <time>2012-05-06T09:49:54Z</time>
      </trkpt>
      <trkpt lat="47.02598" lon="-1.03539">
        <ele>184</ele>
        <time>2012-05-06T09:49:58Z</time>
      </trkpt>
      <trkpt lat="47.02612" lon="-1.03554">
        <ele>183.1</ele>
        <time>2012-05-06T09:50:03Z</time>
      </trkpt>
      <trkpt lat="47.02624" lon="-1.0357">
        <ele>182.3</ele>
        <time>2012-05-06T09:50:07Z</time>
      </trkpt>
      <trkpt lat="47.02638" lon="-1.03594">
        <ele>181.2</ele>
        <time>2012-05-06T09:50:11Z</time>
      </trkpt>
      <trkpt lat="47.02651" lon="-1.03616">
        <ele>180.2</ele>
        <time>2012-05-06T09:50:15Z</time>
      </trkpt>
      <trkpt lat="47.02664" lon="-1.03641">
        <ele>180.2</ele>
        <time>2012-05-06T09:50:19Z</time>
      </trkpt>
      <trkpt lat="47.02676" lon="-1.03666">
        <ele>180.6</ele>
        <time>2012-05-06T09:50:23Z</time>
      </trkpt>
      <trkpt lat="47.02688" lon="-1.03694">
        <ele>180.1</ele>
        <time>2012-05-06T09:50:27Z</time>
      </trkpt>
      <trkpt lat="47.02701" lon="-1.03721">
        <ele>179.4</ele>
        <time>2012-05-06T09:50:31Z</time>
      </trkpt>
      <trkpt lat="47.02714" lon="-1.03748">
        <ele>179.3</ele>
        <time>2012-05-06T09:50:35Z</time>
      </trkpt>
      <trkpt lat="47.02725" lon="-1.03773">
        <ele>179.1</ele>
        <time>2012-05-06T09:50:39Z</time>
      </trkpt>
      <trkpt lat="47.02732" lon="-1.03793">
        <ele>179.3</ele>
        <time>2012-05-06T09:50:43Z</time>
      </trkpt>
      <trkpt lat="47.02731" lon="-1.03806">
        <ele>178.5</ele>
        <time>2012-05-06T09:50:46Z</time>
      </trkpt>
      <trkpt lat="47.02725" lon="-1.03827">
        <ele>177.6</ele>
        <time>2012-05-06T09:50:50Z</time>
      </trkpt>
      <trkpt lat="47.02714" lon="-1.03853">
        <ele>177.9</ele>
        <time>2012-05-06T09:50:54Z</time>
      </trkpt>
      <trkpt lat="47.02702" lon="-1.03875">
        <ele>177.9</ele>
        <time>2012-05-06T09:50:58Z</time>
      </trkpt>
      <trkpt lat="47.02692" lon="-1.039">
        <ele>178</ele>
        <time>2012-05-06T09:51:02Z</time>
      </trkpt>
      <trkpt lat="47.02689" lon="-1.03927">
        <ele>178.2</ele>
        <time>2012-05-06T09:51:06Z</time>
      </trkpt>
      <trkpt lat="47.02688" lon="-1.03954">
        <ele>178.5</ele>
        <time>2012-05-06T09:51:10Z</time>
      </trkpt>
      <trkpt lat="47.02685" lon="-1.03981">
        <ele>179</ele>
        <time>2012-05-06T09:51:14Z</time>
      </trkpt>
      <trkpt lat="47.02685" lon="-1.03995">
        <ele>179.3</ele>
        <time>2012-05-06T09:51:16Z</time>
      </trkpt>
      <trkpt lat="47.02678" lon="-1.04039">
        <ele>178.8</ele>
        <time>2012-05-06T09:51:22Z</time>
      </trkpt>
      <trkpt lat="47.02674" lon="-1.04068">
        <ele>178.7</ele>
        <time>2012-05-06T09:51:26Z</time>
      </trkpt>
      <trkpt lat="47.02674" lon="-1.04083">
        <ele>178.3</ele>
        <time>2012-05-06T09:51:28Z</time>
      </trkpt>
      <trkpt lat="47.02687" lon="-1.04128">
        <ele>177.5</ele>
        <time>2012-05-06T09:51:34Z</time>
      </trkpt>
      <trkpt lat="47.02692" lon="-1.04162">
        <ele>176.6</ele>
        <time>2012-05-06T09:51:38Z</time>
      </trkpt>
      <trkpt lat="47.02694" lon="-1.04196">
        <ele>176.4</ele>
        <time>2012-05-06T09:51:42Z</time>
      </trkpt>
      <trkpt lat="47.02698" lon="-1.0424">
        <ele>175.3</ele>
        <time>2012-05-06T09:51:47Z</time>
      </trkpt>
      <trkpt lat="47.027" lon="-1.04257">
        <ele>175.4</ele>
        <time>2012-05-06T09:51:49Z</time>
      </trkpt>
      <trkpt lat="47.02707" lon="-1.0431">
        <ele>174</ele>
        <time>2012-05-06T09:51:55Z</time>
      </trkpt>
      <trkpt lat="47.02707" lon="-1.04345">
        <ele>173.6</ele>
        <time>2012-05-06T09:51:59Z</time>
      </trkpt>
      <trkpt lat="47.02701" lon="-1.04372">
        <ele>174</ele>
        <time>2012-05-06T09:52:03Z</time>
      </trkpt>
      <trkpt lat="47.02698" lon="-1.0438">
        <ele>173.6</ele>
        <time>2012-05-06T09:52:05Z</time>
      </trkpt>
      <trkpt lat="47.02695" lon="-1.0439">
        <ele>173.8</ele>
        <time>2012-05-06T09:52:11Z</time>
      </trkpt>
      <trkpt lat="47.02695" lon="-1.0439">
        <ele>127</ele>
        <time>2012-05-06T09:52:22Z</time>
      </trkpt>
      <trkpt lat="47.02695" lon="-1.0439">
        <ele>127</ele>
        <time>2012-05-06T09:52:28Z</time>
      </trkpt>
      <trkpt lat="47.02684" lon="-1.04438">
        <ele>173.3</ele>
        <time>2012-05-06T09:52:32Z</time>
      </trkpt>
      <trkpt lat="47.02682" lon="-1.04458">
        <ele>173.2</ele>
        <time>2012-05-06T09:52:36Z</time>
      </trkpt>
      <trkpt lat="47.02683" lon="-1.0447">
        <ele>173.1</ele>
        <time>2012-05-06T09:52:39Z</time>
      </trkpt>
      <trkpt lat="47.0269" lon="-1.04476">
        <ele>172.9</ele>
        <time>2012-05-06T09:52:42Z</time>
      </trkpt>
      <trkpt lat="47.02707" lon="-1.04479">
        <ele>172.3</ele>
        <time>2012-05-06T09:52:46Z</time>
      </trkpt>
      <trkpt lat="47.02736" lon="-1.04488">
        <ele>171.6</ele>
        <time>2012-05-06T09:52:52Z</time>
      </trkpt>
      <trkpt lat="47.02752" lon="-1.045">
        <ele>171.3</ele>
        <time>2012-05-06T09:52:56Z</time>
      </trkpt>
      <trkpt lat="47.02755" lon="-1.04525">
        <ele>172.2</ele>
        <time>2012-05-06T09:53:00Z</time>
      </trkpt>
      <trkpt lat="47.02761" lon="-1.04554">
        <ele>172.2</ele>
        <time>2012-05-06T09:53:04Z</time>
      </trkpt>
      <trkpt lat="47.02764" lon="-1.04595">
        <ele>171.7</ele>
        <time>2012-05-06T09:53:10Z</time>
      </trkpt>
      <trkpt lat="47.02744" lon="-1.04666">
        <ele>171</ele>
        <time>2012-05-06T09:53:20Z</time>
      </trkpt>
      <trkpt lat="47.02737" lon="-1.04698">
        <ele>170.3</ele>
        <time>2012-05-06T09:53:24Z</time>
      </trkpt>
      <trkpt lat="47.02731" lon="-1.0473">
        <ele>171</ele>
        <time>2012-05-06T09:53:28Z</time>
      </trkpt>
      <trkpt lat="47.02718" lon="-1.04773">
        <ele>171.2</ele>
        <time>2012-05-06T09:53:33Z</time>
      </trkpt>
      <trkpt lat="47.02705" lon="-1.0481">
        <ele>170.8</ele>
        <time>2012-05-06T09:53:37Z</time>
      </trkpt>
      <trkpt lat="47.02693" lon="-1.04846">
        <ele>169.5</ele>
        <time>2012-05-06T09:53:41Z</time>
      </trkpt>
      <trkpt lat="47.02686" lon="-1.04862">
        <ele>169.5</ele>
        <time>2012-05-06T09:53:43Z</time>
      </trkpt>
      <trkpt lat="47.02641" lon="-1.04919">
        <ele>168.2</ele>
        <time>2012-05-06T09:53:53Z</time>
      </trkpt>
      <trkpt lat="47.02621" lon="-1.04938">
        <ele>168.1</ele>
        <time>2012-05-06T09:53:57Z</time>
      </trkpt>
      <trkpt lat="47.02604" lon="-1.04962">
        <ele>167.3</ele>
        <time>2012-05-06T09:54:01Z</time>
      </trkpt>
      <trkpt lat="47.0259" lon="-1.04987">
        <ele>168.5</ele>
        <time>2012-05-06T09:54:05Z</time>
      </trkpt>
      <trkpt lat="47.0258" lon="-1.0501">
        <ele>169.1</ele>
        <time>2012-05-06T09:54:09Z</time>
      </trkpt>
      <trkpt lat="47.02573" lon="-1.05029">
        <ele>169.6</ele>
        <time>2012-05-06T09:54:13Z</time>
      </trkpt>
      <trkpt lat="47.02567" lon="-1.05048">
        <ele>170.4</ele>
        <time>2012-05-06T09:54:17Z</time>
      </trkpt>
      <trkpt lat="47.02555" lon="-1.05062">
        <ele>171.2</ele>
        <time>2012-05-06T09:54:21Z</time>
      </trkpt>
      <trkpt lat="47.02547" lon="-1.05069">
        <ele>171.6</ele>
        <time>2012-05-06T09:54:23Z</time>
      </trkpt>
      <trkpt lat="47.02526" lon="-1.0509">
        <ele>172.5</ele>
        <time>2012-05-06T09:54:29Z</time>
      </trkpt>
      <trkpt lat="47.02518" lon="-1.05097">
        <ele>172.7</ele>
        <time>2012-05-06T09:54:31Z</time>
      </trkpt>
      <trkpt lat="47.02503" lon="-1.05112">
        <ele>173.5</ele>
        <time>2012-05-06T09:54:35Z</time>
      </trkpt>
      <trkpt lat="47.02482" lon="-1.05134">
        <ele>174.5</ele>
        <time>2012-05-06T09:54:41Z</time>
      </trkpt>
      <trkpt lat="47.02467" lon="-1.0515">
        <ele>174.8</ele>
        <time>2012-05-06T09:54:45Z</time>
      </trkpt>
      <trkpt lat="47.02453" lon="-1.05168">
        <ele>175.2</ele>
        <time>2012-05-06T09:54:49Z</time>
      </trkpt>
      <trkpt lat="47.02439" lon="-1.05187">
        <ele>175.7</ele>
        <time>2012-05-06T09:54:53Z</time>
      </trkpt>
      <trkpt lat="47.02425" lon="-1.05208">
        <ele>175.8</ele>
        <time>2012-05-06T09:54:57Z</time>
      </trkpt>
      <trkpt lat="47.02418" lon="-1.05218">
        <ele>176</ele>
        <time>2012-05-06T09:54:59Z</time>
      </trkpt>
      <trkpt lat="47.02399" lon="-1.05251">
        <ele>177</ele>
        <time>2012-05-06T09:55:05Z</time>
      </trkpt>
      <trkpt lat="47.02386" lon="-1.05273">
        <ele>177</ele>
        <time>2012-05-06T09:55:09Z</time>
      </trkpt>
      <trkpt lat="47.02373" lon="-1.05297">
        <ele>177</ele>
        <time>2012-05-06T09:55:13Z</time>
      </trkpt>
      <trkpt lat="47.02361" lon="-1.05323">
        <ele>177.5</ele>
        <time>2012-05-06T09:55:17Z</time>
      </trkpt>
      <trkpt lat="47.02357" lon="-1.05337">
        <ele>177.9</ele>
        <time>2012-05-06T09:55:19Z</time>
      </trkpt>
      <trkpt lat="47.02347" lon="-1.05379">
        <ele>179.3</ele>
        <time>2012-05-06T09:55:25Z</time>
      </trkpt>
      <trkpt lat="47.02339" lon="-1.05407">
        <ele>179.9</ele>
        <time>2012-05-06T09:55:29Z</time>
      </trkpt>
      <trkpt lat="47.02329" lon="-1.05437">
        <ele>180.2</ele>
        <time>2012-05-06T09:55:33Z</time>
      </trkpt>
      <trkpt lat="47.02288" lon="-1.05453">
        <ele>179.4</ele>
        <time>2012-05-06T09:55:41Z</time>
      </trkpt>
      <trkpt lat="47.02275" lon="-1.05476">
        <ele>179.5</ele>
        <time>2012-05-06T09:55:45Z</time>
      </trkpt>
      <trkpt lat="47.02245" lon="-1.0552">
        <ele>178.2</ele>
        <time>2012-05-06T09:55:53Z</time>
      </trkpt>
      <trkpt lat="47.0223" lon="-1.0554">
        <ele>177.8</ele>
        <time>2012-05-06T09:55:57Z</time>
      </trkpt>
      <trkpt lat="47.02223" lon="-1.05551">
        <ele>177.5</ele>
        <time>2012-05-06T09:55:59Z</time>
      </trkpt>
      <trkpt lat="47.02208" lon="-1.05592">
        <ele>177.3</ele>
        <time>2012-05-06T09:56:05Z</time>
      </trkpt>
      <trkpt lat="47.02205" lon="-1.05627">
        <ele>177.4</ele>
        <time>2012-05-06T09:56:09Z</time>
      </trkpt>
      <trkpt lat="47.02204" lon="-1.05663">
        <ele>177.2</ele>
        <time>2012-05-06T09:56:13Z</time>
      </trkpt>
      <trkpt lat="47.02203" lon="-1.0568">
        <ele>177</ele>
        <time>2012-05-06T09:56:15Z</time>
      </trkpt>
      <trkpt lat="47.02201" lon="-1.05726">
        <ele>176.7</ele>
        <time>2012-05-06T09:56:20Z</time>
      </trkpt>
      <trkpt lat="47.02198" lon="-1.05773">
        <ele>176.2</ele>
        <time>2012-05-06T09:56:25Z</time>
      </trkpt>
      <trkpt lat="47.02194" lon="-1.05811">
        <ele>175.6</ele>
        <time>2012-05-06T09:56:29Z</time>
      </trkpt>
      <trkpt lat="47.0219" lon="-1.0585">
        <ele>175.3</ele>
        <time>2012-05-06T09:56:33Z</time>
      </trkpt>
      <trkpt lat="47.02185" lon="-1.05892">
        <ele>174.6</ele>
        <time>2012-05-06T09:56:37Z</time>
      </trkpt>
      <trkpt lat="47.02179" lon="-1.05935">
        <ele>174</ele>
        <time>2012-05-06T09:56:41Z</time>
      </trkpt>
      <trkpt lat="47.02173" lon="-1.05979">
        <ele>173.3</ele>
        <time>2012-05-06T09:56:45Z</time>
      </trkpt>
      <trkpt lat="47.02168" lon="-1.06024">
        <ele>172.3</ele>
        <time>2012-05-06T09:56:49Z</time>
      </trkpt>
      <trkpt lat="47.02162" lon="-1.06069">
        <ele>169.9</ele>
        <time>2012-05-06T09:56:53Z</time>
      </trkpt>
      <trkpt lat="47.02158" lon="-1.06109">
        <ele>168.2</ele>
        <time>2012-05-06T09:56:57Z</time>
      </trkpt>
      <trkpt lat="47.02153" lon="-1.06136">
        <ele>167.7</ele>
        <time>2012-05-06T09:57:00Z</time>
      </trkpt>
      <trkpt lat="47.02122" lon="-1.06145">
        <ele>165.8</ele>
        <time>2012-05-06T09:57:05Z</time>
      </trkpt>
      <trkpt lat="47.02098" lon="-1.06145">
        <ele>164.9</ele>
        <time>2012-05-06T09:57:09Z</time>
      </trkpt>
      <trkpt lat="47.02088" lon="-1.06151">
        <ele>164.8</ele>
        <time>2012-05-06T09:57:11Z</time>
      </trkpt>
      <trkpt lat="47.02089" lon="-1.062">
        <ele>164.1</ele>
        <time>2012-05-06T09:57:17Z</time>
      </trkpt>
      <trkpt lat="47.0209" lon="-1.06218">
        <ele>163.7</ele>
        <time>2012-05-06T09:57:19Z</time>
      </trkpt>
      <trkpt lat="47.02091" lon="-1.06251">
        <ele>163.5</ele>
        <time>2012-05-06T09:57:23Z</time>
      </trkpt>
      <trkpt lat="47.02092" lon="-1.06293">
        <ele>163.6</ele>
        <time>2012-05-06T09:57:29Z</time>
      </trkpt>
      <trkpt lat="47.02091" lon="-1.06306">
        <ele>163.3</ele>
        <time>2012-05-06T09:57:31Z</time>
      </trkpt>
      <trkpt lat="47.02077" lon="-1.0633">
        <ele>162.9</ele>
        <time>2012-05-06T09:57:37Z</time>
      </trkpt>
      <trkpt lat="47.02048" lon="-1.06362">
        <ele>162.8</ele>
        <time>2012-05-06T09:57:45Z</time>
      </trkpt>
      <trkpt lat="47.02043" lon="-1.06371">
        <ele>162.3</ele>
        <time>2012-05-06T09:57:47Z</time>
      </trkpt>
      <trkpt lat="47.02047" lon="-1.06392">
        <ele>161.5</ele>
        <time>2012-05-06T09:57:52Z</time>
      </trkpt>
      <trkpt lat="47.02064" lon="-1.06427">
        <ele>161</ele>
        <time>2012-05-06T09:57:57Z</time>
      </trkpt>
      <trkpt lat="47.0208" lon="-1.06456">
        <ele>161.4</ele>
        <time>2012-05-06T09:58:01Z</time>
      </trkpt>
      <trkpt lat="47.02095" lon="-1.06482">
        <ele>160.3</ele>
        <time>2012-05-06T09:58:05Z</time>
      </trkpt>
      <trkpt lat="47.0211" lon="-1.06512">
        <ele>159.6</ele>
        <time>2012-05-06T09:58:09Z</time>
      </trkpt>
      <trkpt lat="47.021" lon="-1.06553">
        <ele>157.7</ele>
        <time>2012-05-06T09:58:13Z</time>
      </trkpt>
      <trkpt lat="47.02086" lon="-1.06585">
        <ele>156.7</ele>
        <time>2012-05-06T09:58:17Z</time>
      </trkpt>
      <trkpt lat="47.02076" lon="-1.06609">
        <ele>156.2</ele>
        <time>2012-05-06T09:58:20Z</time>
      </trkpt>
      <trkpt lat="47.02068" lon="-1.06653">
        <ele>154.9</ele>
        <time>2012-05-06T09:58:25Z</time>
      </trkpt>
      <trkpt lat="47.02069" lon="-1.0669">
        <ele>154.4</ele>
        <time>2012-05-06T09:58:29Z</time>
      </trkpt>
      <trkpt lat="47.02066" lon="-1.06727">
        <ele>154</ele>
        <time>2012-05-06T09:58:33Z</time>
      </trkpt>
      <trkpt lat="47.02058" lon="-1.06763">
        <ele>153.1</ele>
        <time>2012-05-06T09:58:37Z</time>
      </trkpt>
      <trkpt lat="47.0205" lon="-1.06799">
        <ele>152.7</ele>
        <time>2012-05-06T09:58:41Z</time>
      </trkpt>
      <trkpt lat="47.02039" lon="-1.06834">
        <ele>152.7</ele>
        <time>2012-05-06T09:58:45Z</time>
      </trkpt>
      <trkpt lat="47.02024" lon="-1.06853">
        <ele>152.5</ele>
        <time>2012-05-06T09:58:48Z</time>
      </trkpt>
      <trkpt lat="47.02004" lon="-1.06875">
        <ele>152.5</ele>
        <time>2012-05-06T09:58:52Z</time>
      </trkpt>
      <trkpt lat="47.01985" lon="-1.06893">
        <ele>152.6</ele>
        <time>2012-05-06T09:58:56Z</time>
      </trkpt>
      <trkpt lat="47.01964" lon="-1.06899">
        <ele>152.1</ele>
        <time>2012-05-06T09:59:00Z</time>
      </trkpt>
      <trkpt lat="47.01954" lon="-1.06899">
        <ele>152.4</ele>
        <time>2012-05-06T09:59:02Z</time>
      </trkpt>
      <trkpt lat="47.01946" lon="-1.06874">
        <ele>152.2</ele>
        <time>2012-05-06T09:59:08Z</time>
      </trkpt>
      <trkpt lat="47.01952" lon="-1.06852">
        <ele>152.3</ele>
        <time>2012-05-06T09:59:13Z</time>
      </trkpt>
      <trkpt lat="47.01952" lon="-1.06852">
        <ele>104.8</ele>
        <time>2012-05-06T09:59:24Z</time>
      </trkpt>
      <trkpt lat="47.01952" lon="-1.06852">
        <ele>104.8</ele>
        <time>2012-05-06T09:59:50Z</time>
      </trkpt>
    </trkseg>
  </trk>
</gpx>